19:04:03.0037 T:3074115360 M:616034304  NOTICE: -----------------------------------------------------------------------
19:04:03.0038 T:3074115360 M:616038400  NOTICE: Starting XBMC, Platform: GNU/Linux.  Built on Feb 10 2011 (SVN:17443)
19:04:03.0038 T:3074115360 M:616038400  NOTICE: special://xbmc/ is mapped to: /opt/boxee
19:04:03.0039 T:3074115360 M:616038400  NOTICE: special://masterprofile/ is mapped to: //.boxee/UserData
19:04:03.0039 T:3074115360 M:616038400  NOTICE: special://home/ is mapped to: //.boxee/UserData
19:04:03.0039 T:3074115360 M:616038400  NOTICE: special://temp/ is mapped to: /tmp/boxee
19:04:03.0039 T:3074115360 M:616038400  NOTICE: special://userhome/ is mapped to: /
19:04:03.0040 T:3074115360 M:616038400  NOTICE: The executable running is: /opt/boxee/Boxee
19:04:03.0040 T:3074115360 M:616038400  NOTICE: Log File is located: /tmp/root-boxee.log
19:04:03.0040 T:3074115360 M:616038400  NOTICE: -----------------------------------------------------------------------
19:04:03.0050 T:3074115360 M:615976960  NOTICE: Setup SDL
19:04:03.0063 T:3074115360 M:615981056    NONE: Display <0> supports the following modes:
19:04:03.0066 T:3074115360 M:615981056    NONE: Resolution: 720x480p60 - ignored
19:04:03.0067 T:3074115360 M:615981056    NONE: Resolution: 720x480p59.94 - added
19:04:03.0067 T:3074115360 M:615981056    NONE: Resolution: 720x576p50 - added
19:04:03.0068 T:3074115360 M:615981056    NONE: Resolution: 1280x720p60 - ignored
19:04:03.0069 T:3074115360 M:615981056    NONE: Resolution: 1280x720p59.94 - added
19:04:03.0071 T:3074115360 M:615981056    NONE: Resolution: 1280x720p50 - added
19:04:03.0072 T:3074115360 M:615981056    NONE: Resolution: 1920x1080i60 - ignored
19:04:03.0072 T:3074115360 M:615981056    NONE: Resolution: 1920x1080i59.94 - added
19:04:03.0073 T:3074115360 M:615981056    NONE: Resolution: 1920x1080i50 - added
19:04:03.0075 T:3074115360 M:615981056    NONE: Found 720p at 14, setting to desktop
19:04:03.0075 T:3074115360 M:615981056    INFO: Drives are mapped
19:04:03.0075 T:3074115360 M:615981056  NOTICE: load settings...
19:04:03.0076 T:3074115360 M:615981056  NOTICE: special://profile/ is mapped to: special://masterprofile/
19:04:03.0076 T:3074115360 M:615981056  NOTICE: loading special://masterprofile/guisettings.xml
19:04:03.0086 T:3074115360 M:615854080    INFO: Writing to syslog disabled
19:04:03.0099 T:3074115360 M:615854080  NOTICE: Getting hardware information now...
19:04:03.0099 T:3074115360 M:615854080    INFO: Using all outputs
19:04:03.0099 T:3074115360 M:615854080    INFO: AC3 pass through is enabled
19:04:03.0099 T:3074115360 M:615854080    INFO: DTS pass through is enabled
19:04:03.0100 T:3074115360 M:615854080    INFO: EAC3 pass through is disabled
19:04:03.0100 T:3074115360 M:615854080    INFO: TrueHD pass through is disabled
19:04:03.0100 T:3074115360 M:615854080    INFO: DTS-HD pass through is disabled
19:04:03.0100 T:3074115360 M:615854080    INFO: LPCM71 pass through is disabled
19:04:03.0101 T:3074115360 M:615854080    INFO: Audio library is ALSA
19:04:03.0101 T:3074115360 M:615854080  NOTICE: Checking resolution 15
19:04:03.0101 T:3074115360 M:615854080  NOTICE: Loading player core factory settings from special://xbmc/system/playercorefactory.xml.
19:04:03.0135 T:3074115360 M:615895040  NOTICE: Loaded playercorefactory configuration
19:04:03.0136 T:3074115360 M:615895040  NOTICE: Loading player core factory settings from special://masterprofile/playercorefactory.xml.
19:04:03.0137 T:3074115360 M:615895040  NOTICE: special://masterprofile/playercorefactory.xml does not exist. Skipping.
19:04:03.0137 T:3074115360 M:615895040  NOTICE: No advancedsettings.xml to load (special://masterprofile/advancedsettings.xml)
19:04:03.0138 T:3074115360 M:615895040  NOTICE: Default DVD Player: dvdplayer
19:04:03.0138 T:3074115360 M:615895040  NOTICE: Default Video Player: dvdplayer
19:04:03.0138 T:3074115360 M:615895040  NOTICE: Default Audio Player: paplayer
19:04:03.0139 T:3074115360 M:615895040  NOTICE: special://masterprofile/sources.xml
19:04:03.0171 T:3074115360 M:615899136    NONE: WinSystemGDL creating new window: Width = 1280  Height = 720
19:04:03.0172 T:3074115360 M:615903232    NONE: WinSystemGDL overscan values left 37 top 23 right 1242 bottom 697
19:04:03.0395 T:3074115360 M:615919616    NONE:  - Manufacturer ID        : 0x2d4c
19:04:03.0396 T:3074115360 M:615919616    NONE:  - Product code           : 0x02a4
19:04:03.0396 T:3074115360 M:615919616    NONE:  - HDMI                   : yes
19:04:03.0396 T:3074115360 M:615919616    NONE:  - YCbCr444               : yes
19:04:03.0396 T:3074115360 M:615919616    NONE:  - YCbCr422               : yes
19:04:03.0397 T:3074115360 M:615919616    NONE:  - 30 bit color           : no
19:04:03.0397 T:3074115360 M:615919616    NONE:  - 36 bit color           : no
19:04:03.0397 T:3074115360 M:615919616    NONE:  - YCbCr444 in deep color : no
19:04:03.0397 T:3074115360 M:615919616    NONE:  - xvycc601 colorimetry   : no
19:04:03.0397 T:3074115360 M:615919616    NONE:  - xvycc709 colorimetry   : no
19:04:03.0398 T:3074115360 M:615919616    NONE:  - Supports AI            : yes
19:04:03.0398 T:3074115360 M:615919616    NONE:  - Max TMDS clock         : 0
19:04:03.0398 T:3074115360 M:615919616    NONE:  - Latency valid          : no
19:04:03.0398 T:3074115360 M:615919616    NONE:  - Latency int valid      : no
19:04:03.0399 T:3074115360 M:615919616    NONE:  - Source Physical Address: 2.0.0.0
19:04:03.0399 T:3074115360 M:615919616    NONE:  - Speaker map            :
19:04:03.0415 T:3074115360 M:615919616    NONE:  - HDCP support           : yes
19:04:03.0416 T:3074115360 M:615919616    NONE:  - HDCP 1.1               : no
19:04:03.0416 T:3074115360 M:615919616    NONE:  - Repeater               : no
19:04:03.0435 T:3074115360 M:615919616    NONE: GDL plane setup complete
19:04:03.0475 T:3074115360 M:603009024    INFO: EGL window and context creation complete
19:04:03.0475 T:3074115360 M:603009024    NONE: GDL plane attach to EGL complete
19:04:03.0476 T:3074115360 M:603009024    INFO: LIRC device not found
19:04:03.0477 T:3074115360 M:603009024    INFO: LIRC InitializeInternal: sucessfully started on: /var/run/lirc/lircd
19:04:03.0477 T:3074115360 M:603009024  NOTICE: GL_VENDOR = Intel Corporation
19:04:03.0477 T:3074115360 M:603009024  NOTICE: GL_RENDERER = Intel(R) GMA 500 based on PowerVR SGX 535
19:04:03.0477 T:3074115360 M:603009024  NOTICE: GL_VERSION = OpenGL ES 2.0
19:04:03.0478 T:3074115360 M:603009024  NOTICE: GL_EXTENSIONS = GL_OES_rgb8_rgba8 GL_OES_depth24 GL_OES_vertex_half_float GL_OES_texture_float GL_OES_texture_half_float GL_OES_element_index_uint GL_OES_mapbuffer GL_OES_fragment_precision_high GL_OES_compressed_ETC1_RGB8_texture GL_OES_EGL_image GL_OES_required_internalformat GL_OES_depth_texture GL_OES_get_program_binary GL_OES_standard_derivatives GL_EXT_multi_draw_arrays GL_EXT_texture_filter_anisotropic GL_EXT_texture_format_BGRA8888 GL_IMG_shader_binary GL_IMG_texture_compression_pvrtc GL_IMG_texture_npot GL_IMG_texture_format_BGRA8888 GL_IMG_read_format GL_IMG_program_binary
19:04:03.0478 T:3074115360 M:603009024    INFO: CGraphicContext::SetVideoResolution res = 15 width = 1280  height = 720 screen id = 0
19:04:03.0517 T:3074115360 M:607461376    NONE: WinSystemGDL creating new window: Width = 1280  Height = 720
19:04:03.0517 T:3074115360 M:607461376    NONE: WinSystemGDL overscan values left 37 top 23 right 1242 bottom 697
19:04:03.0518 T:3074115360 M:607461376    NONE:  - Manufacturer ID        : 0x2d4c
19:04:03.0518 T:3074115360 M:607461376    NONE:  - Product code           : 0x02a4
19:04:03.0518 T:3074115360 M:607461376    NONE:  - HDMI                   : yes
19:04:03.0519 T:3074115360 M:607461376    NONE:  - YCbCr444               : yes
19:04:03.0519 T:3074115360 M:607461376    NONE:  - YCbCr422               : yes
19:04:03.0519 T:3074115360 M:607461376    NONE:  - 30 bit color           : no
19:04:03.0519 T:3074115360 M:607461376    NONE:  - 36 bit color           : no
19:04:03.0520 T:3074115360 M:607461376    NONE:  - YCbCr444 in deep color : no
19:04:03.0520 T:3074115360 M:607461376    NONE:  - xvycc601 colorimetry   : no
19:04:03.0520 T:3074115360 M:607338496    NONE:  - xvycc709 colorimetry   : no
19:04:03.0520 T:3074115360 M:607338496    NONE:  - Supports AI            : yes
19:04:03.0521 T:3074115360 M:607338496    NONE:  - Max TMDS clock         : 0
19:04:03.0521 T:3074115360 M:607338496    NONE:  - Latency valid          : no
19:04:03.0521 T:3074115360 M:607338496    NONE:  - Latency int valid      : no
19:04:03.0521 T:3074115360 M:607338496    NONE:  - Source Physical Address: 2.0.0.0
19:04:03.0522 T:3074115360 M:607338496    NONE:  - Speaker map            :
19:04:03.0539 T:3074115360 M:607346688    NONE:  - HDCP support           : yes
19:04:03.0540 T:3074115360 M:607346688    NONE:  - HDCP 1.1               : no
19:04:03.0540 T:3074115360 M:607346688    NONE:  - Repeater               : no
19:04:03.0555 T:3074115360 M:607346688    NONE: GDL plane setup complete
19:04:03.0562 T:3074115360 M:602886144    INFO: EGL window and context creation complete
19:04:03.0563 T:3074115360 M:602886144    NONE: GDL plane attach to EGL complete
19:04:03.0563 T:3074115360 M:602886144    INFO: GL: Maximum texture width: 2048
19:04:04.0288 T:3074115360 M:592793600    INFO: load language info file: special://xbmc/language/English/langinfo.xml
19:04:04.0295 T:3074115360 M:592674816    INFO: load language file:/opt/boxee/language/English/strings.xml
19:04:04.0413 T:3074115360 M:591622144    INFO: load keymapping
19:04:04.0428 T:3074115360 M:591622144    INFO: Loading special://xbmc/system/keymaps/gamepad.xml
19:04:04.0451 T:3074115360 M:591667200    INFO: Loading special://xbmc/system/keymaps/joystick.AppleRemote.xml
19:04:04.0457 T:3074115360 M:591679488    INFO: Loading special://xbmc/system/keymaps/joystick.Harmony.xml
19:04:04.0470 T:3074115360 M:591577088    INFO: Loading special://xbmc/system/keymaps/joystick.Microsoft.Xbox.Controller.S.xml
19:04:04.0484 T:3074115360 M:591601664    INFO: Loading special://xbmc/system/keymaps/joystick.Sony.PLAYSTATION(R)3.Controller.xml
19:04:04.0486 T:3074115360 M:591605760    INFO: Loading special://xbmc/system/keymaps/joystick.WiiRemote.xml
19:04:04.0493 T:3074115360 M:591618048    INFO: Loading special://xbmc/system/keymaps/keyboard.xml
19:04:04.0502 T:3074115360 M:591659008 WARNING: Keyboard Translator: Can't find button f15
19:04:04.0504 T:3074115360 M:591659008 WARNING: Keymapping error: no such action 'tabnext' defined
19:04:04.0505 T:3074115360 M:591659008 WARNING: Keyboard Translator: Can't find button volumeup
19:04:04.0505 T:3074115360 M:591659008 WARNING: Keyboard Translator: Can't find button volumedown
19:04:04.0506 T:3074115360 M:591659008 WARNING: Keyboard Translator: Can't find button mute
19:04:04.0522 T:3074115360 M:591659008    INFO: Loading special://xbmc/system/keymaps/remote.xml
19:04:04.0554 T:3074115360 M:591679488    INFO: Loading special://xbmc/system/Lircmap.xml
19:04:04.0562 T:3074115360 M:591687680    INFO: load charsets
19:04:04.0564 T:3074115360 M:591695872    INFO: Checking skin version of: boxee
19:04:04.0565 T:3074115360 M:591572992    INFO: Skin version is: 2.1 (2.100000)
19:04:04.0566 T:3074115360 M:591572992    INFO:  GUI format 1280x720 720p 50Hz
19:04:04.0646 T:3074115360 M:587436032    INFO: need to create new cache db
19:04:04.0700 T:3074115360 M:587509760    INFO: CIntelSMDAudioRenderer Initialize
19:04:04.0700 T:3074115360 M:587509760    INFO: CIntelSMDAudioRenderer::Initialize ismdAudioInputFormat = 1
19:04:04.0700 T:3074115360 M:587509760    INFO: CIntelSMDAudioRenderer::Initialize not using passthrough
19:04:04.0701 T:3074115360 M:587509760    INFO: CIntelSMDAudioRenderer::Initialize - Channels: 2 - SampleRate: 44100 - SampleBit: 16 - Resample false - Codec gui - IsMusic true - IsPassthrough false - AllOuts true
19:04:05.0165 T:3074115360 M:587091968    INFO: CIntelSMDAudioRenderer::Initialize done
19:04:05.0166 T:3074115360 M:587083776    INFO: creating subdirectories
19:04:05.0167 T:3074115360 M:587083776    INFO: userdata folder: special://masterprofile/
19:04:05.0167 T:3074115360 M:587083776    INFO:   recording folder:
19:04:05.0167 T:3074115360 M:587083776    INFO:   screenshots folder:special://home/screenshots
19:04:05.0170 T:3074115360 M:587087872    INFO:   thumbnails folder:special://masterprofile/Thumbnails
19:04:05.0182 T:3074115360 M:587116544  NOTICE: initializing playlistplayer
19:04:05.0183 T:3074115360 M:587116544  NOTICE: DONE initializing playlistplayer
19:04:05.0252 T:3024526224 M:587194368    INFO: CCheckInternetConnectionJob::DoWork - begin
19:04:05.0260 T:3074115360 M:587169792  NOTICE: load default skin:[boxee]
19:04:05.0260 T:3074115360 M:587169792    INFO:   load skin from:special://xbmc/skin/boxee
19:04:05.0261 T:3074115360 M:587169792    INFO:   delete old skin...
19:04:05.0261 T:3074115360 M:587169792    INFO: Default 4:3 resolution directory is special://xbmc/skin/boxee/720p
19:04:05.0262 T:3074115360 M:587169792    INFO: Default 16:9 resolution directory is special://xbmc/skin/boxee/720p
19:04:05.0262 T:3074115360 M:587169792    INFO: Skin version is: 2.1
19:04:05.0264 T:3074115360 M:587169792    INFO: Loading skin includes from /opt/boxee/skin/boxee/720p/includes.xml
19:04:05.0440 T:3074115360 M:585572352    INFO:   load fonts for skin...
19:04:05.0452 T:3074115360 M:585584640    INFO: Loading fonts from special://xbmc/skin/boxee/720p/Font.xml
19:04:05.0504 T:3024526224 M:585613312 WARNING: CPingJob::DoWork - Going to check ping. [server=1][internet=1] (ping)
19:04:05.0678 T:3074115360 M:578035712    INFO:   load new skin...
19:04:05.0679 T:3074115360 M:578035712    INFO: Skin version is: 2.1 (2.100000)
19:04:05.0702 T:3074115360 M:577916928    INFO: Loading user windows, path special://xbmc/skin/boxee/720p
19:04:05.0706 T:3074115360 M:577916928    INFO: Loading skin file: special://xbmc/skin/boxee/720p/custom_boxee_osd_settings.xml
19:04:05.0710 T:3074115360 M:577921024    INFO: Loading skin file: special://xbmc/skin/boxee/720p/custom_boxee_credits.xml
19:04:05.0713 T:3074115360 M:577925120    INFO: Loading user windows, path special://xbmc/skin/boxee/720p
19:04:05.0716 T:3074115360 M:577925120    INFO: Loading skin file: special://xbmc/skin/boxee/720p/custom_boxee_osd_settings.xml
19:04:05.0718 T:3074115360 M:577925120    INFO: Loading skin file: special://xbmc/skin/boxee/720p/custom_boxee_credits.xml
19:04:05.0720 T:3074115360 M:577925120    INFO: Loading user windows, path special://xbmc/skin/boxee/720p
19:04:05.0724 T:3074115360 M:577925120    INFO: Loading skin file: special://xbmc/skin/boxee/720p/custom_boxee_osd_settings.xml
19:04:05.0726 T:3074115360 M:577925120    INFO: Loading skin file: special://xbmc/skin/boxee/720p/custom_boxee_credits.xml
19:04:05.0838 T:3024526224 M:568352768 WARNING: CPingJob::DoWork - Check ping returned [retCode=200][Response-IsEmpty=0]. [server=1][internet=1] (ping)
19:04:05.0902 T:3074115360 M:565010432    INFO:   initialize new skin...
19:04:06.0040 T:3074115360 M:564723712    INFO: Loading special://xbmc/skin/boxee/sounds/sounds.xml
19:04:06.0046 T:3074115360 M:564727808    INFO:   skin loaded...
19:04:06.0086 T:3074115360 M:564752384  NOTICE: Webserver: Starting...
19:04:06.0087 T:3030780816 M:564744192    INFO: WebServer: Server starting using /opt/boxee/web on 192.168.1.10:8800
19:04:06.0088 T:3030780816 M:564744192  NOTICE: Webserver: Started
19:04:06.0089 T:3074115360 M:564744192  NOTICE: starting upnp client
19:04:06.0094 T:3074115360 M:564711424  NOTICE: ES: Starting event server
19:04:06.0095 T:2993585040 M:564703232  NOTICE: ES: Starting UDP Event server on 127.0.0.1:9770
19:04:06.0096 T:2993585040 M:564703232  NOTICE: UDP: Listening on port 9770
19:04:06.0096 T:3074115360 M:564703232    INFO: Found input device /dev/input/event0
19:04:06.0097 T:3074115360 M:564703232    INFO: opened device 'D-Link Boxee D-Link Boxee Receiver 0.11' (file name /dev/input/event0), m_bSkipNonKeyEvents 1
19:04:06.0097 T:3074115360 M:564703232    INFO: Found input device /dev/input/event1
19:04:06.0098 T:3074115360 M:564703232    INFO: opened device 'D-Link Boxee D-Link Boxee Receiver 0.11' (file name /dev/input/event1), m_bSkipNonKeyEvents 1
19:04:06.0098 T:3074115360 M:564703232    INFO: Found input device /dev/input/event2
19:04:06.0099 T:3074115360 M:564707328    INFO: opened device 'D-Link Boxee D-Link Boxee Receiver 0.11' (file name /dev/input/event2), m_bSkipNonKeyEvents 1
19:04:06.0286 T:3024526224 M:547483648 WARNING: CBoxeeVersionUpdateManager::CheckForUpdate - Check update for [chkupdUrl=http://app.boxee.tv/chkupd/dlink.dsm380/1.0.4.17443/9/A1/US/QL031AA001059] returned [Response-IsEmpty=0] (update)
19:04:06.0646 T:3022420880 M:563249152    INFO: CGUIDialogBoxeeLoggingIn::OnLoginEnded - Update profile [1] (up)(login)
19:04:06.0655 T:3074115360 M:563261440    INFO: Loading profile [1] (login)
19:04:06.0736 T:3074115360 M:563273728  NOTICE: special://profile/ is mapped to: special://masterprofile/profiles/jvr1976
19:04:06.0736 T:3074115360 M:563273728  NOTICE: loading special://masterprofile/guisettings.xml
19:04:06.0746 T:3074115360 M:563273728    INFO: Writing to syslog disabled
19:04:06.0747 T:3074115360 M:563273728  NOTICE: Getting hardware information now...
19:04:06.0747 T:3074115360 M:563273728    INFO: Using all outputs
19:04:06.0747 T:3074115360 M:563273728    INFO: AC3 pass through is enabled
19:04:06.0748 T:3074115360 M:563273728    INFO: DTS pass through is enabled
19:04:06.0748 T:3074115360 M:563273728    INFO: EAC3 pass through is disabled
19:04:06.0748 T:3074115360 M:563273728    INFO: TrueHD pass through is disabled
19:04:06.0748 T:3074115360 M:563273728    INFO: DTS-HD pass through is disabled
19:04:06.0748 T:3074115360 M:563273728    INFO: LPCM71 pass through is disabled
19:04:06.0749 T:3074115360 M:563273728    INFO: Audio library is ALSA
19:04:06.0749 T:3074115360 M:563273728  NOTICE: Checking resolution 15
19:04:06.0749 T:3074115360 M:563273728  NOTICE: Loading player core factory settings from special://xbmc/system/playercorefactory.xml.
19:04:06.0751 T:3074115360 M:563273728  NOTICE: Loaded playercorefactory configuration
19:04:06.0752 T:3074115360 M:563273728  NOTICE: Loading player core factory settings from special://masterprofile/playercorefactory.xml.
19:04:06.0753 T:3074115360 M:563273728  NOTICE: special://masterprofile/playercorefactory.xml does not exist. Skipping.
19:04:06.0754 T:3074115360 M:563273728  NOTICE: No advancedsettings.xml to load (special://masterprofile/advancedsettings.xml)
19:04:06.0754 T:3074115360 M:563273728  NOTICE: Default DVD Player: dvdplayer
19:04:06.0754 T:3074115360 M:563273728  NOTICE: Default Video Player: dvdplayer
19:04:06.0754 T:3074115360 M:563273728  NOTICE: Default Audio Player: paplayer
19:04:06.0756 T:3074115360 M:563273728  NOTICE: special://masterprofile/profiles/jvr1976/sources.xml
19:04:06.0781 T:3074115360 M:563281920    INFO:   thumbnails folder:special://masterprofile/profiles/jvr1976/Thumbnails
19:04:07.0070 T:3074115360 M:563159040    INFO: need to create new cache db
19:04:07.0154 T:3074115360 M:562405376 WARNING: CHttpCacheManager::Deinitialize - url <http://app.boxee.tv/api/login> has open event handle
19:04:07.0155 T:3074115360 M:562278400 WARNING: CHttpCacheManager::Deinitialize - url <http://app.boxee.tv/api/get_applications> has 1 open references
19:04:07.0156 T:3074115360 M:562278400 WARNING: CHttpCacheManager::Deinitialize - url <http://app.boxee.tv/api/get_featured> has 1 open references
19:04:07.0156 T:3074115360 M:562278400 WARNING: CHttpCacheManager::Deinitialize - url <http://app.boxee.tv/api/get_queue> has 1 open references
19:04:07.0156 T:3074115360 M:562278400 WARNING: CHttpCacheManager::Deinitialize - url <http://app.boxee.tv/api/get_recommendations> has 1 open references
19:04:07.0157 T:3074115360 M:562278400 WARNING: CHttpCacheManager::Deinitialize - url <http://app.boxee.tv/api/get_services> has 1 open references
19:04:07.0157 T:3074115360 M:562278400 WARNING: CHttpCacheManager::Deinitialize - url <http://app.boxee.tv/api/get_subscriptions> has 1 open references
19:04:07.0157 T:3074115360 M:562278400 WARNING: CHttpCacheManager::Deinitialize - url <http://app.boxee.tv/applications/popularity> has 1 open references
19:04:07.0157 T:3074115360 M:562278400 WARNING: CHttpCacheManager::Deinitialize - url <http://app.boxee.tv/titles/sources> has 1 open references
19:04:07.0167 T:3074115360 M:562143232    INFO: //.boxee/UserData/profiles/jvr1976/browser - check if it's a soft link and needs to be deleted (lstat 0) (file mode 16877)
19:04:07.0380 T:3074115360 M:561319936 WARNING: Init rssfeeds.xml does not exist, RSS ticker will be disabled.
19:04:07.0381 T:3074115360 M:561319936 WARNING: FAILED to initialize RSS Source Manager (login)
19:04:08.0229 T:3022420880 M:560320512 WARNING: CHttpCacheManager::UpdateRefMap negative reference count for url http://app.boxee.tv/api/get_recommendations (hcm)
19:04:08.0233 T:3024526224 M:560320512 WARNING: CHttpCacheManager::UpdateRefMap negative reference count for url http://app.boxee.tv/api/get_queue (hcm)
19:04:08.0237 T:3040865168 M:560320512 WARNING: CHttpCacheManager::UpdateRefMap negative reference count for url http://app.boxee.tv/api/get_subscriptions (hcm)
19:04:08.0243 T:3038759824 M:560320512 WARNING: CHttpCacheManager::UpdateRefMap negative reference count for url http://app.boxee.tv/titles/sources (hcm)
19:04:08.0252 T:3035601808 M:560324608 WARNING: CHttpCacheManager::UpdateRefMap negative reference count for url http://app.boxee.tv/applications/popularity (hcm)
19:04:08.0298 T:3041917840 M:560324608 WARNING: CHttpCacheManager::UpdateRefMap negative reference count for url http://app.boxee.tv/api/get_applications (hcm)
19:04:08.0303 T:3039812496 M:560324608 WARNING: CHttpCacheManager::UpdateRefMap negative reference count for url http://app.boxee.tv/api/get_services (hcm)
19:04:08.0319 T:3037707152 M:560349184 WARNING: CHttpCacheManager::UpdateRefMap negative reference count for url http://app.boxee.tv/api/get_featured (hcm)
19:04:08.0371 T:3074115360 M:560336896    INFO: Boxee File Scanner, Started (filescanner)
19:04:08.0492 T:3074115360 M:558972928    INFO: removing tempfiles
19:04:08.0494 T:3074115360 M:558972928  NOTICE: initialize done
19:04:09.0826 T:3074115360 M:556380160  NOTICE: Running the application...
19:04:09.0827 T:3074115360 M:556253184    INFO: XBPython::Initialize, initializing python engine.
19:04:10.0489 T:3074115360 M:553615360  NOTICE: -->Python Interpreter Initialized<--
19:04:10.0636 T:3036654480 M:543707136  NOTICE: -->Python Interpreter Initialized<--
19:04:10.0653 T:3036654480 M:538886144    INFO: Scriptresult: Success
19:04:11.0220 T:3036654480 M:549957632    INFO: Python script stopped
19:04:13.0305 T:3040865168 M:542531584 WARNING: ReadFeed - RSS Init failed, could not parse feed http://res.boxee.tv/title/movie/?h=96ba5165bb68e4e3%3a1468753920&name=Ni%C3%B1os%20Grandes. Reason: (null), Row: -1 Col: -1
19:04:13.0662 T:3040865168 M:542605312 WARNING: ReadFeed - RSS Init failed, could not parse feed http://res.boxee.tv/title/movie/?h=96ba5165bb68e4e3%3a1468753920&name=Ni%c3%b1os%20Grandes. Reason: (null), Row: -1 Col: -1
19:04:14.0120 T:3040865168 M:541995008   ERROR: CMetadataResolver::Resolve - exit and return [2] for folder [/tmp/mnt/CA5CEACD5CEAB37D/PELICULAS/Niños Grandes [DVDSCREENER][Xvid][Spanish][SpaTorrent.com]/] (resolver)
19:04:15.0576 T:3040865168 M:542261248 WARNING: ReadFeed - RSS Init failed, could not parse feed http://res.boxee.tv/title/movie/?h=ca59307bc859c2fc%3a1285031936&name=Mi%20segunda%20vez. Reason: (null), Row: -1 Col: -1
19:04:15.0770 T:3074115360 M:542158848 WARNING: CGUIDialogBoxeeBrowseMenu::CheckMenuConsistency, could not find the corresponding button : [0] (browsemenu)(menureload)
19:04:15.0770 T:3074115360 M:542158848    INFO: read an absolute event which will be ignored (device name D-Link Boxee D-Link Boxee Receiver 0.11) (file name /dev/input/event0)
19:04:15.0781 T:3022420880 M:542158848    INFO: WEATHER: Downloading weather
19:04:15.0866 T:3074115360 M:541904896    INFO: read an absolute event which will be ignored (device name D-Link Boxee D-Link Boxee Receiver 0.11) (file name /dev/input/event0)
19:04:15.0950 T:3040865168 M:541904896 WARNING: ReadFeed - RSS Init failed, could not parse feed http://res.boxee.tv/title/movie/?h=ca59307bc859c2fc%3a1285031936&name=Mi%20segunda%20vez. Reason: (null), Row: -1 Col: -1
19:04:16.0344 T:3022420880 M:541904896    INFO: WEATHER: Weather download successful
19:04:16.0971 T:3040865168 M:541908992   ERROR: CMetadataResolver::Resolve - exit and return [2] for folder [/tmp/mnt/CA5CEACD5CEAB37D/PELICULAS/Mi segunda vez [BRSCREENER][Xvid][Spanish][SpaTorrent.com]/] (resolver)
19:04:17.0499 T:3074115360 M:541929472 WARNING: CGUIDialogBoxeeBrowseMenu::UpdateMenu, unable to find menu id for button id = 101 (browsemenu)
19:04:17.0500 T:3074115360 M:541929472    INFO: read an absolute event which will be ignored (device name D-Link Boxee D-Link Boxee Receiver 0.11) (file name /dev/input/event0)
19:04:18.0017 T:3074115360 M:541929472 WARNING: CGUIDialogBoxeeBrowseMenu::UpdateMenu, unable to find menu id for button id = 101 (browsemenu)
19:04:18.0017 T:3074115360 M:541929472    INFO: read an absolute event which will be ignored (device name D-Link Boxee D-Link Boxee Receiver 0.11) (file name /dev/input/event0)
19:04:18.0458 T:3074115360 M:541978624   ERROR: (pthread_mutex_destroy(&m_mutex)): [XCriticalSection.cpp:84] 16
19:04:18.0477 T:3074115360 M:541986816    INFO: read an absolute event which will be ignored (device name D-Link Boxee D-Link Boxee Receiver 0.11) (file name /dev/input/event0)
19:04:18.0729 T:3074115360 M:551981056    INFO: read an absolute event which will be ignored (device name D-Link Boxee D-Link Boxee Receiver 0.11) (file name /dev/input/event0)
19:04:18.0729 T:3074115360 M:551981056    INFO: read an absolute event which will be ignored (device name D-Link Boxee D-Link Boxee Receiver 0.11) (file name /dev/input/event0)
19:04:18.0730 T:3074115360 M:551981056    INFO: read an absolute event which will be ignored (device name D-Link Boxee D-Link Boxee Receiver 0.11) (file name /dev/input/event0)
19:04:19.0316 T:3074115360 M:552239104    INFO: read an absolute event which will be ignored (device name D-Link Boxee D-Link Boxee Receiver 0.11) (file name /dev/input/event0)
19:04:20.0657 T:3074115360 M:552189952   ERROR: (pthread_mutex_destroy(&m_mutex)): [XCriticalSection.cpp:84] 16
19:04:26.0166 T:3038759824 M:552669184   ERROR: CMetadataResolver::Resolve - exit and return [2] for folder [/tmp/mnt/CA5CEACD5CEAB37D/PELICULAS/TITAN_AE/] (resolver)
19:04:29.0275 T:3074115360 M:552546304   DEBUG: SDLKeyboard: scancode: 1, sym: 27, unicode: 27, modifier: 0
19:04:29.0275 T:3074115360 M:552546304   DEBUG: CApplication::OnKey - [key=61467][window=10016][action=10]
19:04:29.0276 T:3074115360 M:552546304   DEBUG: OnKey: 61467 pressed, action is 10
19:04:29.0285 T:3074115360 M:552546304   DEBUG: CSettings::SaveProfiles, LOGIN, save lock code:
19:04:29.0285 T:3074115360 M:552546304   DEBUG: CSettings::SaveProfiles, LOGIN, save lock code: a+EeRvK3VVCLsJlTHMavtw==
19:04:29.0290 T:3074115360 M:552546304   DEBUG: CGUIWindowManager::PreviousWindow: Deactivate
19:04:29.0291 T:3074115360 M:552546304   DEBUG: CGUIWindowSettingsCategory::CheckTimezoneSettings timezone city current Madrid new Madrid
19:04:29.0292 T:3074115360 M:552546304   DEBUG: CGUIWindowSettingsCategory::CheckTimezoneSettings timezone country current Spain new Spain
19:04:29.0292 T:3074115360 M:552546304   DEBUG: ------ Window Deinit (SettingsCategory.xml) ------
19:04:29.0294 T:3074115360 M:552546304   DEBUG: CGUIWindowManager::PreviousWindow: Activate new
19:04:29.0294 T:3074115360 M:552546304   DEBUG: ------ Window Init (Settings.xml) ------
19:04:29.0294 T:3074115360 M:552546304   DEBUG: Loading skin file: Settings.xml
19:04:29.0301 T:3074115360 M:552546304   DEBUG: CGUIBaseContainer::CGUIBaseContainer, 52 (basecontainer)
19:04:29.0307 T:3074115360 M:552546304   DEBUG: Load Settings.xml: 12.20ms
19:04:29.0309 T:3074115360 M:552546304   DEBUG: Alloc resources: 14.41ms (12.83 ms skin load)
19:04:30.0135 T:3074115360 M:551809024   DEBUG: SDLKeyboard: scancode: 1, sym: 27, unicode: 27, modifier: 0
19:04:30.0135 T:3074115360 M:551809024   DEBUG: CApplication::OnKey - [key=61467][window=10004][action=10]
19:04:30.0136 T:3074115360 M:551809024   DEBUG: OnKey: 61467 pressed, action is 10
19:04:30.0137 T:3074115360 M:551809024   DEBUG: CGUIWindowManager::PreviousWindow: Deactivate
19:04:30.0138 T:3074115360 M:551813120   DEBUG: ------ Window Deinit (Settings.xml) ------
19:04:30.0139 T:3074115360 M:551813120   DEBUG: CGUIWindowManager::PreviousWindow: Activate new
19:04:30.0139 T:3074115360 M:551813120   DEBUG: ------ Window Init (Home.xml) ------
19:04:30.0139 T:3074115360 M:551813120   DEBUG: Loading skin file: Home.xml
19:04:30.0154 T:3074115360 M:551813120   DEBUG: CGUIBaseContainer::CGUIBaseContainer, 7000 (basecontainer)
19:04:30.0158 T:3074115360 M:551813120   DEBUG: CGUIBaseContainer::CGUIBaseContainer, 8200 (basecontainer)
19:04:30.0161 T:3074115360 M:551813120   DEBUG: Load Home.xml: 21.85ms
19:04:30.0164 T:3074115360 M:551813120   DEBUG: Alloc resources: 25.04ms (22.61 ms skin load)
19:04:30.0166 T:3074115360 M:551813120   DEBUG: GUILoaderWindow::RegisterContainers
19:04:30.0166 T:3074115360 M:551813120   DEBUG: GUILoaderWindow::RegisterContainer: 7000
19:04:30.0166 T:3074115360 M:551813120   DEBUG: GUILoaderWindow::RegisterContainer: 8200
19:04:30.0166 T:3074115360 M:551813120   DEBUG: CItemLoader::AddControl, window = 10000, control = 8200, path = feed://featured/?limit=10 (browse)
19:04:30.0167 T:3074115360 M:551813120   DEBUG: CItemLoader::AddControl, 3 GUI_MSG_LOADING, window = 10000, control = 8200 (basecontainer)
19:04:30.0167 T:3074115360 M:551813120   DEBUG: CGUIBaseContainer::CGUIBaseContainer,  GUI_MSG_LOADING, 8200 (basecontainer)
19:04:30.0167 T:2978687888 M:551804928   DEBUG: CGetDirectoryJob::DoWork, NEWUI, loading directory, path = feed://featured/?limit=10
19:04:30.0181 T:3074115360 M:551804928   DEBUG: CItemLoader::AddControl, added directory job, path = feed://featured/?limit=10 (browse)
19:04:30.0501 T:3074115360 M:542932992   DEBUG: CGUIBaseContainer::CGUIBaseContainer,  GUI_MSG_LABEL_BIND, 8200 (basecontainer)
19:04:30.0503 T:3074115360 M:542932992   DEBUG: CGUIFixedListContainer::ScrollToOffset, ENTER, m_cursor = 0, offset = 0, m_offset = 0 (scroll)
19:04:30.0503 T:3074115360 M:542932992   DEBUG: CGUIFixedListContainer::ScrollToOffset, mo 0 mc 0, nCurrOffset = 0, nTargetOffset = 0, m_items.size() = 10, m_itemsPerPage = 3 (scroll)
19:04:30.0504 T:3074115360 M:542932992   DEBUG: CGUIFixedListContainer::ScrollToOffset, EXIT, m_cursor = 0, offset = 0, m_offset = 0 (scroll)
19:04:30.0504 T:3074115360 M:542932992   DEBUG: CGUIFixedListContainer::ScrollToOffset, ENTER, m_cursor = 0, offset = 0, m_offset = 0 (scroll)
19:04:30.0504 T:3074115360 M:542932992   DEBUG: CGUIFixedListContainer::ScrollToOffset, mo 0 mc 0, nCurrOffset = 0, nTargetOffset = 0, m_items.size() = 10, m_itemsPerPage = 3 (scroll)
19:04:30.0505 T:3074115360 M:542932992   DEBUG: CGUIFixedListContainer::ScrollToOffset, EXIT, m_cursor = 0, offset = 0, m_offset = 0 (scroll)
19:04:31.0982 T:3038759824 M:541687808   DEBUG: CMetadataResolverVideo::RemoveYear, name = el trueno azul (dvdrip) (español) (por cortesia el angel caido), newName = el trueno azul (dvdrip) (español) (por cortesia el angel caido), year =  (cleanname)
19:04:31.0985 T:3038759824 M:541696000   DEBUG: CMetadataResolverVideo::ExtractPathSeriesTag, try to resolve tv show by path /tmp/mnt/CA5CEACD5CEAB37D/PELICULAS/el trueno azul (dvdrip) (español) (por cortesia el angel caido).avi title el trueno azul (dvdrip) (español) (por cortesia el angel caido)
19:04:31.0985 T:3038759824 M:541696000   DEBUG: could not extract season from parent folder PELICULAS
19:04:31.0986 T:3038759824 M:541696000   DEBUG: CMetadataResolverVideo::ExtractDailyShows - try to resolve tv show [el trueno azul (dvdrip) (español) (por cortesia el angel caido).avi] as daily show (ds)
19:04:31.0986 T:3038759824 M:541696000   DEBUG: CMetadataResolverVideo::RemoveYear, name = el trueno azul (dvdrip) (español) (por cortesia el angel caido).avi, newName = el trueno azul (dvdrip) (español) (por cortesia el angel caido).avi, year =  (cleanname)
19:04:32.0044 T:3038759824 M:541581312   DEBUG: CMetadataResolverVideo::ResolveVideo, resolving video, path = /tmp/mnt/CA5CEACD5CEAB37D/PELICULAS/el trueno azul (dvdrip) (español) (por cortesia el angel caido).avi (videoresolver) (resolver)
19:04:32.0045 T:3038759824 M:541585408   DEBUG: CMetadataResolverVideo::ResolveVideoSendServerReq, resolving video by file, path = /tmp/mnt/CA5CEACD5CEAB37D/PELICULAS/el trueno azul (dvdrip) (español) (por cortesia el angel caido).avi  (videoresolver) (resolver)
19:04:32.0050 T:3038759824 M:541585408   DEBUG: CMetadataResolverVideo::ResolveVideoSendServerReq, resolving movie, path = /tmp/mnt/CA5CEACD5CEAB37D/PELICULAS/el trueno azul (dvdrip) (español) (por cortesia el angel caido).avi, name = el trueno azul, link = http://res.boxee.tv/title/movie/?h=d937cba3acea5fcf%3a734593024&name=el%20trueno%20azul (videoresolver) (resolver)
19:04:32.0050 T:3038759824 M:541585408   DEBUG: Initializing feed: http://res.boxee.tv/title/movie/?h=d937cba3acea5fcf%3a734593024&name=el%20trueno%20azul
19:04:32.0051 T:3038759824 M:541585408   DEBUG: ReadFeed - RSS, Loading feed from URL: http://res.boxee.tv/title/movie/?h=d937cba3acea5fcf%3a734593024&name=el%20trueno%20azul
19:04:32.0054 T:3038759824 M:541585408   DEBUG: update ref map. url http://res.boxee.tv/title/movie/?h=d937cba3acea5fcf%3a734593024&name=el%20trueno%20azul new ref_count 1  progress 0 (hcm)
19:04:32.0054 T:3038759824 M:541585408   DEBUG: CHttpCacheManager::StartCachingURL   push http://res.boxee.tv/title/movie/?h=d937cba3acea5fcf%3a734593024&name=el%20trueno%20azul to  m_references (hcm)
19:04:32.0060 T:3038759824 M:541601792   DEBUG: Boxee: 22/02/11 18:04:32.605#DEBUG#bxcurl.cpp:285(InitHttpTransfer)#setting creds to: <jvr1976:a+EeRvK3VVCLsJlTHMavtw==>
19:04:32.0176 T:3033766800 M:541601792   DEBUG: no gui sound for 2 seconds. pausing device
19:04:32.0447 T:3038759824 M:541491200   DEBUG: Boxee: 22/02/11 18:04:32.4472#DEBUG#bxcurl.cpp:507(HttpGetString)#curl_easy_perform failed (The requested URL returned error: 404)!
19:04:32.0447 T:3038759824 M:541491200   DEBUG: update ref map. url http://res.boxee.tv/title/movie/?h=d937cba3acea5fcf%3a734593024&name=el%20trueno%20azul new ref_count 1  progress 0 (hcm)
19:04:32.0448 T:3038759824 M:541491200   DEBUG: update ref map. url http://res.boxee.tv/title/movie/?h=d937cba3acea5fcf%3a734593024&name=el%20trueno%20azul new ref_count 0  progress 0 (hcm)
19:04:32.0449 T:3038759824 M:541491200 WARNING: ReadFeed - RSS Init failed, could not parse feed http://res.boxee.tv/title/movie/?h=d937cba3acea5fcf%3a734593024&name=el%20trueno%20azul. Reason: (null), Row: -1 Col: -1
19:04:32.0449 T:3038759824 M:541491200   DEBUG: CMetadataResolverVideo::ResolveVideo, could not resolve video by name, path = /tmp/mnt/CA5CEACD5CEAB37D/PELICULAS/el trueno azul (dvdrip) (español) (por cortesia el angel caido).avi (videoresolver) (resolver)
19:04:32.0450 T:3038759824 M:541491200   DEBUG: CMetadataResolverVideo::ResolveVideoSendServerReq, resolving video by folder, path = /tmp/mnt/CA5CEACD5CEAB37D/PELICULAS/el trueno azul (dvdrip) (español) (por cortesia el angel caido).avi  (videoresolver) (resolver)
19:04:32.0455 T:3038759824 M:541491200   DEBUG: CMetadataResolverVideo::ResolveVideoSendServerReq, resolving movie, path = /tmp/mnt/CA5CEACD5CEAB37D/PELICULAS/el trueno azul (dvdrip) (español) (por cortesia el angel caido).avi, name = el trueno azul, link = http://res.boxee.tv/title/movie/?h=d937cba3acea5fcf%3a734593024&name=PELICULAS (videoresolver) (resolver)
19:04:32.0456 T:3038759824 M:541491200   DEBUG: Initializing feed: http://res.boxee.tv/title/movie/?h=d937cba3acea5fcf%3a734593024&name=PELICULAS
19:04:32.0456 T:3038759824 M:541491200   DEBUG: ReadFeed - RSS, Loading feed from URL: http://res.boxee.tv/title/movie/?h=d937cba3acea5fcf%3a734593024&name=PELICULAS
19:04:32.0458 T:3038759824 M:541491200   DEBUG: update ref map. url http://res.boxee.tv/title/movie/?h=d937cba3acea5fcf%3a734593024&name=PELICULAS new ref_count 1  progress 0 (hcm)
19:04:32.0459 T:3038759824 M:541491200   DEBUG: CHttpCacheManager::StartCachingURL   push http://res.boxee.tv/title/movie/?h=d937cba3acea5fcf%3a734593024&name=PELICULAS to  m_references (hcm)
19:04:32.0464 T:3038759824 M:541491200   DEBUG: Boxee: 22/02/11 18:04:32.4640#DEBUG#bxcurl.cpp:285(InitHttpTransfer)#setting creds to: <jvr1976:a+EeRvK3VVCLsJlTHMavtw==>
19:04:33.0391 T:3038759824 M:541528064   DEBUG: Boxee: 22/02/11 18:04:33.3917#DEBUG#bxcurl.cpp:507(HttpGetString)#curl_easy_perform failed (The requested URL returned error: 404)!
19:04:33.0392 T:3038759824 M:541528064   DEBUG: update ref map. url http://res.boxee.tv/title/movie/?h=d937cba3acea5fcf%3a734593024&name=PELICULAS new ref_count 1  progress 0 (hcm)
19:04:33.0393 T:3038759824 M:541528064   DEBUG: update ref map. url http://res.boxee.tv/title/movie/?h=d937cba3acea5fcf%3a734593024&name=PELICULAS new ref_count 0  progress 0 (hcm)
19:04:33.0394 T:3038759824 M:541528064 WARNING: ReadFeed - RSS Init failed, could not parse feed http://res.boxee.tv/title/movie/?h=d937cba3acea5fcf%3a734593024&name=PELICULAS. Reason: (null), Row: -1 Col: -1
19:04:33.0394 T:3038759824 M:541528064   DEBUG: CMetadataResolverVideo::ResolveVideo, could not resolve video by folder name, path = /tmp/mnt/CA5CEACD5CEAB37D/PELICULAS/ (videoresolver) (resolver)
19:04:33.0395 T:3038759824 M:541528064   DEBUG: CMetadataResolver::ResolveVideoFolder, Could not resolve metadata for video, path = /tmp/mnt/CA5CEACD5CEAB37D/PELICULAS/el trueno azul (dvdrip) (español) (por cortesia el angel caido).avi, name = el trueno azul (resolver) (videoresolver)
19:04:33.0548 T:3040865168 M:541519872   ERROR: CMetadataResolver::Resolve - exit and return [2] for folder [/tmp/mnt/CA5CEACD5CEAB37D/PELICULAS/DIBUJOS ANIMADOS Y ANIMACION/TITAN_AE/] (resolver)
19:04:33.0792 T:3040865168 M:541532160   DEBUG: Boxee: 22/02/11 18:04:33.7919#DEBUG#bxmetadataengine.cpp:416(DoWork)#BXMetadataScannerJob::DoWork, started resolving: /tmp/mnt/CA5CEACD5CEAB37D/PELICULAS/Los Proximos Tres Dias [VHS-SCR][Xvid][ESP]/ (resolver)
19:04:33.0794 T:3040865168 M:541536256   DEBUG: Boxee: 22/02/11 18:04:33.7943#DEBUG#bxmetadataengine.cpp:209(Resolve)#BXMetadataEngine::Resolve, Resolving folder: /tmp/mnt/CA5CEACD5CEAB37D/PELICULAS/Los Proximos Tres Dias [VHS-SCR][Xvid][ESP]/ (resolver)
19:04:34.0160 T:3038759824 M:541556736   DEBUG: CMetadataResolverVideo::RemoveYear, name = Un.pequeno.Cambio.[Spanish].DVDScreener.XviD.[DTI], newName = Un.pequeno.Cambio.[Spanish].DVDScreener.XviD.[DTI], year =  (cleanname)
19:04:34.0161 T:3038759824 M:541556736   DEBUG: CMetadataResolverVideo::ExtractPathSeriesTag, try to resolve tv show by path /tmp/mnt/CA5CEACD5CEAB37D/PELICULAS/Un.pequeno.Cambio.[Spanish].DVDScreener.XviD.[DTI].avi title Un.pequeno.Cambio.[Spanish].DVDScreener.XviD.[DTI]
19:04:34.0162 T:3038759824 M:541556736   DEBUG: could not extract season from parent folder PELICULAS
19:04:34.0162 T:3038759824 M:541556736   DEBUG: CMetadataResolverVideo::ExtractDailyShows - try to resolve tv show [Un.pequeno.Cambio.[Spanish].DVDScreener.XviD.[DTI].avi] as daily show (ds)
19:04:34.0163 T:3038759824 M:541556736   DEBUG: CMetadataResolverVideo::RemoveYear, name = Un.pequeno.Cambio.[Spanish].DVDScreener.XviD.[DTI].avi, newName = Un.pequeno.Cambio.[Spanish].DVDScreener.XviD.[DTI].avi, year =  (cleanname)
19:04:34.0217 T:3038759824 M:541458432   DEBUG: CMetadataResolverVideo::ResolveVideo, resolving video, path = /tmp/mnt/CA5CEACD5CEAB37D/PELICULAS/Un.pequeno.Cambio.[Spanish].DVDScreener.XviD.[DTI].avi (videoresolver) (resolver)
19:04:34.0217 T:3038759824 M:541458432   DEBUG: CMetadataResolverVideo::ResolveVideoSendServerReq, resolving video by file, path = /tmp/mnt/CA5CEACD5CEAB37D/PELICULAS/Un.pequeno.Cambio.[Spanish].DVDScreener.XviD.[DTI].avi  (videoresolver) (resolver)
19:04:34.0223 T:3038759824 M:541458432   DEBUG: CMetadataResolverVideo::ResolveVideoSendServerReq, resolving movie, path = /tmp/mnt/CA5CEACD5CEAB37D/PELICULAS/Un.pequeno.Cambio.[Spanish].DVDScreener.XviD.[DTI].avi, name = Un pequeno Cambio, link = http://res.boxee.tv/title/movie/?h=c8a4e3eebd906f80%3a1422818898&name=Un%20pequeno%20Cambio (videoresolver) (resolver)
19:04:34.0223 T:3038759824 M:541458432   DEBUG: Initializing feed: http://res.boxee.tv/title/movie/?h=c8a4e3eebd906f80%3a1422818898&name=Un%20pequeno%20Cambio
19:04:34.0224 T:3038759824 M:541458432   DEBUG: ReadFeed - RSS, Loading feed from URL: http://res.boxee.tv/title/movie/?h=c8a4e3eebd906f80%3a1422818898&name=Un%20pequeno%20Cambio
19:04:34.0226 T:3038759824 M:541462528   DEBUG: update ref map. url http://res.boxee.tv/title/movie/?h=c8a4e3eebd906f80%3a1422818898&name=Un%20pequeno%20Cambio new ref_count 1  progress 0 (hcm)
19:04:34.0226 T:3038759824 M:541462528   DEBUG: CHttpCacheManager::StartCachingURL   push http://res.boxee.tv/title/movie/?h=c8a4e3eebd906f80%3a1422818898&name=Un%20pequeno%20Cambio to  m_references (hcm)
19:04:34.0231 T:3038759824 M:541462528   DEBUG: Boxee: 22/02/11 18:04:34.2312#DEBUG#bxcurl.cpp:285(InitHttpTransfer)#setting creds to: <jvr1976:a+EeRvK3VVCLsJlTHMavtw==>
19:04:34.0543 T:3040865168 M:541470720   DEBUG: CMetadataResolver::Resolve - enter with [path=/tmp/mnt/CA5CEACD5CEAB37D/PELICULAS/Los Proximos Tres Dias [VHS-SCR][Xvid][ESP]/] (resolver)
19:04:34.0544 T:3040865168 M:541470720   DEBUG: CSettings::IsPathOnSource, path = /tmp/mnt/CA5CEACD5CEAB37D/PELICULAS/Los Proximos Tres Dias [VHS-SCR][Xvid][ESP]/ (checkpath)
19:04:34.0544 T:3040865168 M:541470720   DEBUG: CMetadataResolver::Resolve - going to resolve VIDEO folder [path=/tmp/mnt/CA5CEACD5CEAB37D/PELICULAS/Los Proximos Tres Dias [VHS-SCR][Xvid][ESP]/] (resolver)
19:04:34.0545 T:3040865168 M:541470720   DEBUG: CMetadataResolverVideo::RemoveYear, name = Los Proximos Tres Dias [VHS-SCR][Xvid][ESP], newName = Los Proximos Tres Dias [VHS-SCR][Xvid][ESP], year =  (cleanname)
19:04:34.0545 T:3040865168 M:541470720   DEBUG: CMetadataResolverVideo::ExtractDailyShows - try to resolve tv show [Los Proximos Tres Dias [VHS-SCR][Xvid][ESP]] as daily show (ds)
19:04:34.0546 T:3040865168 M:541470720   DEBUG: CMetadataResolverVideo::RemoveYear, name = Los Proximos Tres Dias [VHS-SCR][Xvid][ESP], newName = Los Proximos Tres Dias [VHS-SCR][Xvid][ESP], year =  (cleanname)
19:04:34.0553 T:3040865168 M:541470720   DEBUG: CMetadataResolver::ResolveVideoFolder - Resolving video folder [path=/tmp/mnt/CA5CEACD5CEAB37D/PELICULAS/Los Proximos Tres Dias [VHS-SCR][Xvid][ESP]/][ParentFolder=/tmp/mnt/CA5CEACD5CEAB37D/PELICULAS/Los Proximos Tres Dias [VHS-SCR][Xvid][ESP]/][ParentFolderName=Los Proximos Tres Dias] (resolver)(videoresolver)
19:04:34.0574 T:3038759824 M:541478912   DEBUG: Boxee: 22/02/11 18:04:34.5747#DEBUG#bxcurl.cpp:507(HttpGetString)#curl_easy_perform failed (The requested URL returned error: 404)!
19:04:34.0575 T:3038759824 M:541478912   DEBUG: update ref map. url http://res.boxee.tv/title/movie/?h=c8a4e3eebd906f80%3a1422818898&name=Un%20pequeno%20Cambio new ref_count 1  progress 0 (hcm)
19:04:34.0575 T:3038759824 M:541478912   DEBUG: update ref map. url http://res.boxee.tv/title/movie/?h=c8a4e3eebd906f80%3a1422818898&name=Un%20pequeno%20Cambio new ref_count 0  progress 0 (hcm)
19:04:34.0576 T:3038759824 M:541478912 WARNING: ReadFeed - RSS Init failed, could not parse feed http://res.boxee.tv/title/movie/?h=c8a4e3eebd906f80%3a1422818898&name=Un%20pequeno%20Cambio. Reason: (null), Row: -1 Col: -1
19:04:34.0577 T:3038759824 M:541478912   DEBUG: CMetadataResolverVideo::ResolveVideo, could not resolve video by name, path = /tmp/mnt/CA5CEACD5CEAB37D/PELICULAS/Un.pequeno.Cambio.[Spanish].DVDScreener.XviD.[DTI].avi (videoresolver) (resolver)
19:04:34.0577 T:3038759824 M:541478912   DEBUG: CMetadataResolverVideo::ResolveVideoSendServerReq, resolving video by folder, path = /tmp/mnt/CA5CEACD5CEAB37D/PELICULAS/Un.pequeno.Cambio.[Spanish].DVDScreener.XviD.[DTI].avi  (videoresolver) (resolver)
19:04:34.0582 T:3038759824 M:541478912   DEBUG: CMetadataResolverVideo::ResolveVideoSendServerReq, resolving movie, path = /tmp/mnt/CA5CEACD5CEAB37D/PELICULAS/Un.pequeno.Cambio.[Spanish].DVDScreener.XviD.[DTI].avi, name = Un pequeno Cambio, link = http://res.boxee.tv/title/movie/?h=c8a4e3eebd906f80%3a1422818898&name=PELICULAS (videoresolver) (resolver)
19:04:34.0583 T:3038759824 M:541478912   DEBUG: Initializing feed: http://res.boxee.tv/title/movie/?h=c8a4e3eebd906f80%3a1422818898&name=PELICULAS
19:04:34.0583 T:3038759824 M:541478912   DEBUG: ReadFeed - RSS, Loading feed from URL: http://res.boxee.tv/title/movie/?h=c8a4e3eebd906f80%3a1422818898&name=PELICULAS
19:04:34.0586 T:3038759824 M:541483008   DEBUG: update ref map. url http://res.boxee.tv/title/movie/?h=c8a4e3eebd906f80%3a1422818898&name=PELICULAS new ref_count 1  progress 0 (hcm)
19:04:34.0586 T:3038759824 M:541483008   DEBUG: CHttpCacheManager::StartCachingURL   push http://res.boxee.tv/title/movie/?h=c8a4e3eebd906f80%3a1422818898&name=PELICULAS to  m_references (hcm)
19:04:34.0590 T:3038759824 M:541483008   DEBUG: Boxee: 22/02/11 18:04:34.5907#DEBUG#bxcurl.cpp:285(InitHttpTransfer)#setting creds to: <jvr1976:a+EeRvK3VVCLsJlTHMavtw==>
19:04:34.0641 T:3040865168 M:541474816   DEBUG: CMetadataResolverVideo::RemoveYear, name = Los Proximos Tres Dias [VHS-SCR][Xvid][ESP], newName = Los Proximos Tres Dias [VHS-SCR][Xvid][ESP], year =  (cleanname)
19:04:34.0642 T:3040865168 M:541474816   DEBUG: CMetadataResolverVideo::ExtractPathSeriesTag, try to resolve tv show by path /tmp/mnt/CA5CEACD5CEAB37D/PELICULAS/Los Proximos Tres Dias [VHS-SCR][Xvid][ESP]/Los Proximos Tres Dias [VHS-SCR][Xvid][ESP].avi title Los Proximos Tres Dias [VHS-SCR][Xvid][ESP]
19:04:34.0643 T:3040865168 M:541474816   DEBUG: could not extract season from parent folder Los Proximos Tres Dias [VHS-SCR][Xvid][ESP]
19:04:34.0643 T:3040865168 M:541474816   DEBUG: CMetadataResolverVideo::ExtractDailyShows - try to resolve tv show [Los Proximos Tres Dias [VHS-SCR][Xvid][ESP].avi] as daily show (ds)
19:04:34.0644 T:3040865168 M:541474816   DEBUG: CMetadataResolverVideo::RemoveYear, name = Los Proximos Tres Dias [VHS-SCR][Xvid][ESP].avi, newName = Los Proximos Tres Dias [VHS-SCR][Xvid][ESP].avi, year =  (cleanname)
19:04:34.0650 T:3040865168 M:541474816   DEBUG: CMetadataResolverVideo::RemoveYear, name = Los Proximos Tres Dias [Sample][VHS-SCR][Xvid][ESP], newName = Los Proximos Tres Dias [Sample][VHS-SCR][Xvid][ESP], year =  (cleanname)
19:04:34.0651 T:3040865168 M:541474816   DEBUG: CMetadataResolverVideo::ExtractPathSeriesTag, try to resolve tv show by path /tmp/mnt/CA5CEACD5CEAB37D/PELICULAS/Los Proximos Tres Dias [VHS-SCR][Xvid][ESP]/Los Proximos Tres Dias [Sample][VHS-SCR][Xvid][ESP].avi title Los Proximos Tres Dias [Sample][VHS-SCR][Xvid][ESP]
19:04:34.0652 T:3040865168 M:541474816   DEBUG: could not extract season from parent folder Los Proximos Tres Dias [VHS-SCR][Xvid][ESP]
19:04:34.0652 T:3040865168 M:541474816   DEBUG: CMetadataResolverVideo::ExtractDailyShows - try to resolve tv show [Los Proximos Tres Dias [Sample][VHS-SCR][Xvid][ESP].avi] as daily show (ds)
19:04:34.0653 T:3040865168 M:541474816   DEBUG: CMetadataResolverVideo::RemoveYear, name = Los Proximos Tres Dias [Sample][VHS-SCR][Xvid][ESP].avi, newName = Los Proximos Tres Dias [Sample][VHS-SCR][Xvid][ESP].avi, year =  (cleanname)
19:04:34.0917 T:3040865168 M:541487104   DEBUG: CMetadataResolverVideo::RemoveYear, name = Los Proximos Tres Dias [VHS-SCR][Xvid][ESP], newName = Los Proximos Tres Dias [VHS-SCR][Xvid][ESP], year =  (cleanname)
19:04:34.0918 T:3040865168 M:541487104   DEBUG: CMetadataResolverVideo::ExtractPathSeriesTag, try to resolve tv show by path /tmp/mnt/CA5CEACD5CEAB37D/PELICULAS/Los Proximos Tres Dias [VHS-SCR][Xvid][ESP]/Los Proximos Tres Dias [VHS-SCR][Xvid][ESP].avi title Los Proximos Tres Dias [VHS-SCR][Xvid][ESP]
19:04:34.0919 T:3040865168 M:541487104   DEBUG: could not extract season from parent folder Los Proximos Tres Dias [VHS-SCR][Xvid][ESP]
19:04:34.0919 T:3040865168 M:541487104   DEBUG: CMetadataResolverVideo::ExtractDailyShows - try to resolve tv show [Los Proximos Tres Dias [VHS-SCR][Xvid][ESP].avi] as daily show (ds)
19:04:34.0919 T:3040865168 M:541487104   DEBUG: CMetadataResolverVideo::RemoveYear, name = Los Proximos Tres Dias [VHS-SCR][Xvid][ESP].avi, newName = Los Proximos Tres Dias [VHS-SCR][Xvid][ESP].avi, year =  (cleanname)
19:04:34.0948 T:3038759824 M:541495296   DEBUG: Boxee: 22/02/11 18:04:34.9486#DEBUG#bxcurl.cpp:507(HttpGetString)#curl_easy_perform failed (The requested URL returned error: 404)!
19:04:34.0949 T:3038759824 M:541495296   DEBUG: update ref map. url http://res.boxee.tv/title/movie/?h=c8a4e3eebd906f80%3a1422818898&name=PELICULAS new ref_count 1  progress 0 (hcm)
19:04:34.0949 T:3038759824 M:541499392   DEBUG: update ref map. url http://res.boxee.tv/title/movie/?h=c8a4e3eebd906f80%3a1422818898&name=PELICULAS new ref_count 0  progress 0 (hcm)
19:04:34.0950 T:3038759824 M:541499392 WARNING: ReadFeed - RSS Init failed, could not parse feed http://res.boxee.tv/title/movie/?h=c8a4e3eebd906f80%3a1422818898&name=PELICULAS. Reason: (null), Row: -1 Col: -1
19:04:34.0951 T:3038759824 M:541499392   DEBUG: CMetadataResolverVideo::ResolveVideo, could not resolve video by folder name, path = /tmp/mnt/CA5CEACD5CEAB37D/PELICULAS/ (videoresolver) (resolver)
19:04:34.0951 T:3038759824 M:541499392   DEBUG: CMetadataResolver::ResolveVideoFolder, Could not resolve metadata for video, path = /tmp/mnt/CA5CEACD5CEAB37D/PELICULAS/Un.pequeno.Cambio.[Spanish].DVDScreener.XviD.[DTI].avi, name = Un pequeno Cambio (resolver) (videoresolver)
19:04:34.0971 T:3040865168 M:541388800   DEBUG: CMetadataResolverVideo::ResolveVideo, resolving video, path = /tmp/mnt/CA5CEACD5CEAB37D/PELICULAS/Los Proximos Tres Dias [VHS-SCR][Xvid][ESP]/Los Proximos Tres Dias [VHS-SCR][Xvid][ESP].avi (videoresolver) (resolver)
19:04:34.0972 T:3040865168 M:541388800   DEBUG: CMetadataResolverVideo::ResolveVideoSendServerReq, resolving video by file, path = /tmp/mnt/CA5CEACD5CEAB37D/PELICULAS/Los Proximos Tres Dias [VHS-SCR][Xvid][ESP]/Los Proximos Tres Dias [VHS-SCR][Xvid][ESP].avi  (videoresolver) (resolver)
19:04:34.0977 T:3040865168 M:541388800   DEBUG: CMetadataResolverVideo::ResolveVideoSendServerReq, resolving movie, path = /tmp/mnt/CA5CEACD5CEAB37D/PELICULAS/Los Proximos Tres Dias [VHS-SCR][Xvid][ESP]/Los Proximos Tres Dias [VHS-SCR][Xvid][ESP].avi, name = Los Proximos Tres Dias, link = http://res.boxee.tv/title/movie/?h=01ef1036751fb639%3a1573111808&name=Los%20Proximos%20Tres%20Dias (videoresolver) (resolver)
19:04:34.0978 T:3040865168 M:541388800   DEBUG: Initializing feed: http://res.boxee.tv/title/movie/?h=01ef1036751fb639%3a1573111808&name=Los%20Proximos%20Tres%20Dias
19:04:34.0978 T:3040865168 M:541388800   DEBUG: ReadFeed - RSS, Loading feed from URL: http://res.boxee.tv/title/movie/?h=01ef1036751fb639%3a1573111808&name=Los%20Proximos%20Tres%20Dias
19:04:34.0980 T:3040865168 M:541388800   DEBUG: update ref map. url http://res.boxee.tv/title/movie/?h=01ef1036751fb639%3a1573111808&name=Los%20Proximos%20Tres%20Dias new ref_count 1  progress 0 (hcm)
19:04:34.0981 T:3040865168 M:541388800   DEBUG: CHttpCacheManager::StartCachingURL   push http://res.boxee.tv/title/movie/?h=01ef1036751fb639%3a1573111808&name=Los%20Proximos%20Tres%20Dias to  m_references (hcm)
19:04:34.0986 T:3040865168 M:541388800   DEBUG: Boxee: 22/02/11 18:04:34.9864#DEBUG#bxcurl.cpp:285(InitHttpTransfer)#setting creds to: <jvr1976:a+EeRvK3VVCLsJlTHMavtw==>
19:04:35.0335 T:3038759824 M:541409280   DEBUG: CMetadataResolverVideo::RemoveYear, name = The.Fighter.[Spanish].DVDScreener.XviD.[DTL], newName = The.Fighter.[Spanish].DVDScreener.XviD.[DTL], year =  (cleanname)
19:04:35.0336 T:3038759824 M:541409280   DEBUG: CMetadataResolverVideo::ExtractPathSeriesTag, try to resolve tv show by path /tmp/mnt/CA5CEACD5CEAB37D/PELICULAS/The.Fighter.[Spanish].DVDScreener.XviD.[DTL].avi title The.Fighter.[Spanish].DVDScreener.XviD.[DTL]
19:04:35.0336 T:3038759824 M:541409280   DEBUG: could not extract season from parent folder PELICULAS
19:04:35.0337 T:3038759824 M:541409280   DEBUG: CMetadataResolverVideo::ExtractDailyShows - try to resolve tv show [The.Fighter.[Spanish].DVDScreener.XviD.[DTL].avi] as daily show (ds)
19:04:35.0337 T:3038759824 M:541409280   DEBUG: CMetadataResolverVideo::RemoveYear, name = The.Fighter.[Spanish].DVDScreener.XviD.[DTL].avi, newName = The.Fighter.[Spanish].DVDScreener.XviD.[DTL].avi, year =  (cleanname)
19:04:35.0346 T:3040865168 M:541417472   DEBUG: Boxee: 22/02/11 18:04:35.3466#DEBUG#bxcurl.cpp:507(HttpGetString)#curl_easy_perform failed (The requested URL returned error: 404)!
19:04:35.0347 T:3040865168 M:541417472   DEBUG: update ref map. url http://res.boxee.tv/title/movie/?h=01ef1036751fb639%3a1573111808&name=Los%20Proximos%20Tres%20Dias new ref_count 1  progress 0 (hcm)
19:04:35.0347 T:3040865168 M:541421568   DEBUG: update ref map. url http://res.boxee.tv/title/movie/?h=01ef1036751fb639%3a1573111808&name=Los%20Proximos%20Tres%20Dias new ref_count 0  progress 0 (hcm)
19:04:35.0348 T:3040865168 M:541421568 WARNING: ReadFeed - RSS Init failed, could not parse feed http://res.boxee.tv/title/movie/?h=01ef1036751fb639%3a1573111808&name=Los%20Proximos%20Tres%20Dias. Reason: (null), Row: -1 Col: -1
19:04:35.0348 T:3040865168 M:541421568   DEBUG: CMetadataResolverVideo::ResolveVideo, could not resolve video by name, path = /tmp/mnt/CA5CEACD5CEAB37D/PELICULAS/Los Proximos Tres Dias [VHS-SCR][Xvid][ESP]/Los Proximos Tres Dias [VHS-SCR][Xvid][ESP].avi (videoresolver) (resolver)
19:04:35.0348 T:3040865168 M:541421568   DEBUG: CMetadataResolverVideo::ResolveVideoSendServerReq, resolving video by folder, path = /tmp/mnt/CA5CEACD5CEAB37D/PELICULAS/Los Proximos Tres Dias [VHS-SCR][Xvid][ESP]/Los Proximos Tres Dias [VHS-SCR][Xvid][ESP].avi  (videoresolver) (resolver)
19:04:35.0354 T:3040865168 M:541421568   DEBUG: CMetadataResolverVideo::ResolveVideoSendServerReq, resolving movie, path = /tmp/mnt/CA5CEACD5CEAB37D/PELICULAS/Los Proximos Tres Dias [VHS-SCR][Xvid][ESP]/Los Proximos Tres Dias [VHS-SCR][Xvid][ESP].avi, name = Los Proximos Tres Dias, link = http://res.boxee.tv/title/movie/?h=01ef1036751fb639%3a1573111808&name=Los%20Proximos%20Tres%20Dias (videoresolver) (resolver)
19:04:35.0354 T:3040865168 M:541421568   DEBUG: Initializing feed: http://res.boxee.tv/title/movie/?h=01ef1036751fb639%3a1573111808&name=Los%20Proximos%20Tres%20Dias
19:04:35.0355 T:3040865168 M:541421568   DEBUG: ReadFeed - RSS, Loading feed from URL: http://res.boxee.tv/title/movie/?h=01ef1036751fb639%3a1573111808&name=Los%20Proximos%20Tres%20Dias
19:04:35.0357 T:3040865168 M:541421568   DEBUG: update ref map. url http://res.boxee.tv/title/movie/?h=01ef1036751fb639%3a1573111808&name=Los%20Proximos%20Tres%20Dias new ref_count 1  progress 0 (hcm)
19:04:35.0358 T:3040865168 M:541421568   DEBUG: CHttpCacheManager::StartCachingURL   push http://res.boxee.tv/title/movie/?h=01ef1036751fb639%3a1573111808&name=Los%20Proximos%20Tres%20Dias to  m_references (hcm)
19:04:35.0363 T:3040865168 M:541421568   DEBUG: Boxee: 22/02/11 18:04:35.3631#DEBUG#bxcurl.cpp:285(InitHttpTransfer)#setting creds to: <jvr1976:a+EeRvK3VVCLsJlTHMavtw==>
19:04:35.0386 T:3038759824 M:541560832   DEBUG: CMetadataResolverVideo::ResolveVideo, resolving video, path = /tmp/mnt/CA5CEACD5CEAB37D/PELICULAS/The.Fighter.[Spanish].DVDScreener.XviD.[DTL].avi (videoresolver) (resolver)
19:04:35.0386 T:3038759824 M:541560832   DEBUG: CMetadataResolverVideo::ResolveVideoSendServerReq, resolving video by file, path = /tmp/mnt/CA5CEACD5CEAB37D/PELICULAS/The.Fighter.[Spanish].DVDScreener.XviD.[DTL].avi  (videoresolver) (resolver)
19:04:35.0391 T:3038759824 M:541560832   DEBUG: CMetadataResolverVideo::ResolveVideoSendServerReq, resolving movie, path = /tmp/mnt/CA5CEACD5CEAB37D/PELICULAS/The.Fighter.[Spanish].DVDScreener.XviD.[DTL].avi, name = The Fighter, link = http://res.boxee.tv/title/movie/?h=1368d9927ff2af61%3a1466865664&name=The%20Fighter (videoresolver) (resolver)
19:04:35.0392 T:3038759824 M:541560832   DEBUG: Initializing feed: http://res.boxee.tv/title/movie/?h=1368d9927ff2af61%3a1466865664&name=The%20Fighter
19:04:35.0392 T:3038759824 M:541560832   DEBUG: ReadFeed - RSS, Loading feed from URL: http://res.boxee.tv/title/movie/?h=1368d9927ff2af61%3a1466865664&name=The%20Fighter
19:04:35.0395 T:3038759824 M:541560832   DEBUG: update ref map. url http://res.boxee.tv/title/movie/?h=1368d9927ff2af61%3a1466865664&name=The%20Fighter new ref_count 1  progress 0 (hcm)
19:04:35.0396 T:3038759824 M:541560832   DEBUG: CHttpCacheManager::StartCachingURL   push http://res.boxee.tv/title/movie/?h=1368d9927ff2af61%3a1466865664&name=The%20Fighter to  m_references (hcm)
19:04:35.0401 T:3038759824 M:541560832   DEBUG: Boxee: 22/02/11 18:04:35.4009#DEBUG#bxcurl.cpp:285(InitHttpTransfer)#setting creds to: <jvr1976:a+EeRvK3VVCLsJlTHMavtw==>
19:04:37.0230 T:3038759824 M:541569024   DEBUG: update ref map. url http://res.boxee.tv/title/movie/?h=1368d9927ff2af61%3a1466865664&name=The%20Fighter new ref_count 1  progress 0 (hcm)
19:04:37.0232 T:3038759824 M:541569024   DEBUG: insert http://res.boxee.tv/title/movie/?h=1368d9927ff2af61%3a1466865664&name=The%20Fighter to the database (hcm)
19:04:37.0234 T:3038759824 M:541569024   DEBUG: update ref map. url http://res.boxee.tv/title/movie/?h=1368d9927ff2af61%3a1466865664&name=The%20Fighter new ref_count 0  progress 0 (hcm)
19:04:37.0238 T:3038759824 M:541569024   DEBUG: Channel thumbnail:
19:04:37.0239 T:3038759824 M:541569024   DEBUG: CRssFeed::ReadFeed - open search, startIndex = -1, itemsPerPage = -1, totalResults = -1 (paging)
19:04:37.0240 T:3038759824 M:541569024   DEBUG: CMetadataResolverVideo::ResolveVideoSendServerReq - Server replies change type to movie
19:04:37.0243 T:3038759824 M:541569024   DEBUG: CMetadataResolver::ResolveVideoFolder, Resolved metadata for video, path = /tmp/mnt/CA5CEACD5CEAB37D/PELICULAS/The.Fighter.[Spanish].DVDScreener.XviD.[DTL].avi, name = The Fighter  (resolver) (videoresolver)
19:04:37.0243 T:3038759824 M:541569024   DEBUG: CMetadataResolver::ResolveVideoFolder, Video was resolved by name, adding to DB, path = /tmp/mnt/CA5CEACD5CEAB37D/PELICULAS/The.Fighter.[Spanish].DVDScreener.XviD.[DTL].avi, name = The Fighter, id = 509929  (resolver) (videoresolver)
19:04:37.0244 T:3038759824 M:541569024   DEBUG: CMetadataResolver::CacheThumb, strItemPath = /tmp/mnt/CA5CEACD5CEAB37D/PELICULAS/, strThumbnailPath = http://boxee-proxy.appspot.com/400x0x85/?url=http%3A%2F%2Fs3.boxee.tv%2Ftitlethumbs%2F2%2Ff%2Fcc3536ef4679ede38b1c4d07d7a321.jpg (thumb)
19:04:37.0244 T:3038759824 M:541569024   DEBUG: CMetadataResolver::CacheThumb, strThumbnailPath = http://boxee-proxy.appspot.com/400x0x85/?url=http%3A%2F%2Fs3.boxee.tv%2Ftitlethumbs%2F2%2Ff%2Fcc3536ef4679ede38b1c4d07d7a321.jpg, cached path = special://masterprofile/profiles/jvr1976/Thumbnails/Video/8/8a29496f.tbn (thumb)
19:04:37.0245 T:3038759824 M:541569024   DEBUG: Creating thumb from: http://boxee-proxy.appspot.com/400x0x85/?url=http%3A%2F%2Fs3.boxee.tv%2Ftitlethumbs%2F2%2Ff%2Fcc3536ef4679ede38b1c4d07d7a321.jpg as: special://masterprofile/profiles/jvr1976/Thumbnails/Video/8/8a29496f.tbn
19:04:37.0247 T:3038759824 M:541569024   DEBUG: update ref map. url http://boxee-proxy.appspot.com/400x0x85/?url=http%3A%2F%2Fs3.boxee.tv%2Ftitlethumbs%2F2%2Ff%2Fcc3536ef4679ede38b1c4d07d7a321.jpg new ref_count 1  progress 0 (hcm)
19:04:37.0247 T:3038759824 M:541569024   DEBUG: CHttpCacheManager::StartCachingURL   push http://boxee-proxy.appspot.com/400x0x85/?url=http%3A%2F%2Fs3.boxee.tv%2Ftitlethumbs%2F2%2Ff%2Fcc3536ef4679ede38b1c4d07d7a321.jpg to  m_references (hcm)
19:04:37.0248 T:3038759824 M:541569024   DEBUG: FileCurl::Open(0xb51fa984) http://boxee-proxy.appspot.com/400x0x85/?url=http%3A%2F%2Fs3.boxee.tv%2Ftitlethumbs%2F2%2Ff%2Fcc3536ef4679ede38b1c4d07d7a321.jpg
19:04:37.0271 T:3040865168 M:541569024   DEBUG: Boxee: 22/02/11 18:04:37.2714#DEBUG#bxcurl.cpp:507(HttpGetString)#curl_easy_perform failed (The requested URL returned error: 404)!
19:04:37.0272 T:3040865168 M:541569024   DEBUG: update ref map. url http://res.boxee.tv/title/movie/?h=01ef1036751fb639%3a1573111808&name=Los%20Proximos%20Tres%20Dias new ref_count 1  progress 0 (hcm)
19:04:37.0272 T:3040865168 M:541569024   DEBUG: update ref map. url http://res.boxee.tv/title/movie/?h=01ef1036751fb639%3a1573111808&name=Los%20Proximos%20Tres%20Dias new ref_count 0  progress 0 (hcm)
19:04:37.0274 T:3040865168 M:541569024 WARNING: ReadFeed - RSS Init failed, could not parse feed http://res.boxee.tv/title/movie/?h=01ef1036751fb639%3a1573111808&name=Los%20Proximos%20Tres%20Dias. Reason: (null), Row: -1 Col: -1
19:04:37.0274 T:3040865168 M:541569024   DEBUG: CMetadataResolverVideo::ResolveVideo, could not resolve video by folder name, path = /tmp/mnt/CA5CEACD5CEAB37D/PELICULAS/Los Proximos Tres Dias [VHS-SCR][Xvid][ESP]/ (videoresolver) (resolver)
19:04:37.0275 T:3040865168 M:541573120   DEBUG: CMetadataResolver::ResolveVideoFolder, Could not resolve metadata for video, path = /tmp/mnt/CA5CEACD5CEAB37D/PELICULAS/Los Proximos Tres Dias [VHS-SCR][Xvid][ESP]/Los Proximos Tres Dias [VHS-SCR][Xvid][ESP].avi, name = Los Proximos Tres Dias (resolver) (videoresolver)
19:04:37.0414 T:3038759824 M:541462528   DEBUG: Open - filesize: 40827
19:04:37.0468 T:3040865168 M:541458432   DEBUG: CMetadataResolver::ResolveVideoFolder, Updating folder status, path = /tmp/mnt/CA5CEACD5CEAB37D/PELICULAS/Los Proximos Tres Dias [VHS-SCR][Xvid][ESP]/, items = 2, resolved = 0 (resolver) (videoresolver)
19:04:37.0662 T:3038759824 M:541478912   DEBUG: FileCurl::Close(0xb51fa984) http://boxee-proxy.appspot.com/400x0x85/?url=http%3A%2F%2Fs3.boxee.tv%2Ftitlethumbs%2F2%2Ff%2Fcc3536ef4679ede38b1c4d07d7a321.jpg
19:04:37.0663 T:3038759824 M:541478912   DEBUG: CURL STATS: done with <boxee-proxy.appspot.com>. 39.87k in: 0.41 sec. dns: 0.00 sec. connect: 0.00 s. pretransfer: 0.00 s. speed: 96.50 kbytes/sec.
19:04:37.0665 T:3038759824 M:541519872   DEBUG: update ref map. url http://boxee-proxy.appspot.com/400x0x85/?url=http%3A%2F%2Fs3.boxee.tv%2Ftitlethumbs%2F2%2Ff%2Fcc3536ef4679ede38b1c4d07d7a321.jpg new ref_count 1  progress 0 (hcm)
19:04:37.0666 T:3038759824 M:541519872   DEBUG: insert http://boxee-proxy.appspot.com/400x0x85/?url=http%3A%2F%2Fs3.boxee.tv%2Ftitlethumbs%2F2%2Ff%2Fcc3536ef4679ede38b1c4d07d7a321.jpg to the database (hcm)
19:04:37.0771 T:3040865168 M:541511680   ERROR: CMetadataResolver::Resolve - exit and return [2] for folder [/tmp/mnt/CA5CEACD5CEAB37D/PELICULAS/Los Proximos Tres Dias [VHS-SCR][Xvid][ESP]/] (resolver)
19:04:37.0935 T:3074115360 M:541532160   DEBUG: SDLKeyboard: scancode: 1, sym: 27, unicode: 27, modifier: 0
19:04:37.0936 T:3074115360 M:541532160   DEBUG: CApplication::OnKey - [key=61467][window=10000][action=122]
19:04:37.0936 T:3074115360 M:541532160   DEBUG: OnKey: 61467 pressed, action is 122
19:04:37.0936 T:3074115360 M:541532160   DEBUG: ActiveWindow 10000 (builtin)
19:04:37.0936 T:3074115360 M:541532160   DEBUG: Activating window ID: 10423
19:04:37.0937 T:3074115360 M:541532160   DEBUG: Checking if window ID 10423 is locked.
19:04:37.0937 T:3074115360 M:541532160   DEBUG: ------ Window Init (boxee_browse_menu.xml) ------
19:04:37.0937 T:3074115360 M:541532160   DEBUG: Loading skin file: boxee_browse_menu.xml
19:04:37.0951 T:3074115360 M:541532160   DEBUG: CGUIBaseContainer::CGUIBaseContainer, 101 (basecontainer)
19:04:37.0978 T:3074115360 M:541532160   DEBUG: Load boxee_browse_menu.xml: 40.08ms
19:04:37.0981 T:3074115360 M:541532160   DEBUG: Alloc resources: 43.90ms (41.43 ms skin load)
19:04:37.0983 T:3074115360 M:541532160   DEBUG: CGUIDialogBoxeeBrowseMenu::OnInitWindow, Current row = 0, current button = 1101 (browsemenu)
19:04:37.0984 T:3074115360 M:541532160   DEBUG: CGUIDialogBoxeeBrowseMenu::DrawMenu, m_iCurrentRowIndex = 0, m_iPreviousRowIndex = 0, initialRow = 1 (browsemenu)
19:04:37.0984 T:3074115360 M:541532160   DEBUG: CGUIDialogBoxeeBrowseMenu::DrawMenu, CLEAR menu row at index =  1 (browsemenu)
19:04:37.0985 T:3074115360 M:541532160   DEBUG: CGUIDialogBoxeeBrowseMenu::DrawMenu, CLEAR menu row at index =  2 (browsemenu)
19:04:37.0985 T:3074115360 M:541532160   DEBUG: CGUIDialogBoxeeBrowseMenu::DrawMenu, CLEAR menu row at index =  3 (browsemenu)
19:04:37.0985 T:3074115360 M:541532160   DEBUG: CGUIDialogBoxeeBrowseMenu::DrawMenu, CLEAR menu row at index =  4 (browsemenu)
19:04:37.0985 T:3074115360 M:541532160   DEBUG: Adding button label = Friends to row id = 1 at index = 0 (browsemenu)
19:04:37.0986 T:3074115360 M:541532160   DEBUG: Adding button label = Watch Later to row id = 1 at index = 1 (browsemenu)
19:04:37.0986 T:3074115360 M:541532160   DEBUG: Adding button label = Recently Played to row id = 1 at index = 2 (browsemenu)
19:04:38.0066 T:3074115360 M:541278208   DEBUG: (dbg) FreeMem 528592/644016 Kb, FPS 50.0, CPU0: 52.7%  Loader Q:[0] Textures:[72 (23.48 M)] SERVER: [67.225.149.139] ver: 1.0.4.17443
19:04:38.0066 T:3074115360 M:541278208   DEBUG: (dbg)
19:04:38.0135 T:3040865168 M:541274112   DEBUG: Boxee: 22/02/11 18:04:38.1355#DEBUG#bxmetadataengine.cpp:416(DoWork)#BXMetadataScannerJob::DoWork, started resolving: /tmp/mnt/CA5CEACD5CEAB37D/PELICULAS/Valor de ley [DVDSCR][Mic][ESP][Xvid][LimiteXvid.com]/ (resolver)
19:04:38.0136 T:3040865168 M:541274112   DEBUG: Boxee: 22/02/11 18:04:38.1362#DEBUG#bxmetadataengine.cpp:209(Resolve)#BXMetadataEngine::Resolve, Resolving folder: /tmp/mnt/CA5CEACD5CEAB37D/PELICULAS/Valor de ley [DVDSCR][Mic][ESP][Xvid][LimiteXvid.com]/ (resolver)
19:04:38.0438 T:3040865168 M:541286400   DEBUG: CMetadataResolver::Resolve - enter with [path=/tmp/mnt/CA5CEACD5CEAB37D/PELICULAS/Valor de ley [DVDSCR][Mic][ESP][Xvid][LimiteXvid.com]/] (resolver)
19:04:38.0438 T:3040865168 M:541286400   DEBUG: CSettings::IsPathOnSource, path = /tmp/mnt/CA5CEACD5CEAB37D/PELICULAS/Valor de ley [DVDSCR][Mic][ESP][Xvid][LimiteXvid.com]/ (checkpath)
19:04:38.0439 T:3040865168 M:541286400   DEBUG: CMetadataResolver::Resolve - going to resolve VIDEO folder [path=/tmp/mnt/CA5CEACD5CEAB37D/PELICULAS/Valor de ley [DVDSCR][Mic][ESP][Xvid][LimiteXvid.com]/] (resolver)
19:04:38.0440 T:3038759824 M:541286400   DEBUG: update ref map. url http://boxee-proxy.appspot.com/400x0x85/?url=http%3A%2F%2Fs3.boxee.tv%2Ftitlethumbs%2F2%2Ff%2Fcc3536ef4679ede38b1c4d07d7a321.jpg new ref_count 0  progress 0 (hcm)
19:04:38.0441 T:3038759824 M:541286400   DEBUG: Creating album thumb from memory: special://masterprofile/profiles/jvr1976/Thumbnails/Video/8/8a29496f.tbn
19:04:38.0449 T:3040865168 M:540778496   DEBUG: CMetadataResolverVideo::RemoveYear, name = Valor de ley [DVDSCR][Mic][ESP][Xvid][LimiteXvid.com], newName = Valor de ley [DVDSCR][Mic][ESP][Xvid][LimiteXvid.com], year =  (cleanname)
19:04:38.0450 T:3040865168 M:540778496   DEBUG: CMetadataResolverVideo::ExtractDailyShows - try to resolve tv show [Valor de ley [DVDSCR][Mic][ESP][Xvid][LimiteXvid.com]] as daily show (ds)
19:04:38.0451 T:3040865168 M:540778496   DEBUG: CMetadataResolverVideo::RemoveYear, name = Valor de ley [DVDSCR][Mic][ESP][Xvid][LimiteXvid.com], newName = Valor de ley [DVDSCR][Mic][ESP][Xvid][LimiteXvid.com], year =  (cleanname)
19:04:38.0458 T:3040865168 M:540778496   DEBUG: CMetadataResolver::ResolveVideoFolder - Resolving video folder [path=/tmp/mnt/CA5CEACD5CEAB37D/PELICULAS/Valor de ley [DVDSCR][Mic][ESP][Xvid][LimiteXvid.com]/][ParentFolder=/tmp/mnt/CA5CEACD5CEAB37D/PELICULAS/Valor de ley [DVDSCR][Mic][ESP][Xvid][LimiteXvid.com]/][ParentFolderName=Valor de ley] (resolver)(videoresolver)
19:04:38.0501 T:3038759824 M:540704768   DEBUG: TouchThumbnailFile touch thumbnail file special://masterprofile/profiles/jvr1976/Thumbnails/Video/8/8a29496f.tbn size 40827  (thm)
19:04:38.0514 T:3038759824 M:540688384   DEBUG: TouchThumbnailFile touch thumbnail file special://masterprofile/profiles/jvr1976/Thumbnails/Video/8/8a29496f.tbn doesn't exist - add new  total 8 files average time 1298397855 (thm)
19:04:38.0524 T:3038759824 M:540688384   DEBUG: Boxee: 22/02/11 18:04:38.5244#DEBUG#bxvideodatabase.cpp:1074(AddVideo)#BXVideoDatabase::AddVideo, Adding video, path = /tmp/mnt/CA5CEACD5CEAB37D/PELICULAS/ (videodb)
19:04:38.0525 T:3038759824 M:540688384   DEBUG: Boxee: 22/02/11 18:04:38.5250#DEBUG#bxvideodatabase.cpp:1087(AddVideo)#BXVideoDatabase::AddVideo, Adding video, title The Fighter, path /tmp/mnt/CA5CEACD5CEAB37D/PELICULAS/
19:04:39.0355 T:3074115360 M:540749824   DEBUG: SDLKeyboard: scancode: 106, sym: 275, unicode: 0, modifier: 0
19:04:39.0356 T:3074115360 M:540749824   DEBUG: CApplication::OnKey - [key=61479][window=10423][action=2]
19:04:39.0356 T:3074115360 M:540749824   DEBUG: OnKey: 61479 pressed, action is 2
19:04:39.0358 T:3074115360 M:540749824   DEBUG: CGUIDialogBoxeeBrowseMenu::DrawMenu, m_iCurrentRowIndex = 0, m_iPreviousRowIndex = 0, initialRow = 1 (browsemenu)
19:04:39.0358 T:3074115360 M:540749824   DEBUG: CGUIDialogBoxeeBrowseMenu::DrawMenu, CLEAR menu row at index =  1 (browsemenu)
19:04:39.0358 T:3074115360 M:540749824   DEBUG: CGUIDialogBoxeeBrowseMenu::DrawMenu, CLEAR menu row at index =  2 (browsemenu)
19:04:39.0359 T:3074115360 M:540753920   DEBUG: CGUIDialogBoxeeBrowseMenu::DrawMenu, CLEAR menu row at index =  3 (browsemenu)
19:04:39.0359 T:3074115360 M:540753920   DEBUG: CGUIDialogBoxeeBrowseMenu::DrawMenu, CLEAR menu row at index =  4 (browsemenu)
19:04:39.0359 T:3074115360 M:540753920   DEBUG: Adding button label = All to row id = 1 at index = 0 (browsemenu)
19:04:39.0360 T:3074115360 M:540753920   DEBUG: Adding button label = Favorites to row id = 1 at index = 1 (browsemenu)
19:04:39.0360 T:3074115360 M:540753920   DEBUG: Adding button label = Genres to row id = 1 at index = 2 (browsemenu)
19:04:39.0360 T:3074115360 M:540753920   DEBUG: Adding button label = Channels to row id = 1 at index = 3 (browsemenu)
19:04:39.0360 T:3074115360 M:540753920   DEBUG: Adding button label = Files to row id = 1 at index = 4 (browsemenu)
19:04:39.0406 T:3040865168 M:540749824   DEBUG: CMetadataResolverVideo::RemoveYear, name = Valor de ley [DVDSCR][Mic][ESP][Xvid][LimiteXvid.com], newName = Valor de ley [DVDSCR][Mic][ESP][Xvid][LimiteXvid.com], year =  (cleanname)
19:04:39.0407 T:3040865168 M:540749824   DEBUG: CMetadataResolverVideo::ExtractPathSeriesTag, try to resolve tv show by path /tmp/mnt/CA5CEACD5CEAB37D/PELICULAS/Valor de ley [DVDSCR][Mic][ESP][Xvid][LimiteXvid.com]/Valor de ley [DVDSCR][Mic][ESP][Xvid][LimiteXvid.com].avi title Valor de ley [DVDSCR][Mic][ESP][Xvid][LimiteXvid.com]
19:04:39.0407 T:3040865168 M:540749824   DEBUG: could not extract season from parent folder Valor de ley [DVDSCR][Mic][ESP][Xvid][LimiteXvid.com]
19:04:39.0407 T:3040865168 M:540749824   DEBUG: CMetadataResolverVideo::ExtractDailyShows - try to resolve tv show [Valor de ley [DVDSCR][Mic][ESP][Xvid][LimiteXvid.com].avi] as daily show (ds)
19:04:39.0408 T:3040865168 M:540749824   DEBUG: CMetadataResolverVideo::RemoveYear, name = Valor de ley [DVDSCR][Mic][ESP][Xvid][LimiteXvid.com].avi, newName = Valor de ley [DVDSCR][Mic][ESP][Xvid][LimiteXvid.com].avi, year =  (cleanname)
19:04:39.0456 T:3040865168 M:541032448   DEBUG: CMetadataResolverVideo::ResolveVideo, resolving video, path = /tmp/mnt/CA5CEACD5CEAB37D/PELICULAS/Valor de ley [DVDSCR][Mic][ESP][Xvid][LimiteXvid.com]/Valor de ley [DVDSCR][Mic][ESP][Xvid][LimiteXvid.com].avi (videoresolver) (resolver)
19:04:39.0457 T:3040865168 M:541032448   DEBUG: CMetadataResolverVideo::ResolveVideoSendServerReq, resolving video by file, path = /tmp/mnt/CA5CEACD5CEAB37D/PELICULAS/Valor de ley [DVDSCR][Mic][ESP][Xvid][LimiteXvid.com]/Valor de ley [DVDSCR][Mic][ESP][Xvid][LimiteXvid.com].avi  (videoresolver) (resolver)
19:04:39.0462 T:3040865168 M:541032448   DEBUG: CMetadataResolverVideo::ResolveVideoSendServerReq, resolving movie, path = /tmp/mnt/CA5CEACD5CEAB37D/PELICULAS/Valor de ley [DVDSCR][Mic][ESP][Xvid][LimiteXvid.com]/Valor de ley [DVDSCR][Mic][ESP][Xvid][LimiteXvid.com].avi, name = Valor de ley, link = http://res.boxee.tv/title/movie/?h=ecd9c59135619100%3a1398552576&name=Valor%20de%20ley (videoresolver) (resolver)
19:04:39.0463 T:3040865168 M:541032448   DEBUG: Initializing feed: http://res.boxee.tv/title/movie/?h=ecd9c59135619100%3a1398552576&name=Valor%20de%20ley
19:04:39.0463 T:3040865168 M:541032448   DEBUG: ReadFeed - RSS, Loading feed from URL: http://res.boxee.tv/title/movie/?h=ecd9c59135619100%3a1398552576&name=Valor%20de%20ley
19:04:39.0466 T:3040865168 M:541032448   DEBUG: update ref map. url http://res.boxee.tv/title/movie/?h=ecd9c59135619100%3a1398552576&name=Valor%20de%20ley new ref_count 1  progress 0 (hcm)
19:04:39.0466 T:3040865168 M:541032448   DEBUG: CHttpCacheManager::StartCachingURL   push http://res.boxee.tv/title/movie/?h=ecd9c59135619100%3a1398552576&name=Valor%20de%20ley to  m_references (hcm)
19:04:39.0471 T:3040865168 M:541032448   DEBUG: Boxee: 22/02/11 18:04:39.4710#DEBUG#bxcurl.cpp:285(InitHttpTransfer)#setting creds to: <jvr1976:a+EeRvK3VVCLsJlTHMavtw==>
19:04:39.0670 T:3074115360 M:541048832   DEBUG: SDLKeyboard: scancode: 106, sym: 275, unicode: 0, modifier: 0
19:04:39.0670 T:3074115360 M:541048832   DEBUG: CApplication::OnKey - [key=61479][window=10423][action=2]
19:04:39.0671 T:3074115360 M:541052928   DEBUG: OnKey: 61479 pressed, action is 2
19:04:39.0673 T:3074115360 M:541052928   DEBUG: CGUIDialogBoxeeBrowseMenu::DrawMenu, m_iCurrentRowIndex = 0, m_iPreviousRowIndex = 0, initialRow = 1 (browsemenu)
19:04:39.0674 T:3074115360 M:541052928   DEBUG: CGUIDialogBoxeeBrowseMenu::DrawMenu, CLEAR menu row at index =  1 (browsemenu)
19:04:39.0674 T:3074115360 M:541052928   DEBUG: CGUIDialogBoxeeBrowseMenu::DrawMenu, CLEAR menu row at index =  2 (browsemenu)
19:04:39.0674 T:3074115360 M:541052928   DEBUG: CGUIDialogBoxeeBrowseMenu::DrawMenu, CLEAR menu row at index =  3 (browsemenu)
19:04:39.0675 T:3074115360 M:541052928   DEBUG: CGUIDialogBoxeeBrowseMenu::DrawMenu, CLEAR menu row at index =  4 (browsemenu)
19:04:39.0675 T:3074115360 M:541052928   DEBUG: Adding button label = All to row id = 1 at index = 0 (browsemenu)
19:04:39.0675 T:3074115360 M:541052928   DEBUG: Adding button label = Genres to row id = 1 at index = 1 (browsemenu)
19:04:39.0676 T:3074115360 M:541052928   DEBUG: Adding button label = Channels to row id = 1 at index = 2 (browsemenu)
19:04:39.0676 T:3074115360 M:541052928   DEBUG: Adding button label = Files to row id = 1 at index = 3 (browsemenu)
19:04:39.0831 T:3040865168 M:541052928   DEBUG: Boxee: 22/02/11 18:04:39.8315#DEBUG#bxcurl.cpp:507(HttpGetString)#curl_easy_perform failed (The requested URL returned error: 404)!
19:04:39.0832 T:3040865168 M:541052928   DEBUG: update ref map. url http://res.boxee.tv/title/movie/?h=ecd9c59135619100%3a1398552576&name=Valor%20de%20ley new ref_count 1  progress 0 (hcm)
19:04:39.0832 T:3040865168 M:541052928   DEBUG: update ref map. url http://res.boxee.tv/title/movie/?h=ecd9c59135619100%3a1398552576&name=Valor%20de%20ley new ref_count 0  progress 0 (hcm)
19:04:39.0834 T:3040865168 M:541052928 WARNING: ReadFeed - RSS Init failed, could not parse feed http://res.boxee.tv/title/movie/?h=ecd9c59135619100%3a1398552576&name=Valor%20de%20ley. Reason: (null), Row: -1 Col: -1
19:04:39.0834 T:3040865168 M:541052928   DEBUG: CMetadataResolverVideo::ResolveVideo, could not resolve video by name, path = /tmp/mnt/CA5CEACD5CEAB37D/PELICULAS/Valor de ley [DVDSCR][Mic][ESP][Xvid][LimiteXvid.com]/Valor de ley [DVDSCR][Mic][ESP][Xvid][LimiteXvid.com].avi (videoresolver) (resolver)
19:04:39.0835 T:3040865168 M:541052928   DEBUG: CMetadataResolverVideo::ResolveVideoSendServerReq, resolving video by folder, path = /tmp/mnt/CA5CEACD5CEAB37D/PELICULAS/Valor de ley [DVDSCR][Mic][ESP][Xvid][LimiteXvid.com]/Valor de ley [DVDSCR][Mic][ESP][Xvid][LimiteXvid.com].avi  (videoresolver) (resolver)
19:04:39.0840 T:3040865168 M:541052928   DEBUG: CMetadataResolverVideo::ResolveVideoSendServerReq, resolving movie, path = /tmp/mnt/CA5CEACD5CEAB37D/PELICULAS/Valor de ley [DVDSCR][Mic][ESP][Xvid][LimiteXvid.com]/Valor de ley [DVDSCR][Mic][ESP][Xvid][LimiteXvid.com].avi, name = Valor de ley, link = http://res.boxee.tv/title/movie/?h=ecd9c59135619100%3a1398552576&name=Valor%20de%20ley (videoresolver) (resolver)
19:04:39.0840 T:3040865168 M:541052928   DEBUG: Initializing feed: http://res.boxee.tv/title/movie/?h=ecd9c59135619100%3a1398552576&name=Valor%20de%20ley
19:04:39.0841 T:3040865168 M:541052928   DEBUG: ReadFeed - RSS, Loading feed from URL: http://res.boxee.tv/title/movie/?h=ecd9c59135619100%3a1398552576&name=Valor%20de%20ley
19:04:39.0843 T:3040865168 M:541052928   DEBUG: update ref map. url http://res.boxee.tv/title/movie/?h=ecd9c59135619100%3a1398552576&name=Valor%20de%20ley new ref_count 1  progress 0 (hcm)
19:04:39.0844 T:3040865168 M:541052928   DEBUG: CHttpCacheManager::StartCachingURL   push http://res.boxee.tv/title/movie/?h=ecd9c59135619100%3a1398552576&name=Valor%20de%20ley to  m_references (hcm)
19:04:39.0848 T:3040865168 M:541052928   DEBUG: Boxee: 22/02/11 18:04:39.8484#DEBUG#bxcurl.cpp:285(InitHttpTransfer)#setting creds to: <jvr1976:a+EeRvK3VVCLsJlTHMavtw==>
19:04:39.0995 T:3074115360 M:541052928   DEBUG: SDLKeyboard: scancode: 106, sym: 275, unicode: 0, modifier: 0
19:04:39.0995 T:3074115360 M:541052928   DEBUG: CApplication::OnKey - [key=61479][window=10423][action=2]
19:04:39.0996 T:3074115360 M:541057024   DEBUG: OnKey: 61479 pressed, action is 2
19:04:39.0997 T:3074115360 M:541057024   DEBUG: CGUIDialogBoxeeBrowseMenu::DrawMenu, m_iCurrentRowIndex = 0, m_iPreviousRowIndex = 0, initialRow = 1 (browsemenu)
19:04:39.0998 T:3074115360 M:541057024   DEBUG: CGUIDialogBoxeeBrowseMenu::DrawMenu, CLEAR menu row at index =  1 (browsemenu)
19:04:39.0998 T:3074115360 M:541057024   DEBUG: CGUIDialogBoxeeBrowseMenu::DrawMenu, CLEAR menu row at index =  2 (browsemenu)
19:04:39.0999 T:3074115360 M:541057024   DEBUG: CGUIDialogBoxeeBrowseMenu::DrawMenu, CLEAR menu row at index =  3 (browsemenu)
19:04:39.0999 T:3074115360 M:541057024   DEBUG: CGUIDialogBoxeeBrowseMenu::DrawMenu, CLEAR menu row at index =  4 (browsemenu)
19:04:39.0999 T:3074115360 M:541057024   DEBUG: Adding button label = All to row id = 1 at index = 0 (browsemenu)
19:04:39.0999 T:3074115360 M:541057024   DEBUG: Adding button label = Favorites to row id = 1 at index = 1 (browsemenu)
19:04:40.0000 T:3074115360 M:541057024   DEBUG: Adding button label = Categories to row id = 1 at index = 2 (browsemenu)
19:04:40.0000 T:3074115360 M:541057024   DEBUG: Adding button label = Repositories to row id = 1 at index = 3 (browsemenu)
19:04:40.0211 T:3040865168 M:541057024   DEBUG: Boxee: 22/02/11 18:04:40.2116#DEBUG#bxcurl.cpp:507(HttpGetString)#curl_easy_perform failed (The requested URL returned error: 404)!
19:04:40.0212 T:3040865168 M:541057024   DEBUG: update ref map. url http://res.boxee.tv/title/movie/?h=ecd9c59135619100%3a1398552576&name=Valor%20de%20ley new ref_count 1  progress 0 (hcm)
19:04:40.0213 T:3040865168 M:541057024   DEBUG: update ref map. url http://res.boxee.tv/title/movie/?h=ecd9c59135619100%3a1398552576&name=Valor%20de%20ley new ref_count 0  progress 0 (hcm)
19:04:40.0214 T:3040865168 M:541057024 WARNING: ReadFeed - RSS Init failed, could not parse feed http://res.boxee.tv/title/movie/?h=ecd9c59135619100%3a1398552576&name=Valor%20de%20ley. Reason: (null), Row: -1 Col: -1
19:04:40.0214 T:3040865168 M:541057024   DEBUG: CMetadataResolverVideo::ResolveVideo, could not resolve video by folder name, path = /tmp/mnt/CA5CEACD5CEAB37D/PELICULAS/Valor de ley [DVDSCR][Mic][ESP][Xvid][LimiteXvid.com]/ (videoresolver) (resolver)
19:04:40.0215 T:3040865168 M:541057024   DEBUG: CMetadataResolver::ResolveVideoFolder, Could not resolve metadata for video, path = /tmp/mnt/CA5CEACD5CEAB37D/PELICULAS/Valor de ley [DVDSCR][Mic][ESP][Xvid][LimiteXvid.com]/Valor de ley [DVDSCR][Mic][ESP][Xvid][LimiteXvid.com].avi, name = Valor de ley (resolver) (videoresolver)
19:04:40.0800 T:3040865168 M:541081600   DEBUG: CMetadataResolver::ResolveVideoFolder, Updating folder status, path = /tmp/mnt/CA5CEACD5CEAB37D/PELICULAS/Valor de ley [DVDSCR][Mic][ESP][Xvid][LimiteXvid.com]/, items = 1, resolved = 0 (resolver) (videoresolver)
19:04:41.0783 T:3040865168 M:541122560   ERROR: CMetadataResolver::Resolve - exit and return [2] for folder [/tmp/mnt/CA5CEACD5CEAB37D/PELICULAS/Valor de ley [DVDSCR][Mic][ESP][Xvid][LimiteXvid.com]/] (resolver)
19:04:42.0037 T:3033766800 M:541036544   DEBUG: no gui sound for 2 seconds. pausing device
19:04:42.0655 T:3040865168 M:541048832   DEBUG: Boxee: 22/02/11 18:04:42.6557#DEBUG#bxmetadataengine.cpp:416(DoWork)#BXMetadataScannerJob::DoWork, started resolving: /tmp/mnt/CA5CEACD5CEAB37D/PELICULAS/Como Sabes Si [TS-Screener ALTA CALIDAD][Spanish][2011]/ (resolver)
19:04:42.0656 T:3040865168 M:541048832   DEBUG: Boxee: 22/02/11 18:04:42.6563#DEBUG#bxmetadataengine.cpp:209(Resolve)#BXMetadataEngine::Resolve, Resolving folder: /tmp/mnt/CA5CEACD5CEAB37D/PELICULAS/Como Sabes Si [TS-Screener ALTA CALIDAD][Spanish][2011]/ (resolver)
19:04:42.0900 T:3040865168 M:541061120   DEBUG: CMetadataResolver::Resolve - enter with [path=/tmp/mnt/CA5CEACD5CEAB37D/PELICULAS/Como Sabes Si [TS-Screener ALTA CALIDAD][Spanish][2011]/] (resolver)
19:04:42.0900 T:3040865168 M:541061120   DEBUG: CSettings::IsPathOnSource, path = /tmp/mnt/CA5CEACD5CEAB37D/PELICULAS/Como Sabes Si [TS-Screener ALTA CALIDAD][Spanish][2011]/ (checkpath)
19:04:42.0902 T:3040865168 M:541073408   DEBUG: CMetadataResolver::Resolve - going to resolve VIDEO folder [path=/tmp/mnt/CA5CEACD5CEAB37D/PELICULAS/Como Sabes Si [TS-Screener ALTA CALIDAD][Spanish][2011]/] (resolver)
19:04:42.0903 T:3040865168 M:541073408   DEBUG: CMetadataResolverVideo::RemoveYear, name = Como Sabes Si [TS-Screener ALTA CALIDAD][Spanish][2011], newName = Como Sabes Si [TS-Screener ALTA CALIDAD][Spanish][ ], year = 2011 (cleanname)
19:04:42.0904 T:3040865168 M:541073408   DEBUG: CMetadataResolverVideo::ExtractDailyShows - try to resolve tv show [Como Sabes Si [TS-Screener ALTA CALIDAD][Spanish][2011]] as daily show (ds)
19:04:42.0904 T:3040865168 M:541073408   DEBUG: CMetadataResolverVideo::RemoveYear, name = Como Sabes Si [TS-Screener ALTA CALIDAD][Spanish][2011], newName = Como Sabes Si [TS-Screener ALTA CALIDAD][Spanish][ ], year = 2011 (cleanname)
19:04:42.0909 T:3040865168 M:541073408   DEBUG: CMetadataResolver::ResolveVideoFolder - Resolving video folder [path=/tmp/mnt/CA5CEACD5CEAB37D/PELICULAS/Como Sabes Si [TS-Screener ALTA CALIDAD][Spanish][2011]/][ParentFolder=/tmp/mnt/CA5CEACD5CEAB37D/PELICULAS/Como Sabes Si [TS-Screener ALTA CALIDAD][Spanish][2011]/][ParentFolderName=Como Sabes Si] (resolver)(videoresolver)
19:04:44.0171 T:3040865168 M:541147136   DEBUG: BoxeeUtils::MarkWatched, watched path = /tmp/mnt/CA5CEACD5CEAB37D/PELICULAS/Como Sabes Si [TS-Screener ALTA CALIDAD][Spanish][2011]/Como Sabes Si [TS-Screener ALTA CALIDAD][Spanish][2011].avi (watched)
19:04:44.0216 T:3040865168 M:541147136   DEBUG: BoxeeUtils::MarkWatched, watched path = /tmp/mnt/CA5CEACD5CEAB37D/PELICULAS/Como Sabes Si [TS-Screener ALTA CALIDAD][Spanish][2011]/Como Sabes Si [TS-Screener ALTA CALIDAD][Spanish][2011].avi (watched)
19:04:44.0219 T:3040865168 M:541147136   DEBUG: BoxeeUtils::MarkWatched, watched path = /tmp/mnt/CA5CEACD5CEAB37D/PELICULAS/Como Sabes Si [TS-Screener ALTA CALIDAD][Spanish][2011]/Como Sabes Si [TS-Screener ALTA CALIDAD][Spanish][2011].avi (watched)
19:04:44.0756 T:3038759824 M:541052928   DEBUG: CMetadataResolverVideo::RemoveYear, name = The Blind Side.BR.SCREENER.XVID.SPANISH [Divxfinal.com], newName = The Blind Side.BR.SCREENER.XVID.SPANISH [Divxfinal.com], year =  (cleanname)
19:04:44.0757 T:3038759824 M:541052928   DEBUG: CMetadataResolverVideo::ExtractPathSeriesTag, try to resolve tv show by path /tmp/mnt/CA5CEACD5CEAB37D/PELICULAS/The Blind Side.BR.SCREENER.XVID.SPANISH [Divxfinal.com].avi title The Blind Side.BR.SCREENER.XVID.SPANISH [Divxfinal.com]
19:04:44.0757 T:3038759824 M:541052928   DEBUG: could not extract season from parent folder PELICULAS
19:04:44.0758 T:3038759824 M:541052928   DEBUG: CMetadataResolverVideo::ExtractDailyShows - try to resolve tv show [The Blind Side.BR.SCREENER.XVID.SPANISH [Divxfinal.com].avi] as daily show (ds)
19:04:44.0758 T:3038759824 M:541052928   DEBUG: CMetadataResolverVideo::RemoveYear, name = The Blind Side.BR.SCREENER.XVID.SPANISH [Divxfinal.com].avi, newName = The Blind Side.BR.SCREENER.XVID.SPANISH [Divxfinal.com].avi, year =  (cleanname)
19:04:44.0825 T:3038759824 M:541192192   DEBUG: CMetadataResolverVideo::ResolveVideo, resolving video, path = /tmp/mnt/CA5CEACD5CEAB37D/PELICULAS/The Blind Side.BR.SCREENER.XVID.SPANISH [Divxfinal.com].avi (videoresolver) (resolver)
19:04:44.0825 T:3038759824 M:541192192   DEBUG: CMetadataResolverVideo::ResolveVideoSendServerReq, resolving video by file, path = /tmp/mnt/CA5CEACD5CEAB37D/PELICULAS/The Blind Side.BR.SCREENER.XVID.SPANISH [Divxfinal.com].avi  (videoresolver) (resolver)
19:04:44.0831 T:3038759824 M:541192192   DEBUG: CMetadataResolverVideo::ResolveVideoSendServerReq, resolving movie, path = /tmp/mnt/CA5CEACD5CEAB37D/PELICULAS/The Blind Side.BR.SCREENER.XVID.SPANISH [Divxfinal.com].avi, name = The Blind Side BR SCREENER, link = http://res.boxee.tv/title/movie/?h=72b47cfbee0e1bbb%3a1988554752&name=The%20Blind%20Side%20BR%20SCREENER (videoresolver) (resolver)
19:04:44.0831 T:3038759824 M:541192192   DEBUG: Initializing feed: http://res.boxee.tv/title/movie/?h=72b47cfbee0e1bbb%3a1988554752&name=The%20Blind%20Side%20BR%20SCREENER
19:04:44.0831 T:3038759824 M:541196288   DEBUG: ReadFeed - RSS, Loading feed from URL: http://res.boxee.tv/title/movie/?h=72b47cfbee0e1bbb%3a1988554752&name=The%20Blind%20Side%20BR%20SCREENER
19:04:44.0834 T:3038759824 M:541196288   DEBUG: update ref map. url http://res.boxee.tv/title/movie/?h=72b47cfbee0e1bbb%3a1988554752&name=The%20Blind%20Side%20BR%20SCREENER new ref_count 1  progress 0 (hcm)
19:04:44.0835 T:3038759824 M:541196288   DEBUG: CHttpCacheManager::StartCachingURL   push http://res.boxee.tv/title/movie/?h=72b47cfbee0e1bbb%3a1988554752&name=The%20Blind%20Side%20BR%20SCREENER to  m_references (hcm)
19:04:44.0840 T:3038759824 M:541196288   DEBUG: Boxee: 22/02/11 18:04:44.8402#DEBUG#bxcurl.cpp:285(InitHttpTransfer)#setting creds to: <jvr1976:a+EeRvK3VVCLsJlTHMavtw==>
19:04:45.0090 T:3040865168 M:541208576   DEBUG: CMetadataResolverVideo::RemoveYear, name = Como Sabes Si [TS-Screener ALTA CALIDAD][Spanish][2011], newName = Como Sabes Si [TS-Screener ALTA CALIDAD][Spanish][ ], year = 2011 (cleanname)
19:04:45.0091 T:3040865168 M:541208576   DEBUG: CMetadataResolverVideo::ExtractPathSeriesTag, try to resolve tv show by path /tmp/mnt/CA5CEACD5CEAB37D/PELICULAS/Como Sabes Si [TS-Screener ALTA CALIDAD][Spanish][2011]/Como Sabes Si [TS-Screener ALTA CALIDAD][Spanish][2011].avi title Como Sabes Si [TS-Screener ALTA CALIDAD][Spanish][ ]
19:04:45.0091 T:3040865168 M:541208576   DEBUG: could not extract season from parent folder Como Sabes Si [TS-Screener ALTA CALIDAD][Spanish][2011]
19:04:45.0092 T:3040865168 M:541208576   DEBUG: CMetadataResolverVideo::ExtractDailyShows - try to resolve tv show [Como Sabes Si [TS-Screener ALTA CALIDAD][Spanish][2011].avi] as daily show (ds)
19:04:45.0092 T:3040865168 M:541208576   DEBUG: CMetadataResolverVideo::RemoveYear, name = Como Sabes Si [TS-Screener ALTA CALIDAD][Spanish][2011].avi, newName = Como Sabes Si [TS-Screener ALTA CALIDAD][Spanish][ ].avi, year = 2011 (cleanname)
19:04:45.0122 T:3040865168 M:541220864   DEBUG: CMetadataResolverVideo::ResolveVideo, resolving video, path = /tmp/mnt/CA5CEACD5CEAB37D/PELICULAS/Como Sabes Si [TS-Screener ALTA CALIDAD][Spanish][2011]/Como Sabes Si [TS-Screener ALTA CALIDAD][Spanish][2011].avi (videoresolver) (resolver)
19:04:45.0123 T:3040865168 M:541220864   DEBUG: CMetadataResolverVideo::ResolveVideoSendServerReq, resolving video by file, path = /tmp/mnt/CA5CEACD5CEAB37D/PELICULAS/Como Sabes Si [TS-Screener ALTA CALIDAD][Spanish][2011]/Como Sabes Si [TS-Screener ALTA CALIDAD][Spanish][2011].avi  (videoresolver) (resolver)
19:04:45.0128 T:3040865168 M:541220864   DEBUG: CMetadataResolverVideo::ResolveVideoSendServerReq, resolving movie, path = /tmp/mnt/CA5CEACD5CEAB37D/PELICULAS/Como Sabes Si [TS-Screener ALTA CALIDAD][Spanish][2011]/Como Sabes Si [TS-Screener ALTA CALIDAD][Spanish][2011].avi, name = Como Sabes Si, link = http://res.boxee.tv/title/movie/?h=eb66aa3d7db439ad%3a1471979520&name=Como%20Sabes%20Si&year=2011 (videoresolver) (resolver)
19:04:45.0128 T:3040865168 M:541220864   DEBUG: Initializing feed: http://res.boxee.tv/title/movie/?h=eb66aa3d7db439ad%3a1471979520&name=Como%20Sabes%20Si&year=2011
19:04:45.0129 T:3040865168 M:541220864   DEBUG: ReadFeed - RSS, Loading feed from URL: http://res.boxee.tv/title/movie/?h=eb66aa3d7db439ad%3a1471979520&name=Como%20Sabes%20Si&year=2011
19:04:45.0131 T:3040865168 M:541220864   DEBUG: update ref map. url http://res.boxee.tv/title/movie/?h=eb66aa3d7db439ad%3a1471979520&name=Como%20Sabes%20Si&year=2011 new ref_count 1  progress 0 (hcm)
19:04:45.0131 T:3040865168 M:541220864   DEBUG: CHttpCacheManager::StartCachingURL   push http://res.boxee.tv/title/movie/?h=eb66aa3d7db439ad%3a1471979520&name=Como%20Sabes%20Si&year=2011 to  m_references (hcm)
19:04:45.0137 T:3040865168 M:541220864   DEBUG: Boxee: 22/02/11 18:04:45.1369#DEBUG#bxcurl.cpp:285(InitHttpTransfer)#setting creds to: <jvr1976:a+EeRvK3VVCLsJlTHMavtw==>
19:04:45.0515 T:3040865168 M:541220864   DEBUG: Boxee: 22/02/11 18:04:45.5155#DEBUG#bxcurl.cpp:507(HttpGetString)#curl_easy_perform failed (The requested URL returned error: 404)!
19:04:45.0516 T:3040865168 M:541224960   DEBUG: update ref map. url http://res.boxee.tv/title/movie/?h=eb66aa3d7db439ad%3a1471979520&name=Como%20Sabes%20Si&year=2011 new ref_count 1  progress 0 (hcm)
19:04:45.0516 T:3040865168 M:541224960   DEBUG: update ref map. url http://res.boxee.tv/title/movie/?h=eb66aa3d7db439ad%3a1471979520&name=Como%20Sabes%20Si&year=2011 new ref_count 0  progress 0 (hcm)
19:04:45.0517 T:3040865168 M:541224960 WARNING: ReadFeed - RSS Init failed, could not parse feed http://res.boxee.tv/title/movie/?h=eb66aa3d7db439ad%3a1471979520&name=Como%20Sabes%20Si&year=2011. Reason: (null), Row: -1 Col: -1
19:04:45.0517 T:3040865168 M:541224960   DEBUG: CMetadataResolverVideo::ResolveVideo, could not resolve video by name, path = /tmp/mnt/CA5CEACD5CEAB37D/PELICULAS/Como Sabes Si [TS-Screener ALTA CALIDAD][Spanish][2011]/Como Sabes Si [TS-Screener ALTA CALIDAD][Spanish][2011].avi (videoresolver) (resolver)
19:04:45.0517 T:3040865168 M:541224960   DEBUG: CMetadataResolverVideo::ResolveVideoSendServerReq, resolving video by folder, path = /tmp/mnt/CA5CEACD5CEAB37D/PELICULAS/Como Sabes Si [TS-Screener ALTA CALIDAD][Spanish][2011]/Como Sabes Si [TS-Screener ALTA CALIDAD][Spanish][2011].avi  (videoresolver) (resolver)
19:04:45.0523 T:3040865168 M:541224960   DEBUG: CMetadataResolverVideo::ResolveVideoSendServerReq, resolving movie, path = /tmp/mnt/CA5CEACD5CEAB37D/PELICULAS/Como Sabes Si [TS-Screener ALTA CALIDAD][Spanish][2011]/Como Sabes Si [TS-Screener ALTA CALIDAD][Spanish][2011].avi, name = Como Sabes Si, link = http://res.boxee.tv/title/movie/?h=eb66aa3d7db439ad%3a1471979520&name=Como%20Sabes%20Si&year=2011 (videoresolver) (resolver)
19:04:45.0523 T:3040865168 M:541224960   DEBUG: Initializing feed: http://res.boxee.tv/title/movie/?h=eb66aa3d7db439ad%3a1471979520&name=Como%20Sabes%20Si&year=2011
19:04:45.0524 T:3040865168 M:541224960   DEBUG: ReadFeed - RSS, Loading feed from URL: http://res.boxee.tv/title/movie/?h=eb66aa3d7db439ad%3a1471979520&name=Como%20Sabes%20Si&year=2011
19:04:45.0526 T:3040865168 M:541224960   DEBUG: update ref map. url http://res.boxee.tv/title/movie/?h=eb66aa3d7db439ad%3a1471979520&name=Como%20Sabes%20Si&year=2011 new ref_count 1  progress 0 (hcm)
19:04:45.0526 T:3040865168 M:541224960   DEBUG: CHttpCacheManager::StartCachingURL   push http://res.boxee.tv/title/movie/?h=eb66aa3d7db439ad%3a1471979520&name=Como%20Sabes%20Si&year=2011 to  m_references (hcm)
19:04:45.0531 T:3040865168 M:541224960   DEBUG: Boxee: 22/02/11 18:04:45.5311#DEBUG#bxcurl.cpp:285(InitHttpTransfer)#setting creds to: <jvr1976:a+EeRvK3VVCLsJlTHMavtw==>
19:04:45.0874 T:3040865168 M:541224960   DEBUG: Boxee: 22/02/11 18:04:45.8741#DEBUG#bxcurl.cpp:507(HttpGetString)#curl_easy_perform failed (The requested URL returned error: 404)!
19:04:45.0874 T:3040865168 M:541224960   DEBUG: update ref map. url http://res.boxee.tv/title/movie/?h=eb66aa3d7db439ad%3a1471979520&name=Como%20Sabes%20Si&year=2011 new ref_count 1  progress 0 (hcm)
19:04:45.0875 T:3040865168 M:541224960   DEBUG: update ref map. url http://res.boxee.tv/title/movie/?h=eb66aa3d7db439ad%3a1471979520&name=Como%20Sabes%20Si&year=2011 new ref_count 0  progress 0 (hcm)
19:04:45.0876 T:3040865168 M:541224960 WARNING: ReadFeed - RSS Init failed, could not parse feed http://res.boxee.tv/title/movie/?h=eb66aa3d7db439ad%3a1471979520&name=Como%20Sabes%20Si&year=2011. Reason: (null), Row: -1 Col: -1
19:04:45.0876 T:3040865168 M:541224960   DEBUG: CMetadataResolverVideo::ResolveVideo, could not resolve video by folder name, path = /tmp/mnt/CA5CEACD5CEAB37D/PELICULAS/Como Sabes Si [TS-Screener ALTA CALIDAD][Spanish][2011]/ (videoresolver) (resolver)
19:04:45.0876 T:3040865168 M:541224960   DEBUG: CMetadataResolver::ResolveVideoFolder, Could not resolve metadata for video, path = /tmp/mnt/CA5CEACD5CEAB37D/PELICULAS/Como Sabes Si [TS-Screener ALTA CALIDAD][Spanish][2011]/Como Sabes Si [TS-Screener ALTA CALIDAD][Spanish][2011].avi, name = Como Sabes Si (resolver) (videoresolver)
19:04:46.0127 T:3040865168 M:541237248   DEBUG: CMetadataResolver::ResolveVideoFolder, Updating folder status, path = /tmp/mnt/CA5CEACD5CEAB37D/PELICULAS/Como Sabes Si [TS-Screener ALTA CALIDAD][Spanish][2011]/, items = 1, resolved = 0 (resolver) (videoresolver)
19:04:46.0483 T:3040865168 M:541253632   ERROR: CMetadataResolver::Resolve - exit and return [2] for folder [/tmp/mnt/CA5CEACD5CEAB37D/PELICULAS/Como Sabes Si [TS-Screener ALTA CALIDAD][Spanish][2011]/] (resolver)
19:04:46.0485 T:3022420880 M:541261824   DEBUG: Thread 3022420880 terminating (autodelete)
19:04:48.0492 T:3038759824 M:541155328   DEBUG: Boxee: 22/02/11 18:04:48.4920#DEBUG#bxcurl.cpp:507(HttpGetString)#curl_easy_perform failed (The requested URL returned error: 404)!
19:04:48.0493 T:3038759824 M:541155328   DEBUG: update ref map. url http://res.boxee.tv/title/movie/?h=72b47cfbee0e1bbb%3a1988554752&name=The%20Blind%20Side%20BR%20SCREENER new ref_count 1  progress 0 (hcm)
19:04:48.0493 T:3038759824 M:541155328   DEBUG: update ref map. url http://res.boxee.tv/title/movie/?h=72b47cfbee0e1bbb%3a1988554752&name=The%20Blind%20Side%20BR%20SCREENER new ref_count 0  progress 0 (hcm)
19:04:48.0494 T:3038759824 M:541155328 WARNING: ReadFeed - RSS Init failed, could not parse feed http://res.boxee.tv/title/movie/?h=72b47cfbee0e1bbb%3a1988554752&name=The%20Blind%20Side%20BR%20SCREENER. Reason: (null), Row: -1 Col: -1
19:04:48.0495 T:3038759824 M:541155328   DEBUG: CMetadataResolverVideo::ResolveVideo, could not resolve video by name, path = /tmp/mnt/CA5CEACD5CEAB37D/PELICULAS/The Blind Side.BR.SCREENER.XVID.SPANISH [Divxfinal.com].avi (videoresolver) (resolver)
19:04:48.0495 T:3038759824 M:541155328   DEBUG: CMetadataResolverVideo::ResolveVideoSendServerReq, resolving video by folder, path = /tmp/mnt/CA5CEACD5CEAB37D/PELICULAS/The Blind Side.BR.SCREENER.XVID.SPANISH [Divxfinal.com].avi  (videoresolver) (resolver)
19:04:48.0500 T:3038759824 M:541155328   DEBUG: CMetadataResolverVideo::ResolveVideoSendServerReq, resolving movie, path = /tmp/mnt/CA5CEACD5CEAB37D/PELICULAS/The Blind Side.BR.SCREENER.XVID.SPANISH [Divxfinal.com].avi, name = The Blind Side BR SCREENER, link = http://res.boxee.tv/title/movie/?h=72b47cfbee0e1bbb%3a1988554752&name=PELICULAS (videoresolver) (resolver)
19:04:48.0501 T:3038759824 M:541155328   DEBUG: Initializing feed: http://res.boxee.tv/title/movie/?h=72b47cfbee0e1bbb%3a1988554752&name=PELICULAS
19:04:48.0501 T:3038759824 M:541155328   DEBUG: ReadFeed - RSS, Loading feed from URL: http://res.boxee.tv/title/movie/?h=72b47cfbee0e1bbb%3a1988554752&name=PELICULAS
19:04:48.0504 T:3038759824 M:541155328   DEBUG: update ref map. url http://res.boxee.tv/title/movie/?h=72b47cfbee0e1bbb%3a1988554752&name=PELICULAS new ref_count 1  progress 0 (hcm)
19:04:48.0504 T:3038759824 M:541155328   DEBUG: CHttpCacheManager::StartCachingURL   push http://res.boxee.tv/title/movie/?h=72b47cfbee0e1bbb%3a1988554752&name=PELICULAS to  m_references (hcm)
19:04:48.0508 T:3038759824 M:541155328   DEBUG: Boxee: 22/02/11 18:04:48.5089#DEBUG#bxcurl.cpp:285(InitHttpTransfer)#setting creds to: <jvr1976:a+EeRvK3VVCLsJlTHMavtw==>
19:04:48.0876 T:3038759824 M:541155328   DEBUG: Boxee: 22/02/11 18:04:48.8763#DEBUG#bxcurl.cpp:507(HttpGetString)#curl_easy_perform failed (The requested URL returned error: 404)!
19:04:48.0877 T:3038759824 M:541155328   DEBUG: update ref map. url http://res.boxee.tv/title/movie/?h=72b47cfbee0e1bbb%3a1988554752&name=PELICULAS new ref_count 1  progress 0 (hcm)
19:04:48.0877 T:3038759824 M:541155328   DEBUG: update ref map. url http://res.boxee.tv/title/movie/?h=72b47cfbee0e1bbb%3a1988554752&name=PELICULAS new ref_count 0  progress 0 (hcm)
19:04:48.0878 T:3038759824 M:541155328 WARNING: ReadFeed - RSS Init failed, could not parse feed http://res.boxee.tv/title/movie/?h=72b47cfbee0e1bbb%3a1988554752&name=PELICULAS. Reason: (null), Row: -1 Col: -1
19:04:48.0878 T:3038759824 M:541155328   DEBUG: CMetadataResolverVideo::ResolveVideo, could not resolve video by folder name, path = /tmp/mnt/CA5CEACD5CEAB37D/PELICULAS/ (videoresolver) (resolver)
19:04:48.0878 T:3038759824 M:541155328   DEBUG: CMetadataResolver::ResolveVideoFolder, Could not resolve metadata for video, path = /tmp/mnt/CA5CEACD5CEAB37D/PELICULAS/The Blind Side.BR.SCREENER.XVID.SPANISH [Divxfinal.com].avi, name = The Blind Side BR SCREENER (resolver) (videoresolver)
19:04:49.0624 T:3038759824 M:541057024   DEBUG: CMetadataResolverVideo::RemoveYear, name = Tenias que ser Tu [BRSCREENER][Xvid][Spanish].DivxFinal.com, newName = Tenias que ser Tu [BRSCREENER][Xvid][Spanish].DivxFinal.com, year =  (cleanname)
19:04:49.0625 T:3038759824 M:541057024   DEBUG: CMetadataResolverVideo::ExtractPathSeriesTag, try to resolve tv show by path /tmp/mnt/CA5CEACD5CEAB37D/PELICULAS/Tenias que ser Tu [BRSCREENER][Xvid][Spanish].DivxFinal.com.avi title Tenias que ser Tu [BRSCREENER][Xvid][Spanish].DivxFinal.com
19:04:49.0625 T:3038759824 M:541057024   DEBUG: could not extract season from parent folder PELICULAS
19:04:49.0625 T:3038759824 M:541057024   DEBUG: CMetadataResolverVideo::ExtractDailyShows - try to resolve tv show [Tenias que ser Tu [BRSCREENER][Xvid][Spanish].DivxFinal.com.avi] as daily show (ds)
19:04:49.0626 T:3038759824 M:541057024   DEBUG: CMetadataResolverVideo::RemoveYear, name = Tenias que ser Tu [BRSCREENER][Xvid][Spanish].DivxFinal.com.avi, newName = Tenias que ser Tu [BRSCREENER][Xvid][Spanish].DivxFinal.com.avi, year =  (cleanname)
19:04:49.0676 T:3038759824 M:541204480   DEBUG: CMetadataResolverVideo::ResolveVideo, resolving video, path = /tmp/mnt/CA5CEACD5CEAB37D/PELICULAS/Tenias que ser Tu [BRSCREENER][Xvid][Spanish].DivxFinal.com.avi (videoresolver) (resolver)
19:04:49.0677 T:3038759824 M:541204480   DEBUG: CMetadataResolverVideo::ResolveVideoSendServerReq, resolving video by file, path = /tmp/mnt/CA5CEACD5CEAB37D/PELICULAS/Tenias que ser Tu [BRSCREENER][Xvid][Spanish].DivxFinal.com.avi  (videoresolver) (resolver)
19:04:49.0681 T:3038759824 M:541204480   DEBUG: CMetadataResolverVideo::ResolveVideoSendServerReq, resolving movie, path = /tmp/mnt/CA5CEACD5CEAB37D/PELICULAS/Tenias que ser Tu [BRSCREENER][Xvid][Spanish].DivxFinal.com.avi, name = Tenias que ser Tu, link = http://res.boxee.tv/title/movie/?h=382069e7974ef724%3a1309628416&name=Tenias%20que%20ser%20Tu (videoresolver) (resolver)
19:04:49.0682 T:3038759824 M:541204480   DEBUG: Initializing feed: http://res.boxee.tv/title/movie/?h=382069e7974ef724%3a1309628416&name=Tenias%20que%20ser%20Tu
19:04:49.0683 T:3038759824 M:541204480   DEBUG: ReadFeed - RSS, Loading feed from URL: http://res.boxee.tv/title/movie/?h=382069e7974ef724%3a1309628416&name=Tenias%20que%20ser%20Tu
19:04:49.0685 T:3038759824 M:541204480   DEBUG: update ref map. url http://res.boxee.tv/title/movie/?h=382069e7974ef724%3a1309628416&name=Tenias%20que%20ser%20Tu new ref_count 1  progress 0 (hcm)
19:04:49.0686 T:3038759824 M:541204480   DEBUG: CHttpCacheManager::StartCachingURL   push http://res.boxee.tv/title/movie/?h=382069e7974ef724%3a1309628416&name=Tenias%20que%20ser%20Tu to  m_references (hcm)
19:04:49.0690 T:3038759824 M:541204480   DEBUG: Boxee: 22/02/11 18:04:49.6905#DEBUG#bxcurl.cpp:285(InitHttpTransfer)#setting creds to: <jvr1976:a+EeRvK3VVCLsJlTHMavtw==>
19:04:50.0050 T:3038759824 M:541204480   DEBUG: Boxee: 22/02/11 18:04:50.505#DEBUG#bxcurl.cpp:507(HttpGetString)#curl_easy_perform failed (The requested URL returned error: 404)!
19:04:50.0051 T:3038759824 M:541204480   DEBUG: update ref map. url http://res.boxee.tv/title/movie/?h=382069e7974ef724%3a1309628416&name=Tenias%20que%20ser%20Tu new ref_count 1  progress 0 (hcm)
19:04:50.0051 T:3038759824 M:541204480   DEBUG: update ref map. url http://res.boxee.tv/title/movie/?h=382069e7974ef724%3a1309628416&name=Tenias%20que%20ser%20Tu new ref_count 0  progress 0 (hcm)
19:04:50.0052 T:3038759824 M:541204480 WARNING: ReadFeed - RSS Init failed, could not parse feed http://res.boxee.tv/title/movie/?h=382069e7974ef724%3a1309628416&name=Tenias%20que%20ser%20Tu. Reason: (null), Row: -1 Col: -1
19:04:50.0053 T:3038759824 M:541204480   DEBUG: CMetadataResolverVideo::ResolveVideo, could not resolve video by name, path = /tmp/mnt/CA5CEACD5CEAB37D/PELICULAS/Tenias que ser Tu [BRSCREENER][Xvid][Spanish].DivxFinal.com.avi (videoresolver) (resolver)
19:04:50.0053 T:3038759824 M:541208576   DEBUG: CMetadataResolverVideo::ResolveVideoSendServerReq, resolving video by folder, path = /tmp/mnt/CA5CEACD5CEAB37D/PELICULAS/Tenias que ser Tu [BRSCREENER][Xvid][Spanish].DivxFinal.com.avi  (videoresolver) (resolver)
19:04:50.0058 T:3038759824 M:541208576   DEBUG: CMetadataResolverVideo::ResolveVideoSendServerReq, resolving movie, path = /tmp/mnt/CA5CEACD5CEAB37D/PELICULAS/Tenias que ser Tu [BRSCREENER][Xvid][Spanish].DivxFinal.com.avi, name = Tenias que ser Tu, link = http://res.boxee.tv/title/movie/?h=382069e7974ef724%3a1309628416&name=PELICULAS (videoresolver) (resolver)
19:04:50.0059 T:3038759824 M:541208576   DEBUG: Initializing feed: http://res.boxee.tv/title/movie/?h=382069e7974ef724%3a1309628416&name=PELICULAS
19:04:50.0059 T:3038759824 M:541208576   DEBUG: ReadFeed - RSS, Loading feed from URL: http://res.boxee.tv/title/movie/?h=382069e7974ef724%3a1309628416&name=PELICULAS
19:04:50.0061 T:3038759824 M:541208576   DEBUG: update ref map. url http://res.boxee.tv/title/movie/?h=382069e7974ef724%3a1309628416&name=PELICULAS new ref_count 1  progress 0 (hcm)
19:04:50.0062 T:3038759824 M:541208576   DEBUG: CHttpCacheManager::StartCachingURL   push http://res.boxee.tv/title/movie/?h=382069e7974ef724%3a1309628416&name=PELICULAS to  m_references (hcm)
19:04:50.0067 T:3038759824 M:541208576   DEBUG: Boxee: 22/02/11 18:04:50.675#DEBUG#bxcurl.cpp:285(InitHttpTransfer)#setting creds to: <jvr1976:a+EeRvK3VVCLsJlTHMavtw==>
19:04:50.0441 T:3074115360 M:541208576   DEBUG: (dbg) FreeMem 528524/644016 Kb, FPS 44.0, CPU0: 48.1%  Loader Q:[0] Textures:[72 (23.48 M)] SERVER: [67.225.149.139] ver: 1.0.4.17443
19:04:50.0442 T:3074115360 M:541208576   DEBUG: (dbg)
19:04:51.0498 T:3038759824 M:541208576   DEBUG: Boxee: 22/02/11 18:04:51.4981#DEBUG#bxcurl.cpp:507(HttpGetString)#curl_easy_perform failed (The requested URL returned error: 404)!
19:04:51.0498 T:3038759824 M:541208576   DEBUG: update ref map. url http://res.boxee.tv/title/movie/?h=382069e7974ef724%3a1309628416&name=PELICULAS new ref_count 1  progress 0 (hcm)
19:04:51.0499 T:3038759824 M:541208576   DEBUG: update ref map. url http://res.boxee.tv/title/movie/?h=382069e7974ef724%3a1309628416&name=PELICULAS new ref_count 0  progress 0 (hcm)
19:04:51.0499 T:3038759824 M:541208576 WARNING: ReadFeed - RSS Init failed, could not parse feed http://res.boxee.tv/title/movie/?h=382069e7974ef724%3a1309628416&name=PELICULAS. Reason: (null), Row: -1 Col: -1
19:04:51.0500 T:3038759824 M:541208576   DEBUG: CMetadataResolverVideo::ResolveVideo, could not resolve video by folder name, path = /tmp/mnt/CA5CEACD5CEAB37D/PELICULAS/ (videoresolver) (resolver)
19:04:51.0500 T:3038759824 M:541208576   DEBUG: CMetadataResolver::ResolveVideoFolder, Could not resolve metadata for video, path = /tmp/mnt/CA5CEACD5CEAB37D/PELICULAS/Tenias que ser Tu [BRSCREENER][Xvid][Spanish].DivxFinal.com.avi, name = Tenias que ser Tu (resolver) (videoresolver)
19:04:52.0050 T:3038759824 M:541233152   DEBUG: CMetadataResolverVideo::RemoveYear, name = Stone.[Spanish].DVDScreener.XviD.[DTL], newName = Stone.[Spanish].DVDScreener.XviD.[DTL], year =  (cleanname)
19:04:52.0052 T:3038759824 M:541233152   DEBUG: CMetadataResolverVideo::ExtractPathSeriesTag, try to resolve tv show by path /tmp/mnt/CA5CEACD5CEAB37D/PELICULAS/Stone.[Spanish].DVDScreener.XviD.[DTL].avi title Stone.[Spanish].DVDScreener.XviD.[DTL]
19:04:52.0052 T:3038759824 M:541233152   DEBUG: could not extract season from parent folder PELICULAS
19:04:52.0053 T:3038759824 M:541233152   DEBUG: CMetadataResolverVideo::ExtractDailyShows - try to resolve tv show [Stone.[Spanish].DVDScreener.XviD.[DTL].avi] as daily show (ds)
19:04:52.0054 T:3038759824 M:541233152   DEBUG: CMetadataResolverVideo::RemoveYear, name = Stone.[Spanish].DVDScreener.XviD.[DTL].avi, newName = Stone.[Spanish].DVDScreener.XviD.[DTL].avi, year =  (cleanname)
19:04:52.0119 T:3038759824 M:541126656   DEBUG: CMetadataResolverVideo::ResolveVideo, resolving video, path = /tmp/mnt/CA5CEACD5CEAB37D/PELICULAS/Stone.[Spanish].DVDScreener.XviD.[DTL].avi (videoresolver) (resolver)
19:04:52.0119 T:3038759824 M:541130752   DEBUG: CMetadataResolverVideo::ResolveVideoSendServerReq, resolving video by file, path = /tmp/mnt/CA5CEACD5CEAB37D/PELICULAS/Stone.[Spanish].DVDScreener.XviD.[DTL].avi  (videoresolver) (resolver)
19:04:52.0124 T:3038759824 M:541130752   DEBUG: CMetadataResolverVideo::ResolveVideoSendServerReq, resolving movie, path = /tmp/mnt/CA5CEACD5CEAB37D/PELICULAS/Stone.[Spanish].DVDScreener.XviD.[DTL].avi, name = Stone, link = http://res.boxee.tv/title/movie/?h=1c5fe42bbcc85991%3a1224902656&name=Stone (videoresolver) (resolver)
19:04:52.0125 T:3038759824 M:541130752   DEBUG: Initializing feed: http://res.boxee.tv/title/movie/?h=1c5fe42bbcc85991%3a1224902656&name=Stone
19:04:52.0125 T:3038759824 M:541130752   DEBUG: ReadFeed - RSS, Loading feed from URL: http://res.boxee.tv/title/movie/?h=1c5fe42bbcc85991%3a1224902656&name=Stone
19:04:52.0127 T:3038759824 M:541130752   DEBUG: update ref map. url http://res.boxee.tv/title/movie/?h=1c5fe42bbcc85991%3a1224902656&name=Stone new ref_count 1  progress 0 (hcm)
19:04:52.0128 T:3038759824 M:541130752   DEBUG: CHttpCacheManager::StartCachingURL   push http://res.boxee.tv/title/movie/?h=1c5fe42bbcc85991%3a1224902656&name=Stone to  m_references (hcm)
19:04:52.0133 T:3038759824 M:541130752   DEBUG: Boxee: 22/02/11 18:04:52.1331#DEBUG#bxcurl.cpp:285(InitHttpTransfer)#setting creds to: <jvr1976:a+EeRvK3VVCLsJlTHMavtw==>
19:04:52.0484 T:3038759824 M:541134848   DEBUG: update ref map. url http://res.boxee.tv/title/movie/?h=1c5fe42bbcc85991%3a1224902656&name=Stone new ref_count 1  progress 0 (hcm)
19:04:52.0485 T:3038759824 M:541134848   DEBUG: insert http://res.boxee.tv/title/movie/?h=1c5fe42bbcc85991%3a1224902656&name=Stone to the database (hcm)
19:04:52.0487 T:3038759824 M:541134848   DEBUG: update ref map. url http://res.boxee.tv/title/movie/?h=1c5fe42bbcc85991%3a1224902656&name=Stone new ref_count 0  progress 0 (hcm)
19:04:52.0490 T:3038759824 M:541134848   DEBUG: Channel thumbnail:
19:04:52.0491 T:3038759824 M:541134848   DEBUG: CRssFeed::ReadFeed - open search, startIndex = -1, itemsPerPage = -1, totalResults = -1 (paging)
19:04:52.0494 T:3038759824 M:541134848   DEBUG: CMetadataResolverVideo::ResolveVideoSendServerReq - Server replies change type to movie
19:04:52.0496 T:3038759824 M:541134848   DEBUG: CMetadataResolver::ResolveVideoFolder, Resolved metadata for video, path = /tmp/mnt/CA5CEACD5CEAB37D/PELICULAS/Stone.[Spanish].DVDScreener.XviD.[DTL].avi, name = Stone  (resolver) (videoresolver)
19:04:52.0497 T:3038759824 M:541134848   DEBUG: CMetadataResolver::ResolveVideoFolder, Video was resolved by name, adding to DB, path = /tmp/mnt/CA5CEACD5CEAB37D/PELICULAS/Stone.[Spanish].DVDScreener.XviD.[DTL].avi, name = Stone, id = 697685  (resolver) (videoresolver)
19:04:52.0497 T:3038759824 M:541134848   DEBUG: CMetadataResolver::CacheThumb, strItemPath = /tmp/mnt/CA5CEACD5CEAB37D/PELICULAS/, strThumbnailPath = http://boxee-proxy.appspot.com/400x0x85/?url=http%3A%2F%2Fs3.boxee.tv%2Ftitlethumbs%2Fe%2Fd%2Fcef508fb7516f2a07dac1dd6c110fb.jpg (thumb)
19:04:52.0498 T:3038759824 M:541134848   DEBUG: CMetadataResolver::CacheThumb, strThumbnailPath = http://boxee-proxy.appspot.com/400x0x85/?url=http%3A%2F%2Fs3.boxee.tv%2Ftitlethumbs%2Fe%2Fd%2Fcef508fb7516f2a07dac1dd6c110fb.jpg, cached path = special://masterprofile/profiles/jvr1976/Thumbnails/Video/8/8a29496f.tbn (thumb)
19:04:52.0499 T:3038759824 M:541134848   DEBUG: TouchThumbnailFile touch thumbnail file special://masterprofile/profiles/jvr1976/Thumbnails/Video/8/8a29496f.tbn size 47623  (thm)
19:04:52.0499 T:3038759824 M:541134848   DEBUG: TouchThumbnailFile touch thumbnail file special://masterprofile/profiles/jvr1976/Thumbnails/Video/8/8a29496f.tbn already exist - update the average time total 8 files average time 1298397856(thm)
19:04:52.0500 T:3038759824 M:541134848   DEBUG: Boxee: 22/02/11 18:04:52.5002#DEBUG#bxvideodatabase.cpp:1074(AddVideo)#BXVideoDatabase::AddVideo, Adding video, path = /tmp/mnt/CA5CEACD5CEAB37D/PELICULAS/ (videodb)
19:04:52.0500 T:3038759824 M:541138944   DEBUG: Boxee: 22/02/11 18:04:52.5005#DEBUG#bxvideodatabase.cpp:1087(AddVideo)#BXVideoDatabase::AddVideo, Adding video, title STONE, path /tmp/mnt/CA5CEACD5CEAB37D/PELICULAS/
19:04:56.0291 T:3038759824 M:541138944   DEBUG: CMetadataResolverVideo::RemoveYear, name = RED [REPACK][BRSCR][480p][Xvid][ESP][LimiteXvid.com], newName = RED [REPACK][BRSCR][480p][Xvid][ESP][LimiteXvid.com], year =  (cleanname)
19:04:56.0293 T:3038759824 M:541138944   DEBUG: CMetadataResolverVideo::ExtractPathSeriesTag, try to resolve tv show by path /tmp/mnt/CA5CEACD5CEAB37D/PELICULAS/RED [REPACK][BRSCR][480p][Xvid][ESP][LimiteXvid.com].avi title RED [REPACK][BRSCR][480p][Xvid][ESP][LimiteXvid.com]
19:04:56.0294 T:3038759824 M:541138944   DEBUG: could not extract season from parent folder PELICULAS
19:04:56.0294 T:3038759824 M:541138944   DEBUG: CMetadataResolverVideo::ExtractDailyShows - try to resolve tv show [RED [REPACK][BRSCR][480p][Xvid][ESP][LimiteXvid.com].avi] as daily show (ds)
19:04:56.0294 T:3038759824 M:541138944   DEBUG: CMetadataResolverVideo::RemoveYear, name = RED [REPACK][BRSCR][480p][Xvid][ESP][LimiteXvid.com].avi, newName = RED [REPACK][BRSCR][480p][Xvid][ESP][LimiteXvid.com].avi, year =  (cleanname)
19:04:56.0355 T:3038759824 M:541032448   DEBUG: CMetadataResolverVideo::ResolveVideo, resolving video, path = /tmp/mnt/CA5CEACD5CEAB37D/PELICULAS/RED [REPACK][BRSCR][480p][Xvid][ESP][LimiteXvid.com].avi (videoresolver) (resolver)
19:04:56.0355 T:3038759824 M:541032448   DEBUG: CMetadataResolverVideo::ResolveVideoSendServerReq, resolving video by file, path = /tmp/mnt/CA5CEACD5CEAB37D/PELICULAS/RED [REPACK][BRSCR][480p][Xvid][ESP][LimiteXvid.com].avi  (videoresolver) (resolver)
19:04:56.0360 T:3038759824 M:541032448   DEBUG: CMetadataResolverVideo::ResolveVideoSendServerReq, resolving movie, path = /tmp/mnt/CA5CEACD5CEAB37D/PELICULAS/RED [REPACK][BRSCR][480p][Xvid][ESP][LimiteXvid.com].avi, name = RED, link = http://res.boxee.tv/title/movie/?h=9ca02dfa6c4b2fdb%3a1349367808&name=RED (videoresolver) (resolver)
19:04:56.0361 T:3038759824 M:541032448   DEBUG: Initializing feed: http://res.boxee.tv/title/movie/?h=9ca02dfa6c4b2fdb%3a1349367808&name=RED
19:04:56.0361 T:3038759824 M:541032448   DEBUG: ReadFeed - RSS, Loading feed from URL: http://res.boxee.tv/title/movie/?h=9ca02dfa6c4b2fdb%3a1349367808&name=RED
19:04:56.0364 T:3038759824 M:541032448   DEBUG: update ref map. url http://res.boxee.tv/title/movie/?h=9ca02dfa6c4b2fdb%3a1349367808&name=RED new ref_count 1  progress 0 (hcm)
19:04:56.0364 T:3038759824 M:541032448   DEBUG: CHttpCacheManager::StartCachingURL   push http://res.boxee.tv/title/movie/?h=9ca02dfa6c4b2fdb%3a1349367808&name=RED to  m_references (hcm)
19:04:56.0369 T:3038759824 M:541032448   DEBUG: Boxee: 22/02/11 18:04:56.3692#DEBUG#bxcurl.cpp:285(InitHttpTransfer)#setting creds to: <jvr1976:a+EeRvK3VVCLsJlTHMavtw==>
19:04:56.0708 T:3038759824 M:541036544   DEBUG: update ref map. url http://res.boxee.tv/title/movie/?h=9ca02dfa6c4b2fdb%3a1349367808&name=RED new ref_count 1  progress 0 (hcm)
19:04:56.0709 T:3038759824 M:541036544   DEBUG: insert http://res.boxee.tv/title/movie/?h=9ca02dfa6c4b2fdb%3a1349367808&name=RED to the database (hcm)
19:04:56.0711 T:3038759824 M:541036544   DEBUG: update ref map. url http://res.boxee.tv/title/movie/?h=9ca02dfa6c4b2fdb%3a1349367808&name=RED new ref_count 0  progress 0 (hcm)
19:04:56.0716 T:3038759824 M:541036544   DEBUG: Channel thumbnail:
19:04:56.0716 T:3038759824 M:541036544   DEBUG: CRssFeed::ReadFeed - open search, startIndex = -1, itemsPerPage = -1, totalResults = -1 (paging)
19:04:56.0719 T:3038759824 M:541036544   DEBUG: CMetadataResolverVideo::ResolveVideoSendServerReq - Server replies change type to movie
19:04:56.0720 T:3038759824 M:541036544   DEBUG: CMetadataResolver::ResolveVideoFolder, Resolved metadata for video, path = /tmp/mnt/CA5CEACD5CEAB37D/PELICULAS/RED [REPACK][BRSCR][480p][Xvid][ESP][LimiteXvid.com].avi, name = RED  (resolver) (videoresolver)
19:04:56.0721 T:3038759824 M:541036544   DEBUG: CMetadataResolver::ResolveVideoFolder, Video was resolved by name, adding to DB, path = /tmp/mnt/CA5CEACD5CEAB37D/PELICULAS/RED [REPACK][BRSCR][480p][Xvid][ESP][LimiteXvid.com].avi, name = RED, id = 380465  (resolver) (videoresolver)
19:04:56.0721 T:3038759824 M:541040640   DEBUG: CMetadataResolver::CacheThumb, strItemPath = /tmp/mnt/CA5CEACD5CEAB37D/PELICULAS/, strThumbnailPath = http://boxee-proxy.appspot.com/400x0x85/?url=http%3A%2F%2Fs3.boxee.tv%2Ftitlethumbs%2F2%2F4%2F47c6feb42386dd057d092564772bc5.jpg (thumb)
19:04:56.0722 T:3038759824 M:541040640   DEBUG: CMetadataResolver::CacheThumb, strThumbnailPath = http://boxee-proxy.appspot.com/400x0x85/?url=http%3A%2F%2Fs3.boxee.tv%2Ftitlethumbs%2F2%2F4%2F47c6feb42386dd057d092564772bc5.jpg, cached path = special://masterprofile/profiles/jvr1976/Thumbnails/Video/8/8a29496f.tbn (thumb)
19:04:56.0723 T:3038759824 M:541040640   DEBUG: TouchThumbnailFile touch thumbnail file special://masterprofile/profiles/jvr1976/Thumbnails/Video/8/8a29496f.tbn size 47623  (thm)
19:04:56.0724 T:3038759824 M:541040640   DEBUG: TouchThumbnailFile touch thumbnail file special://masterprofile/profiles/jvr1976/Thumbnails/Video/8/8a29496f.tbn already exist - update the average time total 8 files average time 1298397856(thm)
19:04:56.0724 T:3038759824 M:541040640   DEBUG: Boxee: 22/02/11 18:04:56.7249#DEBUG#bxvideodatabase.cpp:1074(AddVideo)#BXVideoDatabase::AddVideo, Adding video, path = /tmp/mnt/CA5CEACD5CEAB37D/PELICULAS/ (videodb)
19:04:56.0725 T:3038759824 M:541040640   DEBUG: Boxee: 22/02/11 18:04:56.7253#DEBUG#bxvideodatabase.cpp:1087(AddVideo)#BXVideoDatabase::AddVideo, Adding video, title Red, path /tmp/mnt/CA5CEACD5CEAB37D/PELICULAS/
19:05:02.0582 T:3074115360 M:540962816   DEBUG: (dbg) FreeMem 528284/644016 Kb, FPS 50.0, CPU0: 100.0%  Loader Q:[0] Textures:[72 (23.48 M)] SERVER: [67.225.149.139] ver: 1.0.4.17443
19:05:02.0583 T:3074115360 M:540962816   DEBUG: (dbg)
19:05:02.0808 T:3038759824 M:540971008   DEBUG: CMetadataResolverVideo::RemoveYear, name = Los.Viajes.De.Gulliver.[Spanish].DVDScreener.XviD.[DTL], newName = Los.Viajes.De.Gulliver.[Spanish].DVDScreener.XviD.[DTL], year =  (cleanname)
19:05:02.0809 T:3038759824 M:540971008   DEBUG: CMetadataResolverVideo::ExtractPathSeriesTag, try to resolve tv show by path /tmp/mnt/CA5CEACD5CEAB37D/PELICULAS/Los.Viajes.De.Gulliver.[Spanish].DVDScreener.XviD.[DTL].avi title Los.Viajes.De.Gulliver.[Spanish].DVDScreener.XviD.[DTL]
19:05:02.0810 T:3038759824 M:540971008   DEBUG: could not extract season from parent folder PELICULAS
19:05:02.0810 T:3038759824 M:540971008   DEBUG: CMetadataResolverVideo::ExtractDailyShows - try to resolve tv show [Los.Viajes.De.Gulliver.[Spanish].DVDScreener.XviD.[DTL].avi] as daily show (ds)
19:05:02.0811 T:3038759824 M:540971008   DEBUG: CMetadataResolverVideo::RemoveYear, name = Los.Viajes.De.Gulliver.[Spanish].DVDScreener.XviD.[DTL].avi, newName = Los.Viajes.De.Gulliver.[Spanish].DVDScreener.XviD.[DTL].avi, year =  (cleanname)
19:05:02.0854 T:3038759824 M:541118464   DEBUG: CMetadataResolverVideo::ResolveVideo, resolving video, path = /tmp/mnt/CA5CEACD5CEAB37D/PELICULAS/Los.Viajes.De.Gulliver.[Spanish].DVDScreener.XviD.[DTL].avi (videoresolver) (resolver)
19:05:02.0855 T:3038759824 M:541118464   DEBUG: CMetadataResolverVideo::ResolveVideoSendServerReq, resolving video by file, path = /tmp/mnt/CA5CEACD5CEAB37D/PELICULAS/Los.Viajes.De.Gulliver.[Spanish].DVDScreener.XviD.[DTL].avi  (videoresolver) (resolver)
19:05:02.0860 T:3038759824 M:541118464   DEBUG: CMetadataResolverVideo::ResolveVideoSendServerReq, resolving movie, path = /tmp/mnt/CA5CEACD5CEAB37D/PELICULAS/Los.Viajes.De.Gulliver.[Spanish].DVDScreener.XviD.[DTL].avi, name = Los Viajes De Gulliver, link = http://res.boxee.tv/title/movie/?h=88e68e1a79649812%3a1308112896&name=Los%20Viajes%20De%20Gulliver (videoresolver) (resolver)
19:05:02.0860 T:3038759824 M:541118464   DEBUG: Initializing feed: http://res.boxee.tv/title/movie/?h=88e68e1a79649812%3a1308112896&name=Los%20Viajes%20De%20Gulliver
19:05:02.0861 T:3038759824 M:541118464   DEBUG: ReadFeed - RSS, Loading feed from URL: http://res.boxee.tv/title/movie/?h=88e68e1a79649812%3a1308112896&name=Los%20Viajes%20De%20Gulliver
19:05:02.0864 T:3038759824 M:541122560   DEBUG: update ref map. url http://res.boxee.tv/title/movie/?h=88e68e1a79649812%3a1308112896&name=Los%20Viajes%20De%20Gulliver new ref_count 1  progress 0 (hcm)
19:05:02.0864 T:3038759824 M:541122560   DEBUG: CHttpCacheManager::StartCachingURL   push http://res.boxee.tv/title/movie/?h=88e68e1a79649812%3a1308112896&name=Los%20Viajes%20De%20Gulliver to  m_references (hcm)
19:05:02.0869 T:3038759824 M:541122560   DEBUG: Boxee: 22/02/11 18:05:02.8692#DEBUG#bxcurl.cpp:285(InitHttpTransfer)#setting creds to: <jvr1976:a+EeRvK3VVCLsJlTHMavtw==>
19:05:03.0943 T:3038759824 M:541126656   DEBUG: update ref map. url http://res.boxee.tv/title/movie/?h=88e68e1a79649812%3a1308112896&name=Los%20Viajes%20De%20Gulliver new ref_count 1  progress 0 (hcm)
19:05:03.0944 T:3038759824 M:541126656   DEBUG: insert http://res.boxee.tv/title/movie/?h=88e68e1a79649812%3a1308112896&name=Los%20Viajes%20De%20Gulliver to the database (hcm)
19:05:03.0945 T:3038759824 M:541126656   DEBUG: update ref map. url http://res.boxee.tv/title/movie/?h=88e68e1a79649812%3a1308112896&name=Los%20Viajes%20De%20Gulliver new ref_count 0  progress 0 (hcm)
19:05:03.0949 T:3038759824 M:541126656   DEBUG: Channel thumbnail:
19:05:03.0950 T:3038759824 M:541126656   DEBUG: CRssFeed::ReadFeed - open search, startIndex = -1, itemsPerPage = -1, totalResults = -1 (paging)
19:05:03.0951 T:3038759824 M:541126656   DEBUG: CMetadataResolverVideo::ResolveVideoSendServerReq - Server replies change type to movie
19:05:03.0953 T:3038759824 M:541126656   DEBUG: CMetadataResolver::ResolveVideoFolder, Resolved metadata for video, path = /tmp/mnt/CA5CEACD5CEAB37D/PELICULAS/Los.Viajes.De.Gulliver.[Spanish].DVDScreener.XviD.[DTL].avi, name = Los Viajes De Gulliver  (resolver) (videoresolver)
19:05:03.0953 T:3038759824 M:541126656   DEBUG: CMetadataResolver::ResolveVideoFolder, Video was resolved by name, adding to DB, path = /tmp/mnt/CA5CEACD5CEAB37D/PELICULAS/Los.Viajes.De.Gulliver.[Spanish].DVDScreener.XviD.[DTL].avi, name = Los Viajes De Gulliver, id = 530153  (resolver) (videoresolver)
19:05:03.0954 T:3038759824 M:541126656   DEBUG: CMetadataResolver::CacheThumb, strItemPath = /tmp/mnt/CA5CEACD5CEAB37D/PELICULAS/, strThumbnailPath =  (thumb)
19:05:03.0954 T:3038759824 M:541126656   DEBUG: Boxee: 22/02/11 18:05:03.9544#DEBUG#bxvideodatabase.cpp:1074(AddVideo)#BXVideoDatabase::AddVideo, Adding video, path = /tmp/mnt/CA5CEACD5CEAB37D/PELICULAS/ (videodb)
19:05:03.0955 T:3038759824 M:541126656   DEBUG: Boxee: 22/02/11 18:05:03.9551#DEBUG#bxvideodatabase.cpp:1087(AddVideo)#BXVideoDatabase::AddVideo, Adding video, title Los viajes de Gulliver, path /tmp/mnt/CA5CEACD5CEAB37D/PELICULAS/
19:05:05.0293 T:3040865168 M:541179904   DEBUG: CProcessSlowJob::DoWork - Enter function. [server=1][internet=1][IsStoped=0] (wdpslow)
19:05:05.0294 T:3040865168 M:541179904    INFO: CheckIdle - Closing session to http ://s3.boxee.tv (easy=0xa9b8618, multi=0xaa3ad18)
19:05:05.0295 T:3040865168 M:541179904    INFO: CheckIdle - Closing session to http ://s3.boxee.tv (easy=0xaac4818, multi=0xabe62f8)
19:05:05.0297 T:3040865168 M:541179904    INFO: CheckIdle - Closing session to http ://s3.boxee.tv (easy=0xad48120, multi=0xabc4cf0)
19:05:05.0298 T:3040865168 M:541179904    INFO: CheckIdle - Closing session to http ://s3.boxee.tv (easy=0xacaa150, multi=0xabc6418)
19:05:05.0307 T:3040865168 M:541179904    INFO: CheckIdle - Closing session to http ://s3.boxee.tv (easy=0xaa53358, multi=0xaa64b68)
19:05:05.0308 T:3040865168 M:541179904    INFO: CheckIdle - Closing session to http ://xoap.weather.com (easy=0x9f97dd8, multi=0xae3ffe0)
19:05:05.0309 T:3040865168 M:541179904   DEBUG: CProcessSlowJob::DoWork - Exit function. [server=1][internet=1] (wdpslow)
19:05:05.0487 T:3040865168 M:541179904    INFO: CCheckInternetConnectionJob::DoWork - begin
19:05:05.0487 T:3040865168 M:541179904   DEBUG: CCheckInternetConnectionJob::DoWork - Enter function. [server=1][internet=1] (offline) 0
19:05:05.0487 T:3040865168 M:541179904   DEBUG: WatchDog::CheckIsConnectedToInternet - Enter function. [server=1][internet=1]. [fromJob=1] (offline)(wd)
19:05:05.0574 T:3040865168 M:541184000   DEBUG: WatchDog::CheckIsConnectedToInternet - Check [http://6.ping.boxee.tv/] return [1]. [server=1][internet=1]. [fromJob=1] (offline)(wd)
19:05:05.0575 T:3040865168 M:541184000   DEBUG: WatchDog::CheckIsConnectedToInternet - Exit function and return TRUE. [server=1][internet=1]. [fromJob=1] (offline)(wd)
19:05:07.0295 T:3074115360 M:540983296   DEBUG: SDLKeyboard: scancode: 108, sym: 274, unicode: 0, modifier: 0
19:05:07.0295 T:3074115360 M:540983296   DEBUG: CApplication::OnKey - [key=61480][window=10423][action=4]
19:05:07.0296 T:3074115360 M:540983296   DEBUG: OnKey: 61480 pressed, action is 4
19:05:07.0297 T:3074115360 M:540983296 WARNING: CGUIDialogBoxeeBrowseMenu::UpdateMenu, unable to find next row, id = row_apps_all (browsemenu)
19:05:07.0298 T:3074115360 M:540983296   DEBUG: CGUIDialogBoxeeBrowseMenu::DrawMenu, m_iCurrentRowIndex = 1, m_iPreviousRowIndex = 0, initialRow = 2 (browsemenu)
19:05:07.0298 T:3074115360 M:540983296   DEBUG: CGUIDialogBoxeeBrowseMenu::DrawMenu, CLEAR menu row at index =  2 (browsemenu)
19:05:07.0298 T:3074115360 M:540983296   DEBUG: CGUIDialogBoxeeBrowseMenu::DrawMenu, CLEAR menu row at index =  3 (browsemenu)
19:05:07.0299 T:3074115360 M:540983296   DEBUG: CGUIDialogBoxeeBrowseMenu::DrawMenu, CLEAR menu row at index =  4 (browsemenu)
19:05:07.0855 T:3074115360 M:540999680   DEBUG: SDLKeyboard: scancode: 106, sym: 275, unicode: 0, modifier: 0
19:05:07.0855 T:3074115360 M:540999680   DEBUG: CApplication::OnKey - [key=61479][window=10423][action=2]
19:05:07.0856 T:3074115360 M:540999680   DEBUG: OnKey: 61479 pressed, action is 2
19:05:07.0857 T:3074115360 M:540999680 WARNING: CGUIDialogBoxeeBrowseMenu::UpdateMenu, unable to find next row, id = row_apps_favorite (browsemenu)
19:05:07.0858 T:3074115360 M:540999680   DEBUG: CGUIDialogBoxeeBrowseMenu::DrawMenu, m_iCurrentRowIndex = 1, m_iPreviousRowIndex = 1, initialRow = 2 (browsemenu)
19:05:07.0858 T:3074115360 M:540999680   DEBUG: CGUIDialogBoxeeBrowseMenu::DrawMenu, CLEAR menu row at index =  2 (browsemenu)
19:05:07.0858 T:3074115360 M:540999680   DEBUG: CGUIDialogBoxeeBrowseMenu::DrawMenu, CLEAR menu row at index =  3 (browsemenu)
19:05:07.0859 T:3074115360 M:540999680   DEBUG: CGUIDialogBoxeeBrowseMenu::DrawMenu, CLEAR menu row at index =  4 (browsemenu)
19:05:08.0175 T:3074115360 M:541003776   DEBUG: SDLKeyboard: scancode: 106, sym: 275, unicode: 0, modifier: 0
19:05:08.0175 T:3074115360 M:541003776   DEBUG: CApplication::OnKey - [key=61479][window=10423][action=2]
19:05:08.0176 T:3074115360 M:541003776   DEBUG: OnKey: 61479 pressed, action is 2
19:05:08.0177 T:3074115360 M:541003776   DEBUG: CGUIDialogBoxeeBrowseMenu::DrawMenu, m_iCurrentRowIndex = 1, m_iPreviousRowIndex = 1, initialRow = 2 (browsemenu)
19:05:08.0178 T:3074115360 M:541003776   DEBUG: CGUIDialogBoxeeBrowseMenu::DrawMenu, CLEAR menu row at index =  2 (browsemenu)
19:05:08.0178 T:3074115360 M:541003776   DEBUG: CGUIDialogBoxeeBrowseMenu::DrawMenu, CLEAR menu row at index =  3 (browsemenu)
19:05:08.0178 T:3074115360 M:541003776   DEBUG: CGUIDialogBoxeeBrowseMenu::DrawMenu, CLEAR menu row at index =  4 (browsemenu)
19:05:08.0179 T:3074115360 M:541003776   DEBUG: Adding button label = Video to row id = 2 at index = 0 (browsemenu)
19:05:08.0179 T:3074115360 M:541003776   DEBUG: Adding button label = Music to row id = 2 at index = 1 (browsemenu)
19:05:08.0179 T:3074115360 M:541003776   DEBUG: Adding button label = Photos to row id = 2 at index = 2 (browsemenu)
19:05:08.0899 T:3035601808 M:541024256   DEBUG: Done mapping interface 74:F0:6D:9F:59:F8
19:05:08.0899 T:3035601808 M:541024256   DEBUG: Network scan finished
19:05:08.0900 T:3035601808 M:541024256   DEBUG: Thread 3035601808 terminating (autodelete)
19:05:09.0115 T:3074115360 M:541044736   DEBUG: SDLKeyboard: scancode: 106, sym: 275, unicode: 0, modifier: 0
19:05:09.0115 T:3074115360 M:541044736   DEBUG: CApplication::OnKey - [key=61479][window=10423][action=2]
19:05:09.0116 T:3074115360 M:541048832   DEBUG: OnKey: 61479 pressed, action is 2
19:05:09.0118 T:3074115360 M:541048832 WARNING: CGUIDialogBoxeeBrowseMenu::UpdateMenu, unable to find next row, id =  (browsemenu)
19:05:09.0119 T:3074115360 M:541048832   DEBUG: CGUIDialogBoxeeBrowseMenu::DrawMenu, m_iCurrentRowIndex = 1, m_iPreviousRowIndex = 1, initialRow = 2 (browsemenu)
19:05:09.0119 T:3074115360 M:541048832   DEBUG: CGUIDialogBoxeeBrowseMenu::DrawMenu, CLEAR menu row at index =  2 (browsemenu)
19:05:09.0119 T:3074115360 M:541048832   DEBUG: CGUIDialogBoxeeBrowseMenu::DrawMenu, CLEAR menu row at index =  3 (browsemenu)
19:05:09.0120 T:3074115360 M:541048832   DEBUG: CGUIDialogBoxeeBrowseMenu::DrawMenu, CLEAR menu row at index =  4 (browsemenu)
19:05:10.0215 T:3074115360 M:541081600   DEBUG: SDLKeyboard: scancode: 105, sym: 276, unicode: 0, modifier: 0
19:05:10.0215 T:3074115360 M:541081600   DEBUG: CApplication::OnKey - [key=61477][window=10423][action=1]
19:05:10.0216 T:3074115360 M:541081600   DEBUG: OnKey: 61477 pressed, action is 1
19:05:10.0217 T:3074115360 M:541081600   DEBUG: CGUIDialogBoxeeBrowseMenu::DrawMenu, m_iCurrentRowIndex = 1, m_iPreviousRowIndex = 1, initialRow = 2 (browsemenu)
19:05:10.0218 T:3074115360 M:541081600   DEBUG: CGUIDialogBoxeeBrowseMenu::DrawMenu, CLEAR menu row at index =  2 (browsemenu)
19:05:10.0218 T:3074115360 M:541081600   DEBUG: CGUIDialogBoxeeBrowseMenu::DrawMenu, CLEAR menu row at index =  3 (browsemenu)
19:05:10.0218 T:3074115360 M:541081600   DEBUG: CGUIDialogBoxeeBrowseMenu::DrawMenu, CLEAR menu row at index =  4 (browsemenu)
19:05:10.0219 T:3074115360 M:541081600   DEBUG: Adding button label = Video to row id = 2 at index = 0 (browsemenu)
19:05:10.0219 T:3074115360 M:541081600   DEBUG: Adding button label = Music to row id = 2 at index = 1 (browsemenu)
19:05:10.0220 T:3074115360 M:541081600   DEBUG: Adding button label = Photos to row id = 2 at index = 2 (browsemenu)
19:05:10.0449 T:3038759824 M:541089792   DEBUG: CMetadataResolverVideo::RemoveYear, name = Los proximos tres dias (DVDScreener) (EliteTorrent.net), newName = Los proximos tres dias (DVDScreener) (EliteTorrent.net), year =  (cleanname)
19:05:10.0450 T:3038759824 M:541089792   DEBUG: CMetadataResolverVideo::ExtractPathSeriesTag, try to resolve tv show by path /tmp/mnt/CA5CEACD5CEAB37D/PELICULAS/Los proximos tres dias (DVDScreener) (EliteTorrent.net).avi title Los proximos tres dias (DVDScreener) (EliteTorrent.net)
19:05:10.0451 T:3038759824 M:541089792   DEBUG: could not extract season from parent folder PELICULAS
19:05:10.0451 T:3038759824 M:541089792   DEBUG: CMetadataResolverVideo::ExtractDailyShows - try to resolve tv show [Los proximos tres dias (DVDScreener) (EliteTorrent.net).avi] as daily show (ds)
19:05:10.0452 T:3038759824 M:541089792   DEBUG: CMetadataResolverVideo::RemoveYear, name = Los proximos tres dias (DVDScreener) (EliteTorrent.net).avi, newName = Los proximos tres dias (DVDScreener) (EliteTorrent.net).avi, year =  (cleanname)
19:05:10.0510 T:3038759824 M:541110272   DEBUG: CMetadataResolverVideo::ResolveVideo, resolving video, path = /tmp/mnt/CA5CEACD5CEAB37D/PELICULAS/Los proximos tres dias (DVDScreener) (EliteTorrent.net).avi (videoresolver) (resolver)
19:05:10.0511 T:3038759824 M:541110272   DEBUG: CMetadataResolverVideo::ResolveVideoSendServerReq, resolving video by file, path = /tmp/mnt/CA5CEACD5CEAB37D/PELICULAS/Los proximos tres dias (DVDScreener) (EliteTorrent.net).avi  (videoresolver) (resolver)
19:05:10.0517 T:3038759824 M:541110272   DEBUG: CMetadataResolverVideo::ResolveVideoSendServerReq, resolving movie, path = /tmp/mnt/CA5CEACD5CEAB37D/PELICULAS/Los proximos tres dias (DVDScreener) (EliteTorrent.net).avi, name = Los proximos tres dias, link = http://res.boxee.tv/title/movie/?h=01ef1036751fb639%3a1573111808&name=Los%20proximos%20tres%20dias (videoresolver) (resolver)
19:05:10.0517 T:3038759824 M:541110272   DEBUG: Initializing feed: http://res.boxee.tv/title/movie/?h=01ef1036751fb639%3a1573111808&name=Los%20proximos%20tres%20dias
19:05:10.0518 T:3038759824 M:541110272   DEBUG: ReadFeed - RSS, Loading feed from URL: http://res.boxee.tv/title/movie/?h=01ef1036751fb639%3a1573111808&name=Los%20proximos%20tres%20dias
19:05:10.0520 T:3038759824 M:541114368   DEBUG: update ref map. url http://res.boxee.tv/title/movie/?h=01ef1036751fb639%3a1573111808&name=Los%20proximos%20tres%20dias new ref_count 1  progress 0 (hcm)
19:05:10.0521 T:3038759824 M:541114368   DEBUG: CHttpCacheManager::StartCachingURL   push http://res.boxee.tv/title/movie/?h=01ef1036751fb639%3a1573111808&name=Los%20proximos%20tres%20dias to  m_references (hcm)
19:05:10.0526 T:3038759824 M:541114368   DEBUG: Boxee: 22/02/11 18:05:10.5260#DEBUG#bxcurl.cpp:285(InitHttpTransfer)#setting creds to: <jvr1976:a+EeRvK3VVCLsJlTHMavtw==>
19:05:10.0870 T:3038759824 M:541114368   DEBUG: Boxee: 22/02/11 18:05:10.8707#DEBUG#bxcurl.cpp:507(HttpGetString)#curl_easy_perform failed (The requested URL returned error: 404)!
19:05:10.0871 T:3038759824 M:541114368   DEBUG: update ref map. url http://res.boxee.tv/title/movie/?h=01ef1036751fb639%3a1573111808&name=Los%20proximos%20tres%20dias new ref_count 1  progress 0 (hcm)
19:05:10.0871 T:3038759824 M:541114368   DEBUG: update ref map. url http://res.boxee.tv/title/movie/?h=01ef1036751fb639%3a1573111808&name=Los%20proximos%20tres%20dias new ref_count 0  progress 0 (hcm)
19:05:10.0873 T:3038759824 M:541114368 WARNING: ReadFeed - RSS Init failed, could not parse feed http://res.boxee.tv/title/movie/?h=01ef1036751fb639%3a1573111808&name=Los%20proximos%20tres%20dias. Reason: (null), Row: -1 Col: -1
19:05:10.0873 T:3038759824 M:541114368   DEBUG: CMetadataResolverVideo::ResolveVideo, could not resolve video by name, path = /tmp/mnt/CA5CEACD5CEAB37D/PELICULAS/Los proximos tres dias (DVDScreener) (EliteTorrent.net).avi (videoresolver) (resolver)
19:05:10.0874 T:3038759824 M:541114368   DEBUG: CMetadataResolverVideo::ResolveVideoSendServerReq, resolving video by folder, path = /tmp/mnt/CA5CEACD5CEAB37D/PELICULAS/Los proximos tres dias (DVDScreener) (EliteTorrent.net).avi  (videoresolver) (resolver)
19:05:10.0878 T:3038759824 M:541114368   DEBUG: CMetadataResolverVideo::ResolveVideoSendServerReq, resolving movie, path = /tmp/mnt/CA5CEACD5CEAB37D/PELICULAS/Los proximos tres dias (DVDScreener) (EliteTorrent.net).avi, name = Los proximos tres dias, link = http://res.boxee.tv/title/movie/?h=01ef1036751fb639%3a1573111808&name=PELICULAS (videoresolver) (resolver)
19:05:10.0879 T:3038759824 M:541114368   DEBUG: Initializing feed: http://res.boxee.tv/title/movie/?h=01ef1036751fb639%3a1573111808&name=PELICULAS
19:05:10.0880 T:3038759824 M:541114368   DEBUG: ReadFeed - RSS, Loading feed from URL: http://res.boxee.tv/title/movie/?h=01ef1036751fb639%3a1573111808&name=PELICULAS
19:05:10.0882 T:3038759824 M:541114368   DEBUG: update ref map. url http://res.boxee.tv/title/movie/?h=01ef1036751fb639%3a1573111808&name=PELICULAS new ref_count 1  progress 0 (hcm)
19:05:10.0883 T:3038759824 M:541114368   DEBUG: CHttpCacheManager::StartCachingURL   push http://res.boxee.tv/title/movie/?h=01ef1036751fb639%3a1573111808&name=PELICULAS to  m_references (hcm)
19:05:10.0887 T:3038759824 M:541114368   DEBUG: Boxee: 22/02/11 18:05:10.8877#DEBUG#bxcurl.cpp:285(InitHttpTransfer)#setting creds to: <jvr1976:a+EeRvK3VVCLsJlTHMavtw==>
19:05:11.0223 T:3038759824 M:541114368   DEBUG: Boxee: 22/02/11 18:05:11.2233#DEBUG#bxcurl.cpp:507(HttpGetString)#curl_easy_perform failed (The requested URL returned error: 404)!
19:05:11.0224 T:3038759824 M:541114368   DEBUG: update ref map. url http://res.boxee.tv/title/movie/?h=01ef1036751fb639%3a1573111808&name=PELICULAS new ref_count 1  progress 0 (hcm)
19:05:11.0224 T:3038759824 M:541114368   DEBUG: update ref map. url http://res.boxee.tv/title/movie/?h=01ef1036751fb639%3a1573111808&name=PELICULAS new ref_count 0  progress 0 (hcm)
19:05:11.0225 T:3038759824 M:541114368 WARNING: ReadFeed - RSS Init failed, could not parse feed http://res.boxee.tv/title/movie/?h=01ef1036751fb639%3a1573111808&name=PELICULAS. Reason: (null), Row: -1 Col: -1
19:05:11.0225 T:3038759824 M:541114368   DEBUG: CMetadataResolverVideo::ResolveVideo, could not resolve video by folder name, path = /tmp/mnt/CA5CEACD5CEAB37D/PELICULAS/ (videoresolver) (resolver)
19:05:11.0225 T:3038759824 M:541118464   DEBUG: CMetadataResolver::ResolveVideoFolder, Could not resolve metadata for video, path = /tmp/mnt/CA5CEACD5CEAB37D/PELICULAS/Los proximos tres dias (DVDScreener) (EliteTorrent.net).avi, name = Los proximos tres dias (resolver) (videoresolver)
19:05:11.0555 T:3074115360 M:541134848   DEBUG: SDLKeyboard: scancode: 106, sym: 275, unicode: 0, modifier: 0
19:05:11.0555 T:3074115360 M:541134848   DEBUG: CApplication::OnKey - [key=61479][window=10423][action=2]
19:05:11.0556 T:3074115360 M:541134848   DEBUG: OnKey: 61479 pressed, action is 2
19:05:11.0558 T:3074115360 M:541134848 WARNING: CGUIDialogBoxeeBrowseMenu::UpdateMenu, unable to find next row, id =  (browsemenu)
19:05:11.0558 T:3074115360 M:541134848   DEBUG: CGUIDialogBoxeeBrowseMenu::DrawMenu, m_iCurrentRowIndex = 1, m_iPreviousRowIndex = 1, initialRow = 2 (browsemenu)
19:05:11.0558 T:3074115360 M:541134848   DEBUG: CGUIDialogBoxeeBrowseMenu::DrawMenu, CLEAR menu row at index =  2 (browsemenu)
19:05:11.0558 T:3074115360 M:541134848   DEBUG: CGUIDialogBoxeeBrowseMenu::DrawMenu, CLEAR menu row at index =  3 (browsemenu)
19:05:11.0559 T:3074115360 M:541134848   DEBUG: CGUIDialogBoxeeBrowseMenu::DrawMenu, CLEAR menu row at index =  4 (browsemenu)
19:05:11.0727 T:3039812496 M:541147136   DEBUG: Boxee: 22/02/11 18:05:11.7273#DEBUG#bxmetadataengine.cpp:381(EngineThread)#BXMetadataEngine::EngineThread,  processing folders....(resolver)
19:05:11.0775 T:3038759824 M:541147136   DEBUG: CMetadataResolverVideo::RemoveYear, name = Los otros dos (BR-Screener) (EliteTorrent.net), newName = Los otros dos (BR-Screener) (EliteTorrent.net), year =  (cleanname)
19:05:11.0776 T:3038759824 M:541147136   DEBUG: CMetadataResolverVideo::ExtractPathSeriesTag, try to resolve tv show by path /tmp/mnt/CA5CEACD5CEAB37D/PELICULAS/Los otros dos (BR-Screener) (EliteTorrent.net).avi title Los otros dos (BR-Screener) (EliteTorrent.net)
19:05:11.0776 T:3038759824 M:541147136   DEBUG: could not extract season from parent folder PELICULAS
19:05:11.0777 T:3038759824 M:541147136   DEBUG: CMetadataResolverVideo::ExtractDailyShows - try to resolve tv show [Los otros dos (BR-Screener) (EliteTorrent.net).avi] as daily show (ds)
19:05:11.0777 T:3038759824 M:541147136   DEBUG: CMetadataResolverVideo::RemoveYear, name = Los otros dos (BR-Screener) (EliteTorrent.net).avi, newName = Los otros dos (BR-Screener) (EliteTorrent.net).avi, year =  (cleanname)
19:05:11.0834 T:3038759824 M:541028352   DEBUG: CMetadataResolverVideo::ResolveVideo, resolving video, path = /tmp/mnt/CA5CEACD5CEAB37D/PELICULAS/Los otros dos (BR-Screener) (EliteTorrent.net).avi (videoresolver) (resolver)
19:05:11.0835 T:3038759824 M:541028352   DEBUG: CMetadataResolverVideo::ResolveVideoSendServerReq, resolving video by file, path = /tmp/mnt/CA5CEACD5CEAB37D/PELICULAS/Los otros dos (BR-Screener) (EliteTorrent.net).avi  (videoresolver) (resolver)
19:05:11.0840 T:3038759824 M:541028352   DEBUG: CMetadataResolverVideo::ResolveVideoSendServerReq, resolving movie, path = /tmp/mnt/CA5CEACD5CEAB37D/PELICULAS/Los otros dos (BR-Screener) (EliteTorrent.net).avi, name = Los otros dos BR Screener EliteTorrent net, link = http://res.boxee.tv/title/movie/?h=dc6d6d17057896ea%3a2076053504&name=Los%20otros%20dos%20BR%20Screener%20EliteTorrent%20net (videoresolver) (resolver)
19:05:11.0841 T:3038759824 M:541028352   DEBUG: Initializing feed: http://res.boxee.tv/title/movie/?h=dc6d6d17057896ea%3a2076053504&name=Los%20otros%20dos%20BR%20Screener%20EliteTorrent%20net
19:05:11.0841 T:3038759824 M:541028352   DEBUG: ReadFeed - RSS, Loading feed from URL: http://res.boxee.tv/title/movie/?h=dc6d6d17057896ea%3a2076053504&name=Los%20otros%20dos%20BR%20Screener%20EliteTorrent%20net
19:05:11.0844 T:3038759824 M:541028352   DEBUG: update ref map. url http://res.boxee.tv/title/movie/?h=dc6d6d17057896ea%3a2076053504&name=Los%20otros%20dos%20BR%20Screener%20EliteTorrent%20net new ref_count 1  progress 0 (hcm)
19:05:11.0844 T:3038759824 M:541028352   DEBUG: CHttpCacheManager::StartCachingURL   push http://res.boxee.tv/title/movie/?h=dc6d6d17057896ea%3a2076053504&name=Los%20otros%20dos%20BR%20Screener%20EliteTorrent%20net to  m_references (hcm)
19:05:11.0849 T:3038759824 M:541032448   DEBUG: Boxee: 22/02/11 18:05:11.8491#DEBUG#bxcurl.cpp:285(InitHttpTransfer)#setting creds to: <jvr1976:a+EeRvK3VVCLsJlTHMavtw==>
19:05:12.0207 T:3038759824 M:541032448   DEBUG: Boxee: 22/02/11 18:05:12.2075#DEBUG#bxcurl.cpp:507(HttpGetString)#curl_easy_perform failed (The requested URL returned error: 404)!
19:05:12.0208 T:3038759824 M:541032448   DEBUG: update ref map. url http://res.boxee.tv/title/movie/?h=dc6d6d17057896ea%3a2076053504&name=Los%20otros%20dos%20BR%20Screener%20EliteTorrent%20net new ref_count 1  progress 0 (hcm)
19:05:12.0208 T:3038759824 M:541032448   DEBUG: update ref map. url http://res.boxee.tv/title/movie/?h=dc6d6d17057896ea%3a2076053504&name=Los%20otros%20dos%20BR%20Screener%20EliteTorrent%20net new ref_count 0  progress 0 (hcm)
19:05:12.0209 T:3038759824 M:541032448 WARNING: ReadFeed - RSS Init failed, could not parse feed http://res.boxee.tv/title/movie/?h=dc6d6d17057896ea%3a2076053504&name=Los%20otros%20dos%20BR%20Screener%20EliteTorrent%20net. Reason: (null), Row: -1 Col: -1
19:05:12.0209 T:3038759824 M:541032448   DEBUG: CMetadataResolverVideo::ResolveVideo, could not resolve video by name, path = /tmp/mnt/CA5CEACD5CEAB37D/PELICULAS/Los otros dos (BR-Screener) (EliteTorrent.net).avi (videoresolver) (resolver)
19:05:12.0210 T:3038759824 M:541032448   DEBUG: CMetadataResolverVideo::ResolveVideoSendServerReq, resolving video by folder, path = /tmp/mnt/CA5CEACD5CEAB37D/PELICULAS/Los otros dos (BR-Screener) (EliteTorrent.net).avi  (videoresolver) (resolver)
19:05:12.0215 T:3038759824 M:541032448   DEBUG: CMetadataResolverVideo::ResolveVideoSendServerReq, resolving movie, path = /tmp/mnt/CA5CEACD5CEAB37D/PELICULAS/Los otros dos (BR-Screener) (EliteTorrent.net).avi, name = Los otros dos BR Screener EliteTorrent net, link = http://res.boxee.tv/title/movie/?h=dc6d6d17057896ea%3a2076053504&name=PELICULAS (videoresolver) (resolver)
19:05:12.0216 T:3038759824 M:541032448   DEBUG: Initializing feed: http://res.boxee.tv/title/movie/?h=dc6d6d17057896ea%3a2076053504&name=PELICULAS
19:05:12.0216 T:3038759824 M:541032448   DEBUG: ReadFeed - RSS, Loading feed from URL: http://res.boxee.tv/title/movie/?h=dc6d6d17057896ea%3a2076053504&name=PELICULAS
19:05:12.0218 T:3038759824 M:541032448   DEBUG: update ref map. url http://res.boxee.tv/title/movie/?h=dc6d6d17057896ea%3a2076053504&name=PELICULAS new ref_count 1  progress 0 (hcm)
19:05:12.0218 T:3038759824 M:541032448   DEBUG: CHttpCacheManager::StartCachingURL   push http://res.boxee.tv/title/movie/?h=dc6d6d17057896ea%3a2076053504&name=PELICULAS to  m_references (hcm)
19:05:12.0224 T:3038759824 M:541032448   DEBUG: Boxee: 22/02/11 18:05:12.2241#DEBUG#bxcurl.cpp:285(InitHttpTransfer)#setting creds to: <jvr1976:a+EeRvK3VVCLsJlTHMavtw==>
19:05:12.0556 T:3038759824 M:541032448   DEBUG: Boxee: 22/02/11 18:05:12.5567#DEBUG#bxcurl.cpp:507(HttpGetString)#curl_easy_perform failed (The requested URL returned error: 404)!
19:05:12.0557 T:3038759824 M:541032448   DEBUG: update ref map. url http://res.boxee.tv/title/movie/?h=dc6d6d17057896ea%3a2076053504&name=PELICULAS new ref_count 1  progress 0 (hcm)
19:05:12.0557 T:3038759824 M:541032448   DEBUG: update ref map. url http://res.boxee.tv/title/movie/?h=dc6d6d17057896ea%3a2076053504&name=PELICULAS new ref_count 0  progress 0 (hcm)
19:05:12.0558 T:3038759824 M:541032448 WARNING: ReadFeed - RSS Init failed, could not parse feed http://res.boxee.tv/title/movie/?h=dc6d6d17057896ea%3a2076053504&name=PELICULAS. Reason: (null), Row: -1 Col: -1
19:05:12.0558 T:3038759824 M:541032448   DEBUG: CMetadataResolverVideo::ResolveVideo, could not resolve video by folder name, path = /tmp/mnt/CA5CEACD5CEAB37D/PELICULAS/ (videoresolver) (resolver)
19:05:12.0559 T:3038759824 M:541032448   DEBUG: CMetadataResolver::ResolveVideoFolder, Could not resolve metadata for video, path = /tmp/mnt/CA5CEACD5CEAB37D/PELICULAS/Los otros dos (BR-Screener) (EliteTorrent.net).avi, name = Los otros dos BR Screener EliteTorrent net (resolver) (videoresolver)
19:05:12.0925 T:3038759824 M:541061120   DEBUG: CMetadataResolverVideo::RemoveYear, name = Las.Cronicas.De.Narnia.La.Travesia.Del.Viajero.Del.Alba.[Spanish].DVDScreener.XviD.[DTL], newName = Las.Cronicas.De.Narnia.La.Travesia.Del.Viajero.Del.Alba.[Spanish].DVDScreener.XviD.[DTL], year =  (cleanname)
19:05:12.0926 T:3038759824 M:541061120   DEBUG: CMetadataResolverVideo::ExtractPathSeriesTag, try to resolve tv show by path /tmp/mnt/CA5CEACD5CEAB37D/PELICULAS/Las.Cronicas.De.Narnia.La.Travesia.Del.Viajero.Del.Alba.[Spanish].DVDScreener.XviD.[DTL].avi title Las.Cronicas.De.Narnia.La.Travesia.Del.Viajero.Del.Alba.[Spanish].DVDScreener.XviD.[DTL]
19:05:12.0926 T:3038759824 M:541061120   DEBUG: could not extract season from parent folder PELICULAS
19:05:12.0926 T:3038759824 M:541061120   DEBUG: CMetadataResolverVideo::ExtractDailyShows - try to resolve tv show [Las.Cronicas.De.Narnia.La.Travesia.Del.Viajero.Del.Alba.[Spanish].DVDScreener.XviD.[DTL].avi] as daily show (ds)
19:05:12.0927 T:3038759824 M:541061120   DEBUG: CMetadataResolverVideo::RemoveYear, name = Las.Cronicas.De.Narnia.La.Travesia.Del.Viajero.Del.Alba.[Spanish].DVDScreener.XviD.[DTL].avi, newName = Las.Cronicas.De.Narnia.La.Travesia.Del.Viajero.Del.Alba.[Spanish].DVDScreener.XviD.[DTL].avi, year =  (cleanname)
19:05:12.0993 T:3038759824 M:540954624   DEBUG: CMetadataResolverVideo::ResolveVideo, resolving video, path = /tmp/mnt/CA5CEACD5CEAB37D/PELICULAS/Las.Cronicas.De.Narnia.La.Travesia.Del.Viajero.Del.Alba.[Spanish].DVDScreener.XviD.[DTL].avi (videoresolver) (resolver)
19:05:12.0994 T:3038759824 M:540954624   DEBUG: CMetadataResolverVideo::ResolveVideoSendServerReq, resolving video by file, path = /tmp/mnt/CA5CEACD5CEAB37D/PELICULAS/Las.Cronicas.De.Narnia.La.Travesia.Del.Viajero.Del.Alba.[Spanish].DVDScreener.XviD.[DTL].avi  (videoresolver) (resolver)
19:05:12.0999 T:3038759824 M:540954624   DEBUG: CMetadataResolverVideo::ResolveVideoSendServerReq, resolving movie, path = /tmp/mnt/CA5CEACD5CEAB37D/PELICULAS/Las.Cronicas.De.Narnia.La.Travesia.Del.Viajero.Del.Alba.[Spanish].DVDScreener.XviD.[DTL].avi, name = Las Cronicas De Narnia La Travesia Del Viajero Del Alba, link = http://res.boxee.tv/title/movie/?h=06b052be172fe068%3a1468870770&name=Las%20Cronicas%20De%20Narnia%20La%20Travesia%20Del%20Viajero%20Del%20Alba (videoresolver) (resolver)
19:05:12.0999 T:3038759824 M:540954624   DEBUG: Initializing feed: http://res.boxee.tv/title/movie/?h=06b052be172fe068%3a1468870770&name=Las%20Cronicas%20De%20Narnia%20La%20Travesia%20Del%20Viajero%20Del%20Alba
19:05:13.0000 T:3038759824 M:540954624   DEBUG: ReadFeed - RSS, Loading feed from URL: http://res.boxee.tv/title/movie/?h=06b052be172fe068%3a1468870770&name=Las%20Cronicas%20De%20Narnia%20La%20Travesia%20Del%20Viajero%20Del%20Alba
19:05:13.0002 T:3038759824 M:540954624   DEBUG: update ref map. url http://res.boxee.tv/title/movie/?h=06b052be172fe068%3a1468870770&name=Las%20Cronicas%20De%20Narnia%20La%20Travesia%20Del%20Viajero%20Del%20Alba new ref_count 1  progress 0 (hcm)
19:05:13.0003 T:3038759824 M:540954624   DEBUG: CHttpCacheManager::StartCachingURL   push http://res.boxee.tv/title/movie/?h=06b052be172fe068%3a1468870770&name=Las%20Cronicas%20De%20Narnia%20La%20Travesia%20Del%20Viajero%20Del%20Alba to  m_references (hcm)
19:05:13.0008 T:3038759824 M:540954624   DEBUG: Boxee: 22/02/11 18:05:13.79#DEBUG#bxcurl.cpp:285(InitHttpTransfer)#setting creds to: <jvr1976:a+EeRvK3VVCLsJlTHMavtw==>
19:05:13.0434 T:3038759824 M:540958720   DEBUG: update ref map. url http://res.boxee.tv/title/movie/?h=06b052be172fe068%3a1468870770&name=Las%20Cronicas%20De%20Narnia%20La%20Travesia%20Del%20Viajero%20Del%20Alba new ref_count 1  progress 0 (hcm)
19:05:13.0436 T:3038759824 M:540958720   DEBUG: insert http://res.boxee.tv/title/movie/?h=06b052be172fe068%3a1468870770&name=Las%20Cronicas%20De%20Narnia%20La%20Travesia%20Del%20Viajero%20Del%20Alba to the database (hcm)
19:05:13.0437 T:3038759824 M:540958720   DEBUG: update ref map. url http://res.boxee.tv/title/movie/?h=06b052be172fe068%3a1468870770&name=Las%20Cronicas%20De%20Narnia%20La%20Travesia%20Del%20Viajero%20Del%20Alba new ref_count 0  progress 0 (hcm)
19:05:13.0441 T:3038759824 M:540962816   DEBUG: Channel thumbnail:
19:05:13.0441 T:3038759824 M:540962816   DEBUG: CRssFeed::ReadFeed - open search, startIndex = -1, itemsPerPage = -1, totalResults = -1 (paging)
19:05:13.0444 T:3038759824 M:540962816   DEBUG: CMetadataResolverVideo::ResolveVideoSendServerReq - Server replies change type to movie
19:05:13.0446 T:3038759824 M:540962816   DEBUG: CMetadataResolver::ResolveVideoFolder, Resolved metadata for video, path = /tmp/mnt/CA5CEACD5CEAB37D/PELICULAS/Las.Cronicas.De.Narnia.La.Travesia.Del.Viajero.Del.Alba.[Spanish].DVDScreener.XviD.[DTL].avi, name = Las Cronicas De Narnia La Travesia Del Viajero Del Alba  (resolver) (videoresolver)
19:05:13.0446 T:3038759824 M:540962816   DEBUG: CMetadataResolver::ResolveVideoFolder, Video was resolved by name, adding to DB, path = /tmp/mnt/CA5CEACD5CEAB37D/PELICULAS/Las.Cronicas.De.Narnia.La.Travesia.Del.Viajero.Del.Alba.[Spanish].DVDScreener.XviD.[DTL].avi, name = Las Cronicas De Narnia La Travesia Del Viajero Del Alba, id = 562001  (resolver) (videoresolver)
19:05:13.0447 T:3038759824 M:540962816   DEBUG: CMetadataResolver::CacheThumb, strItemPath = /tmp/mnt/CA5CEACD5CEAB37D/PELICULAS/, strThumbnailPath = http://boxee-proxy.appspot.com/400x0x85/?url=http%3A%2F%2Fs3.boxee.tv%2Ftitlethumbs%2F4%2F9%2F081e03e495c358fe89d8632b33b246.jpg (thumb)
19:05:13.0447 T:3038759824 M:540962816   DEBUG: CMetadataResolver::CacheThumb, strThumbnailPath = http://boxee-proxy.appspot.com/400x0x85/?url=http%3A%2F%2Fs3.boxee.tv%2Ftitlethumbs%2F4%2F9%2F081e03e495c358fe89d8632b33b246.jpg, cached path = special://masterprofile/profiles/jvr1976/Thumbnails/Video/8/8a29496f.tbn (thumb)
19:05:13.0448 T:3038759824 M:540962816   DEBUG: TouchThumbnailFile touch thumbnail file special://masterprofile/profiles/jvr1976/Thumbnails/Video/8/8a29496f.tbn size 47623  (thm)
19:05:13.0448 T:3038759824 M:540962816   DEBUG: TouchThumbnailFile touch thumbnail file special://masterprofile/profiles/jvr1976/Thumbnails/Video/8/8a29496f.tbn already exist - update the average time total 8 files average time 1298397858(thm)
19:05:13.0449 T:3038759824 M:540962816   DEBUG: Boxee: 22/02/11 18:05:13.4494#DEBUG#bxvideodatabase.cpp:1074(AddVideo)#BXVideoDatabase::AddVideo, Adding video, path = /tmp/mnt/CA5CEACD5CEAB37D/PELICULAS/ (videodb)
19:05:13.0449 T:3038759824 M:540962816   DEBUG: Boxee: 22/02/11 18:05:13.4498#DEBUG#bxvideodatabase.cpp:1087(AddVideo)#BXVideoDatabase::AddVideo, Adding video, title The Chronicles of Narnia: The Voyage of the Dawn Treader, path /tmp/mnt/CA5CEACD5CEAB37D/PELICULAS/
19:05:13.0595 T:3033766800 M:540987392   DEBUG: no gui sound for 2 seconds. pausing device
19:05:14.0215 T:3074115360 M:540995584   DEBUG: SDLKeyboard: scancode: 105, sym: 276, unicode: 0, modifier: 0
19:05:14.0215 T:3074115360 M:540995584   DEBUG: CApplication::OnKey - [key=61477][window=10423][action=1]
19:05:14.0216 T:3074115360 M:540995584   DEBUG: OnKey: 61477 pressed, action is 1
19:05:14.0217 T:3074115360 M:540995584   DEBUG: CGUIDialogBoxeeBrowseMenu::DrawMenu, m_iCurrentRowIndex = 1, m_iPreviousRowIndex = 1, initialRow = 2 (browsemenu)
19:05:14.0218 T:3074115360 M:540995584   DEBUG: CGUIDialogBoxeeBrowseMenu::DrawMenu, CLEAR menu row at index =  2 (browsemenu)
19:05:14.0218 T:3074115360 M:540995584   DEBUG: CGUIDialogBoxeeBrowseMenu::DrawMenu, CLEAR menu row at index =  3 (browsemenu)
19:05:14.0218 T:3074115360 M:540995584   DEBUG: CGUIDialogBoxeeBrowseMenu::DrawMenu, CLEAR menu row at index =  4 (browsemenu)
19:05:14.0219 T:3074115360 M:540995584   DEBUG: Adding button label = Video to row id = 2 at index = 0 (browsemenu)
19:05:14.0219 T:3074115360 M:540995584   DEBUG: Adding button label = Music to row id = 2 at index = 1 (browsemenu)
19:05:14.0219 T:3074115360 M:540995584   DEBUG: Adding button label = Photos to row id = 2 at index = 2 (browsemenu)
19:05:14.0863 T:3074115360 M:540999680   DEBUG: (dbg) FreeMem 528320/644016 Kb, FPS 43.0, CPU0: 76.5%  Loader Q:[0] Textures:[71 (23.47 M)] SERVER: [67.225.149.139] ver: 1.0.4.17443
19:05:14.0863 T:3074115360 M:541003776   DEBUG: (dbg)
19:05:15.0875 T:3074115360 M:541036544   DEBUG: SDLKeyboard: scancode: 106, sym: 275, unicode: 0, modifier: 0
19:05:15.0875 T:3074115360 M:541036544   DEBUG: CApplication::OnKey - [key=61479][window=10423][action=2]
19:05:15.0876 T:3074115360 M:541036544   DEBUG: OnKey: 61479 pressed, action is 2
19:05:15.0878 T:3074115360 M:541036544 WARNING: CGUIDialogBoxeeBrowseMenu::UpdateMenu, unable to find next row, id =  (browsemenu)
19:05:15.0878 T:3074115360 M:541036544   DEBUG: CGUIDialogBoxeeBrowseMenu::DrawMenu, m_iCurrentRowIndex = 1, m_iPreviousRowIndex = 1, initialRow = 2 (browsemenu)
19:05:15.0878 T:3074115360 M:541036544   DEBUG: CGUIDialogBoxeeBrowseMenu::DrawMenu, CLEAR menu row at index =  2 (browsemenu)
19:05:15.0879 T:3074115360 M:541036544   DEBUG: CGUIDialogBoxeeBrowseMenu::DrawMenu, CLEAR menu row at index =  3 (browsemenu)
19:05:15.0879 T:3074115360 M:541036544   DEBUG: CGUIDialogBoxeeBrowseMenu::DrawMenu, CLEAR menu row at index =  4 (browsemenu)
19:05:16.0915 T:3074115360 M:540950528   DEBUG: SDLKeyboard: scancode: 28, sym: 13, unicode: 0, modifier: 0
19:05:16.0915 T:3074115360 M:540950528   DEBUG: CApplication::OnKey - [key=61453][window=10423][action=7]
19:05:16.0916 T:3074115360 M:540950528   DEBUG: OnKey: 61453 pressed, action is 7
19:05:16.0975 T:3074115360 M:540950528   DEBUG: CGUIDialogBoxeeBrowseMenu::OnClick - Enter function with [ClickedButton=3027] (browsemenu)
19:05:16.0975 T:3074115360 M:540950528   DEBUG: CGUIDialogBoxeeBrowseMenu::OnClick - No case for [ClickedButton=3027] -> continue (browsemenu)
19:05:16.0976 T:3074115360 M:540950528   DEBUG: CGUIDialogBoxeeBrowseMenu::UpdateCommand selected button for row 0 is 1105 (browsemenu)
19:05:16.0976 T:3074115360 M:540950528   DEBUG: CGUIDialogBoxeeBrowseMenu::UpdateCommand selected button for row 1 is 3027 (browsemenu)
19:05:16.0976 T:3074115360 M:540950528   DEBUG: CGUIDialogBoxeeBrowseMenu::UpdateCommand, Updated command is boxeeui://repositories/ (browsemenu)
19:05:16.0977 T:3074115360 M:540950528   DEBUG: CGUIDialogBoxeeBrowseMenu::OnClick, current command = boxeeui://repositories/ (browsemenu)
19:05:16.0977 T:3074115360 M:540950528   DEBUG: ------ Window Deinit (boxee_browse_menu.xml) ------
19:05:16.0978 T:3074115360 M:540950528   DEBUG: Activating window ID: 10486
19:05:16.0979 T:3074115360 M:540950528   DEBUG: Checking if window ID 10486 is locked.
19:05:16.0979 T:3074115360 M:540950528   DEBUG: ------ Window Deinit (Home.xml) ------
19:05:16.0981 T:3074115360 M:540950528   DEBUG: ------ Window Init (boxee_browse_repositories.xml) ------
19:05:16.0982 T:3074115360 M:540950528   DEBUG: Loading skin file: boxee_browse_repositories.xml
19:05:16.0996 T:3074115360 M:540954624   DEBUG: CGUIBaseContainer::CGUIBaseContainer, 56 (basecontainer)
19:05:17.0007 T:3074115360 M:540954624   DEBUG: CGUIWindowBoxeeBrowse::InitializeViewController, adding controller id = [56] (browse)
19:05:17.0008 T:3074115360 M:540954624   DEBUG: Load boxee_browse_repositories.xml: 26.52ms
19:05:17.0013 T:3074115360 M:540954624   DEBUG: Alloc resources: 31.02ms (27.88 ms skin load)
19:05:17.0015 T:3074115360 M:540954624   DEBUG: Boxee: 22/02/11 18:05:17.152#DEBUG#GUIWindowStateDatabase.cpp:139(LoadState)#GUIWindowStateDatabase::LoadState, iWindow=10486 , iView=-1077210960 , iSortMethod=154362364, iSelectedItem=0 , iSelectedCategory=177703452
19:05:17.0016 T:3074115360 M:540954624   DEBUG: Boxee: 22/02/11 18:05:17.164#DEBUG#GUIWindowStateDatabase.cpp:148(LoadState)#GUIWindowStateDatabase::LoadState, state found, idWindow='10486' , strCategory='no-category'
19:05:17.0017 T:3074115360 M:540954624   DEBUG: CGUIWindowBoxeeBrowse::ConfigureState, window id = 10486, param = boxeeui://repositories/ (browsemenu)
19:05:17.0017 T:3074115360 M:540954624   DEBUG: Boxee: 22/02/11 18:05:17.175#DEBUG#GUIWindowStateDatabase.cpp:139(LoadState)#GUIWindowStateDatabase::LoadState, iWindow=10486 , iView=8 , iSortMethod=154362364, iSelectedItem=11 , iSelectedCategory=182928988
19:05:17.0018 T:3074115360 M:540958720   DEBUG: Boxee: 22/02/11 18:05:17.184#DEBUG#GUIWindowStateDatabase.cpp:148(LoadState)#GUIWindowStateDatabase::LoadState, state found, idWindow='10486' , strCategory='no-category'
19:05:17.0018 T:3074115360 M:540958720   DEBUG: CBrowseWindowSource::ClearItems, clear source, path = repositories://external (browse)
19:05:17.0019 T:3074115360 M:540958720   DEBUG: CBrowseWindowSource::RequestItems, source base path = repositories://external, requested path = repositories://external, for window id = 10486 (browse)
19:05:17.0019 T:3074115360 M:540958720   DEBUG: CItemLoader::AddControl, window = 10486, control = 0, path = repositories://external (browse)
19:05:17.0019 T:3074115360 M:540958720   DEBUG: CItemLoader::AddControl, 3 GUI_MSG_LOADING, window = 10486, control = 0 (basecontainer)
19:05:17.0020 T:3074115360 M:540958720   DEBUG: CGUIWindowBoxeeBrowse::OnMessage, 4 GUI_MSG_LOADING, window = 10486, control = -1 (basecontainer) (browse)
19:05:17.0020 T:3035601808 M:540950528   DEBUG: CGetDirectoryJob::DoWork, NEWUI, loading directory, path = repositories://external
19:05:17.0021 T:3035601808 M:540950528   DEBUG: CRepositoriesDirectory::GetDirectory - Enter function with [strPath=repositories://external] (bapps)
19:05:17.0021 T:3035601808 M:540950528   DEBUG: CRepositoriesDirectory::GetRepositoriesList - Enter function with [type=external] (bapps)
19:05:17.0021 T:3035601808 M:540950528   DEBUG: Boxee: 22/02/11 18:05:17.217#DEBUG#bxappboxmanager.cpp:445(GetRepositories)#BXApplicationsManager::GetRepositories - Enter function (repos)
19:05:17.0022 T:3035601808 M:540950528   DEBUG: Boxee: 22/02/11 18:05:17.221#DEBUG#bxappboxmanager.cpp:478(GetRepositories)#BXApplicationsManager::GetRepositories - Exit function. After set [RepositoriesListSize=2] (repos)
19:05:17.0022 T:3035601808 M:540950528   DEBUG: CAppRepositories::Load - Going to add Repository [id=com.erikkristensen][name=Erik Kristensen's Boxee Repository][url=http://erikkristensen.com/project/boxeerepo] (repos)
19:05:17.0023 T:3035601808 M:540950528   DEBUG: CAppRepositories::Load - Going to add Repository [id=info.mimediacenter][name=Mi mediacenter][url=http://www.mimediacenter.info/boxee] (repos)
19:05:17.0023 T:3035601808 M:540950528   DEBUG: CRepositoriesDirectory::GetDirectory - Exit function with [NumOfRepositories=2] for [strPath=repositories://external] (bapps)
19:05:17.0026 T:3074115360 M:540950528   DEBUG: CItemLoader::AddControl, added directory job, path = repositories://external (browse)
19:05:17.0375 T:3074115360 M:543879168   DEBUG: CBrowseWindowSourceController::BindItems received 2 items for path repositories://external (browse)
19:05:17.0375 T:3074115360 M:543879168   DEBUG: CBrowseWindowSource::BindItems, source id repositoriessource received 2 items for path repositories://external (browse)
19:05:17.0376 T:3074115360 M:543879168   DEBUG: CBrowseWindowSourceController::MergeSources, processing single source (browse) (merge)
19:05:17.0376 T:3074115360 M:543879168   DEBUG: CGUIBaseContainer::CGUIBaseContainer,  GUI_MSG_LABEL_BIND, 56 (basecontainer)
19:05:17.0377 T:3074115360 M:543879168   DEBUG: CGUIFixedListContainer::ScrollToOffset, ENTER, m_cursor = 0, offset = 0, m_offset = 0 (scroll)
19:05:17.0377 T:3074115360 M:543879168   DEBUG: CGUIFixedListContainer::ScrollToOffset, mo 0 mc 0, nCurrOffset = 0, nTargetOffset = 0, m_items.size() = 2, m_itemsPerPage = 10 (scroll)
19:05:17.0377 T:3074115360 M:543879168   DEBUG: CGUIFixedListContainer::ScrollToOffset, EXIT, m_cursor = 0, offset = 0, m_offset = 0 (scroll)
19:05:17.0378 T:3074115360 M:543879168   DEBUG: CGUIFixedListContainer::ScrollToOffset, ENTER, m_cursor = 0, offset = 0, m_offset = 0 (scroll)
19:05:17.0378 T:3074115360 M:543879168   DEBUG: CGUIFixedListContainer::ScrollToOffset, mo 0 mc 0, nCurrOffset = 0, nTargetOffset = 0, m_items.size() = 2, m_itemsPerPage = 10 (scroll)
19:05:17.0378 T:3074115360 M:543879168   DEBUG: CGUIFixedListContainer::ScrollToOffset, EXIT, m_cursor = 0, offset = 0, m_offset = 0 (scroll)
19:05:17.0412 T:3035601808 M:543756288   DEBUG: CDirectoryCache::UpdateItem, CACHE updating dirPath = repositories://external , cacheId =  , item = Erik Kristensen's Boxee Repository, path = http://erikkristensen.com/project/boxeerepo (dircache)
19:05:17.0413 T:3035601808 M:543756288   DEBUG: CDirectoryCache::UpdateItem, found the relevant dir - strDirPath = repositories://external (dircache)
19:05:17.0413 T:3035601808 M:543756288   DEBUG: CDirectoryCache::UpdateItem, found the item - strItemPath = http://erikkristensen.com/project/boxeerepo (dircache)
19:05:17.0418 T:3035601808 M:543748096   DEBUG: CDirectoryCache::UpdateItem, CACHE updating dirPath = repositories://external , cacheId =  , item = Mi mediacenter, path = http://www.mimediacenter.info/boxee (dircache)
19:05:17.0419 T:3035601808 M:543748096   DEBUG: CDirectoryCache::UpdateItem, found the relevant dir - strDirPath = repositories://external (dircache)
19:05:17.0419 T:3035601808 M:543748096   DEBUG: CDirectoryCache::UpdateItem, found the item - strItemPath = http://www.mimediacenter.info/boxee (dircache)
19:05:18.0135 T:3074115360 M:543395840   DEBUG: SDLKeyboard: scancode: 108, sym: 274, unicode: 0, modifier: 0
19:05:18.0135 T:3074115360 M:543395840   DEBUG: CApplication::OnKey - [key=61480][window=10486][action=4]
19:05:18.0136 T:3074115360 M:543395840   DEBUG: OnKey: 61480 pressed, action is 4
19:05:18.0137 T:3074115360 M:543395840   DEBUG: CGUIFixedListContainer::ScrollToOffset, ENTER, m_cursor = 0, offset = 1, m_offset = 0 (scroll)
19:05:18.0138 T:3074115360 M:543395840   DEBUG: CGUIFixedListContainer::ScrollToOffset, mo 0 mc 0, nCurrOffset = 0, nTargetOffset = 1, m_items.size() = 2, m_itemsPerPage = 10 (scroll)
19:05:18.0138 T:3074115360 M:543395840   DEBUG: CGUIFixedListContainer::ScrollToOffset, EXIT, m_cursor = 1, offset = 1, m_offset = 0 (scroll)
19:05:20.0175 T:3033766800 M:543330304   DEBUG: no gui sound for 2 seconds. pausing device
19:05:20.0296 T:3038759824 M:543334400   DEBUG: CMetadataResolverVideo::RemoveYear, name = La saga Crepusculo Eclipse [V2][TSSCREENER][Xvid][Castellano][DivxFinal.com], newName = La saga Crepusculo Eclipse [V2][TSSCREENER][Xvid][Castellano][DivxFinal.com], year =  (cleanname)
19:05:20.0297 T:3038759824 M:543334400   DEBUG: CMetadataResolverVideo::ExtractPathSeriesTag, try to resolve tv show by path /tmp/mnt/CA5CEACD5CEAB37D/PELICULAS/La saga Crepusculo Eclipse [V2][TSSCREENER][Xvid][Castellano][DivxFinal.com].avi title La saga Crepusculo Eclipse [V2][TSSCREENER][Xvid][Castellano][DivxFinal.com]
19:05:20.0298 T:3038759824 M:543334400   DEBUG: could not extract season from parent folder PELICULAS
19:05:20.0298 T:3038759824 M:543334400   DEBUG: CMetadataResolverVideo::ExtractDailyShows - try to resolve tv show [La saga Crepusculo Eclipse [V2][TSSCREENER][Xvid][Castellano][DivxFinal.com].avi] as daily show (ds)
19:05:20.0299 T:3038759824 M:543334400   DEBUG: CMetadataResolverVideo::RemoveYear, name = La saga Crepusculo Eclipse [V2][TSSCREENER][Xvid][Castellano][DivxFinal.com].avi, newName = La saga Crepusculo Eclipse [V2][TSSCREENER][Xvid][Castellano][DivxFinal.com].avi, year =  (cleanname)
19:05:20.0351 T:3038759824 M:543481856   DEBUG: CMetadataResolverVideo::ResolveVideo, resolving video, path = /tmp/mnt/CA5CEACD5CEAB37D/PELICULAS/La saga Crepusculo Eclipse [V2][TSSCREENER][Xvid][Castellano][DivxFinal.com].avi (videoresolver) (resolver)
19:05:20.0351 T:3038759824 M:543481856   DEBUG: CMetadataResolverVideo::ResolveVideoSendServerReq, resolving video by file, path = /tmp/mnt/CA5CEACD5CEAB37D/PELICULAS/La saga Crepusculo Eclipse [V2][TSSCREENER][Xvid][Castellano][DivxFinal.com].avi  (videoresolver) (resolver)
19:05:20.0357 T:3038759824 M:543481856   DEBUG: CMetadataResolverVideo::ResolveVideoSendServerReq, resolving movie, path = /tmp/mnt/CA5CEACD5CEAB37D/PELICULAS/La saga Crepusculo Eclipse [V2][TSSCREENER][Xvid][Castellano][DivxFinal.com].avi, name = La saga Crepusculo Eclipse, link = http://res.boxee.tv/title/movie/?h=2e03d592eb5c53c1%3a1446184960&name=La%20saga%20Crepusculo%20Eclipse (videoresolver) (resolver)
19:05:20.0357 T:3038759824 M:543485952   DEBUG: Initializing feed: http://res.boxee.tv/title/movie/?h=2e03d592eb5c53c1%3a1446184960&name=La%20saga%20Crepusculo%20Eclipse
19:05:20.0358 T:3038759824 M:543485952   DEBUG: ReadFeed - RSS, Loading feed from URL: http://res.boxee.tv/title/movie/?h=2e03d592eb5c53c1%3a1446184960&name=La%20saga%20Crepusculo%20Eclipse
19:05:20.0360 T:3038759824 M:543485952   DEBUG: update ref map. url http://res.boxee.tv/title/movie/?h=2e03d592eb5c53c1%3a1446184960&name=La%20saga%20Crepusculo%20Eclipse new ref_count 1  progress 0 (hcm)
19:05:20.0361 T:3038759824 M:543485952   DEBUG: CHttpCacheManager::StartCachingURL   push http://res.boxee.tv/title/movie/?h=2e03d592eb5c53c1%3a1446184960&name=La%20saga%20Crepusculo%20Eclipse to  m_references (hcm)
19:05:20.0366 T:3038759824 M:543485952   DEBUG: Boxee: 22/02/11 18:05:20.3661#DEBUG#bxcurl.cpp:285(InitHttpTransfer)#setting creds to: <jvr1976:a+EeRvK3VVCLsJlTHMavtw==>
19:05:20.0721 T:3038759824 M:543485952   DEBUG: Boxee: 22/02/11 18:05:20.7214#DEBUG#bxcurl.cpp:507(HttpGetString)#curl_easy_perform failed (The requested URL returned error: 404)!
19:05:20.0722 T:3038759824 M:543485952   DEBUG: update ref map. url http://res.boxee.tv/title/movie/?h=2e03d592eb5c53c1%3a1446184960&name=La%20saga%20Crepusculo%20Eclipse new ref_count 1  progress 0 (hcm)
19:05:20.0722 T:3038759824 M:543485952   DEBUG: update ref map. url http://res.boxee.tv/title/movie/?h=2e03d592eb5c53c1%3a1446184960&name=La%20saga%20Crepusculo%20Eclipse new ref_count 0  progress 0 (hcm)
19:05:20.0724 T:3038759824 M:543485952 WARNING: ReadFeed - RSS Init failed, could not parse feed http://res.boxee.tv/title/movie/?h=2e03d592eb5c53c1%3a1446184960&name=La%20saga%20Crepusculo%20Eclipse. Reason: (null), Row: -1 Col: -1
19:05:20.0724 T:3038759824 M:543485952   DEBUG: CMetadataResolverVideo::ResolveVideo, could not resolve video by name, path = /tmp/mnt/CA5CEACD5CEAB37D/PELICULAS/La saga Crepusculo Eclipse [V2][TSSCREENER][Xvid][Castellano][DivxFinal.com].avi (videoresolver) (resolver)
19:05:20.0724 T:3038759824 M:543485952   DEBUG: CMetadataResolverVideo::ResolveVideoSendServerReq, resolving video by folder, path = /tmp/mnt/CA5CEACD5CEAB37D/PELICULAS/La saga Crepusculo Eclipse [V2][TSSCREENER][Xvid][Castellano][DivxFinal.com].avi  (videoresolver) (resolver)
19:05:20.0729 T:3038759824 M:543485952   DEBUG: CMetadataResolverVideo::ResolveVideoSendServerReq, resolving movie, path = /tmp/mnt/CA5CEACD5CEAB37D/PELICULAS/La saga Crepusculo Eclipse [V2][TSSCREENER][Xvid][Castellano][DivxFinal.com].avi, name = La saga Crepusculo Eclipse, link = http://res.boxee.tv/title/movie/?h=2e03d592eb5c53c1%3a1446184960&name=PELICULAS (videoresolver) (resolver)
19:05:20.0730 T:3038759824 M:543485952   DEBUG: Initializing feed: http://res.boxee.tv/title/movie/?h=2e03d592eb5c53c1%3a1446184960&name=PELICULAS
19:05:20.0730 T:3038759824 M:543485952   DEBUG: ReadFeed - RSS, Loading feed from URL: http://res.boxee.tv/title/movie/?h=2e03d592eb5c53c1%3a1446184960&name=PELICULAS
19:05:20.0733 T:3038759824 M:543485952   DEBUG: update ref map. url http://res.boxee.tv/title/movie/?h=2e03d592eb5c53c1%3a1446184960&name=PELICULAS new ref_count 1  progress 0 (hcm)
19:05:20.0733 T:3038759824 M:543485952   DEBUG: CHttpCacheManager::StartCachingURL   push http://res.boxee.tv/title/movie/?h=2e03d592eb5c53c1%3a1446184960&name=PELICULAS to  m_references (hcm)
19:05:20.0738 T:3038759824 M:543485952   DEBUG: Boxee: 22/02/11 18:05:20.7384#DEBUG#bxcurl.cpp:285(InitHttpTransfer)#setting creds to: <jvr1976:a+EeRvK3VVCLsJlTHMavtw==>
19:05:21.0085 T:3038759824 M:543485952   DEBUG: Boxee: 22/02/11 18:05:21.849#DEBUG#bxcurl.cpp:507(HttpGetString)#curl_easy_perform failed (The requested URL returned error: 404)!
19:05:21.0085 T:3038759824 M:543485952   DEBUG: update ref map. url http://res.boxee.tv/title/movie/?h=2e03d592eb5c53c1%3a1446184960&name=PELICULAS new ref_count 1  progress 0 (hcm)
19:05:21.0085 T:3038759824 M:543485952   DEBUG: update ref map. url http://res.boxee.tv/title/movie/?h=2e03d592eb5c53c1%3a1446184960&name=PELICULAS new ref_count 0  progress 0 (hcm)
19:05:21.0086 T:3038759824 M:543490048 WARNING: ReadFeed - RSS Init failed, could not parse feed http://res.boxee.tv/title/movie/?h=2e03d592eb5c53c1%3a1446184960&name=PELICULAS. Reason: (null), Row: -1 Col: -1
19:05:21.0087 T:3038759824 M:543490048   DEBUG: CMetadataResolverVideo::ResolveVideo, could not resolve video by folder name, path = /tmp/mnt/CA5CEACD5CEAB37D/PELICULAS/ (videoresolver) (resolver)
19:05:21.0087 T:3038759824 M:543490048   DEBUG: CMetadataResolver::ResolveVideoFolder, Could not resolve metadata for video, path = /tmp/mnt/CA5CEACD5CEAB37D/PELICULAS/La saga Crepusculo Eclipse [V2][TSSCREENER][Xvid][Castellano][DivxFinal.com].avi, name = La saga Crepusculo Eclipse (resolver) (videoresolver)
19:05:21.0806 T:3038759824 M:543514624   DEBUG: CMetadataResolverVideo::RemoveYear, name = La otra hija (DVDRip) (EliteTorrent.net), newName = La otra hija (DVDRip) (EliteTorrent.net), year =  (cleanname)
19:05:21.0806 T:3038759824 M:543514624   DEBUG: CMetadataResolverVideo::ExtractPathSeriesTag, try to resolve tv show by path /tmp/mnt/CA5CEACD5CEAB37D/PELICULAS/La otra hija (DVDRip) (EliteTorrent.net).avi title La otra hija (DVDRip) (EliteTorrent.net)
19:05:21.0807 T:3038759824 M:543514624   DEBUG: could not extract season from parent folder PELICULAS
19:05:21.0807 T:3038759824 M:543514624   DEBUG: CMetadataResolverVideo::ExtractDailyShows - try to resolve tv show [La otra hija (DVDRip) (EliteTorrent.net).avi] as daily show (ds)
19:05:21.0808 T:3038759824 M:543514624   DEBUG: CMetadataResolverVideo::RemoveYear, name = La otra hija (DVDRip) (EliteTorrent.net).avi, newName = La otra hija (DVDRip) (EliteTorrent.net).avi, year =  (cleanname)
19:05:21.0865 T:3038759824 M:543653888   DEBUG: CMetadataResolverVideo::ResolveVideo, resolving video, path = /tmp/mnt/CA5CEACD5CEAB37D/PELICULAS/La otra hija (DVDRip) (EliteTorrent.net).avi (videoresolver) (resolver)
19:05:21.0865 T:3038759824 M:543653888   DEBUG: CMetadataResolverVideo::ResolveVideoSendServerReq, resolving video by file, path = /tmp/mnt/CA5CEACD5CEAB37D/PELICULAS/La otra hija (DVDRip) (EliteTorrent.net).avi  (videoresolver) (resolver)
19:05:21.0870 T:3038759824 M:543653888   DEBUG: CMetadataResolverVideo::ResolveVideoSendServerReq, resolving movie, path = /tmp/mnt/CA5CEACD5CEAB37D/PELICULAS/La otra hija (DVDRip) (EliteTorrent.net).avi, name = La otra hija, link = http://res.boxee.tv/title/movie/?h=b0b617539e9e92fa%3a1467834368&name=La%20otra%20hija (videoresolver) (resolver)
19:05:21.0871 T:3038759824 M:543653888   DEBUG: Initializing feed: http://res.boxee.tv/title/movie/?h=b0b617539e9e92fa%3a1467834368&name=La%20otra%20hija
19:05:21.0871 T:3038759824 M:543653888   DEBUG: ReadFeed - RSS, Loading feed from URL: http://res.boxee.tv/title/movie/?h=b0b617539e9e92fa%3a1467834368&name=La%20otra%20hija
19:05:21.0874 T:3038759824 M:543653888   DEBUG: update ref map. url http://res.boxee.tv/title/movie/?h=b0b617539e9e92fa%3a1467834368&name=La%20otra%20hija new ref_count 1  progress 0 (hcm)
19:05:21.0874 T:3038759824 M:543653888   DEBUG: CHttpCacheManager::StartCachingURL   push http://res.boxee.tv/title/movie/?h=b0b617539e9e92fa%3a1467834368&name=La%20otra%20hija to  m_references (hcm)
19:05:21.0879 T:3038759824 M:543653888   DEBUG: Boxee: 22/02/11 18:05:21.8795#DEBUG#bxcurl.cpp:285(InitHttpTransfer)#setting creds to: <jvr1976:a+EeRvK3VVCLsJlTHMavtw==>
19:05:22.0224 T:3038759824 M:543653888   DEBUG: Boxee: 22/02/11 18:05:22.2240#DEBUG#bxcurl.cpp:507(HttpGetString)#curl_easy_perform failed (The requested URL returned error: 404)!
19:05:22.0224 T:3038759824 M:543653888   DEBUG: update ref map. url http://res.boxee.tv/title/movie/?h=b0b617539e9e92fa%3a1467834368&name=La%20otra%20hija new ref_count 1  progress 0 (hcm)
19:05:22.0225 T:3038759824 M:543653888   DEBUG: update ref map. url http://res.boxee.tv/title/movie/?h=b0b617539e9e92fa%3a1467834368&name=La%20otra%20hija new ref_count 0  progress 0 (hcm)
19:05:22.0225 T:3038759824 M:543653888 WARNING: ReadFeed - RSS Init failed, could not parse feed http://res.boxee.tv/title/movie/?h=b0b617539e9e92fa%3a1467834368&name=La%20otra%20hija. Reason: (null), Row: -1 Col: -1
19:05:22.0226 T:3038759824 M:543657984   DEBUG: CMetadataResolverVideo::ResolveVideo, could not resolve video by name, path = /tmp/mnt/CA5CEACD5CEAB37D/PELICULAS/La otra hija (DVDRip) (EliteTorrent.net).avi (videoresolver) (resolver)
19:05:22.0226 T:3038759824 M:543657984   DEBUG: CMetadataResolverVideo::ResolveVideoSendServerReq, resolving video by folder, path = /tmp/mnt/CA5CEACD5CEAB37D/PELICULAS/La otra hija (DVDRip) (EliteTorrent.net).avi  (videoresolver) (resolver)
19:05:22.0231 T:3038759824 M:543657984   DEBUG: CMetadataResolverVideo::ResolveVideoSendServerReq, resolving movie, path = /tmp/mnt/CA5CEACD5CEAB37D/PELICULAS/La otra hija (DVDRip) (EliteTorrent.net).avi, name = La otra hija, link = http://res.boxee.tv/title/movie/?h=b0b617539e9e92fa%3a1467834368&name=PELICULAS (videoresolver) (resolver)
19:05:22.0231 T:3038759824 M:543657984   DEBUG: Initializing feed: http://res.boxee.tv/title/movie/?h=b0b617539e9e92fa%3a1467834368&name=PELICULAS
19:05:22.0232 T:3038759824 M:543657984   DEBUG: ReadFeed - RSS, Loading feed from URL: http://res.boxee.tv/title/movie/?h=b0b617539e9e92fa%3a1467834368&name=PELICULAS
19:05:22.0235 T:3038759824 M:543657984   DEBUG: update ref map. url http://res.boxee.tv/title/movie/?h=b0b617539e9e92fa%3a1467834368&name=PELICULAS new ref_count 1  progress 0 (hcm)
19:05:22.0235 T:3038759824 M:543657984   DEBUG: CHttpCacheManager::StartCachingURL   push http://res.boxee.tv/title/movie/?h=b0b617539e9e92fa%3a1467834368&name=PELICULAS to  m_references (hcm)
19:05:22.0240 T:3038759824 M:543657984   DEBUG: Boxee: 22/02/11 18:05:22.2403#DEBUG#bxcurl.cpp:285(InitHttpTransfer)#setting creds to: <jvr1976:a+EeRvK3VVCLsJlTHMavtw==>
19:05:22.0578 T:3038759824 M:543657984   DEBUG: Boxee: 22/02/11 18:05:22.5781#DEBUG#bxcurl.cpp:507(HttpGetString)#curl_easy_perform failed (The requested URL returned error: 404)!
19:05:22.0578 T:3038759824 M:543657984   DEBUG: update ref map. url http://res.boxee.tv/title/movie/?h=b0b617539e9e92fa%3a1467834368&name=PELICULAS new ref_count 1  progress 0 (hcm)
19:05:22.0579 T:3038759824 M:543657984   DEBUG: update ref map. url http://res.boxee.tv/title/movie/?h=b0b617539e9e92fa%3a1467834368&name=PELICULAS new ref_count 0  progress 0 (hcm)
19:05:22.0579 T:3038759824 M:543657984 WARNING: ReadFeed - RSS Init failed, could not parse feed http://res.boxee.tv/title/movie/?h=b0b617539e9e92fa%3a1467834368&name=PELICULAS. Reason: (null), Row: -1 Col: -1
19:05:22.0580 T:3038759824 M:543657984   DEBUG: CMetadataResolverVideo::ResolveVideo, could not resolve video by folder name, path = /tmp/mnt/CA5CEACD5CEAB37D/PELICULAS/ (videoresolver) (resolver)
19:05:22.0580 T:3038759824 M:543657984   DEBUG: CMetadataResolver::ResolveVideoFolder, Could not resolve metadata for video, path = /tmp/mnt/CA5CEACD5CEAB37D/PELICULAS/La otra hija (DVDRip) (EliteTorrent.net).avi, name = La otra hija (resolver) (videoresolver)
19:05:22.0908 T:3038759824 M:543682560   DEBUG: CMetadataResolverVideo::RemoveYear, name = Harry Potter y las reliquias de la muerte [VHS-Screener][Castellano], newName = Harry Potter y las reliquias de la muerte [VHS-Screener][Castellano], year =  (cleanname)
19:05:22.0909 T:3038759824 M:543682560   DEBUG: CMetadataResolverVideo::ExtractPathSeriesTag, try to resolve tv show by path /tmp/mnt/CA5CEACD5CEAB37D/PELICULAS/Harry Potter y las reliquias de la muerte [VHS-Screener][Castellano].avi title Harry Potter y las reliquias de la muerte [VHS-Screener][Castellano]
19:05:22.0910 T:3038759824 M:543682560   DEBUG: could not extract season from parent folder PELICULAS
19:05:22.0910 T:3038759824 M:543682560   DEBUG: CMetadataResolverVideo::ExtractDailyShows - try to resolve tv show [Harry Potter y las reliquias de la muerte [VHS-Screener][Castellano].avi] as daily show (ds)
19:05:22.0911 T:3038759824 M:543682560   DEBUG: CMetadataResolverVideo::RemoveYear, name = Harry Potter y las reliquias de la muerte [VHS-Screener][Castellano].avi, newName = Harry Potter y las reliquias de la muerte [VHS-Screener][Castellano].avi, year =  (cleanname)
19:05:22.0968 T:3038759824 M:543707136   DEBUG: CMetadataResolverVideo::ResolveVideo, resolving video, path = /tmp/mnt/CA5CEACD5CEAB37D/PELICULAS/Harry Potter y las reliquias de la muerte [VHS-Screener][Castellano].avi (videoresolver) (resolver)
19:05:22.0969 T:3038759824 M:543707136   DEBUG: CMetadataResolverVideo::ResolveVideoSendServerReq, resolving video by file, path = /tmp/mnt/CA5CEACD5CEAB37D/PELICULAS/Harry Potter y las reliquias de la muerte [VHS-Screener][Castellano].avi  (videoresolver) (resolver)
19:05:22.0974 T:3038759824 M:543707136   DEBUG: CMetadataResolverVideo::ResolveVideoSendServerReq, resolving movie, path = /tmp/mnt/CA5CEACD5CEAB37D/PELICULAS/Harry Potter y las reliquias de la muerte [VHS-Screener][Castellano].avi, name = Harry Potter y las reliquias de la muerte, link = http://res.boxee.tv/title/movie/?h=14ff05db234ef0a1%3a1648707584&name=Harry%20Potter%20y%20las%20reliquias%20de%20la%20muerte (videoresolver) (resolver)
19:05:22.0975 T:3038759824 M:543707136   DEBUG: Initializing feed: http://res.boxee.tv/title/movie/?h=14ff05db234ef0a1%3a1648707584&name=Harry%20Potter%20y%20las%20reliquias%20de%20la%20muerte
19:05:22.0975 T:3038759824 M:543707136   DEBUG: ReadFeed - RSS, Loading feed from URL: http://res.boxee.tv/title/movie/?h=14ff05db234ef0a1%3a1648707584&name=Harry%20Potter%20y%20las%20reliquias%20de%20la%20muerte
19:05:22.0977 T:3038759824 M:543707136   DEBUG: update ref map. url http://res.boxee.tv/title/movie/?h=14ff05db234ef0a1%3a1648707584&name=Harry%20Potter%20y%20las%20reliquias%20de%20la%20muerte new ref_count 1  progress 0 (hcm)
19:05:22.0978 T:3038759824 M:543707136   DEBUG: CHttpCacheManager::StartCachingURL   push http://res.boxee.tv/title/movie/?h=14ff05db234ef0a1%3a1648707584&name=Harry%20Potter%20y%20las%20reliquias%20de%20la%20muerte to  m_references (hcm)
19:05:22.0983 T:3038759824 M:543707136   DEBUG: Boxee: 22/02/11 18:05:22.9832#DEBUG#bxcurl.cpp:285(InitHttpTransfer)#setting creds to: <jvr1976:a+EeRvK3VVCLsJlTHMavtw==>
19:05:23.0590 T:3038759824 M:543707136   DEBUG: Boxee: 22/02/11 18:05:23.5902#DEBUG#bxcurl.cpp:507(HttpGetString)#curl_easy_perform failed (The requested URL returned error: 404)!
19:05:23.0591 T:3038759824 M:543707136   DEBUG: update ref map. url http://res.boxee.tv/title/movie/?h=14ff05db234ef0a1%3a1648707584&name=Harry%20Potter%20y%20las%20reliquias%20de%20la%20muerte new ref_count 1  progress 0 (hcm)
19:05:23.0591 T:3038759824 M:543707136   DEBUG: update ref map. url http://res.boxee.tv/title/movie/?h=14ff05db234ef0a1%3a1648707584&name=Harry%20Potter%20y%20las%20reliquias%20de%20la%20muerte new ref_count 0  progress 0 (hcm)
19:05:23.0592 T:3038759824 M:543707136 WARNING: ReadFeed - RSS Init failed, could not parse feed http://res.boxee.tv/title/movie/?h=14ff05db234ef0a1%3a1648707584&name=Harry%20Potter%20y%20las%20reliquias%20de%20la%20muerte. Reason: (null), Row: -1 Col: -1
19:05:23.0593 T:3038759824 M:543707136   DEBUG: CMetadataResolverVideo::ResolveVideo, could not resolve video by name, path = /tmp/mnt/CA5CEACD5CEAB37D/PELICULAS/Harry Potter y las reliquias de la muerte [VHS-Screener][Castellano].avi (videoresolver) (resolver)
19:05:23.0593 T:3038759824 M:543707136   DEBUG: CMetadataResolverVideo::ResolveVideoSendServerReq, resolving video by folder, path = /tmp/mnt/CA5CEACD5CEAB37D/PELICULAS/Harry Potter y las reliquias de la muerte [VHS-Screener][Castellano].avi  (videoresolver) (resolver)
19:05:23.0598 T:3038759824 M:543707136   DEBUG: CMetadataResolverVideo::ResolveVideoSendServerReq, resolving movie, path = /tmp/mnt/CA5CEACD5CEAB37D/PELICULAS/Harry Potter y las reliquias de la muerte [VHS-Screener][Castellano].avi, name = Harry Potter y las reliquias de la muerte, link = http://res.boxee.tv/title/movie/?h=14ff05db234ef0a1%3a1648707584&name=PELICULAS (videoresolver) (resolver)
19:05:23.0599 T:3038759824 M:543707136   DEBUG: Initializing feed: http://res.boxee.tv/title/movie/?h=14ff05db234ef0a1%3a1648707584&name=PELICULAS
19:05:23.0599 T:3038759824 M:543707136   DEBUG: ReadFeed - RSS, Loading feed from URL: http://res.boxee.tv/title/movie/?h=14ff05db234ef0a1%3a1648707584&name=PELICULAS
19:05:23.0601 T:3038759824 M:543711232   DEBUG: update ref map. url http://res.boxee.tv/title/movie/?h=14ff05db234ef0a1%3a1648707584&name=PELICULAS new ref_count 1  progress 0 (hcm)
19:05:23.0602 T:3038759824 M:543711232   DEBUG: CHttpCacheManager::StartCachingURL   push http://res.boxee.tv/title/movie/?h=14ff05db234ef0a1%3a1648707584&name=PELICULAS to  m_references (hcm)
19:05:23.0607 T:3038759824 M:543711232   DEBUG: Boxee: 22/02/11 18:05:23.6072#DEBUG#bxcurl.cpp:285(InitHttpTransfer)#setting creds to: <jvr1976:a+EeRvK3VVCLsJlTHMavtw==>
19:05:23.0960 T:3038759824 M:543711232   DEBUG: Boxee: 22/02/11 18:05:23.9598#DEBUG#bxcurl.cpp:507(HttpGetString)#curl_easy_perform failed (The requested URL returned error: 404)!
19:05:23.0960 T:3038759824 M:543711232   DEBUG: update ref map. url http://res.boxee.tv/title/movie/?h=14ff05db234ef0a1%3a1648707584&name=PELICULAS new ref_count 1  progress 0 (hcm)
19:05:23.0961 T:3038759824 M:543711232   DEBUG: update ref map. url http://res.boxee.tv/title/movie/?h=14ff05db234ef0a1%3a1648707584&name=PELICULAS new ref_count 0  progress 0 (hcm)
19:05:23.0961 T:3038759824 M:543711232 WARNING: ReadFeed - RSS Init failed, could not parse feed http://res.boxee.tv/title/movie/?h=14ff05db234ef0a1%3a1648707584&name=PELICULAS. Reason: (null), Row: -1 Col: -1
19:05:23.0962 T:3038759824 M:543711232   DEBUG: CMetadataResolverVideo::ResolveVideo, could not resolve video by folder name, path = /tmp/mnt/CA5CEACD5CEAB37D/PELICULAS/ (videoresolver) (resolver)
19:05:23.0963 T:3038759824 M:543711232   DEBUG: CMetadataResolver::ResolveVideoFolder, Could not resolve metadata for video, path = /tmp/mnt/CA5CEACD5CEAB37D/PELICULAS/Harry Potter y las reliquias de la muerte [VHS-Screener][Castellano].avi, name = Harry Potter y las reliquias de la muerte (resolver) (videoresolver)
19:05:24.0571 T:3038759824 M:543608832   DEBUG: CMetadataResolverVideo::RemoveYear, name = El secreto de la ultima luna [BRSCREENER][Xvid][Castellano][DivxFinal.com], newName = El secreto de la ultima luna [BRSCREENER][Xvid][Castellano][DivxFinal.com], year =  (cleanname)
19:05:24.0572 T:3038759824 M:543608832   DEBUG: CMetadataResolverVideo::ExtractPathSeriesTag, try to resolve tv show by path /tmp/mnt/CA5CEACD5CEAB37D/PELICULAS/El secreto de la ultima luna [BRSCREENER][Xvid][Castellano][DivxFinal.com].avi title El secreto de la ultima luna [BRSCREENER][Xvid][Castellano][DivxFinal.com]
19:05:24.0573 T:3038759824 M:543608832   DEBUG: could not extract season from parent folder PELICULAS
19:05:24.0573 T:3038759824 M:543608832   DEBUG: CMetadataResolverVideo::ExtractDailyShows - try to resolve tv show [El secreto de la ultima luna [BRSCREENER][Xvid][Castellano][DivxFinal.com].avi] as daily show (ds)
19:05:24.0574 T:3038759824 M:543608832   DEBUG: CMetadataResolverVideo::RemoveYear, name = El secreto de la ultima luna [BRSCREENER][Xvid][Castellano][DivxFinal.com].avi, newName = El secreto de la ultima luna [BRSCREENER][Xvid][Castellano][DivxFinal.com].avi, year =  (cleanname)
19:05:24.0637 T:3038759824 M:543748096   DEBUG: CMetadataResolverVideo::ResolveVideo, resolving video, path = /tmp/mnt/CA5CEACD5CEAB37D/PELICULAS/El secreto de la ultima luna [BRSCREENER][Xvid][Castellano][DivxFinal.com].avi (videoresolver) (resolver)
19:05:24.0637 T:3038759824 M:543748096   DEBUG: CMetadataResolverVideo::ResolveVideoSendServerReq, resolving video by file, path = /tmp/mnt/CA5CEACD5CEAB37D/PELICULAS/El secreto de la ultima luna [BRSCREENER][Xvid][Castellano][DivxFinal.com].avi  (videoresolver) (resolver)
19:05:24.0642 T:3038759824 M:543748096   DEBUG: CMetadataResolverVideo::ResolveVideoSendServerReq, resolving movie, path = /tmp/mnt/CA5CEACD5CEAB37D/PELICULAS/El secreto de la ultima luna [BRSCREENER][Xvid][Castellano][DivxFinal.com].avi, name = El secreto de la ultima luna, link = http://res.boxee.tv/title/movie/?h=a082b316280e19cf%3a1288998912&name=El%20secreto%20de%20la%20ultima%20luna (videoresolver) (resolver)
19:05:24.0643 T:3038759824 M:543748096   DEBUG: Initializing feed: http://res.boxee.tv/title/movie/?h=a082b316280e19cf%3a1288998912&name=El%20secreto%20de%20la%20ultima%20luna
19:05:24.0643 T:3038759824 M:543752192   DEBUG: ReadFeed - RSS, Loading feed from URL: http://res.boxee.tv/title/movie/?h=a082b316280e19cf%3a1288998912&name=El%20secreto%20de%20la%20ultima%20luna
19:05:24.0646 T:3038759824 M:543752192   DEBUG: update ref map. url http://res.boxee.tv/title/movie/?h=a082b316280e19cf%3a1288998912&name=El%20secreto%20de%20la%20ultima%20luna new ref_count 1  progress 0 (hcm)
19:05:24.0646 T:3038759824 M:543752192   DEBUG: CHttpCacheManager::StartCachingURL   push http://res.boxee.tv/title/movie/?h=a082b316280e19cf%3a1288998912&name=El%20secreto%20de%20la%20ultima%20luna to  m_references (hcm)
19:05:24.0651 T:3038759824 M:543752192   DEBUG: Boxee: 22/02/11 18:05:24.6512#DEBUG#bxcurl.cpp:285(InitHttpTransfer)#setting creds to: <jvr1976:a+EeRvK3VVCLsJlTHMavtw==>
19:05:25.0018 T:3038759824 M:543752192   DEBUG: Boxee: 22/02/11 18:05:25.181#DEBUG#bxcurl.cpp:507(HttpGetString)#curl_easy_perform failed (The requested URL returned error: 404)!
19:05:25.0018 T:3038759824 M:543752192   DEBUG: update ref map. url http://res.boxee.tv/title/movie/?h=a082b316280e19cf%3a1288998912&name=El%20secreto%20de%20la%20ultima%20luna new ref_count 1  progress 0 (hcm)
19:05:25.0019 T:3038759824 M:543752192   DEBUG: update ref map. url http://res.boxee.tv/title/movie/?h=a082b316280e19cf%3a1288998912&name=El%20secreto%20de%20la%20ultima%20luna new ref_count 0  progress 0 (hcm)
19:05:25.0019 T:3038759824 M:543752192 WARNING: ReadFeed - RSS Init failed, could not parse feed http://res.boxee.tv/title/movie/?h=a082b316280e19cf%3a1288998912&name=El%20secreto%20de%20la%20ultima%20luna. Reason: (null), Row: -1 Col: -1
19:05:25.0020 T:3038759824 M:543752192   DEBUG: CMetadataResolverVideo::ResolveVideo, could not resolve video by name, path = /tmp/mnt/CA5CEACD5CEAB37D/PELICULAS/El secreto de la ultima luna [BRSCREENER][Xvid][Castellano][DivxFinal.com].avi (videoresolver) (resolver)
19:05:25.0020 T:3038759824 M:543752192   DEBUG: CMetadataResolverVideo::ResolveVideoSendServerReq, resolving video by folder, path = /tmp/mnt/CA5CEACD5CEAB37D/PELICULAS/El secreto de la ultima luna [BRSCREENER][Xvid][Castellano][DivxFinal.com].avi  (videoresolver) (resolver)
19:05:25.0025 T:3038759824 M:543752192   DEBUG: CMetadataResolverVideo::ResolveVideoSendServerReq, resolving movie, path = /tmp/mnt/CA5CEACD5CEAB37D/PELICULAS/El secreto de la ultima luna [BRSCREENER][Xvid][Castellano][DivxFinal.com].avi, name = El secreto de la ultima luna, link = http://res.boxee.tv/title/movie/?h=a082b316280e19cf%3a1288998912&name=PELICULAS (videoresolver) (resolver)
19:05:25.0026 T:3038759824 M:543752192   DEBUG: Initializing feed: http://res.boxee.tv/title/movie/?h=a082b316280e19cf%3a1288998912&name=PELICULAS
19:05:25.0026 T:3038759824 M:543752192   DEBUG: ReadFeed - RSS, Loading feed from URL: http://res.boxee.tv/title/movie/?h=a082b316280e19cf%3a1288998912&name=PELICULAS
19:05:25.0028 T:3038759824 M:543752192   DEBUG: update ref map. url http://res.boxee.tv/title/movie/?h=a082b316280e19cf%3a1288998912&name=PELICULAS new ref_count 1  progress 0 (hcm)
19:05:25.0029 T:3038759824 M:543752192   DEBUG: CHttpCacheManager::StartCachingURL   push http://res.boxee.tv/title/movie/?h=a082b316280e19cf%3a1288998912&name=PELICULAS to  m_references (hcm)
19:05:25.0034 T:3038759824 M:543752192   DEBUG: Boxee: 22/02/11 18:05:25.343#DEBUG#bxcurl.cpp:285(InitHttpTransfer)#setting creds to: <jvr1976:a+EeRvK3VVCLsJlTHMavtw==>
19:05:25.0366 T:3038759824 M:543752192   DEBUG: Boxee: 22/02/11 18:05:25.3665#DEBUG#bxcurl.cpp:507(HttpGetString)#curl_easy_perform failed (The requested URL returned error: 404)!
19:05:25.0367 T:3038759824 M:543752192   DEBUG: update ref map. url http://res.boxee.tv/title/movie/?h=a082b316280e19cf%3a1288998912&name=PELICULAS new ref_count 1  progress 0 (hcm)
19:05:25.0367 T:3038759824 M:543752192   DEBUG: update ref map. url http://res.boxee.tv/title/movie/?h=a082b316280e19cf%3a1288998912&name=PELICULAS new ref_count 0  progress 0 (hcm)
19:05:25.0368 T:3038759824 M:543756288 WARNING: ReadFeed - RSS Init failed, could not parse feed http://res.boxee.tv/title/movie/?h=a082b316280e19cf%3a1288998912&name=PELICULAS. Reason: (null), Row: -1 Col: -1
19:05:25.0369 T:3038759824 M:543756288   DEBUG: CMetadataResolverVideo::ResolveVideo, could not resolve video by folder name, path = /tmp/mnt/CA5CEACD5CEAB37D/PELICULAS/ (videoresolver) (resolver)
19:05:25.0369 T:3038759824 M:543756288   DEBUG: CMetadataResolver::ResolveVideoFolder, Could not resolve metadata for video, path = /tmp/mnt/CA5CEACD5CEAB37D/PELICULAS/El secreto de la ultima luna [BRSCREENER][Xvid][Castellano][DivxFinal.com].avi, name = El secreto de la ultima luna (resolver) (videoresolver)
19:05:25.0797 T:3038759824 M:543780864   DEBUG: CMetadataResolverVideo::RemoveYear, name = Dando la nota Tenacious D (DVDRip) (EliteTorrent.net), newName = Dando la nota Tenacious D (DVDRip) (EliteTorrent.net), year =  (cleanname)
19:05:25.0798 T:3038759824 M:543780864   DEBUG: CMetadataResolverVideo::ExtractPathSeriesTag, try to resolve tv show by path /tmp/mnt/CA5CEACD5CEAB37D/PELICULAS/Dando la nota Tenacious D (DVDRip) (EliteTorrent.net).avi title Dando la nota Tenacious D (DVDRip) (EliteTorrent.net)
19:05:25.0798 T:3038759824 M:543780864   DEBUG: could not extract season from parent folder PELICULAS
19:05:25.0798 T:3038759824 M:543780864   DEBUG: CMetadataResolverVideo::ExtractDailyShows - try to resolve tv show [Dando la nota Tenacious D (DVDRip) (EliteTorrent.net).avi] as daily show (ds)
19:05:25.0799 T:3038759824 M:543780864   DEBUG: CMetadataResolverVideo::RemoveYear, name = Dando la nota Tenacious D (DVDRip) (EliteTorrent.net).avi, newName = Dando la nota Tenacious D (DVDRip) (EliteTorrent.net).avi, year =  (cleanname)
19:05:25.0855 T:3038759824 M:543674368   DEBUG: CMetadataResolverVideo::ResolveVideo, resolving video, path = /tmp/mnt/CA5CEACD5CEAB37D/PELICULAS/Dando la nota Tenacious D (DVDRip) (EliteTorrent.net).avi (videoresolver) (resolver)
19:05:25.0856 T:3038759824 M:543674368   DEBUG: CMetadataResolverVideo::ResolveVideoSendServerReq, resolving video by file, path = /tmp/mnt/CA5CEACD5CEAB37D/PELICULAS/Dando la nota Tenacious D (DVDRip) (EliteTorrent.net).avi  (videoresolver) (resolver)
19:05:25.0860 T:3038759824 M:543674368   DEBUG: CMetadataResolverVideo::ResolveVideoSendServerReq, resolving movie, path = /tmp/mnt/CA5CEACD5CEAB37D/PELICULAS/Dando la nota Tenacious D (DVDRip) (EliteTorrent.net).avi, name = Dando la nota Tenacious D, link = http://res.boxee.tv/title/movie/?h=1f0472d5904a980e%3a733911040&name=Dando%20la%20nota%20Tenacious%20D (videoresolver) (resolver)
19:05:25.0861 T:3038759824 M:543674368   DEBUG: Initializing feed: http://res.boxee.tv/title/movie/?h=1f0472d5904a980e%3a733911040&name=Dando%20la%20nota%20Tenacious%20D
19:05:25.0861 T:3038759824 M:543674368   DEBUG: ReadFeed - RSS, Loading feed from URL: http://res.boxee.tv/title/movie/?h=1f0472d5904a980e%3a733911040&name=Dando%20la%20nota%20Tenacious%20D
19:05:25.0864 T:3038759824 M:543674368   DEBUG: update ref map. url http://res.boxee.tv/title/movie/?h=1f0472d5904a980e%3a733911040&name=Dando%20la%20nota%20Tenacious%20D new ref_count 1  progress 0 (hcm)
19:05:25.0864 T:3038759824 M:543674368   DEBUG: CHttpCacheManager::StartCachingURL   push http://res.boxee.tv/title/movie/?h=1f0472d5904a980e%3a733911040&name=Dando%20la%20nota%20Tenacious%20D to  m_references (hcm)
19:05:25.0869 T:3038759824 M:543674368   DEBUG: Boxee: 22/02/11 18:05:25.8694#DEBUG#bxcurl.cpp:285(InitHttpTransfer)#setting creds to: <jvr1976:a+EeRvK3VVCLsJlTHMavtw==>
19:05:27.0299 T:3074115360 M:543674368   DEBUG: (dbg) FreeMem 530932/644016 Kb, FPS 50.0, CPU0: 27.5%  Loader Q:[0] Textures:[57 (20.00 M)] SERVER: [67.225.149.139] ver: 1.0.4.17443
19:05:27.0299 T:3074115360 M:543674368   DEBUG: (dbg)
19:05:28.0257 T:3038759824 M:543674368   DEBUG: Boxee: 22/02/11 18:05:28.2572#DEBUG#bxcurl.cpp:507(HttpGetString)#curl_easy_perform failed (The requested URL returned error: 404)!
19:05:28.0257 T:3038759824 M:543674368   DEBUG: update ref map. url http://res.boxee.tv/title/movie/?h=1f0472d5904a980e%3a733911040&name=Dando%20la%20nota%20Tenacious%20D new ref_count 1  progress 0 (hcm)
19:05:28.0258 T:3038759824 M:543678464   DEBUG: update ref map. url http://res.boxee.tv/title/movie/?h=1f0472d5904a980e%3a733911040&name=Dando%20la%20nota%20Tenacious%20D new ref_count 0  progress 0 (hcm)
19:05:28.0258 T:3038759824 M:543678464 WARNING: ReadFeed - RSS Init failed, could not parse feed http://res.boxee.tv/title/movie/?h=1f0472d5904a980e%3a733911040&name=Dando%20la%20nota%20Tenacious%20D. Reason: (null), Row: -1 Col: -1
19:05:28.0259 T:3038759824 M:543678464   DEBUG: CMetadataResolverVideo::ResolveVideo, could not resolve video by name, path = /tmp/mnt/CA5CEACD5CEAB37D/PELICULAS/Dando la nota Tenacious D (DVDRip) (EliteTorrent.net).avi (videoresolver) (resolver)
19:05:28.0259 T:3038759824 M:543678464   DEBUG: CMetadataResolverVideo::ResolveVideoSendServerReq, resolving video by folder, path = /tmp/mnt/CA5CEACD5CEAB37D/PELICULAS/Dando la nota Tenacious D (DVDRip) (EliteTorrent.net).avi  (videoresolver) (resolver)
19:05:28.0264 T:3038759824 M:543678464   DEBUG: CMetadataResolverVideo::ResolveVideoSendServerReq, resolving movie, path = /tmp/mnt/CA5CEACD5CEAB37D/PELICULAS/Dando la nota Tenacious D (DVDRip) (EliteTorrent.net).avi, name = Dando la nota Tenacious D, link = http://res.boxee.tv/title/movie/?h=1f0472d5904a980e%3a733911040&name=PELICULAS (videoresolver) (resolver)
19:05:28.0265 T:3038759824 M:543678464   DEBUG: Initializing feed: http://res.boxee.tv/title/movie/?h=1f0472d5904a980e%3a733911040&name=PELICULAS
19:05:28.0265 T:3038759824 M:543678464   DEBUG: ReadFeed - RSS, Loading feed from URL: http://res.boxee.tv/title/movie/?h=1f0472d5904a980e%3a733911040&name=PELICULAS
19:05:28.0267 T:3038759824 M:543678464   DEBUG: update ref map. url http://res.boxee.tv/title/movie/?h=1f0472d5904a980e%3a733911040&name=PELICULAS new ref_count 1  progress 0 (hcm)
19:05:28.0268 T:3038759824 M:543678464   DEBUG: CHttpCacheManager::StartCachingURL   push http://res.boxee.tv/title/movie/?h=1f0472d5904a980e%3a733911040&name=PELICULAS to  m_references (hcm)
19:05:28.0273 T:3038759824 M:543678464   DEBUG: Boxee: 22/02/11 18:05:28.2730#DEBUG#bxcurl.cpp:285(InitHttpTransfer)#setting creds to: <jvr1976:a+EeRvK3VVCLsJlTHMavtw==>
19:05:28.0645 T:3038759824 M:543678464   DEBUG: Boxee: 22/02/11 18:05:28.6454#DEBUG#bxcurl.cpp:507(HttpGetString)#curl_easy_perform failed (The requested URL returned error: 404)!
19:05:28.0646 T:3038759824 M:543678464   DEBUG: update ref map. url http://res.boxee.tv/title/movie/?h=1f0472d5904a980e%3a733911040&name=PELICULAS new ref_count 1  progress 0 (hcm)
19:05:28.0646 T:3038759824 M:543678464   DEBUG: update ref map. url http://res.boxee.tv/title/movie/?h=1f0472d5904a980e%3a733911040&name=PELICULAS new ref_count 0  progress 0 (hcm)
19:05:28.0647 T:3038759824 M:543678464 WARNING: ReadFeed - RSS Init failed, could not parse feed http://res.boxee.tv/title/movie/?h=1f0472d5904a980e%3a733911040&name=PELICULAS. Reason: (null), Row: -1 Col: -1
19:05:28.0647 T:3038759824 M:543678464   DEBUG: CMetadataResolverVideo::ResolveVideo, could not resolve video by folder name, path = /tmp/mnt/CA5CEACD5CEAB37D/PELICULAS/ (videoresolver) (resolver)
19:05:28.0647 T:3038759824 M:543678464   DEBUG: CMetadataResolver::ResolveVideoFolder, Could not resolve metadata for video, path = /tmp/mnt/CA5CEACD5CEAB37D/PELICULAS/Dando la nota Tenacious D (DVDRip) (EliteTorrent.net).avi, name = Dando la nota Tenacious D (resolver) (videoresolver)
19:05:29.0011 T:3038759824 M:543703040   DEBUG: CMetadataResolverVideo::RemoveYear, name = Ciudad de ladrones (DVDRip) (EliteTorrent.net), newName = Ciudad de ladrones (DVDRip) (EliteTorrent.net), year =  (cleanname)
19:05:29.0013 T:3038759824 M:543703040   DEBUG: CMetadataResolverVideo::ExtractPathSeriesTag, try to resolve tv show by path /tmp/mnt/CA5CEACD5CEAB37D/PELICULAS/Ciudad de ladrones (DVDRip) (EliteTorrent.net).avi title Ciudad de ladrones (DVDRip) (EliteTorrent.net)
19:05:29.0013 T:3038759824 M:543703040   DEBUG: could not extract season from parent folder PELICULAS
19:05:29.0014 T:3038759824 M:543707136   DEBUG: CMetadataResolverVideo::ExtractDailyShows - try to resolve tv show [Ciudad de ladrones (DVDRip) (EliteTorrent.net).avi] as daily show (ds)
19:05:29.0014 T:3038759824 M:543707136   DEBUG: CMetadataResolverVideo::RemoveYear, name = Ciudad de ladrones (DVDRip) (EliteTorrent.net).avi, newName = Ciudad de ladrones (DVDRip) (EliteTorrent.net).avi, year =  (cleanname)
19:05:29.0073 T:3038759824 M:543727616   DEBUG: CMetadataResolverVideo::ResolveVideo, resolving video, path = /tmp/mnt/CA5CEACD5CEAB37D/PELICULAS/Ciudad de ladrones (DVDRip) (EliteTorrent.net).avi (videoresolver) (resolver)
19:05:29.0074 T:3038759824 M:543727616   DEBUG: CMetadataResolverVideo::ResolveVideoSendServerReq, resolving video by file, path = /tmp/mnt/CA5CEACD5CEAB37D/PELICULAS/Ciudad de ladrones (DVDRip) (EliteTorrent.net).avi  (videoresolver) (resolver)
19:05:29.0079 T:3038759824 M:543727616   DEBUG: CMetadataResolverVideo::ResolveVideoSendServerReq, resolving movie, path = /tmp/mnt/CA5CEACD5CEAB37D/PELICULAS/Ciudad de ladrones (DVDRip) (EliteTorrent.net).avi, name = Ciudad de ladrones, link = http://res.boxee.tv/title/movie/?h=da301a166da442d5%3a1467799552&name=Ciudad%20de%20ladrones (videoresolver) (resolver)
19:05:29.0079 T:3038759824 M:543727616   DEBUG: Initializing feed: http://res.boxee.tv/title/movie/?h=da301a166da442d5%3a1467799552&name=Ciudad%20de%20ladrones
19:05:29.0079 T:3038759824 M:543727616   DEBUG: ReadFeed - RSS, Loading feed from URL: http://res.boxee.tv/title/movie/?h=da301a166da442d5%3a1467799552&name=Ciudad%20de%20ladrones
19:05:29.0082 T:3038759824 M:543727616   DEBUG: update ref map. url http://res.boxee.tv/title/movie/?h=da301a166da442d5%3a1467799552&name=Ciudad%20de%20ladrones new ref_count 1  progress 0 (hcm)
19:05:29.0082 T:3038759824 M:543727616   DEBUG: CHttpCacheManager::StartCachingURL   push http://res.boxee.tv/title/movie/?h=da301a166da442d5%3a1467799552&name=Ciudad%20de%20ladrones to  m_references (hcm)
19:05:29.0087 T:3038759824 M:543727616   DEBUG: Boxee: 22/02/11 18:05:29.875#DEBUG#bxcurl.cpp:285(InitHttpTransfer)#setting creds to: <jvr1976:a+EeRvK3VVCLsJlTHMavtw==>
19:05:29.0436 T:3038759824 M:543727616   DEBUG: Boxee: 22/02/11 18:05:29.4359#DEBUG#bxcurl.cpp:507(HttpGetString)#curl_easy_perform failed (The requested URL returned error: 404)!
19:05:29.0436 T:3038759824 M:543727616   DEBUG: update ref map. url http://res.boxee.tv/title/movie/?h=da301a166da442d5%3a1467799552&name=Ciudad%20de%20ladrones new ref_count 1  progress 0 (hcm)
19:05:29.0436 T:3038759824 M:543727616   DEBUG: update ref map. url http://res.boxee.tv/title/movie/?h=da301a166da442d5%3a1467799552&name=Ciudad%20de%20ladrones new ref_count 0  progress 0 (hcm)
19:05:29.0437 T:3038759824 M:543727616 WARNING: ReadFeed - RSS Init failed, could not parse feed http://res.boxee.tv/title/movie/?h=da301a166da442d5%3a1467799552&name=Ciudad%20de%20ladrones. Reason: (null), Row: -1 Col: -1
19:05:29.0438 T:3038759824 M:543727616   DEBUG: CMetadataResolverVideo::ResolveVideo, could not resolve video by name, path = /tmp/mnt/CA5CEACD5CEAB37D/PELICULAS/Ciudad de ladrones (DVDRip) (EliteTorrent.net).avi (videoresolver) (resolver)
19:05:29.0438 T:3038759824 M:543727616   DEBUG: CMetadataResolverVideo::ResolveVideoSendServerReq, resolving video by folder, path = /tmp/mnt/CA5CEACD5CEAB37D/PELICULAS/Ciudad de ladrones (DVDRip) (EliteTorrent.net).avi  (videoresolver) (resolver)
19:05:29.0443 T:3038759824 M:543727616   DEBUG: CMetadataResolverVideo::ResolveVideoSendServerReq, resolving movie, path = /tmp/mnt/CA5CEACD5CEAB37D/PELICULAS/Ciudad de ladrones (DVDRip) (EliteTorrent.net).avi, name = Ciudad de ladrones, link = http://res.boxee.tv/title/movie/?h=da301a166da442d5%3a1467799552&name=PELICULAS (videoresolver) (resolver)
19:05:29.0444 T:3038759824 M:543727616   DEBUG: Initializing feed: http://res.boxee.tv/title/movie/?h=da301a166da442d5%3a1467799552&name=PELICULAS
19:05:29.0444 T:3038759824 M:543727616   DEBUG: ReadFeed - RSS, Loading feed from URL: http://res.boxee.tv/title/movie/?h=da301a166da442d5%3a1467799552&name=PELICULAS
19:05:29.0446 T:3038759824 M:543731712   DEBUG: update ref map. url http://res.boxee.tv/title/movie/?h=da301a166da442d5%3a1467799552&name=PELICULAS new ref_count 1  progress 0 (hcm)
19:05:29.0447 T:3038759824 M:543731712   DEBUG: CHttpCacheManager::StartCachingURL   push http://res.boxee.tv/title/movie/?h=da301a166da442d5%3a1467799552&name=PELICULAS to  m_references (hcm)
19:05:29.0451 T:3038759824 M:543731712   DEBUG: Boxee: 22/02/11 18:05:29.4516#DEBUG#bxcurl.cpp:285(InitHttpTransfer)#setting creds to: <jvr1976:a+EeRvK3VVCLsJlTHMavtw==>
19:05:29.0886 T:3038759824 M:543731712   DEBUG: Boxee: 22/02/11 18:05:29.8859#DEBUG#bxcurl.cpp:507(HttpGetString)#curl_easy_perform failed (The requested URL returned error: 404)!
19:05:29.0886 T:3038759824 M:543731712   DEBUG: update ref map. url http://res.boxee.tv/title/movie/?h=da301a166da442d5%3a1467799552&name=PELICULAS new ref_count 1  progress 0 (hcm)
19:05:29.0886 T:3038759824 M:543731712   DEBUG: update ref map. url http://res.boxee.tv/title/movie/?h=da301a166da442d5%3a1467799552&name=PELICULAS new ref_count 0  progress 0 (hcm)
19:05:29.0887 T:3038759824 M:543731712 WARNING: ReadFeed - RSS Init failed, could not parse feed http://res.boxee.tv/title/movie/?h=da301a166da442d5%3a1467799552&name=PELICULAS. Reason: (null), Row: -1 Col: -1
19:05:29.0888 T:3038759824 M:543731712   DEBUG: CMetadataResolverVideo::ResolveVideo, could not resolve video by folder name, path = /tmp/mnt/CA5CEACD5CEAB37D/PELICULAS/ (videoresolver) (resolver)
19:05:29.0888 T:3038759824 M:543731712   DEBUG: CMetadataResolver::ResolveVideoFolder, Could not resolve metadata for video, path = /tmp/mnt/CA5CEACD5CEAB37D/PELICULAS/Ciudad de ladrones (DVDRip) (EliteTorrent.net).avi, name = Ciudad de ladrones (resolver) (videoresolver)
19:05:30.0195 T:3038759824 M:543744000   DEBUG: CMetadataResolver::ResolveVideoFolder, Updating folder status, path = /tmp/mnt/CA5CEACD5CEAB37D/PELICULAS/, items = 17, resolved = 5 (resolver) (videoresolver)
19:05:30.0679 T:3038759824 M:543756288   ERROR: CMetadataResolver::Resolve - exit and return [2] for folder [/tmp/mnt/CA5CEACD5CEAB37D/PELICULAS/] (resolver)
19:05:39.0299 T:3074115360 M:543784960   DEBUG: (dbg) FreeMem 531040/644016 Kb, FPS 50.0, CPU0: 20.2%  Loader Q:[0] Textures:[57 (20.00 M)] SERVER: [67.225.149.139] ver: 1.0.4.17443
19:05:39.0300 T:3074115360 M:543784960   DEBUG: (dbg)
19:05:46.0095 T:3074115360 M:543219712   DEBUG: SDLKeyboard: scancode: 28, sym: 13, unicode: 0, modifier: 0
19:05:46.0095 T:3074115360 M:543219712   DEBUG: CApplication::OnKey - [key=61453][window=10486][action=7]
19:05:46.0096 T:3074115360 M:543219712   DEBUG: OnKey: 61453 pressed, action is 7
19:05:46.0097 T:3074115360 M:543219712   DEBUG: CGUIWindowBoxeeBrowseRepositories::ProcessMenuClick - Enter function with [iControl=56] (bapps)
19:05:46.0098 T:3074115360 M:543219712   DEBUG: CGUIWindowBoxeeBrowse::OnMessage, GUI_MSG_CLICKED, action = 7 (browse)
19:05:46.0098 T:3074115360 M:543219712   DEBUG: CGUIWindowBoxeeBrowseRepositories::OnClick - Enter function with [iItem=1]. [m_manageButtonOn=0] (bapps)
19:05:46.0098 T:3074115360 M:543219712   DEBUG: Activating window ID: 10482
19:05:46.0099 T:3074115360 M:543219712   DEBUG: Checking if window ID 10482 is locked.
19:05:46.0099 T:3074115360 M:543219712   DEBUG: CGUIWindowBoxeeBrowse::OnMessage, GUI_MSG_WINDOW_DEINIT (browse)
19:05:46.0099 T:3074115360 M:543219712   DEBUG: Boxee: 22/02/11 18:05:46.998#DEBUG#GUIWindowStateDatabase.cpp:102(SaveState)#GUIWindowStateDatabase::SaveState, iWindow=10486 , iView=0 , strSortMethod=no-sort , iSelectedItem=1, iSelectedCategory=no-category
19:05:46.0100 T:3074115360 M:543219712   DEBUG: Boxee: 22/02/11 18:05:46.1008#DEBUG#GUIWindowStateDatabase.cpp:111(SaveState)#GUIWindowStateDatabase::SaveState, state found, idWindow='10486', strCategory='no-category'
19:05:46.0186 T:3074115360 M:543232000   DEBUG: ------ Window Deinit (boxee_browse_repositories.xml) ------
19:05:46.0187 T:3074115360 M:543232000   ERROR: (pthread_mutex_destroy(&m_mutex)): [XCriticalSection.cpp:84] 16
19:05:46.0187 T:3074115360 M:543232000   DEBUG: ------ Window Init (boxee_browse_apps.xml) ------
19:05:46.0188 T:3074115360 M:543236096   DEBUG: Loading skin file: boxee_browse_apps.xml
19:05:46.0199 T:3074115360 M:543240192   DEBUG: CGUIBaseContainer::CGUIBaseContainer, 55 (basecontainer)
19:05:46.0208 T:3074115360 M:543240192   DEBUG: CGUIBaseContainer::CGUIBaseContainer, 56 (basecontainer)
19:05:46.0215 T:3074115360 M:543240192   DEBUG: CGUIBaseContainer::CGUIBaseContainer, 7000 (basecontainer)
19:05:46.0218 T:3074115360 M:543240192   DEBUG: CGUIBaseContainer::CGUIBaseContainer, 7100 (basecontainer)
19:05:46.0230 T:3074115360 M:543240192   DEBUG: CGUIWindowBoxeeBrowse::InitializeViewController, adding controller id = [55] (browse)
19:05:46.0230 T:3074115360 M:543240192   DEBUG: CGUIWindowBoxeeBrowse::InitializeViewController, adding controller id = [56] (browse)
19:05:46.0233 T:3074115360 M:543240192   DEBUG: Load boxee_browse_apps.xml: 45.24ms
19:05:46.0238 T:3074115360 M:543240192   DEBUG: Alloc resources: 50.06ms (47.63 ms skin load)
19:05:46.0240 T:3074115360 M:543240192   DEBUG: Boxee: 22/02/11 18:05:46.2401#DEBUG#GUIWindowStateDatabase.cpp:205(GetDefaultCategory)#GUIWindowStateDatabase::GetDefaultCategory, iWindow=10482
19:05:46.0241 T:3074115360 M:543240192   DEBUG: Boxee: 22/02/11 18:05:46.2411#DEBUG#GUIWindowStateDatabase.cpp:214(GetDefaultCategory)#GUIWindowStateDatabase::GetDefaultCategory, state found, idWindow='10482' , strCategory=''
19:05:46.0241 T:3074115360 M:543240192   DEBUG: CBrowseWindowSource::ClearItems, clear source, path = appbox://all/ (browse)
19:05:46.0242 T:3074115360 M:543240192   DEBUG: CBrowseWindowSource::ClearItems, clear source, path = apps://all/ (browse)
19:05:46.0242 T:3074115360 M:543240192   DEBUG: CBrowseWindowSource::ClearItems, clear source, path = appbox://all/repository (browse)
19:05:46.0242 T:3074115360 M:543240192   DEBUG: CBrowseWindowSource::ClearItems, clear source, path = appbox://all/ (browse)
19:05:46.0243 T:3074115360 M:543240192   DEBUG: CAppsWindowState::OnAllApps - After set [Category=] (bapps)(browse)
19:05:46.0244 T:3074115360 M:543240192   DEBUG: Boxee: 22/02/11 18:05:46.2443#DEBUG#GUIWindowStateDatabase.cpp:139(LoadState)#GUIWindowStateDatabase::LoadState, iWindow=10482 , iView=157941556 , iSortMethod=154362364, iSelectedItem=0 , iSelectedCategory=180130716
19:05:46.0246 T:3074115360 M:543240192   DEBUG: Boxee: 22/02/11 18:05:46.2463#DEBUG#GUIWindowStateDatabase.cpp:148(LoadState)#GUIWindowStateDatabase::LoadState, state found, idWindow='10482' , strCategory='all'
19:05:46.0246 T:3074115360 M:543240192   DEBUG: CGUIWindowBoxeeBrowse::ConfigureState, window id = 10482, param = boxeeui://apps/?repository=info%2emimediacenter&label=Mi%20mediacenter&sort=title (browsemenu)
19:05:46.0247 T:3074115360 M:543240192   DEBUG: Boxee: 22/02/11 18:05:46.2475#DEBUG#GUIWindowStateDatabase.cpp:205(GetDefaultCategory)#GUIWindowStateDatabase::GetDefaultCategory, iWindow=10482
19:05:46.0248 T:3074115360 M:543240192   DEBUG: Boxee: 22/02/11 18:05:46.2483#DEBUG#GUIWindowStateDatabase.cpp:214(GetDefaultCategory)#GUIWindowStateDatabase::GetDefaultCategory, state found, idWindow='10482' , strCategory=''
19:05:46.0248 T:3074115360 M:543240192   DEBUG: CBrowseWindowSource::ClearItems, clear source, path = appbox://all/ (browse)
19:05:46.0249 T:3074115360 M:543240192   DEBUG: CBrowseWindowSource::ClearItems, clear source, path = apps://all/ (browse)
19:05:46.0249 T:3074115360 M:543240192   DEBUG: CBrowseWindowSource::ClearItems, clear source, path = appbox://all/repository (browse)
19:05:46.0249 T:3074115360 M:543240192   DEBUG: CBrowseWindowSource::ClearItems, clear source, path = appbox://all/ (browse)
19:05:46.0249 T:3074115360 M:543240192   DEBUG: CAppsWindowState::OnAllApps - After set [Category=all] (bapps)(browse)
19:05:46.0250 T:3074115360 M:543240192   DEBUG: Boxee: 22/02/11 18:05:46.2503#DEBUG#GUIWindowStateDatabase.cpp:139(LoadState)#GUIWindowStateDatabase::LoadState, iWindow=10482 , iView=157203312 , iSortMethod=154362364, iSelectedItem=3 , iSelectedCategory=159492044
19:05:46.0251 T:3074115360 M:543240192   DEBUG: Boxee: 22/02/11 18:05:46.2513#DEBUG#GUIWindowStateDatabase.cpp:148(LoadState)#GUIWindowStateDatabase::LoadState, state found, idWindow='10482' , strCategory='all'
19:05:46.0251 T:3074115360 M:543244288   DEBUG: CBrowseWindowSource::ClearItems, clear source, path = appbox://all/ (browse)
19:05:46.0252 T:3074115360 M:543244288   DEBUG: CBrowseWindowSource::ClearItems, clear source, path = apps://all/ (browse)
19:05:46.0252 T:3074115360 M:543244288   DEBUG: CBrowseWindowSource::ClearItems, clear source, path = appbox://all/repository (browse)
19:05:46.0253 T:3074115360 M:543244288   DEBUG: CAppsWindowState::OnRepositories - Enter function. Going to open WINDOW_BOXEE_BROWSE_REPOSITORIES (bapps)
19:05:46.0253 T:3074115360 M:543244288   DEBUG: CBrowseWindowSource::ClearItems, clear source, path = appbox://all/repository (browse)
19:05:46.0254 T:3074115360 M:543244288   DEBUG: Boxee: 22/02/11 18:05:46.2541#DEBUG#GUIWindowStateDatabase.cpp:139(LoadState)#GUIWindowStateDatabase::LoadState, iWindow=10482 , iView=181102764 , iSortMethod=154362364, iSelectedItem=3 , iSelectedCategory=177582060
19:05:46.0255 T:3074115360 M:543244288   DEBUG: Boxee: 22/02/11 18:05:46.2555#DEBUG#GUIWindowStateDatabase.cpp:148(LoadState)#GUIWindowStateDatabase::LoadState, state found, idWindow='10482' , strCategory='repos'
19:05:46.0256 T:3074115360 M:543244288   DEBUG: CAppsWindowState::SetApplicationType - Handling click on [All=ALL] (bapps)
19:05:46.0256 T:3074115360 M:543244288   DEBUG: CBrowseWindowSource::ClearItems, clear source, path = appbox://all/ (browse)
19:05:46.0256 T:3074115360 M:543244288   DEBUG: CBrowseWindowSource::ClearItems, clear source, path = apps://all/ (browse)
19:05:46.0256 T:3074115360 M:543244288   DEBUG: CBrowseWindowSource::ClearItems, clear source, path = appbox://all/repository (browse)
19:05:46.0257 T:3074115360 M:543244288   DEBUG: CBrowseWindowSource::RequestItems, source base path = appbox://all/repository, requested path = appbox://all/repository?id=info.mimediacenter&label=Mi mediacenter, for window id = 10482 (browse)
19:05:46.0257 T:3074115360 M:543244288   DEBUG: CItemLoader::AddControl, window = 10482, control = 0, path = appbox://all/repository?id=info.mimediacenter&label=Mi mediacenter (browse)
19:05:46.0257 T:3074115360 M:543244288   DEBUG: CItemLoader::AddControl, 3 GUI_MSG_LOADING, window = 10482, control = 0 (basecontainer)
19:05:46.0257 T:3074115360 M:543244288   DEBUG: CGUIWindowBoxeeBrowse::OnMessage, 4 GUI_MSG_LOADING, window = 10482, control = -1 (basecontainer) (browse)
19:05:46.0258 T:3038759824 M:543236096   DEBUG: CGetDirectoryJob::DoWork, NEWUI, loading directory, path = appbox://all/repository?id=info.mimediacenter&label=Mi mediacenter
19:05:46.0258 T:3038759824 M:543236096   DEBUG: CAppBoxDirectory::GetDirectory - Enter function with [strPath=appbox://all/repository?id=info.mimediacenter&label=Mi mediacenter] (bapps)
19:05:46.0590 T:3038759824 M:543236096   DEBUG: CAppBoxDirectory::HandleAppBoxRequest - Enter function with [protocol=appbox][host=all][share=repository][FileName=repository][GetOptions=?id=info.mimediacenter&label=Mi mediacenter] (bapps)
19:05:46.0591 T:3038759824 M:543236096   DEBUG: CAppBoxDirectory::HandleAppBoxRequest - For [strPath=appbox://all/repository?id=info.mimediacenter&label=Mi mediacenter] mapOptions size is [2]. [options=] (bapps)
19:05:46.0591 T:3038759824 M:543236096   DEBUG: CAppBoxDirectory::HandleAppBoxRequest - After getting [repoId=info.mimediacenter] (bapps)
19:05:46.0591 T:3038759824 M:543236096   DEBUG: CAppBoxDirectory::HandleAppBoxRequest - Handling repository [name=Boxee Official Repository][id=tv.boxee][url=http://dir.boxee.tv/apps] (erepo)
19:05:46.0591 T:3038759824 M:543236096   DEBUG: CAppBoxDirectory::HandleAppBoxRequest - Handling repository [name=Erik Kristensen's Boxee Repository][id=com.erikkristensen][url=http://erikkristensen.com/project/boxeerepo] (erepo)
19:05:46.0592 T:3038759824 M:543236096   DEBUG: CAppBoxDirectory::HandleAppBoxRequest - Handling repository [name=Mi mediacenter][id=info.mimediacenter][url=http://www.mimediacenter.info/boxee] (erepo)
19:05:46.0593 T:3038759824 M:543240192   DEBUG: Boxee: 22/02/11 18:05:46.5929#DEBUG#bxappboxmanager.cpp:231(GetAppBox3rdPartyRepositoryApplications)#BXAppBoxManager::GetAppBox3rdPartyRepositoryApplications - Enter function. [repositoryId=info.mimediacenter][IsRepositoriesMapLoaded=1] (repos)
19:05:46.0593 T:3038759824 M:543240192   DEBUG: Boxee: 22/02/11 18:05:46.5939#DEBUG#bxappboxmanager.cpp:273(GetAppBox3rdPartyRepositoryApplications)#BXAppBoxManager::GetAppBox3rdPartyRepositoryApplications - Exit function. [repositoryId=info.mimediacenter] (repos)
19:05:46.0596 T:3038759824 M:543240192   DEBUG: CAppRepository::GetApps - Got [6] apps out of [6]. [repoId=info.mimediacenter][repositoryType=3rd-Party] (appbox)
19:05:46.0596 T:3038759824 M:543240192   DEBUG: CAppBoxDirectory::GetAppBoxDirectoryByType - Enter function with [strType=all][strSearchTerm=] (bapps)
19:05:46.0598 T:3038759824 M:543240192   DEBUG: Boxee: 22/02/11 18:05:46.5979#WARNING#bxappboxpopularities.cpp:89(GetPopularityById)#BXAppBoxPopularities::GetPopularityById - FAILED to find popularity for [id=info.mimediacenter.goear] (appbox)
19:05:46.0598 T:3038759824 M:543240192   DEBUG: Boxee: 22/02/11 18:05:46.5984#WARNING#bxappboxpopularities.cpp:89(GetPopularityById)#BXAppBoxPopularities::GetPopularityById - FAILED to find popularity for [id=info.mimediacenter.kideos] (appbox)
19:05:46.0599 T:3038759824 M:543240192   DEBUG: Boxee: 22/02/11 18:05:46.5990#WARNING#bxappboxpopularities.cpp:89(GetPopularityById)#BXAppBoxPopularities::GetPopularityById - FAILED to find popularity for [id=info.mimediacenter.totlol] (appbox)
19:05:46.0603 T:3074115360 M:543240192   DEBUG: CItemLoader::AddControl, added directory job, path = appbox://all/repository?id=info.mimediacenter&label=Mi mediacenter (browse)
19:05:46.0913 T:3074115360 M:543502336   DEBUG: CBrowseWindowSourceController::BindItems received 6 items for path appbox://all/repository?id=info.mimediacenter&label=Mi mediacenter (browse)
19:05:46.0914 T:3074115360 M:543502336   DEBUG: CBrowseWindowSource::BindItems, source id reposource received 6 items for path appbox://all/repository?id=info.mimediacenter&label=Mi mediacenter (browse)
19:05:46.0915 T:3074115360 M:543502336   DEBUG: CBrowseWindowSourceController::MergeSources, processing single source (browse) (merge)
19:05:46.0916 T:3074115360 M:543502336   DEBUG: CGUIBaseContainer::CGUIBaseContainer,  GUI_MSG_LABEL_BIND, 55 (basecontainer)
19:05:46.0918 T:3074115360 M:543502336   DEBUG: CGUIBaseContainer::CGUIBaseContainer,  GUI_MSG_LABEL_BIND, 7100 (basecontainer)
19:05:46.0919 T:3074115360 M:543502336   DEBUG: CGUIBaseContainer::CGUIBaseContainer,  GUI_MSG_LABEL_BIND, 7000 (basecontainer)
19:05:46.0951 T:3038759824 M:543494144   DEBUG: Creating thumb from: http://www.mimediacenter.info/boxee/goear.png as: special://masterprofile/profiles/jvr1976/Thumbnails/Pictures/e/e1f37d5f.tbn
19:05:46.0954 T:3038759824 M:543494144   DEBUG: update ref map. url http://www.mimediacenter.info/boxee/goear.png new ref_count 1  progress 0 (hcm)
19:05:46.0954 T:3038759824 M:543494144   DEBUG: CHttpCacheManager::StartCachingURL   push http://www.mimediacenter.info/boxee/goear.png to  m_references (hcm)
19:05:46.0954 T:3038759824 M:543494144   DEBUG: FileCurl::Open(0xb51faa14) http://www.mimediacenter.info/boxee/goear.png
19:05:46.0959 T:3038759824 M:543367168   DEBUG: easy_aquire - Created session to http://www.mimediacenter.info
19:05:46.0964 T:3035601808 M:543358976   DEBUG: Creating thumb from: http://www.mimediacenter.info/boxee/tvalacarta.png as: special://masterprofile/profiles/jvr1976/Thumbnails/Pictures/4/404c62ff.tbn
19:05:46.0966 T:3035601808 M:543358976   DEBUG: update ref map. url http://www.mimediacenter.info/boxee/tvalacarta.png new ref_count 1  progress 0 (hcm)
19:05:46.0967 T:3035601808 M:543358976   DEBUG: CHttpCacheManager::StartCachingURL   push http://www.mimediacenter.info/boxee/tvalacarta.png to  m_references (hcm)
19:05:46.0967 T:3035601808 M:543358976   DEBUG: FileCurl::Open(0xb4ef7a14) http://www.mimediacenter.info/boxee/tvalacarta.png
19:05:46.0972 T:3035601808 M:543363072   DEBUG: easy_aquire - Created session to http://www.mimediacenter.info
19:05:46.0976 T:3040865168 M:543354880   DEBUG: Creating thumb from: http://www.mimediacenter.info/boxee/totlol.png as: special://masterprofile/profiles/jvr1976/Thumbnails/Pictures/0/0598e050.tbn
19:05:46.0979 T:3040865168 M:543354880   DEBUG: update ref map. url http://www.mimediacenter.info/boxee/totlol.png new ref_count 1  progress 0 (hcm)
19:05:46.0979 T:3040865168 M:543354880   DEBUG: CHttpCacheManager::StartCachingURL   push http://www.mimediacenter.info/boxee/totlol.png to  m_references (hcm)
19:05:46.0979 T:3040865168 M:543354880   DEBUG: FileCurl::Open(0xb53fca14) http://www.mimediacenter.info/boxee/totlol.png
19:05:46.0985 T:3040865168 M:543354880   DEBUG: easy_aquire - Created session to http://www.mimediacenter.info
19:05:46.0989 T:3022420880 M:543346688   DEBUG: Creating thumb from: http://www.mimediacenter.info/boxee/pelisalacarta.png as: special://masterprofile/profiles/jvr1976/Thumbnails/Pictures/4/4b03ff79.tbn
19:05:46.0992 T:3022420880 M:543346688   DEBUG: update ref map. url http://www.mimediacenter.info/boxee/pelisalacarta.png new ref_count 1  progress 0 (hcm)
19:05:46.0992 T:3022420880 M:543346688   DEBUG: CHttpCacheManager::StartCachingURL   push http://www.mimediacenter.info/boxee/pelisalacarta.png to  m_references (hcm)
19:05:46.0993 T:3022420880 M:543346688   DEBUG: FileCurl::Open(0xb4265a14) http://www.mimediacenter.info/boxee/pelisalacarta.png
19:05:46.0998 T:3022420880 M:543346688   DEBUG: easy_aquire - Created session to http://www.mimediacenter.info
19:05:47.0002 T:2978687888 M:543338496   DEBUG: Creating thumb from: http://www.mimediacenter.info/boxee/mywebtv.png as: special://masterprofile/profiles/jvr1976/Thumbnails/Pictures/f/f7cde9c6.tbn
19:05:47.0005 T:2978687888 M:543338496   DEBUG: update ref map. url http://www.mimediacenter.info/boxee/mywebtv.png new ref_count 1  progress 0 (hcm)
19:05:47.0005 T:2978687888 M:543338496   DEBUG: CHttpCacheManager::StartCachingURL   push http://www.mimediacenter.info/boxee/mywebtv.png to  m_references (hcm)
19:05:47.0006 T:2978687888 M:543338496   DEBUG: FileCurl::Open(0xb18b0a14) http://www.mimediacenter.info/boxee/mywebtv.png
19:05:47.0011 T:2978687888 M:543338496   DEBUG: easy_aquire - Created session to http://www.mimediacenter.info
19:05:47.0501 T:3035601808 M:543322112   DEBUG: Open - filesize: 100381
19:05:47.0505 T:3038759824 M:543322112   DEBUG: Open - filesize: 32126
19:05:47.0519 T:3040865168 M:543322112   DEBUG: Open - filesize: 26363
19:05:47.0553 T:3022420880 M:543338496   DEBUG: Open - filesize: 75407
19:05:47.0563 T:2978687888 M:543338496   DEBUG: Open - filesize: 214085
19:05:48.0137 T:3033766800 M:542449664   DEBUG: no gui sound for 2 seconds. pausing device
19:05:48.0421 T:3038759824 M:540418048   DEBUG: FileCurl::Close(0xb51faa14) http://www.mimediacenter.info/boxee/goear.png
19:05:48.0423 T:3038759824 M:540418048   DEBUG: CURL STATS: done with <www.mimediacenter.info>. 31.37k in: 1.46 sec. dns: 0.02 sec. connect: 0.26 s. pretransfer: 0.26 s. speed: 21.48 kbytes/sec.
19:05:48.0425 T:3038759824 M:540450816   DEBUG: update ref map. url http://www.mimediacenter.info/boxee/goear.png new ref_count 1  progress 0 (hcm)
19:05:48.0426 T:3038759824 M:540450816   DEBUG: insert http://www.mimediacenter.info/boxee/goear.png to the database (hcm)
19:05:48.0428 T:3040865168 M:540438528   DEBUG: FileCurl::Close(0xb53fca14) http://www.mimediacenter.info/boxee/totlol.png
19:05:48.0429 T:3040865168 M:540438528   DEBUG: CURL STATS: done with <www.mimediacenter.info>. 25.75k in: 1.44 sec. dns: 0.02 sec. connect: 0.25 s. pretransfer: 0.25 s. speed: 17.86 kbytes/sec.
19:05:48.0430 T:3038759824 M:540467200   DEBUG: update ref map. url http://www.mimediacenter.info/boxee/goear.png new ref_count 0  progress 0 (hcm)
19:05:48.0431 T:3038759824 M:540467200   DEBUG: Creating album thumb from memory: special://masterprofile/profiles/jvr1976/Thumbnails/Pictures/e/e1f37d5f.tbn
19:05:48.0433 T:3040865168 M:540467200   DEBUG: update ref map. url http://www.mimediacenter.info/boxee/totlol.png new ref_count 1  progress 0 (hcm)
19:05:48.0435 T:3040865168 M:540471296   DEBUG: insert http://www.mimediacenter.info/boxee/totlol.png to the database (hcm)
19:05:48.0436 T:3040865168 M:540471296   DEBUG: update ref map. url http://www.mimediacenter.info/boxee/totlol.png new ref_count 0  progress 0 (hcm)
19:05:48.0437 T:3040865168 M:540471296   DEBUG: Creating album thumb from memory: special://masterprofile/profiles/jvr1976/Thumbnails/Pictures/0/0598e050.tbn
19:05:48.0483 T:3040865168 M:540483584   DEBUG: TouchThumbnailFile touch thumbnail file special://masterprofile/profiles/jvr1976/Thumbnails/Pictures/0/0598e050.tbn size 26363  (thm)
19:05:48.0519 T:3040865168 M:539832320   DEBUG: TouchThumbnailFile touch thumbnail file special://masterprofile/profiles/jvr1976/Thumbnails/Pictures/0/0598e050.tbn doesn't exist - add new  total 9 files average time 1298397868 (thm)
19:05:48.0525 T:3040865168 M:539865088   DEBUG: CDirectoryCache::UpdateItem, CACHE updating dirPath = appbox://all/repository?id=info.mimediacenter&label=Mi mediacenter , cacheId =  , item = totlol, path = app://info.mimediacenter.totlol/ (dircache)
19:05:48.0525 T:3040865168 M:539865088   DEBUG: CDirectoryCache::UpdateItem, found the relevant dir - strDirPath = appbox://all/repository?id=info.mimediacenter&label=Mi mediacenter (dircache)
19:05:48.0526 T:3040865168 M:539865088   DEBUG: CDirectoryCache::UpdateItem, found the item - strItemPath = app://info.mimediacenter.totlol/ (dircache)
19:05:48.0527 T:3040865168 M:539865088   DEBUG: Creating thumb from: http://www.mimediacenter.info/boxee/kideos.png as: special://masterprofile/profiles/jvr1976/Thumbnails/Pictures/3/3e446988.tbn
19:05:48.0550 T:3040865168 M:539742208   DEBUG: update ref map. url http://www.mimediacenter.info/boxee/kideos.png new ref_count 1  progress 0 (hcm)
19:05:48.0550 T:3040865168 M:539742208   DEBUG: CHttpCacheManager::StartCachingURL   push http://www.mimediacenter.info/boxee/kideos.png to  m_references (hcm)
19:05:48.0550 T:3040865168 M:539742208   DEBUG: FileCurl::Open(0xb53fca14) http://www.mimediacenter.info/boxee/kideos.png
19:05:48.0863 T:3038759824 M:538378240   DEBUG: TouchThumbnailFile touch thumbnail file special://masterprofile/profiles/jvr1976/Thumbnails/Pictures/e/e1f37d5f.tbn size 32126  (thm)
19:05:48.0888 T:3038759824 M:538107904   DEBUG: TouchThumbnailFile touch thumbnail file special://masterprofile/profiles/jvr1976/Thumbnails/Pictures/e/e1f37d5f.tbn doesn't exist - add new  total 10 files average time 1298397876 (thm)
19:05:48.0893 T:3038759824 M:538107904   DEBUG: CDirectoryCache::UpdateItem, CACHE updating dirPath = appbox://all/repository?id=info.mimediacenter&label=Mi mediacenter , cacheId =  , item = goear, path = app://info.mimediacenter.goear/ (dircache)
19:05:48.0893 T:3038759824 M:538107904   DEBUG: CDirectoryCache::UpdateItem, found the relevant dir - strDirPath = appbox://all/repository?id=info.mimediacenter&label=Mi mediacenter (dircache)
19:05:48.0894 T:3038759824 M:538107904   DEBUG: CDirectoryCache::UpdateItem, found the item - strItemPath = app://info.mimediacenter.goear/ (dircache)
19:05:48.0931 T:3040865168 M:537870336   DEBUG: Open - filesize: 10289
19:05:48.0940 T:3040865168 M:537870336   DEBUG: FileCurl::Close(0xb53fca14) http://www.mimediacenter.info/boxee/kideos.png
19:05:48.0941 T:3040865168 M:537870336   DEBUG: CURL STATS: done with <www.mimediacenter.info>. 10.05k in: 0.39 sec. dns: 0.00 sec. connect: 0.00 s. pretransfer: 0.00 s. speed: 25.85 kbytes/sec.
19:05:48.0943 T:3040865168 M:537882624   DEBUG: update ref map. url http://www.mimediacenter.info/boxee/kideos.png new ref_count 1  progress 0 (hcm)
19:05:48.0944 T:3040865168 M:537882624   DEBUG: insert http://www.mimediacenter.info/boxee/kideos.png to the database (hcm)
19:05:48.0946 T:3040865168 M:537882624   DEBUG: update ref map. url http://www.mimediacenter.info/boxee/kideos.png new ref_count 0  progress 0 (hcm)
19:05:48.0947 T:3040865168 M:537882624   DEBUG: Creating album thumb from memory: special://masterprofile/profiles/jvr1976/Thumbnails/Pictures/3/3e446988.tbn
19:05:48.0961 T:3040865168 M:537899008   DEBUG: TouchThumbnailFile touch thumbnail file special://masterprofile/profiles/jvr1976/Thumbnails/Pictures/3/3e446988.tbn size 10289  (thm)
19:05:48.0995 T:3040865168 M:537628672   DEBUG: TouchThumbnailFile touch thumbnail file special://masterprofile/profiles/jvr1976/Thumbnails/Pictures/3/3e446988.tbn doesn't exist - add new  total 11 files average time 1298397882 (thm)
19:05:48.0997 T:3040865168 M:537628672   DEBUG: CDirectoryCache::UpdateItem, CACHE updating dirPath = appbox://all/repository?id=info.mimediacenter&label=Mi mediacenter , cacheId =  , item = kideos, path = app://info.mimediacenter.kideos/ (dircache)
19:05:48.0997 T:3040865168 M:537628672   DEBUG: CDirectoryCache::UpdateItem, found the relevant dir - strDirPath = appbox://all/repository?id=info.mimediacenter&label=Mi mediacenter (dircache)
19:05:48.0998 T:3040865168 M:537628672   DEBUG: CDirectoryCache::UpdateItem, found the item - strItemPath = app://info.mimediacenter.kideos/ (dircache)
19:05:49.0107 T:3035601808 M:536518656   DEBUG: FileCurl::Close(0xb4ef7a14) http://www.mimediacenter.info/boxee/tvalacarta.png
19:05:49.0108 T:3035601808 M:536518656   DEBUG: CURL STATS: done with <www.mimediacenter.info>. 98.03k in: 2.13 sec. dns: 0.01 sec. connect: 0.24 s. pretransfer: 0.25 s. speed: 45.95 kbytes/sec.
19:05:49.0110 T:3035601808 M:536494080   DEBUG: update ref map. url http://www.mimediacenter.info/boxee/tvalacarta.png new ref_count 1  progress 0 (hcm)
19:05:49.0111 T:3035601808 M:536494080   DEBUG: insert http://www.mimediacenter.info/boxee/tvalacarta.png to the database (hcm)
19:05:49.0113 T:3035601808 M:536494080   DEBUG: update ref map. url http://www.mimediacenter.info/boxee/tvalacarta.png new ref_count 0  progress 0 (hcm)
19:05:49.0114 T:3035601808 M:536494080   DEBUG: Creating album thumb from memory: special://masterprofile/profiles/jvr1976/Thumbnails/Pictures/4/404c62ff.tbn
19:05:49.0194 T:3022420880 M:536494080   DEBUG: FileCurl::Close(0xb4265a14) http://www.mimediacenter.info/boxee/pelisalacarta.png
19:05:49.0195 T:3022420880 M:536494080   DEBUG: CURL STATS: done with <www.mimediacenter.info>. 73.64k in: 2.20 sec. dns: 0.01 sec. connect: 0.24 s. pretransfer: 0.24 s. speed: 33.55 kbytes/sec.
19:05:49.0197 T:3022420880 M:536571904   DEBUG: update ref map. url http://www.mimediacenter.info/boxee/pelisalacarta.png new ref_count 1  progress 0 (hcm)
19:05:49.0198 T:3022420880 M:536571904   DEBUG: insert http://www.mimediacenter.info/boxee/pelisalacarta.png to the database (hcm)
19:05:49.0200 T:3022420880 M:536571904   DEBUG: update ref map. url http://www.mimediacenter.info/boxee/pelisalacarta.png new ref_count 0  progress 0 (hcm)
19:05:49.0201 T:3022420880 M:536571904   DEBUG: Creating album thumb from memory: special://masterprofile/profiles/jvr1976/Thumbnails/Pictures/4/4b03ff79.tbn
19:05:49.0264 T:3022420880 M:536592384   DEBUG: TouchThumbnailFile touch thumbnail file special://masterprofile/profiles/jvr1976/Thumbnails/Pictures/4/4b03ff79.tbn size 75407  (thm)
19:05:49.0323 T:3022420880 M:536051712   DEBUG: TouchThumbnailFile touch thumbnail file special://masterprofile/profiles/jvr1976/Thumbnails/Pictures/4/4b03ff79.tbn doesn't exist - add new  total 12 files average time 1298397887 (thm)
19:05:49.0327 T:3022420880 M:536072192   DEBUG: CDirectoryCache::UpdateItem, CACHE updating dirPath = appbox://all/repository?id=info.mimediacenter&label=Mi mediacenter , cacheId =  , item = pelisalacarta, path = app://info.mimediacenter.pelisalacarta/ (dircache)
19:05:49.0328 T:3022420880 M:536072192   DEBUG: CDirectoryCache::UpdateItem, found the relevant dir - strDirPath = appbox://all/repository?id=info.mimediacenter&label=Mi mediacenter (dircache)
19:05:49.0328 T:3022420880 M:536072192   DEBUG: CDirectoryCache::UpdateItem, found the item - strItemPath = app://info.mimediacenter.pelisalacarta/ (dircache)
19:05:49.0475 T:3074115360 M:536092672   DEBUG: SDLKeyboard: scancode: 1, sym: 27, unicode: 27, modifier: 0
19:05:49.0475 T:3074115360 M:536092672   DEBUG: CApplication::OnKey - [key=61467][window=10482][action=10]
19:05:49.0476 T:3074115360 M:536096768   DEBUG: OnKey: 61467 pressed, action is 10
19:05:49.0479 T:3074115360 M:536096768   DEBUG: CAppsWindowState::OnBack - Enter function Going to call OnSearchEnd()  (bapps)(browse)
19:05:49.0480 T:3074115360 M:536096768   DEBUG: CBrowseWindowSource::ClearItems, clear source, path = appbox://all/ (browse)
19:05:49.0480 T:3074115360 M:536096768   DEBUG: CBrowseWindowSource::ClearItems, clear source, path = apps://all/ (browse)
19:05:49.0480 T:3074115360 M:536096768   DEBUG: CBrowseWindowSource::ClearItems, clear source, path = appbox://all/repository (browse)
19:05:49.0480 T:3074115360 M:536096768   DEBUG: CBrowseWindowSource::ClearItems, clear source, path = appbox://all/ (browse)
19:05:49.0481 T:3074115360 M:536096768   DEBUG: CAppsWindowState::OnAllApps - After set [Category=repos] (bapps)(browse)
19:05:49.0481 T:3074115360 M:536096768   DEBUG: Boxee: 22/02/11 18:05:49.4817#DEBUG#GUIWindowStateDatabase.cpp:139(LoadState)#GUIWindowStateDatabase::LoadState, iWindow=10482 , iView=177676536 , iSortMethod=154362364, iSelectedItem=-1077205288 , iSelectedCategory=177582060
19:05:49.0483 T:3074115360 M:536096768   DEBUG: Boxee: 22/02/11 18:05:49.4837#DEBUG#GUIWindowStateDatabase.cpp:148(LoadState)#GUIWindowStateDatabase::LoadState, state found, idWindow='10482' , strCategory='repos'
19:05:49.0484 T:3074115360 M:536096768   DEBUG: Activating window ID: 10486
19:05:49.0484 T:3074115360 M:536096768   DEBUG: Checking if window ID 10486 is locked.
19:05:49.0484 T:3074115360 M:536096768   DEBUG: CGUIWindowBoxeeBrowse::OnMessage, GUI_MSG_WINDOW_DEINIT (browse)
19:05:49.0485 T:3074115360 M:536096768   DEBUG: Boxee: 22/02/11 18:05:49.4851#DEBUG#GUIWindowStateDatabase.cpp:102(SaveState)#GUIWindowStateDatabase::SaveState, iWindow=10482 , iView=55 , strSortMethod=title , iSelectedItem=0, iSelectedCategory=repos
19:05:49.0486 T:3074115360 M:536096768   DEBUG: Boxee: 22/02/11 18:05:49.4862#DEBUG#GUIWindowStateDatabase.cpp:111(SaveState)#GUIWindowStateDatabase::SaveState, state found, idWindow='10482', strCategory='repos'
19:05:49.0607 T:3074115360 M:536141824   DEBUG: ------ Window Deinit (boxee_browse_apps.xml) ------
19:05:49.0611 T:3074115360 M:536141824   DEBUG: ------ Window Init (boxee_browse_repositories.xml) ------
19:05:49.0611 T:3074115360 M:536141824   DEBUG: Loading skin file: boxee_browse_repositories.xml
19:05:49.0623 T:3074115360 M:536141824   DEBUG: CGUIBaseContainer::CGUIBaseContainer, 56 (basecontainer)
19:05:49.0635 T:3074115360 M:536141824   DEBUG: CGUIWindowBoxeeBrowse::InitializeViewController, adding controller id = [56] (browse)
19:05:49.0636 T:3074115360 M:536141824   DEBUG: Load boxee_browse_repositories.xml: 24.72ms
19:05:49.0654 T:3074115360 M:536141824   DEBUG: Alloc resources: 42.62ms (25.51 ms skin load)
19:05:49.0659 T:3074115360 M:536141824   DEBUG: CBrowseWindowSource::ClearItems, clear source, path = repositories://external (browse)
19:05:49.0659 T:3074115360 M:536141824   DEBUG: CBrowseWindowSource::RequestItems, source base path = repositories://external, requested path = repositories://external, for window id = 10486 (browse)
19:05:49.0659 T:3074115360 M:536141824   DEBUG: CItemLoader::AddControl, window = 10486, control = 0, path = repositories://external (browse)
19:05:49.0660 T:3074115360 M:536141824   DEBUG: CItemLoader::AddControl, 3 GUI_MSG_LOADING, window = 10486, control = 0 (basecontainer)
19:05:49.0660 T:3074115360 M:536141824   DEBUG: CGUIWindowBoxeeBrowse::OnMessage, 4 GUI_MSG_LOADING, window = 10486, control = -1 (basecontainer) (browse)
19:05:49.0662 T:3022420880 M:536133632   DEBUG: CGetDirectoryJob::DoWork, NEWUI, loading directory, path = repositories://external
19:05:49.0663 T:3022420880 M:536133632   DEBUG: CRepositoriesDirectory::GetDirectory - Enter function with [strPath=repositories://external] (bapps)
19:05:49.0663 T:3022420880 M:536133632   DEBUG: CRepositoriesDirectory::GetRepositoriesList - Enter function with [type=external] (bapps)
19:05:49.0664 T:3022420880 M:536133632   DEBUG: CRepositoriesDirectory::GetDirectory - Exit function with [NumOfRepositories=2] for [strPath=repositories://external] (bapps)
19:05:49.0679 T:3074115360 M:536154112   DEBUG: CItemLoader::AddControl, added directory job, path = repositories://external (browse)
19:05:50.0064 T:3035601808 M:519069696   DEBUG: TouchThumbnailFile touch thumbnail file special://masterprofile/profiles/jvr1976/Thumbnails/Pictures/4/404c62ff.tbn size 100381  (thm)
19:05:50.0102 T:3035601808 M:519053312   DEBUG: TouchThumbnailFile touch thumbnail file special://masterprofile/profiles/jvr1976/Thumbnails/Pictures/4/404c62ff.tbn doesn't exist - add new  total 13 files average time 1298397891 (thm)
19:05:50.0105 T:3035601808 M:519053312   DEBUG: CDirectoryCache::UpdateItem, CACHE updating dirPath = appbox://all/repository?id=info.mimediacenter&label=Mi mediacenter , cacheId =  , item = tvalacarta, path = app://info.mimediacenter.tvalacarta/ (dircache)
19:05:50.0105 T:3035601808 M:519053312   DEBUG: CDirectoryCache::UpdateItem, found the relevant dir - strDirPath = appbox://all/repository?id=info.mimediacenter&label=Mi mediacenter (dircache)
19:05:50.0106 T:3035601808 M:519053312   DEBUG: CDirectoryCache::UpdateItem, found the item - strItemPath = app://info.mimediacenter.tvalacarta/ (dircache)
19:05:50.0154 T:3074115360 M:536354816   DEBUG: CBrowseWindowSourceController::BindItems received 2 items for path repositories://external (browse)
19:05:50.0155 T:3074115360 M:536354816   DEBUG: CBrowseWindowSource::BindItems, source id repositoriessource received 2 items for path repositories://external (browse)
19:05:50.0155 T:3074115360 M:536354816   DEBUG: CBrowseWindowSourceController::MergeSources, processing single source (browse) (merge)
19:05:50.0156 T:3074115360 M:536354816   DEBUG: CGUIBaseContainer::CGUIBaseContainer,  GUI_MSG_LABEL_BIND, 56 (basecontainer)
19:05:50.0156 T:3074115360 M:536354816   DEBUG: CGUIFixedListContainer::ScrollToOffset, ENTER, m_cursor = 0, offset = 0, m_offset = 0 (scroll)
19:05:50.0156 T:3074115360 M:536354816   DEBUG: CGUIFixedListContainer::ScrollToOffset, mo 0 mc 0, nCurrOffset = 0, nTargetOffset = 0, m_items.size() = 2, m_itemsPerPage = 10 (scroll)
19:05:50.0157 T:3074115360 M:536354816   DEBUG: CGUIFixedListContainer::ScrollToOffset, EXIT, m_cursor = 0, offset = 0, m_offset = 0 (scroll)
19:05:50.0157 T:3074115360 M:536354816   DEBUG: CGUIFixedListContainer::ScrollToOffset, ENTER, m_cursor = 0, offset = 1, m_offset = 0 (scroll)
19:05:50.0157 T:3074115360 M:536354816   DEBUG: CGUIFixedListContainer::ScrollToOffset, mo 0 mc 0, nCurrOffset = 0, nTargetOffset = 1, m_items.size() = 2, m_itemsPerPage = 10 (scroll)
19:05:50.0158 T:3074115360 M:536354816   DEBUG: CGUIFixedListContainer::ScrollToOffset, EXIT, m_cursor = 1, offset = 1, m_offset = 0 (scroll)
19:05:50.0183 T:3035601808 M:536219648   DEBUG: CDirectoryCache::UpdateItem, CACHE updating dirPath = repositories://external , cacheId =  , item = Mi mediacenter, path = http://www.mimediacenter.info/boxee (dircache)
19:05:50.0184 T:3035601808 M:536219648   DEBUG: CDirectoryCache::UpdateItem, found the relevant dir - strDirPath = repositories://external (dircache)
19:05:50.0184 T:3035601808 M:536219648   DEBUG: CDirectoryCache::UpdateItem, found the item - strItemPath = http://www.mimediacenter.info/boxee (dircache)
19:05:50.0187 T:2978687888 M:536219648   DEBUG: FileCurl::Close(0xb18b0a14) http://www.mimediacenter.info/boxee/mywebtv.png
19:05:50.0188 T:2978687888 M:536219648   DEBUG: CURL STATS: done with <www.mimediacenter.info>. 209.07k in: 3.18 sec. dns: 0.02 sec. connect: 0.25 s. pretransfer: 0.25 s. speed: 65.84 kbytes/sec.
19:05:50.0190 T:2978687888 M:536309760   DEBUG: update ref map. url http://www.mimediacenter.info/boxee/mywebtv.png new ref_count 1  progress 0 (hcm)
19:05:50.0192 T:2978687888 M:536309760   DEBUG: insert http://www.mimediacenter.info/boxee/mywebtv.png to the database (hcm)
19:05:50.0194 T:2978687888 M:536309760   DEBUG: update ref map. url http://www.mimediacenter.info/boxee/mywebtv.png new ref_count 0  progress 0 (hcm)
19:05:50.0195 T:2978687888 M:536309760   DEBUG: Creating album thumb from memory: special://masterprofile/profiles/jvr1976/Thumbnails/Pictures/f/f7cde9c6.tbn
19:05:50.0233 T:3035601808 M:536059904   DEBUG: CDirectoryCache::UpdateItem, CACHE updating dirPath = repositories://external , cacheId =  , item = Erik Kristensen's Boxee Repository, path = http://erikkristensen.com/project/boxeerepo (dircache)
19:05:50.0233 T:3035601808 M:536059904   DEBUG: CDirectoryCache::UpdateItem, found the relevant dir - strDirPath = repositories://external (dircache)
19:05:50.0234 T:3035601808 M:536059904   DEBUG: CDirectoryCache::UpdateItem, found the item - strItemPath = http://erikkristensen.com/project/boxeerepo (dircache)
19:05:50.0294 T:2978687888 M:535863296   DEBUG: TouchThumbnailFile touch thumbnail file special://masterprofile/profiles/jvr1976/Thumbnails/Pictures/f/f7cde9c6.tbn size 214085  (thm)
19:05:50.0311 T:2978687888 M:535846912   DEBUG: TouchThumbnailFile touch thumbnail file special://masterprofile/profiles/jvr1976/Thumbnails/Pictures/f/f7cde9c6.tbn doesn't exist - add new  total 14 files average time 1298397895 (thm)
19:05:50.0314 T:2978687888 M:535973888   DEBUG: CDirectoryCache::UpdateItem, CACHE updating dirPath = appbox://all/repository?id=info.mimediacenter&label=Mi mediacenter , cacheId =  , item = mywebtv, path = app://info.mimediacenter.mywebtv/ (dircache)
19:05:50.0320 T:2978687888 M:535973888   DEBUG: CDirectoryCache::UpdateItem, found the relevant dir - strDirPath = appbox://all/repository?id=info.mimediacenter&label=Mi mediacenter (dircache)
19:05:50.0321 T:2978687888 M:535973888   DEBUG: CDirectoryCache::UpdateItem, found the item - strItemPath = app://info.mimediacenter.mywebtv/ (dircache)
19:05:51.0019 T:3074115360 M:535998464   DEBUG: (dbg) FreeMem 523436/644016 Kb, FPS 14.7, CPU0: 73.9%  Loader Q:[0] Textures:[63 (20.83 M)] SERVER: [67.225.149.139] ver: 1.0.4.17443
19:05:51.0019 T:3074115360 M:535998464   DEBUG: (dbg)
19:05:51.0135 T:3074115360 M:535998464   DEBUG: SDLKeyboard: scancode: 1, sym: 27, unicode: 27, modifier: 0
19:05:51.0135 T:3074115360 M:535998464   DEBUG: CApplication::OnKey - [key=61467][window=10486][action=10]
19:05:51.0136 T:3074115360 M:535998464   DEBUG: OnKey: 61467 pressed, action is 10
19:05:51.0137 T:3074115360 M:535998464   DEBUG: CBrowseWindowState::OnBack, default implementation, open main menu (browse)
19:05:51.0138 T:3074115360 M:535998464   DEBUG: ------ Window Init (boxee_browse_menu.xml) ------
19:05:51.0138 T:3074115360 M:535998464   DEBUG: Loading skin file: boxee_browse_menu.xml
19:05:51.0152 T:3074115360 M:535998464   DEBUG: CGUIBaseContainer::CGUIBaseContainer, 101 (basecontainer)
19:05:51.0178 T:3074115360 M:535998464   DEBUG: Load boxee_browse_menu.xml: 40.60ms
19:05:51.0183 T:3074115360 M:535998464   DEBUG: Alloc resources: 45.28ms (42.29 ms skin load)
19:05:51.0185 T:3074115360 M:535998464   DEBUG: CGUIDialogBoxeeBrowseMenu::OnInitWindow, Current row = 1, current button = 3027 (browsemenu)
19:05:51.0185 T:3074115360 M:535998464 WARNING: CGUIDialogBoxeeBrowseMenu::UpdateMenu, unable to find next row, id =  (browsemenu)
19:05:51.0185 T:3074115360 M:535998464   DEBUG: CGUIDialogBoxeeBrowseMenu::DrawMenu, m_iCurrentRowIndex = 1, m_iPreviousRowIndex = 1, initialRow = 2 (browsemenu)
19:05:51.0186 T:3074115360 M:535998464   DEBUG: CGUIDialogBoxeeBrowseMenu::DrawMenu, CLEAR menu row at index =  1 (browsemenu)
19:05:51.0186 T:3074115360 M:535998464   DEBUG: CGUIDialogBoxeeBrowseMenu::DrawMenu, CLEAR menu row at index =  2 (browsemenu)
19:05:51.0186 T:3074115360 M:535998464   DEBUG: CGUIDialogBoxeeBrowseMenu::DrawMenu, CLEAR menu row at index =  3 (browsemenu)
19:05:51.0186 T:3074115360 M:535998464   DEBUG: CGUIDialogBoxeeBrowseMenu::DrawMenu, CLEAR menu row at index =  4 (browsemenu)
19:05:51.0187 T:3074115360 M:535998464   ERROR: CGUIWindow::OnMessage - GUI_MSG_SETFOCUS - FAILED to get the control to focus for [id=3027]. [WinId=10423]
19:05:51.0187 T:3074115360 M:535998464   DEBUG: Adding button label = All to row id = 1 at index = 0 (browsemenu)
19:05:51.0187 T:3074115360 M:535998464   DEBUG: Adding button label = Favorites to row id = 1 at index = 1 (browsemenu)
19:05:51.0188 T:3074115360 M:536002560   DEBUG: Adding button label = Categories to row id = 1 at index = 2 (browsemenu)
19:05:51.0188 T:3074115360 M:536002560   DEBUG: Adding button label = Repositories to row id = 1 at index = 3 (browsemenu)
19:05:52.0215 T:3074115360 M:536002560   DEBUG: SDLKeyboard: scancode: 105, sym: 276, unicode: 0, modifier: 0
19:05:52.0215 T:3074115360 M:536002560   DEBUG: CApplication::OnKey - [key=61477][window=10423][action=1]
19:05:52.0216 T:3074115360 M:536002560   DEBUG: OnKey: 61477 pressed, action is 1
19:05:52.0217 T:3074115360 M:536002560   DEBUG: CGUIDialogBoxeeBrowseMenu::DrawMenu, m_iCurrentRowIndex = 1, m_iPreviousRowIndex = 1, initialRow = 2 (browsemenu)
19:05:52.0218 T:3074115360 M:536002560   DEBUG: CGUIDialogBoxeeBrowseMenu::DrawMenu, CLEAR menu row at index =  2 (browsemenu)
19:05:52.0218 T:3074115360 M:536002560   DEBUG: CGUIDialogBoxeeBrowseMenu::DrawMenu, CLEAR menu row at index =  3 (browsemenu)
19:05:52.0218 T:3074115360 M:536002560   DEBUG: CGUIDialogBoxeeBrowseMenu::DrawMenu, CLEAR menu row at index =  4 (browsemenu)
19:05:52.0219 T:3074115360 M:536002560   DEBUG: Adding button label = Video to row id = 2 at index = 0 (browsemenu)
19:05:52.0219 T:3074115360 M:536002560   DEBUG: Adding button label = Music to row id = 2 at index = 1 (browsemenu)
19:05:52.0219 T:3074115360 M:536002560   DEBUG: Adding button label = Photos to row id = 2 at index = 2 (browsemenu)
19:05:52.0875 T:3074115360 M:536002560   DEBUG: SDLKeyboard: scancode: 105, sym: 276, unicode: 0, modifier: 0
19:05:52.0875 T:3074115360 M:536002560   DEBUG: CApplication::OnKey - [key=61477][window=10423][action=1]
19:05:52.0876 T:3074115360 M:536002560   DEBUG: OnKey: 61477 pressed, action is 1
19:05:52.0878 T:3074115360 M:536002560 WARNING: CGUIDialogBoxeeBrowseMenu::UpdateMenu, unable to find next row, id = row_apps_favorite (browsemenu)
19:05:52.0878 T:3074115360 M:536002560   DEBUG: CGUIDialogBoxeeBrowseMenu::DrawMenu, m_iCurrentRowIndex = 1, m_iPreviousRowIndex = 1, initialRow = 2 (browsemenu)
19:05:52.0878 T:3074115360 M:536002560   DEBUG: CGUIDialogBoxeeBrowseMenu::DrawMenu, CLEAR menu row at index =  2 (browsemenu)
19:05:52.0879 T:3074115360 M:536002560   DEBUG: CGUIDialogBoxeeBrowseMenu::DrawMenu, CLEAR menu row at index =  3 (browsemenu)
19:05:52.0879 T:3074115360 M:536002560   DEBUG: CGUIDialogBoxeeBrowseMenu::DrawMenu, CLEAR menu row at index =  4 (browsemenu)
19:05:53.0415 T:3074115360 M:536002560   DEBUG: SDLKeyboard: scancode: 108, sym: 274, unicode: 0, modifier: 0
19:05:53.0415 T:3074115360 M:536002560   DEBUG: CApplication::OnKey - [key=61480][window=10423][action=4]
19:05:53.0416 T:3074115360 M:536002560   DEBUG: OnKey: 61480 pressed, action is 4
19:05:53.0417 T:3074115360 M:536002560 WARNING: CGUIDialogBoxeeBrowseMenu::UpdateMenu, unable to find next row, id = row_apps_favorite (browsemenu)
19:05:53.0418 T:3074115360 M:536002560   DEBUG: CGUIDialogBoxeeBrowseMenu::DrawMenu, m_iCurrentRowIndex = 1, m_iPreviousRowIndex = 1, initialRow = 2 (browsemenu)
19:05:53.0418 T:3074115360 M:536002560   DEBUG: CGUIDialogBoxeeBrowseMenu::DrawMenu, CLEAR menu row at index =  2 (browsemenu)
19:05:53.0418 T:3074115360 M:536002560   DEBUG: CGUIDialogBoxeeBrowseMenu::DrawMenu, CLEAR menu row at index =  3 (browsemenu)
19:05:53.0418 T:3074115360 M:536002560   DEBUG: CGUIDialogBoxeeBrowseMenu::DrawMenu, CLEAR menu row at index =  4 (browsemenu)
19:05:53.0935 T:3074115360 M:536002560   DEBUG: SDLKeyboard: scancode: 28, sym: 13, unicode: 0, modifier: 0
19:05:53.0935 T:3074115360 M:536002560   DEBUG: CApplication::OnKey - [key=61453][window=10423][action=7]
19:05:53.0936 T:3074115360 M:536002560   DEBUG: OnKey: 61453 pressed, action is 7
19:05:53.0995 T:3074115360 M:536002560   DEBUG: CGUIDialogBoxeeBrowseMenu::OnClick - Enter function with [ClickedButton=3025] (browsemenu)
19:05:53.0995 T:3074115360 M:536002560   DEBUG: CGUIDialogBoxeeBrowseMenu::OnClick - No case for [ClickedButton=3025] -> continue (browsemenu)
19:05:53.0996 T:3074115360 M:536002560   DEBUG: CGUIDialogBoxeeBrowseMenu::UpdateCommand selected button for row 0 is 1105 (browsemenu)
19:05:53.0996 T:3074115360 M:536006656   DEBUG: CGUIDialogBoxeeBrowseMenu::UpdateCommand selected button for row 1 is 3025 (browsemenu)
19:05:53.0996 T:3074115360 M:536006656   DEBUG: CGUIDialogBoxeeBrowseMenu::UpdateCommand, Updated command is boxeeui://apps/?category=favorite (browsemenu)
19:05:53.0997 T:3074115360 M:536006656   DEBUG: CGUIDialogBoxeeBrowseMenu::OnClick, current command = boxeeui://apps/?category=favorite (browsemenu)
19:05:53.0997 T:3074115360 M:536006656   DEBUG: ------ Window Deinit (boxee_browse_menu.xml) ------
19:05:53.0998 T:3074115360 M:536006656   DEBUG: Activating window ID: 10482
19:05:53.0999 T:3074115360 M:536006656   DEBUG: Checking if window ID 10482 is locked.
19:05:53.0999 T:3074115360 M:536006656   DEBUG: CGUIWindowBoxeeBrowse::OnMessage, GUI_MSG_WINDOW_DEINIT (browse)
19:05:54.0000 T:3074115360 M:536006656   DEBUG: Boxee: 22/02/11 18:05:53.0#DEBUG#GUIWindowStateDatabase.cpp:102(SaveState)#GUIWindowStateDatabase::SaveState, iWindow=10486 , iView=0 , strSortMethod=no-sort , iSelectedItem=1, iSelectedCategory=no-category
19:05:54.0001 T:3074115360 M:536006656   DEBUG: Boxee: 22/02/11 18:05:53.11#DEBUG#GUIWindowStateDatabase.cpp:111(SaveState)#GUIWindowStateDatabase::SaveState, state found, idWindow='10486', strCategory='no-category'
19:05:54.0244 T:3074115360 M:536018944   DEBUG: ------ Window Deinit (boxee_browse_repositories.xml) ------
19:05:54.0246 T:3074115360 M:536018944   DEBUG: ------ Window Init (boxee_browse_apps.xml) ------
19:05:54.0247 T:3074115360 M:536018944   DEBUG: Loading skin file: boxee_browse_apps.xml
19:05:54.0258 T:3074115360 M:536018944   DEBUG: CGUIBaseContainer::CGUIBaseContainer, 55 (basecontainer)
19:05:54.0266 T:3074115360 M:536018944   DEBUG: CGUIBaseContainer::CGUIBaseContainer, 56 (basecontainer)
19:05:54.0271 T:3074115360 M:536018944   DEBUG: CGUIBaseContainer::CGUIBaseContainer, 7000 (basecontainer)
19:05:54.0274 T:3074115360 M:536018944   DEBUG: CGUIBaseContainer::CGUIBaseContainer, 7100 (basecontainer)
19:05:54.0284 T:3074115360 M:536018944   DEBUG: CGUIWindowBoxeeBrowse::InitializeViewController, adding controller id = [55] (browse)
19:05:54.0284 T:3074115360 M:536018944   DEBUG: CGUIWindowBoxeeBrowse::InitializeViewController, adding controller id = [56] (browse)
19:05:54.0286 T:3074115360 M:536018944   DEBUG: Load boxee_browse_apps.xml: 39.38ms
19:05:54.0290 T:3074115360 M:536018944   DEBUG: Alloc resources: 43.58ms (40.87 ms skin load)
19:05:54.0293 T:3074115360 M:536018944   DEBUG: CGUIWindowBoxeeBrowse::ConfigureState, window id = 10482, param = boxeeui://apps/?category=favorite (browsemenu)
19:05:54.0293 T:3074115360 M:536018944   DEBUG: CBrowseWindowSource::ClearItems, clear source, path = appbox://all/ (browse)
19:05:54.0294 T:3074115360 M:536018944   DEBUG: CBrowseWindowSource::ClearItems, clear source, path = apps://all/ (browse)
19:05:54.0294 T:3074115360 M:536018944   DEBUG: CBrowseWindowSource::ClearItems, clear source, path = appbox://all/repository (browse)
19:05:54.0294 T:3074115360 M:536018944   DEBUG: CBrowseWindowSource::ClearItems, clear source, path = apps://all/ (browse)
19:05:54.0295 T:3074115360 M:536018944   DEBUG: Boxee: 22/02/11 18:05:54.2952#DEBUG#GUIWindowStateDatabase.cpp:139(LoadState)#GUIWindowStateDatabase::LoadState, iWindow=10482 , iView=157941668 , iSortMethod=154362364, iSelectedItem=5 , iSelectedCategory=179666972
19:05:54.0296 T:3074115360 M:536018944   DEBUG: Boxee: 22/02/11 18:05:54.2964#DEBUG#GUIWindowStateDatabase.cpp:148(LoadState)#GUIWindowStateDatabase::LoadState, state found, idWindow='10482' , strCategory='favorite'
19:05:54.0297 T:3074115360 M:536018944   DEBUG: CAppsWindowState::SetApplicationType - Handling click on [All=ALL] (bapps)
19:05:54.0297 T:3074115360 M:536018944   DEBUG: CBrowseWindowSource::ClearItems, clear source, path = appbox://all/ (browse)
19:05:54.0297 T:3074115360 M:536018944   DEBUG: CBrowseWindowSource::ClearItems, clear source, path = apps://all/ (browse)
19:05:54.0298 T:3074115360 M:536018944   DEBUG: CBrowseWindowSource::ClearItems, clear source, path = appbox://all/repository (browse)
19:05:54.0298 T:3074115360 M:536023040   DEBUG: CBrowseWindowSource::RequestItems, source base path = apps://all/, requested path = apps://all/, for window id = 10482 (browse)
19:05:54.0299 T:3074115360 M:536023040   DEBUG: CItemLoader::AddControl, window = 10482, control = 0, path = apps://all/ (browse)
19:05:54.0299 T:3074115360 M:536023040   DEBUG: CItemLoader::AddControl, 3 GUI_MSG_LOADING, window = 10482, control = 0 (basecontainer)
19:05:54.0299 T:3074115360 M:536023040   DEBUG: CGUIWindowBoxeeBrowse::OnMessage, 4 GUI_MSG_LOADING, window = 10482, control = -1 (basecontainer) (browse)
19:05:54.0299 T:2978687888 M:536014848   DEBUG: CGetDirectoryJob::DoWork, NEWUI, loading directory, path = apps://all/
19:05:54.0300 T:2978687888 M:536014848   DEBUG: CAppsDirectory::GetDirectory - Enter function with [strPath=apps://all/] (bapps)
19:05:54.0300 T:2978687888 M:536014848   DEBUG: Boxee: 22/02/11 18:05:54.3008#DEBUG#bxappboxmanager.cpp:445(GetRepositories)#BXApplicationsManager::GetRepositories - Enter function (repos)
19:05:54.0301 T:2978687888 M:536014848   DEBUG: Boxee: 22/02/11 18:05:54.3013#DEBUG#bxappboxmanager.cpp:478(GetRepositories)#BXApplicationsManager::GetRepositories - Exit function. After set [RepositoriesListSize=2] (repos)
19:05:54.0301 T:2978687888 M:536014848   DEBUG: CAppRepositories::Load - Going to add Repository [id=com.erikkristensen][name=Erik Kristensen's Boxee Repository][url=http://erikkristensen.com/project/boxeerepo] (repos)
19:05:54.0301 T:2978687888 M:536014848   DEBUG: CAppRepositories::Load - Going to add Repository [id=info.mimediacenter][name=Mi mediacenter][url=http://www.mimediacenter.info/boxee] (repos)
19:05:54.0302 T:2978687888 M:536014848   DEBUG: Boxee: 22/02/11 18:05:54.3028#DEBUG#bxappboxmanager.cpp:117(GetAppBoxBoxeeApplications)#BXAppBoxManager::GetAppBoxBoxeeApplications - Enter function (appbox)
19:05:54.0311 T:2978687888 M:536014848   DEBUG: Boxee: 22/02/11 18:05:54.3111#DEBUG#bxappboxmanager.cpp:150(GetAppBoxBoxeeApplications)#BXAppBoxManager::GetAppBoxBoxeeApplications - Exit function (appbox)
19:05:54.0329 T:3074115360 M:536014848   DEBUG: CItemLoader::AddControl, added directory job, path = apps://all/ (browse)
19:05:54.0403 T:2978687888 M:530681856   DEBUG: CAppRepository::GetApps - Got [178] apps out of [178]. [repoId=tv.boxee][repositoryType=BOXEE] (appbox)
19:05:54.0438 T:2978687888 M:524967936   DEBUG: Boxee: 22/02/11 18:05:54.4381#DEBUG#bxappboxmanager.cpp:231(GetAppBox3rdPartyRepositoryApplications)#BXAppBoxManager::GetAppBox3rdPartyRepositoryApplications - Enter function. [repositoryId=com.erikkristensen][IsRepositoriesMapLoaded=1] (repos)
19:05:54.0438 T:2978687888 M:524967936   DEBUG: Boxee: 22/02/11 18:05:54.4389#DEBUG#bxappboxmanager.cpp:273(GetAppBox3rdPartyRepositoryApplications)#BXAppBoxManager::GetAppBox3rdPartyRepositoryApplications - Exit function. [repositoryId=com.erikkristensen] (repos)
19:05:54.0440 T:2978687888 M:524967936   DEBUG: CAppRepository::GetApps - Got [2] apps out of [2]. [repoId=com.erikkristensen][repositoryType=3rd-Party] (appbox)
19:05:54.0440 T:2978687888 M:524967936   DEBUG: Boxee: 22/02/11 18:05:54.4405#DEBUG#bxappboxmanager.cpp:231(GetAppBox3rdPartyRepositoryApplications)#BXAppBoxManager::GetAppBox3rdPartyRepositoryApplications - Enter function. [repositoryId=info.mimediacenter][IsRepositoriesMapLoaded=1] (repos)
19:05:54.0443 T:2978687888 M:524206080   DEBUG: Boxee: 22/02/11 18:05:54.4434#DEBUG#bxappboxmanager.cpp:273(GetAppBox3rdPartyRepositoryApplications)#BXAppBoxManager::GetAppBox3rdPartyRepositoryApplications - Exit function. [repositoryId=info.mimediacenter] (repos)
19:05:54.0445 T:2978687888 M:524206080   DEBUG: CAppRepository::GetApps - Got [6] apps out of [6]. [repoId=info.mimediacenter][repositoryType=3rd-Party] (appbox)
19:05:54.0447 T:2978687888 M:524206080 WARNING: CAppsDirectory::HandleAppRequest - Got [186] apps descriptors. [strPath=apps://all/] (bapps)
19:05:54.0447 T:2978687888 M:524206080   DEBUG: CAppsDirectory::GetAppDirectoryByType - Enter function with [strType=all][strSearch=] (bapps)
19:05:54.0481 T:2978687888 M:519766016    INFO: updating 's information in apps.xml
19:05:54.0564 T:2978687888 M:519004160   DEBUG: deleting info.mimediacenter.pelisalacarta from apps map
19:05:54.0564 T:2978687888 M:519004160   DEBUG: deleting info.mimediacenter.tvalacarta from apps map
19:05:54.0564 T:2978687888 M:519004160   DEBUG: deleting browser2 from apps map
19:05:54.0565 T:2978687888 M:519004160   DEBUG: deleting accuweather from apps map
19:05:54.0565 T:2978687888 M:519004160   DEBUG: deleting revision3 from apps map
19:05:54.0565 T:2978687888 M:519004160   DEBUG: deleting youtube from apps map
19:05:54.0565 T:2978687888 M:519004160   DEBUG: deleting mubi from apps map
19:05:54.0566 T:2978687888 M:519004160   DEBUG: deleting ustream from apps map
19:05:54.0566 T:2978687888 M:519004160   DEBUG: deleting tnt from apps map
19:05:54.0566 T:2978687888 M:519004160   DEBUG: deleting com.erikkristensen.unboxed from apps map
19:05:54.0566 T:2978687888 M:519004160   DEBUG: deleting com.erikkristensen.mythboxee from apps map
19:05:54.0566 T:2978687888 M:519004160   DEBUG: deleting oneminute from apps map
19:05:54.0567 T:2978687888 M:519004160   DEBUG: deleting yui-theater from apps map
19:05:54.0568 T:2978687888 M:519131136   DEBUG: reading apps.xml file
19:05:54.0568 T:2978687888 M:519131136   DEBUG: CAppsDirectory::GetDirectoryByType - [4/186] - After adding [locaPath=special://home/apps/accuweather] to set. [SetSize=1] (bapps)
19:05:54.0569 T:2978687888 M:519131136   DEBUG: CAppsDirectory::GetDirectoryByType - [23/186] - After adding [locaPath=special://home/apps/browser2] to set. [SetSize=2] (bapps)
19:05:54.0570 T:2978687888 M:519131136   DEBUG: CAppsDirectory::GetDirectoryByType - [52/186] - After adding [locaPath=special://home/apps/flickr] to set. [SetSize=3] (bapps)
19:05:54.0571 T:2978687888 M:519131136   DEBUG: CAppsDirectory::GetDirectoryByType - [71/186] - After adding [locaPath=special://home/apps/info.mimediacenter.tvalacarta] to set. [SetSize=4] (bapps)
19:05:54.0572 T:2978687888 M:519131136   DEBUG: CAppsDirectory::GetDirectoryByType - [122/186] - After adding [locaPath=special://home/apps/revision3] to set. [SetSize=5] (bapps)
19:05:54.0573 T:2978687888 M:519131136   DEBUG: CAppsDirectory::GetDirectoryByType - [128/186] - After adding [locaPath=special://home/apps/rssfeeds] to set. [SetSize=6] (bapps)
19:05:54.0574 T:2978687888 M:519131136   DEBUG: CAppsDirectory::GetDirectoryByType - [166/186] - After adding [locaPath=special://home/apps/ustream] to set. [SetSize=7] (bapps)
19:05:54.0574 T:2978687888 M:519131136   DEBUG: CAppsDirectory::GetDirectoryByType - [185/186] - After adding [locaPath=special://home/apps/youtube] to set. [SetSize=8] (bapps)
19:05:54.0575 T:2978687888 M:519131136   DEBUG: CAppsDirectory::GetDirectoryByType - Num of apps found [8] (bapps)
19:05:54.0575 T:2978687888 M:519131136   DEBUG: CAppsDirectory::GetAppDirectoryByType, going to call AddTestApps searching for apps in user's lib
19:05:55.0526 T:2978687888 M:536641536    INFO: reply for storage.GetAllDevices - {"class":"storage","devices":[{"instance":0,"label":"Iomega_HDD","path":"/tmp/mnt/CA5CEACD5CEAB37D"}],"method":"GetAllDevices"}
19:05:55.0527 T:2978687888 M:536641536   DEBUG: CAppsDirectory::GetAppDirectoryByType, going to call AddTestApps on path: /tmp/mnt/CA5CEACD5CEAB37D/BoxeeApps/
19:05:55.0528 T:2978687888 M:536641536   DEBUG: GetDirectory - Error getting /tmp/mnt/CA5CEACD5CEAB37D/BoxeeApps/
19:05:55.0540 T:3074115360 M:536657920   DEBUG: CBrowseWindowSourceController::BindItems received 8 items for path apps://all/ (browse)
19:05:55.0541 T:3074115360 M:536657920   DEBUG: CBrowseWindowSource::BindItems, source id installedappssource received 8 items for path apps://all/ (browse)
19:05:55.0541 T:3074115360 M:536657920   DEBUG: CBrowseWindowSourceController::MergeSources, processing single source (browse) (merge)
19:05:55.0544 T:3074115360 M:536657920   DEBUG: CGUIBaseContainer::CGUIBaseContainer,  GUI_MSG_LABEL_BIND, 55 (basecontainer)
19:05:55.0576 T:2978687888 M:536666112   DEBUG: Creating thumb from: http://dir.boxee.tv/apps/accuweather/images/thumb.png as: special://masterprofile/profiles/jvr1976/Thumbnails/Pictures/1/10b66642.tbn
19:05:55.0578 T:2978687888 M:536670208   DEBUG: update ref map. url http://dir.boxee.tv/apps/accuweather/images/thumb.png new ref_count 1  progress 0 (hcm)
19:05:55.0578 T:2978687888 M:536670208   DEBUG: CHttpCacheManager::StartCachingURL   push http://dir.boxee.tv/apps/accuweather/images/thumb.png to  m_references (hcm)
19:05:55.0579 T:2978687888 M:536670208   DEBUG: FileCurl::Open(0xb18b0a14) http://dir.boxee.tv/apps/accuweather/images/thumb.png
19:05:55.0584 T:2978687888 M:536670208   DEBUG: easy_aquire - Created session to http://dir.boxee.tv
19:05:55.0588 T:3035601808 M:536662016   DEBUG: Creating thumb from: http://dir.boxee.tv/apps/rssfeeds/thumb.png as: special://masterprofile/profiles/jvr1976/Thumbnails/Pictures/6/642c553f.tbn
19:05:55.0591 T:3035601808 M:536662016   DEBUG: update ref map. url http://dir.boxee.tv/apps/rssfeeds/thumb.png new ref_count 1  progress 0 (hcm)
19:05:55.0591 T:3035601808 M:536662016   DEBUG: CHttpCacheManager::StartCachingURL   push http://dir.boxee.tv/apps/rssfeeds/thumb.png to  m_references (hcm)
19:05:55.0592 T:3035601808 M:536662016   DEBUG: FileCurl::Open(0xb4ef7a14) http://dir.boxee.tv/apps/rssfeeds/thumb.png
19:05:55.0597 T:3035601808 M:536662016   DEBUG: easy_aquire - Created session to http://dir.boxee.tv
19:05:55.0601 T:3022420880 M:536653824   DEBUG: Creating thumb from: http://dir.boxee.tv/apps/flickr/thumb.png as: special://masterprofile/profiles/jvr1976/Thumbnails/Pictures/f/f417a759.tbn
19:05:55.0604 T:3022420880 M:536653824   DEBUG: update ref map. url http://dir.boxee.tv/apps/flickr/thumb.png new ref_count 1  progress 0 (hcm)
19:05:55.0605 T:3022420880 M:536653824   DEBUG: CHttpCacheManager::StartCachingURL   push http://dir.boxee.tv/apps/flickr/thumb.png to  m_references (hcm)
19:05:55.0605 T:3022420880 M:536653824   DEBUG: FileCurl::Open(0xb4265a14) http://dir.boxee.tv/apps/flickr/thumb.png
19:05:55.0610 T:3022420880 M:536653824   DEBUG: easy_aquire - Created session to http://dir.boxee.tv
19:05:55.0614 T:3038759824 M:536645632   DEBUG: Creating thumb from: http://dir.boxee.tv/apps/browser/thumb.png as: special://masterprofile/profiles/jvr1976/Thumbnails/Pictures/f/ffe72735.tbn
19:05:55.0616 T:3038759824 M:536645632   DEBUG: update ref map. url http://dir.boxee.tv/apps/browser/thumb.png new ref_count 1  progress 0 (hcm)
19:05:55.0617 T:3038759824 M:536645632   DEBUG: CHttpCacheManager::StartCachingURL   push http://dir.boxee.tv/apps/browser/thumb.png to  m_references (hcm)
19:05:55.0617 T:3038759824 M:536645632   DEBUG: FileCurl::Open(0xb51faa14) http://dir.boxee.tv/apps/browser/thumb.png
19:05:55.0622 T:3038759824 M:536645632   DEBUG: easy_aquire - Created session to http://dir.boxee.tv
19:05:55.0626 T:3040865168 M:536637440   DEBUG: Creating thumb from: http://dir.boxee.tv/apps/revision3/thumb.png as: special://masterprofile/profiles/jvr1976/Thumbnails/Pictures/6/6b096b7e.tbn
19:05:55.0628 T:3040865168 M:536637440   DEBUG: update ref map. url http://dir.boxee.tv/apps/revision3/thumb.png new ref_count 1  progress 0 (hcm)
19:05:55.0628 T:3040865168 M:536637440   DEBUG: CHttpCacheManager::StartCachingURL   push http://dir.boxee.tv/apps/revision3/thumb.png to  m_references (hcm)
19:05:55.0629 T:3040865168 M:536637440   DEBUG: FileCurl::Open(0xb53fca14) http://dir.boxee.tv/apps/revision3/thumb.png
19:05:55.0635 T:3040865168 M:536637440   DEBUG: easy_aquire - Created session to http://dir.boxee.tv
19:05:55.0933 T:2978687888 M:536621056   DEBUG: Open - filesize: 47093
19:05:55.0939 T:3022420880 M:536621056   DEBUG: Open - filesize: 10085
19:05:55.0978 T:3033766800 M:536621056   DEBUG: no gui sound for 2 seconds. pausing device
19:05:56.0046 T:3035601808 M:536621056   DEBUG: Open - filesize: 35252
19:05:56.0070 T:3038759824 M:536637440   DEBUG: Open - filesize: 24289
19:05:56.0093 T:3040865168 M:536637440   DEBUG: Open - filesize: 105016
19:05:56.0228 T:3022420880 M:536637440   DEBUG: FileCurl::Close(0xb4265a14) http://dir.boxee.tv/apps/flickr/thumb.png
19:05:56.0228 T:3022420880 M:536641536   DEBUG: CURL STATS: done with <dir.boxee.tv>. 9.85k in: 0.62 sec. dns: 0.03 sec. connect: 0.18 s. pretransfer: 0.18 s. speed: 15.96 kbytes/sec.
19:05:56.0231 T:3022420880 M:536653824   DEBUG: update ref map. url http://dir.boxee.tv/apps/flickr/thumb.png new ref_count 1  progress 0 (hcm)
19:05:56.0233 T:3022420880 M:536653824   DEBUG: insert http://dir.boxee.tv/apps/flickr/thumb.png to the database (hcm)
19:05:56.0235 T:3022420880 M:536653824   DEBUG: update ref map. url http://dir.boxee.tv/apps/flickr/thumb.png new ref_count 0  progress 0 (hcm)
19:05:56.0236 T:3022420880 M:536653824   DEBUG: Creating album thumb from memory: special://masterprofile/profiles/jvr1976/Thumbnails/Pictures/f/f417a759.tbn
19:05:56.0347 T:3022420880 M:536662016   DEBUG: TouchThumbnailFile touch thumbnail file special://masterprofile/profiles/jvr1976/Thumbnails/Pictures/f/f417a759.tbn size 10085  (thm)
19:05:56.0370 T:3022420880 M:536645632   DEBUG: TouchThumbnailFile touch thumbnail file special://masterprofile/profiles/jvr1976/Thumbnails/Pictures/f/f417a759.tbn doesn't exist - add new  total 15 files average time 1298397899 (thm)
19:05:56.0385 T:3022420880 M:536629248   DEBUG: CDirectoryCache::UpdateItem, CACHE updating dirPath = apps://all/ , cacheId =  , item = Flickr, path = app://flickr/ (dircache)
19:05:56.0385 T:3022420880 M:536629248   DEBUG: CDirectoryCache::UpdateItem, found the relevant dir - strDirPath = apps://all (dircache)
19:05:56.0386 T:3022420880 M:536629248   DEBUG: CDirectoryCache::UpdateItem, found the item - strItemPath = app://flickr/ (dircache)
19:05:56.0388 T:3022420880 M:536637440   DEBUG: CDirectoryCache::UpdateItem, CACHE updating dirPath = apps://all/ , cacheId =  , item = tvalacarta, path = app://info.mimediacenter.tvalacarta/ (dircache)
19:05:56.0389 T:3022420880 M:536637440   DEBUG: CDirectoryCache::UpdateItem, found the relevant dir - strDirPath = apps://all (dircache)
19:05:56.0389 T:3022420880 M:536637440   DEBUG: CDirectoryCache::UpdateItem, found the item - strItemPath = app://info.mimediacenter.tvalacarta/ (dircache)
19:05:56.0392 T:3022420880 M:536637440   DEBUG: Creating thumb from: http://dir.boxee.tv/apps/ustream/thumb.png as: special://masterprofile/profiles/jvr1976/Thumbnails/Pictures/a/a5438487.tbn
19:05:56.0418 T:3022420880 M:536637440   DEBUG: update ref map. url http://dir.boxee.tv/apps/ustream/thumb.png new ref_count 1  progress 0 (hcm)
19:05:56.0418 T:3022420880 M:536637440   DEBUG: CHttpCacheManager::StartCachingURL   push http://dir.boxee.tv/apps/ustream/thumb.png to  m_references (hcm)
19:05:56.0419 T:3022420880 M:536637440   DEBUG: FileCurl::Open(0xb4265a14) http://dir.boxee.tv/apps/ustream/thumb.png
19:05:56.0518 T:3038759824 M:536645632   DEBUG: FileCurl::Close(0xb51faa14) http://dir.boxee.tv/apps/browser/thumb.png
19:05:56.0519 T:3038759824 M:536645632   DEBUG: CURL STATS: done with <dir.boxee.tv>. 23.72k in: 0.89 sec. dns: 0.15 sec. connect: 0.29 s. pretransfer: 0.29 s. speed: 26.52 kbytes/sec.
19:05:56.0521 T:3038759824 M:536670208   DEBUG: update ref map. url http://dir.boxee.tv/apps/browser/thumb.png new ref_count 1  progress 0 (hcm)
19:05:56.0523 T:3038759824 M:536653824   DEBUG: insert http://dir.boxee.tv/apps/browser/thumb.png to the database (hcm)
19:05:56.0525 T:3038759824 M:536653824   DEBUG: update ref map. url http://dir.boxee.tv/apps/browser/thumb.png new ref_count 0  progress 0 (hcm)
19:05:56.0527 T:3038759824 M:536653824   DEBUG: Creating album thumb from memory: special://masterprofile/profiles/jvr1976/Thumbnails/Pictures/f/ffe72735.tbn
19:05:56.0567 T:3022420880 M:536670208   DEBUG: Open - filesize: 29415
19:05:56.0626 T:3038759824 M:536682496   DEBUG: TouchThumbnailFile touch thumbnail file special://masterprofile/profiles/jvr1976/Thumbnails/Pictures/f/ffe72735.tbn size 24289  (thm)
19:05:56.0651 T:3035601808 M:536674304   DEBUG: FileCurl::Close(0xb4ef7a14) http://dir.boxee.tv/apps/rssfeeds/thumb.png
19:05:56.0653 T:3035601808 M:536674304   DEBUG: CURL STATS: done with <dir.boxee.tv>. 34.43k in: 1.05 sec. dns: 0.15 sec. connect: 0.30 s. pretransfer: 0.30 s. speed: 32.69 kbytes/sec.
19:05:56.0655 T:3035601808 M:536715264   DEBUG: update ref map. url http://dir.boxee.tv/apps/rssfeeds/thumb.png new ref_count 1  progress 0 (hcm)
19:05:56.0656 T:3035601808 M:536715264   DEBUG: insert http://dir.boxee.tv/apps/rssfeeds/thumb.png to the database (hcm)
19:05:56.0657 T:3035601808 M:536715264   DEBUG: update ref map. url http://dir.boxee.tv/apps/rssfeeds/thumb.png new ref_count 0  progress 0 (hcm)
19:05:56.0658 T:3035601808 M:536715264   DEBUG: Creating album thumb from memory: special://masterprofile/profiles/jvr1976/Thumbnails/Pictures/6/642c553f.tbn
19:05:56.0673 T:2978687888 M:536715264   DEBUG: FileCurl::Close(0xb18b0a14) http://dir.boxee.tv/apps/accuweather/images/thumb.png
19:05:56.0674 T:2978687888 M:536715264   DEBUG: CURL STATS: done with <dir.boxee.tv>. 45.99k in: 1.09 sec. dns: 0.06 sec. connect: 0.20 s. pretransfer: 0.20 s. speed: 42.27 kbytes/sec.
19:05:56.0676 T:2978687888 M:536764416   DEBUG: update ref map. url http://dir.boxee.tv/apps/accuweather/images/thumb.png new ref_count 1  progress 0 (hcm)
19:05:56.0677 T:2978687888 M:536764416   DEBUG: insert http://dir.boxee.tv/apps/accuweather/images/thumb.png to the database (hcm)
19:05:56.0679 T:2978687888 M:536764416   DEBUG: update ref map. url http://dir.boxee.tv/apps/accuweather/images/thumb.png new ref_count 0  progress 0 (hcm)
19:05:56.0680 T:2978687888 M:536764416   DEBUG: Creating album thumb from memory: special://masterprofile/profiles/jvr1976/Thumbnails/Pictures/1/10b66642.tbn
19:05:56.0721 T:3038759824 M:536776704   DEBUG: TouchThumbnailFile touch thumbnail file special://masterprofile/profiles/jvr1976/Thumbnails/Pictures/f/ffe72735.tbn doesn't exist - add new  total 16 files average time 1298397902 (thm)
19:05:56.0724 T:3038759824 M:536776704   DEBUG: CDirectoryCache::UpdateItem, CACHE updating dirPath = apps://all/ , cacheId =  , item = Boxee Browser, path = app://browser2/ (dircache)
19:05:56.0724 T:3038759824 M:536776704   DEBUG: CDirectoryCache::UpdateItem, found the relevant dir - strDirPath = apps://all (dircache)
19:05:56.0725 T:3038759824 M:536776704   DEBUG: CDirectoryCache::UpdateItem, found the item - strItemPath = app://browser2/ (dircache)
19:05:56.0726 T:3038759824 M:536776704   DEBUG: Creating thumb from: http://dir.boxee.tv/apps/youtubelean/thumb.png as: special://masterprofile/profiles/jvr1976/Thumbnails/Pictures/4/4871af4d.tbn
19:05:56.0728 T:3038759824 M:536776704   DEBUG: update ref map. url http://dir.boxee.tv/apps/youtubelean/thumb.png new ref_count 1  progress 0 (hcm)
19:05:56.0729 T:3038759824 M:536776704   DEBUG: CHttpCacheManager::StartCachingURL   push http://dir.boxee.tv/apps/youtubelean/thumb.png to  m_references (hcm)
19:05:56.0729 T:3038759824 M:536776704   DEBUG: FileCurl::Open(0xb51faa14) http://dir.boxee.tv/apps/youtubelean/thumb.png
19:05:56.0866 T:3022420880 M:535654400   DEBUG: FileCurl::Close(0xb4265a14) http://dir.boxee.tv/apps/ustream/thumb.png
19:05:56.0866 T:3022420880 M:535654400   DEBUG: CURL STATS: done with <dir.boxee.tv>. 28.73k in: 0.44 sec. dns: 0.00 sec. connect: 0.00 s. pretransfer: 0.00 s. speed: 64.57 kbytes/sec.
19:05:56.0868 T:3022420880 M:535687168   DEBUG: update ref map. url http://dir.boxee.tv/apps/ustream/thumb.png new ref_count 1  progress 0 (hcm)
19:05:56.0869 T:3022420880 M:535687168   DEBUG: insert http://dir.boxee.tv/apps/ustream/thumb.png to the database (hcm)
19:05:56.0871 T:3022420880 M:535687168   DEBUG: update ref map. url http://dir.boxee.tv/apps/ustream/thumb.png new ref_count 0  progress 0 (hcm)
19:05:56.0871 T:3022420880 M:535687168   DEBUG: Creating album thumb from memory: special://masterprofile/profiles/jvr1976/Thumbnails/Pictures/a/a5438487.tbn
19:05:56.0879 T:3038759824 M:535687168   DEBUG: Open - filesize: 18662
19:05:56.0961 T:3022420880 M:535683072   DEBUG: TouchThumbnailFile touch thumbnail file special://masterprofile/profiles/jvr1976/Thumbnails/Pictures/a/a5438487.tbn size 29415  (thm)
19:05:56.0990 T:3040865168 M:535158784   DEBUG: FileCurl::Close(0xb53fca14) http://dir.boxee.tv/apps/revision3/thumb.png
19:05:56.0991 T:3040865168 M:535162880   DEBUG: CURL STATS: done with <dir.boxee.tv>. 102.55k in: 1.35 sec. dns: 0.01 sec. connect: 0.16 s. pretransfer: 0.16 s. speed: 75.70 kbytes/sec.
19:05:56.0994 T:3040865168 M:535269376   DEBUG: update ref map. url http://dir.boxee.tv/apps/revision3/thumb.png new ref_count 1  progress 0 (hcm)
19:05:56.0996 T:3040865168 M:535269376   DEBUG: insert http://dir.boxee.tv/apps/revision3/thumb.png to the database (hcm)
19:05:56.0997 T:3040865168 M:535269376   DEBUG: update ref map. url http://dir.boxee.tv/apps/revision3/thumb.png new ref_count 0  progress 0 (hcm)
19:05:56.0998 T:3040865168 M:535269376   DEBUG: Creating album thumb from memory: special://masterprofile/profiles/jvr1976/Thumbnails/Pictures/6/6b096b7e.tbn
19:05:57.0031 T:3038759824 M:535285760   DEBUG: FileCurl::Close(0xb51faa14) http://dir.boxee.tv/apps/youtubelean/thumb.png
19:05:57.0033 T:3038759824 M:535285760   DEBUG: CURL STATS: done with <dir.boxee.tv>. 18.22k in: 0.30 sec. dns: 0.00 sec. connect: 0.00 s. pretransfer: 0.00 s. speed: 60.61 kbytes/sec.
19:05:57.0035 T:3038759824 M:535306240   DEBUG: update ref map. url http://dir.boxee.tv/apps/youtubelean/thumb.png new ref_count 1  progress 0 (hcm)
19:05:57.0037 T:3038759824 M:535306240   DEBUG: insert http://dir.boxee.tv/apps/youtubelean/thumb.png to the database (hcm)
19:05:57.0038 T:3038759824 M:535310336   DEBUG: update ref map. url http://dir.boxee.tv/apps/youtubelean/thumb.png new ref_count 0  progress 0 (hcm)
19:05:57.0039 T:3038759824 M:535310336   DEBUG: Creating album thumb from memory: special://masterprofile/profiles/jvr1976/Thumbnails/Pictures/4/4871af4d.tbn
19:05:57.0078 T:3022420880 M:535187456   DEBUG: TouchThumbnailFile touch thumbnail file special://masterprofile/profiles/jvr1976/Thumbnails/Pictures/a/a5438487.tbn doesn't exist - add new  total 17 files average time 1298397905 (thm)
19:05:57.0080 T:3022420880 M:535187456   DEBUG: CDirectoryCache::UpdateItem, CACHE updating dirPath = apps://all/ , cacheId =  , item = Ustream Lounge, path = app://ustream/ (dircache)
19:05:57.0081 T:3022420880 M:535187456   DEBUG: CDirectoryCache::UpdateItem, found the relevant dir - strDirPath = apps://all (dircache)
19:05:57.0081 T:3022420880 M:535187456   DEBUG: CDirectoryCache::UpdateItem, found the item - strItemPath = app://ustream/ (dircache)
19:05:57.0176 T:3035601808 M:535240704   DEBUG: TouchThumbnailFile touch thumbnail file special://masterprofile/profiles/jvr1976/Thumbnails/Pictures/6/642c553f.tbn size 35252  (thm)
19:05:57.0250 T:3035601808 M:534597632   DEBUG: TouchThumbnailFile touch thumbnail file special://masterprofile/profiles/jvr1976/Thumbnails/Pictures/6/642c553f.tbn doesn't exist - add new  total 18 files average time 1298397907 (thm)
19:05:57.0252 T:3035601808 M:534597632   DEBUG: CDirectoryCache::UpdateItem, CACHE updating dirPath = apps://all/ , cacheId =  , item = RSS Feeds, path = app://rssfeeds/ (dircache)
19:05:57.0253 T:3035601808 M:534597632   DEBUG: CDirectoryCache::UpdateItem, found the relevant dir - strDirPath = apps://all (dircache)
19:05:57.0253 T:3035601808 M:534597632   DEBUG: CDirectoryCache::UpdateItem, found the item - strItemPath = app://rssfeeds/ (dircache)
19:05:57.0333 T:3040865168 M:534634496   DEBUG: TouchThumbnailFile touch thumbnail file special://masterprofile/profiles/jvr1976/Thumbnails/Pictures/6/6b096b7e.tbn size 105016  (thm)
19:05:57.0383 T:3038759824 M:534630400   DEBUG: TouchThumbnailFile touch thumbnail file special://masterprofile/profiles/jvr1976/Thumbnails/Pictures/4/4871af4d.tbn size 18662  (thm)
19:05:57.0386 T:3040865168 M:534630400   DEBUG: TouchThumbnailFile touch thumbnail file special://masterprofile/profiles/jvr1976/Thumbnails/Pictures/6/6b096b7e.tbn doesn't exist - add new  total 19 files average time 1298397909 (thm)
19:05:57.0388 T:3040865168 M:534630400   DEBUG: CDirectoryCache::UpdateItem, CACHE updating dirPath = apps://all/ , cacheId =  , item = revision3, path = app://revision3/ (dircache)
19:05:57.0389 T:3040865168 M:534630400   DEBUG: CDirectoryCache::UpdateItem, found the relevant dir - strDirPath = apps://all (dircache)
19:05:57.0410 T:3040865168 M:534659072   DEBUG: CDirectoryCache::UpdateItem, found the item - strItemPath = app://revision3/ (dircache)
19:05:57.0430 T:3038759824 M:534667264   DEBUG: TouchThumbnailFile touch thumbnail file special://masterprofile/profiles/jvr1976/Thumbnails/Pictures/4/4871af4d.tbn doesn't exist - add new  total 20 files average time 1298397911 (thm)
19:05:57.0434 T:3038759824 M:534667264   DEBUG: CDirectoryCache::UpdateItem, CACHE updating dirPath = apps://all/ , cacheId =  , item = YouTube Leanback, path = app://youtube/ (dircache)
19:05:57.0434 T:3038759824 M:534667264   DEBUG: CDirectoryCache::UpdateItem, found the relevant dir - strDirPath = apps://all (dircache)
19:05:57.0435 T:3038759824 M:534667264   DEBUG: CDirectoryCache::UpdateItem, found the item - strItemPath = app://youtube/ (dircache)
19:05:57.0463 T:2978687888 M:534695936   DEBUG: TouchThumbnailFile touch thumbnail file special://masterprofile/profiles/jvr1976/Thumbnails/Pictures/1/10b66642.tbn size 47093  (thm)
19:05:57.0487 T:2978687888 M:534544384   DEBUG: TouchThumbnailFile touch thumbnail file special://masterprofile/profiles/jvr1976/Thumbnails/Pictures/1/10b66642.tbn doesn't exist - add new  total 21 files average time 1298397913 (thm)
19:05:57.0489 T:2978687888 M:534560768   DEBUG: CDirectoryCache::UpdateItem, CACHE updating dirPath = apps://all/ , cacheId =  , item = AccuWeather, path = app://accuweather/ (dircache)
19:05:57.0500 T:2978687888 M:534560768   DEBUG: CDirectoryCache::UpdateItem, found the relevant dir - strDirPath = apps://all (dircache)
19:05:57.0502 T:2978687888 M:534560768   DEBUG: CDirectoryCache::UpdateItem, found the item - strItemPath = app://accuweather/ (dircache)
19:05:58.0095 T:3074115360 M:533442560   DEBUG: SDLKeyboard: scancode: 106, sym: 275, unicode: 0, modifier: 0
19:05:58.0095 T:3074115360 M:533442560   DEBUG: CApplication::OnKey - [key=61479][window=10482][action=2]
19:05:58.0095 T:3074115360 M:533442560   DEBUG: OnKey: 61479 pressed, action is 2
19:06:00.0134 T:3033766800 M:533307392   DEBUG: no gui sound for 2 seconds. pausing device
19:06:02.0323 T:3074115360 M:533307392   DEBUG: (dbg) FreeMem 520808/644016 Kb, FPS 50.0, CPU0: 39.1%  Loader Q:[0] Textures:[68 (23.18 M)] SERVER: [67.225.149.139] ver: 1.0.4.17443
19:06:02.0324 T:3074115360 M:533307392   DEBUG: (dbg)
19:06:03.0774 T:3074115360 M:533307392   DEBUG: SDLKeyboard: scancode: 28, sym: 13, unicode: 0, modifier: 0
19:06:03.0775 T:3074115360 M:533307392   DEBUG: CApplication::OnKey - [key=61453][window=10482][action=7]
19:06:03.0775 T:3074115360 M:533307392   DEBUG: OnKey: 61453 pressed, action is 7
19:06:03.0777 T:3074115360 M:533307392   DEBUG: CGUIWindowBoxeeBrowse::OnMessage, GUI_MSG_CLICKED, action = 7 (browse)
19:06:03.0778 T:3074115360 M:533307392   DEBUG: CGUIWindowBoxeeBrowseApps::OnClick - Enter function with [item=1] (bapps)(browse)
19:06:03.0778 T:3074115360 M:533307392   DEBUG: ============================FileItem Dump Start===================================
19:06:03.0778 T:3074115360 M:533307392   DEBUG: Is Folder: false
19:06:03.0779 T:3074115360 M:533307392   DEBUG: Is Playable Folder: false
19:06:03.0779 T:3074115360 M:533307392   DEBUG: Is Parent Folder: false
19:06:03.0779 T:3074115360 M:533307392   DEBUG: Label: tvalacarta
19:06:03.0779 T:3074115360 M:533307392   DEBUG: Label2:
19:06:03.0780 T:3074115360 M:533307392   DEBUG: path: app://info.mimediacenter.tvalacarta/
19:06:03.0780 T:3074115360 M:533307392   DEBUG: Label preformatted: false
19:06:03.0780 T:3074115360 M:533307392   DEBUG: Thumb: special://masterprofile/profiles/jvr1976/Thumbnails/Pictures/4/404c62ff.tbn
19:06:03.0781 T:3074115360 M:533307392   DEBUG: Icon: DefaultFile.png
19:06:03.0781 T:3074115360 M:533307392   DEBUG: Title:
19:06:03.0781 T:3074115360 M:533307392   DEBUG: m_contenttype:
19:06:03.0781 T:3074115360 M:533307392   DEBUG: m_extrainfo:
19:06:03.0781 T:3074115360 M:533307392   DEBUG: Selected: false
19:06:03.0782 T:3074115360 M:533307392   DEBUG: Size: 0
19:06:03.0782 T:3074115360 M:533307392   DEBUG: m_iprogramCount: 0
19:06:03.0783 T:3074115360 M:533311488   DEBUG: m_idepth: 1
19:06:03.0783 T:3074115360 M:533311488   DEBUG: m_lStartOffset: 0
19:06:03.0783 T:3074115360 M:533311488   DEBUG: m_lEndOffset: 0
19:06:03.0783 T:3074115360 M:533311488   DEBUG: DVD Label:
19:06:03.0784 T:3074115360 M:533311488   DEBUG: OverlayIcon: 0
19:06:03.0784 T:3074115360 M:533311488   DEBUG: m_iDriveType: 0
19:06:03.0784 T:3074115360 M:533311488   DEBUG: m_bCanQueue: true
19:06:03.0784 T:3074115360 M:533311488   DEBUG: m_bIsShareOrDrive: false
19:06:03.0785 T:3074115360 M:533311488   DEBUG: m_dateTime: 1969-12-31
19:06:03.0785 T:3074115360 M:533311488   DEBUG: m_iLockMode: 0
19:06:03.0785 T:3074115360 M:533311488   DEBUG: m_strLockCode:
19:06:03.0785 T:3074115360 M:533311488   DEBUG: m_iBadPwdCount: 0
19:06:03.0785 T:3074115360 M:533311488   DEBUG: ** No video info tag
19:06:03.0786 T:3074115360 M:533311488   DEBUG: ** No music info tag
19:06:03.0786 T:3074115360 M:533311488   DEBUG: Properties (32):
19:06:03.0786 T:3074115360 M:533311488   DEBUG: [adult] -> [0]
19:06:03.0786 T:3074115360 M:533311488   DEBUG: [app-author] -> [Jesús]
19:06:03.0787 T:3074115360 M:533311488   DEBUG: [app-last-used] -> [1298197769]
19:06:03.0787 T:3074115360 M:533311488   DEBUG: [app-localpath] -> [special://home/apps/info.mimediacenter.tvalacarta]
19:06:03.0787 T:3074115360 M:533311488   DEBUG: [app-media] -> [video]
19:06:03.0787 T:3074115360 M:533311488   DEBUG: [app-popularity] -> [13]
19:06:03.0787 T:3074115360 M:533311488   DEBUG: [app-releasedate] -> [0]
19:06:03.0788 T:3074115360 M:533311488   DEBUG: [app-usage] -> [10]
19:06:03.0788 T:3074115360 M:533311488   DEBUG: [app-version] -> [3.0]
19:06:03.0788 T:3074115360 M:533311488   DEBUG: [appid] -> [info.mimediacenter.tvalacarta]
19:06:03.0788 T:3074115360 M:533311488   DEBUG: [controlId] -> [0]
19:06:03.0789 T:3074115360 M:533311488   DEBUG: [country-codes] -> [all]
19:06:03.0789 T:3074115360 M:533311488   DEBUG: [country-rel] -> [1]
19:06:03.0789 T:3074115360 M:533311488   DEBUG: [description] -> [Televisión a la carta]
19:06:03.0789 T:3074115360 M:533311488   DEBUG: [directoryPath] -> [apps://all/]
19:06:03.0790 T:3074115360 M:533311488   DEBUG: [DisplayPath] -> [app://info.mimediacenter.tvalacarta/]
19:06:03.0790 T:3074115360 M:533311488   DEBUG: [HasDescription] -> [1]
19:06:03.0790 T:3074115360 M:533311488   DEBUG: [HasNextItem] -> [1]
19:06:03.0790 T:3074115360 M:533311488   DEBUG: [HasPrevItem] -> [1]
19:06:03.0791 T:3074115360 M:533311488   DEBUG: [HasThumb] -> [1]
19:06:03.0791 T:3074115360 M:533311488   DEBUG: [index] -> [2]
19:06:03.0791 T:3074115360 M:533311488   DEBUG: [isloaded] -> [1]
19:06:03.0791 T:3074115360 M:533311488   DEBUG: [itemid] -> [112812-3]
19:06:03.0792 T:3074115360 M:533311488   DEBUG: [NextItemLabel] -> [Ustream Lounge]
19:06:03.0792 T:3074115360 M:533311488   DEBUG: [NextItemLabel2] -> []
19:06:03.0792 T:3074115360 M:533311488   DEBUG: [NextItemPath] -> [app://ustream/]
19:06:03.0793 T:3074115360 M:533311488   DEBUG: [parentPath] -> [apps://all/]
19:06:03.0793 T:3074115360 M:533311488   DEBUG: [PrevItemLabel] -> [AccuWeather]
19:06:03.0793 T:3074115360 M:533311488   DEBUG: [PrevItemLabel2] -> []
19:06:03.0793 T:3074115360 M:533311488   DEBUG: [PrevItemPath] -> [app://accuweather/]
19:06:03.0794 T:3074115360 M:533311488   DEBUG: [tags] -> []
19:06:03.0794 T:3074115360 M:533311488   DEBUG: [windowId] -> [10482]
19:06:03.0794 T:3074115360 M:533311488   DEBUG: ** No external file item
19:06:03.0795 T:3074115360 M:533311488   DEBUG: ** No additional links
19:06:03.0795 T:3074115360 M:533311488   DEBUG: ============================FileItem Dump End===================================
19:06:03.0795 T:3074115360 M:533311488   DEBUG: CGUIWindowBoxeeBrowseApps::OnClick - Going to open MediaAction with item [label=tvalacarta][path=app://info.mimediacenter.tvalacarta/] (bapps)(browse)
19:06:03.0795 T:3074115360 M:533311488   DEBUG: ------ Window Init (boxee_media_action.xml) ------
19:06:03.0796 T:3074115360 M:533311488   DEBUG: Loading skin file: boxee_media_action.xml
19:06:03.0811 T:3074115360 M:533348352   DEBUG: CGUIBaseContainer::CGUIBaseContainer, 5000 (basecontainer)
19:06:03.0831 T:3074115360 M:533348352   DEBUG: CGUIBaseContainer::CGUIBaseContainer, 6020 (basecontainer)
19:06:03.0838 T:3074115360 M:533348352   DEBUG: CGUIBaseContainer::CGUIBaseContainer, 6120 (basecontainer)
19:06:03.0853 T:3074115360 M:533348352   DEBUG: Load boxee_media_action.xml: 57.81ms
19:06:03.0856 T:3074115360 M:533348352   DEBUG: Alloc resources: 60.67ms (59.56 ms skin load)
19:06:03.0857 T:3074115360 M:533348352   ERROR: Control 6020 in window 10401 has been asked to focus, but it can't
19:06:03.0862 T:3074115360 M:533348352   DEBUG: CGUIDialogBoxeeMediaAction::BuildAppFileItemLinksList - Handling item [label=tvalacarta][appId=info.mimediacenter.tvalacarta] (bbma)
19:06:03.0863 T:3074115360 M:533348352   DEBUG: CGUIDialogBoxeeMediaAction::BuildAppFileItemLinksList - After add LAUNCH [label=Start][path=app://info.mimediacenter.tvalacarta/] for item [label=tvalacarta][appId=info.mimediacenter.tvalacarta]. [linksFileItemList=1] (bbma)
19:06:03.0863 T:3074115360 M:533348352   DEBUG: CGUIDialogBoxeeMediaAction::BuildAppFileItemLinksList - After add REMOVE [label=Remove from My Apps] for item [label=tvalacarta][appId=info.mimediacenter.tvalacarta]. [linksFileItemList=2] (bbma)
19:06:03.0864 T:3074115360 M:533348352   DEBUG: CGUIDialogBoxeeMediaAction::BuildAppFileItemLinksList - After add SORTCUT [label=Add Shortcut][type=Add Shortcut] for item [label=tvalacarta][appId=info.mimediacenter.tvalacarta]. [linksFileItemList=3] (bma)
19:06:03.0864 T:3074115360 M:533348352   DEBUG: CGUIDialogBoxeeMediaAction::InitAppItem - BuildAppFileItemLinksList returned [linksFileItemListSize=3] (bma)
19:06:03.0864 T:3074115360 M:533348352   DEBUG: CGUIDialogBoxeeMediaAction::InitAppItem - The LUANCH_BUTTON was set with item [label=Start][path=app://info.mimediacenter.tvalacarta/] (bma)
19:06:03.0865 T:3074115360 M:533348352   DEBUG: CGUIDialogBoxeeMediaAction::InitAppItem - The APP_REMOVE_BUTTON was set with item [label=Remove from My Apps][path=] (bma)
19:06:04.0715 T:3074115360 M:533094400   DEBUG: SDLKeyboard: scancode: 28, sym: 13, unicode: 0, modifier: 0
19:06:04.0715 T:3074115360 M:533094400   DEBUG: CApplication::OnKey - [key=61453][window=10401][action=7]
19:06:04.0715 T:3074115360 M:533094400   DEBUG: OnKey: 61453 pressed, action is 7
19:06:04.0717 T:3074115360 M:533094400   DEBUG: CGUIDialogBoxeeMediaAction::OnClick - Enter function with [iControl=6310]. [ListContainServerLinks=0] (bma)
19:06:04.0718 T:3074115360 M:533094400   DEBUG: CGUIDialogBoxeeMediaAction::OnClick - Handling click on [6310=APP_LUANCH_BUTTON] (bma)
19:06:04.0718 T:3074115360 M:533094400   DEBUG: ------ Window Deinit (boxee_media_action.xml) ------
19:06:04.0719 T:3074115360 M:533094400   DEBUG: CGUIDialogBoxeeMediaAction::HandleClickOnLuanchApp - Going to call CBoxeeItemLauncher::Launch with item [label=tvalacarta][path=app://info.mimediacenter.tvalacarta/] (bma)
19:06:04.0719 T:3074115360 M:533094400   DEBUG: CAppManager::Launch - Enter function with [url=app://info.mimediacenter.tvalacarta/][bReportInstall=0]. App [label=tvalacarta][path=app://info.mimediacenter.tvalacarta/] (bapps)(erez)
19:06:04.0720 T:3074115360 M:533094400    INFO: Launching app: app://info.mimediacenter.tvalacarta/ (applaunch)
19:06:04.0720 T:3074115360 M:533094400    INFO: Unable to load descriptor for app: app://info.mimediacenter.tvalacarta/, trying to install
19:06:04.0721 T:3074115360 M:533094400   DEBUG: ------ Window Init (DialogProgress.xml) ------
19:06:04.0721 T:3074115360 M:533094400   DEBUG: Loading skin file: DialogProgress.xml
19:06:04.0729 T:3074115360 M:532844544   DEBUG: Load DialogProgress.xml: 8.06ms
19:06:04.0730 T:3074115360 M:532844544   DEBUG: Alloc resources: 8.73ms (8.56 ms skin load)
19:06:04.0730 T:3074115360 M:532844544   ERROR: CGUIWindow::OnMessage - GUI_MSG_SETFOCUS - FAILED to get the control to focus for [id=10]. [WinId=10101]
19:06:05.0295 T:3035601808 M:532955136   DEBUG: thread start, auto delete: 0
19:06:05.0299 T:3035601808 M:532955136    INFO: Installing app. Downloading from URL: http://www.mimediacenter.info/boxee/download/info.mimediacenter.tvalacarta-3.0.zip.
19:06:05.0301 T:3035601808 M:532959232   DEBUG: update ref map. url http://www.mimediacenter.info/boxee/download/info.mimediacenter.tvalacarta-3.0.zip new ref_count 1  progress 0 (hcm)
19:06:05.0302 T:3035601808 M:532959232   DEBUG: CHttpCacheManager::StartCachingURL   push http://www.mimediacenter.info/boxee/download/info.mimediacenter.tvalacarta-3.0.zip to  m_references (hcm)
19:06:05.0308 T:3038759824 M:532951040   DEBUG: CProcessSlowJob::DoWork - Enter function. [server=1][internet=1][IsStoped=0] (wdpslow)
19:06:05.0308 T:3038759824 M:532951040  NOTICE: Samba is idle. Closing the remaining connections
19:06:05.0314 T:3038759824 M:532832256    INFO: CheckIdle - Closing session to http ://boxee-proxy.appspot.com (easy=0x98d0088, multi=0xac685a8)
19:06:05.0315 T:3038759824 M:532832256   DEBUG: CProcessSlowJob::DoWork - Exit function. [server=1][internet=1] (wdpslow)
19:06:05.0362 T:3074115360 M:532840448   DEBUG: CGUIDialogKaiToast::DoWork - Handling notification [Caption=][Description=Downloading the latest tvalacarta application. Please wait...][ImageFile=icons/icon_star.png][displayTime=10000] (kai)
19:06:05.0363 T:3074115360 M:532840448   DEBUG: ------ Window Init (DialogKaiToast.xml) ------
19:06:05.0363 T:3074115360 M:532840448   DEBUG: Alloc resources: 0.01ms (0.00 ms skin load)
19:06:05.0580 T:3038759824 M:532832256    INFO: CCheckInternetConnectionJob::DoWork - begin
19:06:05.0581 T:3038759824 M:532832256   DEBUG: CCheckInternetConnectionJob::DoWork - Enter function. [server=1][internet=1] (offline) 0
19:06:05.0581 T:3038759824 M:532832256   DEBUG: WatchDog::CheckIsConnectedToInternet - Enter function. [server=1][internet=1]. [fromJob=1] (offline)(wd)
19:06:05.0701 T:3038759824 M:532832256   DEBUG: WatchDog::CheckIsConnectedToInternet - Check [http://0.ping.boxee.tv/] return [1]. [server=1][internet=1]. [fromJob=1] (offline)(wd)
19:06:05.0702 T:3038759824 M:532832256   DEBUG: WatchDog::CheckIsConnectedToInternet - Exit function and return TRUE. [server=1][internet=1]. [fromJob=1] (offline)(wd)
19:06:06.0754 T:3033766800 M:532905984   DEBUG: no gui sound for 2 seconds. pausing device
19:06:09.0369 T:3035601808 M:532844544   DEBUG: update ref map. url http://www.mimediacenter.info/boxee/download/info.mimediacenter.tvalacarta-3.0.zip new ref_count 1  progress 0 (hcm)
19:06:09.0370 T:3035601808 M:532844544   DEBUG: insert http://www.mimediacenter.info/boxee/download/info.mimediacenter.tvalacarta-3.0.zip to the database (hcm)
19:06:09.0372 T:3038759824 M:532836352   DEBUG: CHttpCacheManager::HttpCacheManagerCleanup::DoWork
19:06:09.0375 T:3038759824 M:532836352   DEBUG: deleting expired cache entry <http://app.boxee.tv/api/get_recommendations> from database (hcm)
19:06:09.0376 T:3038759824 M:532832256   DEBUG: deleting expired cache entry <http://app.boxee.tv/api/get_queue> from database (hcm)
19:06:09.0378 T:3038759824 M:532828160   DEBUG: deleting expired cache entry <http://app.boxee.tv/api/get_subscriptions> from database (hcm)
19:06:09.0379 T:3038759824 M:532824064   DEBUG: deleting expired cache entry <http://app.boxee.tv/titles/sources> from database (hcm)
19:06:09.0380 T:3038759824 M:532819968   DEBUG: deleting expired cache entry <http://app.boxee.tv/api/get_repositories> from database (hcm)
19:06:09.0381 T:3038759824 M:532815872   DEBUG: deleting expired cache entry <http://app.boxee.tv/applications/popularity> from database (hcm)
19:06:09.0383 T:3038759824 M:532774912   DEBUG: deleting expired cache entry <http://app.boxee.tv/appindex/dlink.dsm380/1.0.4?adult=no&geo=es&regionsku=US&serialnumber=QL031AA001059> from database (hcm)
19:06:09.0385 T:3038759824 M:532668416   DEBUG: deleting expired cache entry <http://app.boxee.tv/api/get_featured> from database (hcm)
19:06:09.0386 T:3038759824 M:532701184   DEBUG: deleting expired cache entry <http://app.boxee.tv/api/get_applications> from database (hcm)
19:06:09.0403 T:3038759824 M:532697088   DEBUG: deleting expired cache entry <http://app.boxee.tv/api/get_services> from database (hcm)
19:06:09.0405 T:3038759824 M:532697088   DEBUG: deleting expired cache entry <http://res.boxee.tv/titles/genres?type=movie> from database (hcm)
19:06:09.0406 T:3038759824 M:532692992   DEBUG: deleting expired cache entry <http://res.boxee.tv/titles/genres?type=tv> from database (hcm)
19:06:09.0407 T:3038759824 M:532688896   DEBUG: deleting expired cache entry <http://res.boxee.tv/title/badwords> from database (hcm)
19:06:09.0409 T:3038759824 M:532684800   DEBUG: deleting expired cache entry <http://www.mimediacenter.info/boxee/index.xml> from database (hcm)
19:06:09.0410 T:3038759824 M:532680704   DEBUG: deleting expired cache entry <http://s3.boxee.tv/featured/4/3/a12df6d48256d6039dcd15b05596e4.png> from database (hcm)
19:06:09.0412 T:3038759824 M:532652032   DEBUG: deleting expired cache entry <http://s3.boxee.tv/featured/a/1/7da23b1ddbc4985b48965531d4234e.png> from database (hcm)
19:06:09.0414 T:3038759824 M:532664320   DEBUG: deleting expired cache entry <http://s3.boxee.tv/featured/4/2/9f6e740c463b811202697c71d21669.png> from database (hcm)
19:06:09.0416 T:3038759824 M:532668416   DEBUG: deleting expired cache entry <http://s3.boxee.tv/featured/f/0/f3b80ea7e9c1a66f5d1954ddcc778c.png> from database (hcm)
19:06:09.0417 T:3038759824 M:532639744   DEBUG: deleting expired cache entry <http://s3.boxee.tv/featured/c/0/f04b48b0772c6371f4dee833655b9a.png> from database (hcm)
19:06:09.0418 T:3038759824 M:532709376   DEBUG: deleting expired cache entry <http://res.boxee.tv/title/movie/?h=0000000000000000%3a0&name=TITAN%20AE> from database (hcm)
19:06:09.0420 T:3038759824 M:532705280   DEBUG: deleting expired cache entry <http://res.boxee.tv/title/movie/?h=1368d9927ff2af61%3a1466865664&name=The%20Fighter> from database (hcm)
19:06:09.0421 T:3038759824 M:532701184   DEBUG: deleting expired cache entry <http://res.boxee.tv/title/movie/?h=1c5fe42bbcc85991%3a1224902656&name=Stone> from database (hcm)
19:06:09.0423 T:3038759824 M:532697088   DEBUG: deleting expired cache entry <http://res.boxee.tv/title/movie/?h=9ca02dfa6c4b2fdb%3a1349367808&name=RED> from database (hcm)
19:06:09.0425 T:3038759824 M:532692992   DEBUG: deleting expired cache entry <http://res.boxee.tv/title/movie/?h=88e68e1a79649812%3a1308112896&name=Los%20Viajes%20De%20Gulliver> from database (hcm)
19:06:09.0426 T:3038759824 M:532688896   DEBUG: deleting expired cache entry <http://res.boxee.tv/title/movie/?h=06b052be172fe068%3a1468870770&name=Las%20Cronicas%20De%20Narnia%20La%20Travesia%20Del%20Viajero%20Del%20Alba> from database (hcm)
19:06:09.0427 T:3035601808 M:532684800   DEBUG: update ref map. url http://www.mimediacenter.info/boxee/download/info.mimediacenter.tvalacarta-3.0.zip new ref_count 0  progress 0 (hcm)
19:06:09.0431 T:3035601808 M:532684800   DEBUG: update ref map. url http://www.mimediacenter.info/boxee/download/info.mimediacenter.tvalacarta-3.0.zip.xml new ref_count 1  progress 0 (hcm)
19:06:09.0431 T:3035601808 M:532684800   DEBUG: CHttpCacheManager::StartCachingURL   push http://www.mimediacenter.info/boxee/download/info.mimediacenter.tvalacarta-3.0.zip.xml to  m_references (hcm)
19:06:09.0923 T:3035601808 M:532701184   DEBUG: update ref map. url http://www.mimediacenter.info/boxee/download/info.mimediacenter.tvalacarta-3.0.zip.xml new ref_count 1  progress 0 (hcm)
19:06:09.0924 T:3035601808 M:532701184   DEBUG: insert http://www.mimediacenter.info/boxee/download/info.mimediacenter.tvalacarta-3.0.zip.xml to the database (hcm)
19:06:09.0925 T:3035601808 M:532701184   DEBUG: update ref map. url http://www.mimediacenter.info/boxee/download/info.mimediacenter.tvalacarta-3.0.zip.xml new ref_count 0  progress 0 (hcm)
19:06:11.0044 T:3035601808 M:532860928    INFO: CAppSecurity::VerifySignature - Succesfully verified signature for  app [info.mimediacenter.tvalacarta]
19:06:11.0103 T:3074115360 M:532963328   DEBUG: CGUIDialogKaiToast::DoWork - Handling notification [Caption=][Description=Installing application...][ImageFile=icons/icon_star.png][displayTime=5000] (kai)
19:06:11.0698 T:3074115360 M:532549632   DEBUG: ------ Window Init (DialogProgress.xml) ------
19:06:11.0698 T:3074115360 M:532549632   DEBUG: Alloc resources: 0.03ms (0.00 ms skin load)
19:06:11.0698 T:3074115360 M:532549632   ERROR: CGUIWindow::OnMessage - GUI_MSG_SETFOCUS - FAILED to get the control to focus for [id=10]. [WinId=10101]
19:06:11.0724 T:3035601808 M:532549632   DEBUG: Thread 3035601808 terminating
19:06:12.0031 T:3039812496 M:532811776   DEBUG: Boxee: 22/02/11 18:06:12.311#DEBUG#bxmetadataengine.cpp:381(EngineThread)#BXMetadataEngine::EngineThread,  processing folders....(resolver)
19:06:12.0058 T:3074115360 M:532684800   DEBUG: CGUIDialogKaiToast::DoWork - Handling notification [Caption=][Description=Application installed successfully][ImageFile=icons/icon_star.png][displayTime=5000] (kai)
19:06:12.0255 T:3035601808 M:532676608   DEBUG: thread start, auto delete: 0
19:06:12.0260 T:3035601808 M:532676608    INFO: updating 's information in apps.xml
19:06:12.0261 T:3035601808 M:532676608   DEBUG: deleting info.mimediacenter.pelisalacarta from apps map
19:06:12.0261 T:3035601808 M:532676608   DEBUG: deleting info.mimediacenter.tvalacarta from apps map
19:06:12.0262 T:3035601808 M:532676608   DEBUG: deleting browser2 from apps map
19:06:12.0262 T:3035601808 M:532676608   DEBUG: deleting accuweather from apps map
19:06:12.0263 T:3035601808 M:532676608   DEBUG: deleting revision3 from apps map
19:06:12.0263 T:3035601808 M:532676608   DEBUG: deleting youtube from apps map
19:06:12.0263 T:3035601808 M:532676608   DEBUG: deleting mubi from apps map
19:06:12.0264 T:3035601808 M:532676608   DEBUG: deleting ustream from apps map
19:06:12.0264 T:3035601808 M:532676608   DEBUG: deleting tnt from apps map
19:06:12.0264 T:3035601808 M:532676608   DEBUG: deleting com.erikkristensen.unboxed from apps map
19:06:12.0265 T:3035601808 M:532676608   DEBUG: deleting com.erikkristensen.mythboxee from apps map
19:06:12.0265 T:3035601808 M:532676608   DEBUG: deleting oneminute from apps map
19:06:12.0265 T:3035601808 M:532676608   DEBUG: deleting yui-theater from apps map
19:06:12.0266 T:3035601808 M:532676608   DEBUG: reading apps.xml file
19:06:12.0270 T:3035601808 M:532676608   DEBUG: Thread 3035601808 terminating
19:06:12.0275 T:3074115360 M:532676608    INFO: updating info.mimediacenter.tvalacarta's information in apps.xml
19:06:12.0276 T:3074115360 M:532676608   DEBUG: deleting info.mimediacenter.pelisalacarta from apps map
19:06:12.0277 T:3074115360 M:532676608   DEBUG: deleting info.mimediacenter.tvalacarta from apps map
19:06:12.0277 T:3074115360 M:532676608   DEBUG: deleting browser2 from apps map
19:06:12.0277 T:3074115360 M:532676608   DEBUG: deleting accuweather from apps map
19:06:12.0278 T:3074115360 M:532676608   DEBUG: deleting revision3 from apps map
19:06:12.0278 T:3074115360 M:532676608   DEBUG: deleting youtube from apps map
19:06:12.0278 T:3074115360 M:532676608   DEBUG: deleting mubi from apps map
19:06:12.0278 T:3074115360 M:532676608   DEBUG: deleting ustream from apps map
19:06:12.0278 T:3074115360 M:532676608   DEBUG: deleting tnt from apps map
19:06:12.0279 T:3074115360 M:532676608   DEBUG: deleting com.erikkristensen.unboxed from apps map
19:06:12.0279 T:3074115360 M:532676608   DEBUG: deleting com.erikkristensen.mythboxee from apps map
19:06:12.0279 T:3074115360 M:532676608   DEBUG: deleting oneminute from apps map
19:06:12.0280 T:3074115360 M:532676608   DEBUG: deleting yui-theater from apps map
19:06:12.0280 T:3074115360 M:532676608   DEBUG: reading apps.xml file
19:06:12.0295 T:3074115360 M:532287488   DEBUG: BoxeeUtils::SetActivatedFromToObj - Enter function with FileItem [parentPath=apps://all/]. [label=tvalacarta][path=app://info.mimediacenter.tvalacarta/] (af)
19:06:12.0296 T:3074115360 M:532287488   DEBUG: [LAUNCH_APP] - Going to report [launch] to server. [objType=application][objId=info.mimediacenter.tvalacarta][activated_from=apps][boxeeId=] (rts)
19:06:12.0297 T:3035601808 M:532279296   DEBUG: Boxee: 22/02/11 18:06:12.2973#DEBUG#boxee.cpp:455(SetUserAction)#Boxee::SetUserAction - Going to call LoadFromURL with [http://app.boxee.tv/action/add]. [ActionType=launch] (sua)
19:06:12.0302 T:3035601808 M:532283392   DEBUG: Boxee: 22/02/11 18:06:12.3021#DEBUG#bxcurl.cpp:285(InitHttpTransfer)#setting creds to: <jvr1976:a+EeRvK3VVCLsJlTHMavtw==>
19:06:12.0303 T:3074115360 M:532283392   DEBUG: CAppManager::LaunchPluginApp, id = info.mimediacenter.tvalacarta (applaunch)
19:06:12.0304 T:3074115360 M:532283392   DEBUG: CGUIWindowBoxeeBrowseSimpleApp::Show, show path = plugin://video/info.mimediacenter.tvalacarta
19:06:12.0304 T:3074115360 M:532283392   DEBUG: Activating window ID: 10494
19:06:12.0305 T:3074115360 M:532283392   DEBUG: Checking if window ID 10494 is locked.
19:06:12.0305 T:3074115360 M:532283392   DEBUG: CGUIWindowBoxeeBrowse::OnMessage, GUI_MSG_WINDOW_DEINIT (browse)
19:06:12.0305 T:3074115360 M:532283392   DEBUG: Boxee: 22/02/11 18:06:12.3058#DEBUG#GUIWindowStateDatabase.cpp:102(SaveState)#GUIWindowStateDatabase::SaveState, iWindow=10482 , iView=55 , strSortMethod=last-used , iSelectedItem=1, iSelectedCategory=favorite
19:06:12.0306 T:3074115360 M:532283392   DEBUG: Boxee: 22/02/11 18:06:12.3067#DEBUG#GUIWindowStateDatabase.cpp:111(SaveState)#GUIWindowStateDatabase::SaveState, state found, idWindow='10482', strCategory='favorite'
19:06:12.0507 T:3074115360 M:532312064   DEBUG: ------ Window Deinit (boxee_browse_apps.xml) ------
19:06:12.0508 T:3074115360 M:532312064   ERROR: (pthread_mutex_destroy(&m_mutex)): [XCriticalSection.cpp:84] 16
19:06:12.0510 T:3074115360 M:532312064   DEBUG: ------ Window Init (BoxeeBrowseWindow.xml) ------
19:06:12.0510 T:3074115360 M:532312064   DEBUG: Loading skin file: BoxeeBrowseWindow.xml
19:06:12.0522 T:3074115360 M:532316160   DEBUG: CGUIBaseContainer::CGUIBaseContainer, 52 (basecontainer)
19:06:12.0549 T:3074115360 M:532316160   DEBUG: CGUIWindowBoxeeBrowse::InitializeViewController, adding controller id = [52] (browse)
19:06:12.0551 T:3074115360 M:532316160   DEBUG: Load BoxeeBrowseWindow.xml: 40.33ms
19:06:12.0554 T:3074115360 M:532316160   DEBUG: Alloc resources: 43.70ms (42.08 ms skin load)
19:06:12.0556 T:3074115360 M:532316160   DEBUG: Boxee: 22/02/11 18:06:12.5562#DEBUG#GUIWindowStateDatabase.cpp:139(LoadState)#GUIWindowStateDatabase::LoadState, iWindow=10494 , iView=-1077211632 , iSortMethod=154362364, iSelectedItem=0 , iSelectedCategory=178927868
19:06:12.0557 T:3074115360 M:532316160   DEBUG: Boxee: 22/02/11 18:06:12.5574#DEBUG#GUIWindowStateDatabase.cpp:148(LoadState)#GUIWindowStateDatabase::LoadState, state found, idWindow='10494' , strCategory='no-category'
19:06:12.0557 T:3074115360 M:532316160   DEBUG: CBrowseWindowSource::ClearItems, clear source, path = plugin://video/info.mimediacenter.tvalacarta (browse)
19:06:12.0558 T:3074115360 M:532316160   DEBUG: CBrowseWindowSource::RequestItems, source base path = plugin://video/info.mimediacenter.tvalacarta, requested path = plugin://video/info.mimediacenter.tvalacarta, for window id = 10494 (browse)
19:06:12.0558 T:3074115360 M:532316160   DEBUG: CItemLoader::AddControl, window = 10494, control = 0, path = plugin://video/info.mimediacenter.tvalacarta (browse)
19:06:12.0558 T:3074115360 M:532316160   DEBUG: CItemLoader::AddControl, 3 GUI_MSG_LOADING, window = 10494, control = 0 (basecontainer)
19:06:12.0558 T:3074115360 M:532316160   DEBUG: CGUIWindowBoxeeBrowse::OnMessage, 4 GUI_MSG_LOADING, window = 10494, control = -1 (basecontainer) (browse)
19:06:12.0559 T:3074115360 M:532316160   DEBUG: CGetDirectoryJob::DoWork, NEWUI, loading directory, path = plugin://video/info.mimediacenter.tvalacarta
19:06:12.0560 T:3074115360 M:532316160   DEBUG: GetDirectory - URL for plugin settings: info.mimediacenter.tvalacarta
19:06:12.0720 T:3035601808 M:532226048   DEBUG: Boxee: 22/02/11 18:06:12.7207#DEBUG#boxee.cpp:457(SetUserAction)#Boxee::SetUserAction - Call to  return LoadFromURL with [http://app.boxee.tv/action/add] returned [retVal=1]. [ActionType=launch] (sua)
19:06:12.0738 T:3074115360 M:532238336   DEBUG: GetDirectory - calling plugin special://home/apps/info.mimediacenter.tvalacarta/default.py('plugin://video/info.mimediacenter.tvalacarta','0','')
19:06:12.0739 T:3074115360 M:532242432   DEBUG: new python thread created. id=2
19:06:12.0740 T:3035601808 M:532234240   DEBUG: thread start, auto delete: 0
19:06:12.0740 T:3035601808 M:532234240   DEBUG: Python thread: start processing
19:06:12.0769 T:3074115360 M:532234240   DEBUG: WaitOnScriptResult - waiting on the info.mimediacenter.tvalacarta plugin...
19:06:12.0791 T:3074115360 M:532234240   DEBUG: ------ Window Init (DialogProgress.xml) ------
19:06:12.0791 T:3074115360 M:532234240   DEBUG: Alloc resources: 0.04ms (0.00 ms skin load)
19:06:12.0792 T:3074115360 M:532234240   ERROR: CGUIWindow::OnMessage - GUI_MSG_SETFOCUS - FAILED to get the control to focus for [id=10]. [WinId=10101]
19:06:12.0855 T:3035601808 M:525758464  NOTICE: -->Python Interpreter Initialized<--
19:06:12.0856 T:3035601808 M:525758464   DEBUG: Process - The source file to load is special://home/apps/info.mimediacenter.tvalacarta/default.py
19:06:12.0857 T:3035601808 M:525758464   DEBUG: Process - Setting the Python path to //.boxee/UserData/apps/info.mimediacenter.tvalacarta:/opt/local/lib/python2.4/python24.zip:/opt/local/lib/python2.4:/opt/local/lib/python2.4/plat-linux2:/opt/local/lib/python2.4/lib-dynload:/opt/local/lib/python2.4/site-packages:/opt/boxee/system/python/local:/opt/local/lib/python24.zip:/opt/local/lib/python2.4/:/opt/local/lib/python2.4/plat-linux2:/opt/local/lib/python2.4/lib-tk:/opt/local/lib/python2.4/lib-dynload
19:06:12.0857 T:3035601808 M:525758464   DEBUG: Process - Entering source directory //.boxee/UserData/apps/info.mimediacenter.tvalacarta
19:06:13.0088 T:3035601808 M:515747840  NOTICE: [config.py] boxee config 3.0.1
19:06:13.0141 T:3035601808 M:515747840  NOTICE: [config.py] runtime path = //.boxee/UserData/apps/info.mimediacenter.tvalacarta
19:06:13.0143 T:3035601808 M:515747840  NOTICE: [config.py] data path = //.boxee/UserData/apps/info.mimediacenter.tvalacarta
19:06:13.0144 T:3035601808 M:515747840  NOTICE: [config.py] language file path //.boxee/UserData/apps/info.mimediacenter.tvalacarta/resources/language/Spanish/strings.xml
19:06:13.0144 T:3035601808 M:515747840  NOTICE: [config.py] temp path = /tmp/boxee/test
19:06:13.0145 T:3035601808 M:515747840  NOTICE: [config.py] plugin path = //.boxee/UserData/plugins/video/info.mimediacenter.tvalacarta
19:06:13.0146 T:3035601808 M:515747840  NOTICE: [config.py] version = 3.0.1
19:06:13.0166 T:3035601808 M:515751936  NOTICE: [default.py] tvalacarta init...
19:06:13.0351 T:3074115360 M:532533248   DEBUG: ------ Window Deinit (DialogKaiToast.xml) ------
19:06:13.0400 T:3035601808 M:532406272   DEBUG: xbp_dlopen loading python lib /opt/local/lib/python2.4/lib-dynload/strop.so. flags: 2
19:06:13.0401 T:3035601808 M:532406272   DEBUG: Loading: /opt/local/lib/python2.4/lib-dynload/strop.so
19:06:13.0405 T:3035601808 M:532430848   DEBUG: RegisterExtensionLib, adding strop.so (0xb233f858)
19:06:13.0405 T:3035601808 M:532430848   DEBUG: xbp_dlsym - load symbol initstrop
19:06:13.0439 T:3035601808 M:532557824   DEBUG: xbp_dlopen loading python lib /opt/local/lib/python2.4/lib-dynload/_socket.so. flags: 2
19:06:13.0440 T:3035601808 M:532557824   DEBUG: Loading: /opt/local/lib/python2.4/lib-dynload/_socket.so
19:06:13.0463 T:3035601808 M:532410368   DEBUG: RegisterExtensionLib, adding _socket.so (0xb23b42c0)
19:06:13.0463 T:3035601808 M:532410368   DEBUG: xbp_dlsym - load symbol init_socket
19:06:13.0489 T:3035601808 M:532537344   DEBUG: xbp_dlopen loading python lib /opt/local/lib/python2.4/lib-dynload/_ssl.so. flags: 2
19:06:13.0491 T:3035601808 M:532537344   DEBUG: Loading: /opt/local/lib/python2.4/lib-dynload/_ssl.so
19:06:13.0493 T:3035601808 M:532553728   DEBUG: RegisterExtensionLib, adding _ssl.so (0xb23d3860)
19:06:13.0493 T:3035601808 M:532553728   DEBUG: xbp_dlsym - load symbol init_ssl
19:06:13.0604 T:3035601808 M:532426752   DEBUG: xbp_dlopen loading python lib /opt/local/lib/python2.4/lib-dynload/struct.so. flags: 2
19:06:13.0604 T:3035601808 M:532426752   DEBUG: Loading: /opt/local/lib/python2.4/lib-dynload/struct.so
19:06:13.0605 T:3035601808 M:532324352   DEBUG: RegisterExtensionLib, adding struct.so (0xb2309478)
19:06:13.0606 T:3035601808 M:532328448   DEBUG: xbp_dlsym - load symbol initstruct
19:06:13.0641 T:3035601808 M:532455424   DEBUG: xbp_dlopen loading python lib /opt/local/lib/python2.4/lib-dynload/binascii.so. flags: 2
19:06:13.0644 T:3035601808 M:532455424   DEBUG: Loading: /opt/local/lib/python2.4/lib-dynload/binascii.so
19:06:13.0648 T:3035601808 M:532398080   DEBUG: RegisterExtensionLib, adding binascii.so (0xb23500f0)
19:06:13.0649 T:3035601808 M:532398080   DEBUG: xbp_dlsym - load symbol initbinascii
19:06:13.0805 T:3035601808 M:532017152   DEBUG: xbp_dlopen loading python lib /opt/local/lib/python2.4/lib-dynload/math.so. flags: 2
19:06:13.0805 T:3035601808 M:532017152   DEBUG: Loading: /opt/local/lib/python2.4/lib-dynload/math.so
19:06:13.0815 T:3035601808 M:531824640   DEBUG: RegisterExtensionLib, adding math.so (0xb2309548)
19:06:13.0815 T:3035601808 M:531824640   DEBUG: xbp_dlsym - load symbol initmath
19:06:13.0841 T:3035601808 M:532078592   DEBUG: xbp_dlopen loading python lib /opt/local/lib/python2.4/lib-dynload/_random.so. flags: 2
19:06:13.0842 T:3035601808 M:532078592   DEBUG: Loading: /opt/local/lib/python2.4/lib-dynload/_random.so
19:06:13.0857 T:3035601808 M:531992576   DEBUG: RegisterExtensionLib, adding _random.so (0xb232bfa0)
19:06:13.0858 T:3035601808 M:531992576   DEBUG: xbp_dlsym - load symbol init_random
19:06:13.0887 T:3035601808 M:531865600   DEBUG: xbp_dlopen loading python lib /opt/local/lib/python2.4/lib-dynload/fcntl.so. flags: 2
19:06:13.0887 T:3035601808 M:531865600   DEBUG: Loading: /opt/local/lib/python2.4/lib-dynload/fcntl.so
19:06:13.0892 T:3035601808 M:531795968   DEBUG: RegisterExtensionLib, adding fcntl.so (0xb2380510)
19:06:13.0892 T:3035601808 M:531795968   DEBUG: xbp_dlsym - load symbol initfcntl
19:06:13.0918 T:3035601808 M:532049920   DEBUG: xbp_dlopen loading python lib /opt/local/lib/python2.4/lib-dynload/cStringIO.so. flags: 2
19:06:13.0918 T:3035601808 M:532049920   DEBUG: Loading: /opt/local/lib/python2.4/lib-dynload/cStringIO.so
19:06:13.0931 T:3035601808 M:532070400   DEBUG: RegisterExtensionLib, adding cStringIO.so (0xb23ab2b8)
19:06:13.0932 T:3035601808 M:532070400   DEBUG: xbp_dlsym - load symbol initcStringIO
19:06:14.0230 T:3035601808 M:531943424   DEBUG: xbp_dlopen loading python lib /opt/local/lib/python2.4/lib-dynload/md5.so. flags: 2
19:06:14.0231 T:3035601808 M:531943424   DEBUG: Loading: /opt/local/lib/python2.4/lib-dynload/md5.so
19:06:14.0253 T:3035601808 M:531955712   DEBUG: RegisterExtensionLib, adding md5.so (0xb232aa78)
19:06:14.0254 T:3035601808 M:531955712   DEBUG: xbp_dlsym - load symbol initmd5
19:06:14.0270 T:3035601808 M:531955712   DEBUG: xbp_dlopen loading python lib /opt/local/lib/python2.4/lib-dynload/sha.so. flags: 2
19:06:14.0270 T:3035601808 M:531955712   DEBUG: Loading: /opt/local/lib/python2.4/lib-dynload/sha.so
19:06:14.0293 T:3035601808 M:531877888   DEBUG: RegisterExtensionLib, adding sha.so (0xb234c9a0)
19:06:14.0294 T:3035601808 M:531877888   DEBUG: xbp_dlsym - load symbol initsha
19:06:14.0308 T:3035601808 M:531877888   DEBUG: xbp_dlopen loading python lib /opt/local/lib/python2.4/lib-dynload/_bisect.so. flags: 2
19:06:14.0308 T:3035601808 M:531877888   DEBUG: Loading: /opt/local/lib/python2.4/lib-dynload/_bisect.so
19:06:14.0330 T:3035601808 M:531886080   DEBUG: RegisterExtensionLib, adding _bisect.so (0xb23ac278)
19:06:14.0330 T:3035601808 M:531886080   DEBUG: xbp_dlsym - load symbol init_bisect
19:06:14.0661 T:3035601808 M:531759104   DEBUG: xbp_dlopen loading python lib /opt/local/lib/python2.4/lib-dynload/datetime.so. flags: 2
19:06:14.0662 T:3035601808 M:531759104   DEBUG: Loading: /opt/local/lib/python2.4/lib-dynload/datetime.so
19:06:14.0667 T:3035601808 M:531828736   DEBUG: RegisterExtensionLib, adding datetime.so (0xb23b76b0)
19:06:14.0668 T:3035601808 M:531828736   DEBUG: xbp_dlsym - load symbol initdatetime
19:06:14.0859 T:3035601808 M:531701760  NOTICE: [tvalacarta.py] run
19:06:14.0860 T:3035601808 M:531701760  NOTICE: [tvalacarta.py] sys.argv=['plugin://video/info.mimediacenter.tvalacarta', '0', '']
19:06:14.0861 T:3035601808 M:531705856  NOTICE: [tvalacarta.py] params={}
19:06:16.0428 T:3035601808 M:531001344  NOTICE: [scrapertools.py] init
19:06:16.0429 T:3035601808 M:531001344  NOTICE: [scrapertools.py] CACHE_PATH=/tmp/boxee/cache
19:06:16.0430 T:3035601808 M:531001344  NOTICE: [channelselector.py] mainlist
19:06:16.0655 T:3035601808 M:531009536  NOTICE: [channelselector.py] Verificar actualizaciones desactivado
19:06:16.0702 T:3035601808 M:531013632  NOTICE: [descargados.py] init
19:06:16.0733 T:3074115360 M:531013632   DEBUG: WaitOnScriptResult- plugin returned successfully
19:06:16.0736 T:3074115360 M:531013632   DEBUG: CItemLoader::AddControl, added directory job, path = plugin://video/info.mimediacenter.tvalacarta (browse)
19:06:16.0747 T:3035601808 M:531013632    INFO: Scriptresult: Success
19:06:16.0774 T:3074115360 M:531013632   DEBUG: CGUIWindowBoxeeBrowseSimpleApp::OnBind, sender = 10494, control = 0 (browse)
19:06:16.0775 T:3074115360 M:531013632   DEBUG: CBrowseWindowSourceController::BindItems received 4 items for path plugin://video/info.mimediacenter.tvalacarta (browse)
19:06:16.0775 T:3074115360 M:531013632   DEBUG: CBrowseWindowSource::BindItems, source id simpleappsource received 4 items for path plugin://video/info.mimediacenter.tvalacarta (browse)
19:06:16.0776 T:3074115360 M:531013632   DEBUG: CBrowseWindowSourceController::MergeSources, processing single source (browse) (merge)
19:06:16.0776 T:3074115360 M:531013632   ERROR: CGUIWindow::OnMessage - GUI_MSG_SETFOCUS - FAILED to get the control to focus for [id=52]. [WinId=10101]
19:06:16.0777 T:3074115360 M:531013632   DEBUG: CGUIWindowBoxeeBrowseSimpleApp::OnBind, sender = 10494, control = 52 (browse)
19:06:16.0777 T:3074115360 M:531013632   DEBUG: CGUIBaseContainer::CGUIBaseContainer,  GUI_MSG_LABEL_BIND, 52 (basecontainer)
19:06:16.0777 T:3074115360 M:531013632   DEBUG: CGUIFixedListContainer::ScrollToOffset, ENTER, m_cursor = 0, offset = 0, m_offset = 0 (scroll)
19:06:16.0778 T:3074115360 M:531013632   DEBUG: CGUIFixedListContainer::ScrollToOffset, mo 0 mc 0, nCurrOffset = 0, nTargetOffset = 0, m_items.size() = 4, m_itemsPerPage = 3 (scroll)
19:06:16.0778 T:3074115360 M:531013632   DEBUG: CGUIFixedListContainer::ScrollToOffset, EXIT, m_cursor = 0, offset = 0, m_offset = 0 (scroll)
19:06:16.0778 T:3074115360 M:531013632   DEBUG: CGUIFixedListContainer::ScrollToOffset, ENTER, m_cursor = 0, offset = 0, m_offset = 0 (scroll)
19:06:16.0779 T:3074115360 M:531013632   DEBUG: CGUIFixedListContainer::ScrollToOffset, mo 0 mc 0, nCurrOffset = 0, nTargetOffset = 0, m_items.size() = 4, m_itemsPerPage = 3 (scroll)
19:06:16.0779 T:3074115360 M:531013632   DEBUG: CGUIFixedListContainer::ScrollToOffset, EXIT, m_cursor = 0, offset = 0, m_offset = 0 (scroll)
19:06:16.0813 T:3038759824 M:531005440   DEBUG: Creating thumb from: http://www.mimediacenter.info/xbmc/tvalacarta/posters/channelselector.png as: special://masterprofile/profiles/jvr1976/Thumbnails/Pictures/9/91089c01.tbn
19:06:16.0816 T:3038759824 M:531005440   DEBUG: update ref map. url http://www.mimediacenter.info/xbmc/tvalacarta/posters/channelselector.png new ref_count 1  progress 0 (hcm)
19:06:16.0816 T:3038759824 M:531005440   DEBUG: CHttpCacheManager::StartCachingURL   push http://www.mimediacenter.info/xbmc/tvalacarta/posters/channelselector.png to  m_references (hcm)
19:06:16.0816 T:3038759824 M:531005440   DEBUG: FileCurl::Open(0xb51faa14) http://www.mimediacenter.info/xbmc/tvalacarta/posters/channelselector.png
19:06:16.0822 T:2978687888 M:530997248   DEBUG: Creating thumb from: http://www.mimediacenter.info/xbmc/tvalacarta/posters/configuracion.png as: special://masterprofile/profiles/jvr1976/Thumbnails/Pictures/1/13d8d867.tbn
19:06:16.0825 T:2978687888 M:530997248   DEBUG: update ref map. url http://www.mimediacenter.info/xbmc/tvalacarta/posters/configuracion.png new ref_count 1  progress 0 (hcm)
19:06:16.0825 T:2978687888 M:530997248   DEBUG: CHttpCacheManager::StartCachingURL   push http://www.mimediacenter.info/xbmc/tvalacarta/posters/configuracion.png to  m_references (hcm)
19:06:16.0825 T:2978687888 M:531001344   DEBUG: FileCurl::Open(0xb18b0a14) http://www.mimediacenter.info/xbmc/tvalacarta/posters/configuracion.png
19:06:16.0830 T:3040865168 M:530993152   DEBUG: Creating thumb from: http://www.mimediacenter.info/xbmc/tvalacarta/posters/descargados.png as: special://masterprofile/profiles/jvr1976/Thumbnails/Pictures/3/396dc33f.tbn
19:06:16.0833 T:3040865168 M:530993152   DEBUG: update ref map. url http://www.mimediacenter.info/xbmc/tvalacarta/posters/descargados.png new ref_count 1  progress 0 (hcm)
19:06:16.0834 T:3040865168 M:530993152   DEBUG: CHttpCacheManager::StartCachingURL   push http://www.mimediacenter.info/xbmc/tvalacarta/posters/descargados.png to  m_references (hcm)
19:06:16.0834 T:3040865168 M:530993152   DEBUG: FileCurl::Open(0xb53fca14) http://www.mimediacenter.info/xbmc/tvalacarta/posters/descargados.png
19:06:16.0840 T:3022420880 M:530984960   DEBUG: Creating thumb from: http://www.mimediacenter.info/xbmc/tvalacarta/posters/favoritos.png as: special://masterprofile/profiles/jvr1976/Thumbnails/Pictures/3/34d8c018.tbn
19:06:16.0842 T:3022420880 M:530984960   DEBUG: update ref map. url http://www.mimediacenter.info/xbmc/tvalacarta/posters/favoritos.png new ref_count 1  progress 0 (hcm)
19:06:16.0843 T:3022420880 M:530984960   DEBUG: CHttpCacheManager::StartCachingURL   push http://www.mimediacenter.info/xbmc/tvalacarta/posters/favoritos.png to  m_references (hcm)
19:06:16.0843 T:3022420880 M:530984960   DEBUG: FileCurl::Open(0xb4265a14) http://www.mimediacenter.info/xbmc/tvalacarta/posters/favoritos.png
19:06:17.0168 T:3074115360 M:530849792   DEBUG: (dbg) FreeMem 518408/644016 Kb, FPS 25.0, CPU0: 97.5%  Loader Q:[0] Textures:[66 (23.44 M)] SERVER: [67.225.149.139] ver: 1.0.4.17443
19:06:17.0169 T:3074115360 M:530849792   DEBUG: (dbg)
19:06:17.0246 T:3074115360 M:530849792   DEBUG: ------ Window Deinit (DialogProgress.xml) ------
19:06:17.0253 T:3035601808 M:530849792    INFO: Python script stopped
19:06:17.0253 T:3035601808 M:530849792   DEBUG: Thread 3035601808 terminating
19:06:17.0254 T:3074115360 M:530857984   DEBUG: python thread 2 destructed
19:06:17.0280 T:3038759824 M:530857984   DEBUG: Open - filesize: 9178
19:06:17.0287 T:2978687888 M:530857984   DEBUG: Open - filesize: 10247
19:06:17.0296 T:3040865168 M:530857984   DEBUG: Open - filesize: 11019
19:06:17.0323 T:3022420880 M:530874368   DEBUG: Open - filesize: 10127
19:06:17.0511 T:3038759824 M:530886656   DEBUG: FileCurl::Close(0xb51faa14) http://www.mimediacenter.info/xbmc/tvalacarta/posters/channelselector.png
19:06:17.0511 T:3038759824 M:530886656   DEBUG: CURL STATS: done with <www.mimediacenter.info>. 8.96k in: 0.69 sec. dns: 0.00 sec. connect: 0.23 s. pretransfer: 0.23 s. speed: 12.93 kbytes/sec.
19:06:17.0514 T:3038759824 M:530898944   DEBUG: update ref map. url http://www.mimediacenter.info/xbmc/tvalacarta/posters/channelselector.png new ref_count 1  progress 0 (hcm)
19:06:17.0516 T:3038759824 M:530898944   DEBUG: insert http://www.mimediacenter.info/xbmc/tvalacarta/posters/channelselector.png to the database (hcm)
19:06:17.0517 T:3038759824 M:530898944   DEBUG: update ref map. url http://www.mimediacenter.info/xbmc/tvalacarta/posters/channelselector.png new ref_count 0  progress 0 (hcm)
19:06:17.0518 T:3038759824 M:530898944   DEBUG: Creating album thumb from memory: special://masterprofile/profiles/jvr1976/Thumbnails/Pictures/9/91089c01.tbn
19:06:17.0520 T:2978687888 M:530898944   DEBUG: FileCurl::Close(0xb18b0a14) http://www.mimediacenter.info/xbmc/tvalacarta/posters/configuracion.png
19:06:17.0521 T:2978687888 M:530898944   DEBUG: CURL STATS: done with <www.mimediacenter.info>. 10.01k in: 0.69 sec. dns: 0.00 sec. connect: 0.23 s. pretransfer: 0.23 s. speed: 14.42 kbytes/sec.
19:06:17.0524 T:2978687888 M:530911232   DEBUG: update ref map. url http://www.mimediacenter.info/xbmc/tvalacarta/posters/configuracion.png new ref_count 1  progress 0 (hcm)
19:06:17.0525 T:2978687888 M:530911232   DEBUG: insert http://www.mimediacenter.info/xbmc/tvalacarta/posters/configuracion.png to the database (hcm)
19:06:17.0526 T:2978687888 M:530915328   DEBUG: update ref map. url http://www.mimediacenter.info/xbmc/tvalacarta/posters/configuracion.png new ref_count 0  progress 0 (hcm)
19:06:17.0527 T:2978687888 M:530915328   DEBUG: Creating album thumb from memory: special://masterprofile/profiles/jvr1976/Thumbnails/Pictures/1/13d8d867.tbn
19:06:17.0528 T:3040865168 M:530915328   DEBUG: FileCurl::Close(0xb53fca14) http://www.mimediacenter.info/xbmc/tvalacarta/posters/descargados.png
19:06:17.0528 T:3040865168 M:530915328   DEBUG: CURL STATS: done with <www.mimediacenter.info>. 10.76k in: 0.69 sec. dns: 0.00 sec. connect: 0.23 s. pretransfer: 0.23 s. speed: 15.54 kbytes/sec.
19:06:17.0530 T:3040865168 M:530927616   DEBUG: update ref map. url http://www.mimediacenter.info/xbmc/tvalacarta/posters/descargados.png new ref_count 1  progress 0 (hcm)
19:06:17.0531 T:3040865168 M:530927616   DEBUG: insert http://www.mimediacenter.info/xbmc/tvalacarta/posters/descargados.png to the database (hcm)
19:06:17.0533 T:3040865168 M:530927616   DEBUG: update ref map. url http://www.mimediacenter.info/xbmc/tvalacarta/posters/descargados.png new ref_count 0  progress 0 (hcm)
19:06:17.0534 T:3040865168 M:530927616   DEBUG: Creating album thumb from memory: special://masterprofile/profiles/jvr1976/Thumbnails/Pictures/3/396dc33f.tbn
19:06:17.0555 T:3022420880 M:530931712   DEBUG: FileCurl::Close(0xb4265a14) http://www.mimediacenter.info/xbmc/tvalacarta/posters/favoritos.png
19:06:17.0555 T:3022420880 M:530931712   DEBUG: CURL STATS: done with <www.mimediacenter.info>. 9.89k in: 0.71 sec. dns: 0.00 sec. connect: 0.23 s. pretransfer: 0.23 s. speed: 13.92 kbytes/sec.
19:06:17.0557 T:3022420880 M:530944000   DEBUG: update ref map. url http://www.mimediacenter.info/xbmc/tvalacarta/posters/favoritos.png new ref_count 1  progress 0 (hcm)
19:06:17.0558 T:3022420880 M:530944000   DEBUG: insert http://www.mimediacenter.info/xbmc/tvalacarta/posters/favoritos.png to the database (hcm)
19:06:17.0559 T:3022420880 M:530944000   DEBUG: update ref map. url http://www.mimediacenter.info/xbmc/tvalacarta/posters/favoritos.png new ref_count 0  progress 0 (hcm)
19:06:17.0560 T:3022420880 M:530944000   DEBUG: Creating album thumb from memory: special://masterprofile/profiles/jvr1976/Thumbnails/Pictures/3/34d8c018.tbn
19:06:17.0698 T:2978687888 M:530714624   DEBUG: TouchThumbnailFile touch thumbnail file special://masterprofile/profiles/jvr1976/Thumbnails/Pictures/1/13d8d867.tbn size 10247  (thm)
19:06:17.0747 T:3022420880 M:530595840   DEBUG: TouchThumbnailFile touch thumbnail file special://masterprofile/profiles/jvr1976/Thumbnails/Pictures/3/34d8c018.tbn size 10127  (thm)
19:06:17.0756 T:3040865168 M:530595840   DEBUG: TouchThumbnailFile touch thumbnail file special://masterprofile/profiles/jvr1976/Thumbnails/Pictures/3/396dc33f.tbn size 11019  (thm)
19:06:17.0757 T:2978687888 M:530595840   DEBUG: TouchThumbnailFile touch thumbnail file special://masterprofile/profiles/jvr1976/Thumbnails/Pictures/1/13d8d867.tbn doesn't exist - add new  total 22 files average time 1298397915 (thm)
19:06:17.0773 T:2978687888 M:530595840   DEBUG: CDirectoryCache::UpdateItem, CACHE updating dirPath = plugin://video/info.mimediacenter.tvalacarta , cacheId =  , item = Configuración, path = plugin://video/info.mimediacenter.tvalacarta?channel=configuracion&action=mainlist&category=Configuración (dircache)
19:06:17.0774 T:2978687888 M:530595840   DEBUG: CDirectoryCache::UpdateItem, found the relevant dir - strDirPath = plugin://video/info.mimediacenter.tvalacarta (dircache)
19:06:17.0774 T:3022420880 M:530595840   DEBUG: TouchThumbnailFile touch thumbnail file special://masterprofile/profiles/jvr1976/Thumbnails/Pictures/3/34d8c018.tbn doesn't exist - add new  total 23 files average time 1298397917 (thm)
19:06:17.0794 T:3038759824 M:530722816   DEBUG: TouchThumbnailFile touch thumbnail file special://masterprofile/profiles/jvr1976/Thumbnails/Pictures/9/91089c01.tbn size 9178  (thm)
19:06:17.0802 T:2978687888 M:530722816   DEBUG: CDirectoryCache::UpdateItem, found the item - strItemPath = plugin://video/info.mimediacenter.tvalacarta?channel=configuracion&action=mainlist&category=Configuración (dircache)
19:06:17.0803 T:3022420880 M:530726912   DEBUG: CDirectoryCache::UpdateItem, CACHE updating dirPath = plugin://video/info.mimediacenter.tvalacarta , cacheId =  , item = Favoritos, path = plugin://video/info.mimediacenter.tvalacarta?channel=favoritos&action=mainlist&category=Favoritos (dircache)
19:06:17.0804 T:3022420880 M:530726912   DEBUG: CDirectoryCache::UpdateItem, found the relevant dir - strDirPath = plugin://video/info.mimediacenter.tvalacarta (dircache)
19:06:17.0804 T:3022420880 M:530726912   DEBUG: CDirectoryCache::UpdateItem, found the item - strItemPath = plugin://video/info.mimediacenter.tvalacarta?channel=favoritos&action=mainlist&category=Favoritos (dircache)
19:06:17.0809 T:3040865168 M:530726912   DEBUG: TouchThumbnailFile touch thumbnail file special://masterprofile/profiles/jvr1976/Thumbnails/Pictures/3/396dc33f.tbn doesn't exist - add new  total 24 files average time 1298397919 (thm)
19:06:17.0825 T:3040865168 M:530743296   DEBUG: CDirectoryCache::UpdateItem, CACHE updating dirPath = plugin://video/info.mimediacenter.tvalacarta , cacheId =  , item = Descargas, path = plugin://video/info.mimediacenter.tvalacarta?channel=descargados&action=mainlist&category=Descargas (dircache)
19:06:17.0826 T:3040865168 M:530743296   DEBUG: CDirectoryCache::UpdateItem, found the relevant dir - strDirPath = plugin://video/info.mimediacenter.tvalacarta (dircache)
19:06:17.0826 T:3040865168 M:530743296   DEBUG: CDirectoryCache::UpdateItem, found the item - strItemPath = plugin://video/info.mimediacenter.tvalacarta?channel=descargados&action=mainlist&category=Descargas (dircache)
19:06:17.0831 T:3038759824 M:530735104   DEBUG: TouchThumbnailFile touch thumbnail file special://masterprofile/profiles/jvr1976/Thumbnails/Pictures/9/91089c01.tbn doesn't exist - add new  total 25 files average time 1298397921 (thm)
19:06:17.0835 T:3038759824 M:530735104   DEBUG: CDirectoryCache::UpdateItem, CACHE updating dirPath = plugin://video/info.mimediacenter.tvalacarta , cacheId =  , item = Canales, path = plugin://video/info.mimediacenter.tvalacarta?channel=channelselector&action=channeltypes&category=Canales (dircache)
19:06:17.0835 T:3038759824 M:530735104   DEBUG: CDirectoryCache::UpdateItem, found the relevant dir - strDirPath = plugin://video/info.mimediacenter.tvalacarta (dircache)
19:06:17.0835 T:3038759824 M:530735104   DEBUG: CDirectoryCache::UpdateItem, found the item - strItemPath = plugin://video/info.mimediacenter.tvalacarta?channel=channelselector&action=channeltypes&category=Canales (dircache)
19:06:18.0435 T:3074115360 M:530776064   DEBUG: SDLKeyboard: scancode: 108, sym: 274, unicode: 0, modifier: 0
19:06:18.0435 T:3074115360 M:530776064   DEBUG: CApplication::OnKey - [key=61480][window=10494][action=4]
19:06:18.0435 T:3074115360 M:530776064   DEBUG: OnKey: 61480 pressed, action is 4
19:06:18.0437 T:3074115360 M:530776064   DEBUG: CGUIFixedListContainer::ScrollToOffset, ENTER, m_cursor = 0, offset = 1, m_offset = 0 (scroll)
19:06:18.0438 T:3074115360 M:530776064   DEBUG: CGUIFixedListContainer::ScrollToOffset, mo 0 mc 0, nCurrOffset = 0, nTargetOffset = 1, m_items.size() = 4, m_itemsPerPage = 3 (scroll)
19:06:18.0438 T:3074115360 M:530776064   DEBUG: CGUIFixedListContainer::ScrollToOffset, EXIT, m_cursor = 1, offset = 1, m_offset = 0 (scroll)
19:06:18.0835 T:3074115360 M:530776064   DEBUG: SDLKeyboard: scancode: 108, sym: 274, unicode: 0, modifier: 0
19:06:18.0835 T:3074115360 M:530776064   DEBUG: CApplication::OnKey - [key=61480][window=10494][action=4]
19:06:18.0835 T:3074115360 M:530776064   DEBUG: OnKey: 61480 pressed, action is 4
19:06:18.0837 T:3074115360 M:530776064   DEBUG: CGUIFixedListContainer::ScrollToOffset, ENTER, m_cursor = 1, offset = 1, m_offset = 0 (scroll)
19:06:18.0838 T:3074115360 M:530776064   DEBUG: CGUIFixedListContainer::ScrollToOffset, mo 0 mc 1, nCurrOffset = 1, nTargetOffset = 2, m_items.size() = 4, m_itemsPerPage = 3 (scroll)
19:06:18.0838 T:3074115360 M:530780160   DEBUG: CGUIFixedListContainer::ScrollToOffset, EXIT, m_cursor = 1, offset = 1, m_offset = 1 (scroll)
19:06:18.0915 T:3074115360 M:530780160   DEBUG: SDLKeyboard: scancode: 108, sym: 274, unicode: 0, modifier: 0
19:06:18.0915 T:3074115360 M:530780160   DEBUG: CApplication::OnKey - [key=61480][window=10494][action=4]
19:06:18.0915 T:3074115360 M:530780160   DEBUG: OnKey: 61480 pressed, action is 4
19:06:18.0917 T:3074115360 M:530780160   DEBUG: CGUIFixedListContainer::ScrollToOffset, ENTER, m_cursor = 1, offset = 2, m_offset = 1 (scroll)
19:06:18.0917 T:3074115360 M:530780160   DEBUG: CGUIFixedListContainer::ScrollToOffset, mo 1 mc 1, nCurrOffset = 2, nTargetOffset = 3, m_items.size() = 4, m_itemsPerPage = 3 (scroll)
19:06:18.0917 T:3074115360 M:530780160   DEBUG: CGUIFixedListContainer::ScrollToOffset, EXIT, m_cursor = 2, offset = 2, m_offset = 1 (scroll)
19:06:18.0995 T:3074115360 M:530780160   DEBUG: SDLKeyboard: scancode: 108, sym: 274, unicode: 0, modifier: 0
19:06:18.0995 T:3074115360 M:530780160   DEBUG: CApplication::OnKey - [key=61480][window=10494][action=4]
19:06:18.0995 T:3074115360 M:530780160   DEBUG: OnKey: 61480 pressed, action is 4
19:06:19.0075 T:3074115360 M:530780160   DEBUG: SDLKeyboard: scancode: 108, sym: 274, unicode: 0, modifier: 0
19:06:19.0075 T:3074115360 M:530780160   DEBUG: CApplication::OnKey - [key=61480][window=10494][action=4]
19:06:19.0075 T:3074115360 M:530780160   DEBUG: OnKey: 61480 pressed, action is 4
19:06:21.0115 T:3033766800 M:530780160   DEBUG: no gui sound for 2 seconds. pausing device
19:06:21.0235 T:3074115360 M:530780160   DEBUG: SDLKeyboard: scancode: 28, sym: 13, unicode: 0, modifier: 0
19:06:21.0235 T:3074115360 M:530780160   DEBUG: CApplication::OnKey - [key=61453][window=10494][action=7]
19:06:21.0235 T:3074115360 M:530780160   DEBUG: OnKey: 61453 pressed, action is 7
19:06:21.0237 T:3074115360 M:530780160   DEBUG: CGUIWindowBoxeeBrowse::OnMessage, GUI_MSG_CLICKED, action = 7 (browse)
19:06:21.0238 T:3074115360 M:530780160   DEBUG: CGUIWindowBoxeeBrowse::OnClick, item clicked, path = plugin://video/info.mimediacenter.tvalacarta?channel=configuracion&action=mainlist&category=Configuración (browse)
19:06:21.0238 T:3074115360 M:530780160   DEBUG: ============================FileItem Dump Start===================================
19:06:21.0238 T:3074115360 M:530780160   DEBUG: Is Folder: true
19:06:21.0238 T:3074115360 M:530780160   DEBUG: Is Playable Folder: false
19:06:21.0239 T:3074115360 M:530780160   DEBUG: Is Parent Folder: false
19:06:21.0239 T:3074115360 M:530780160   DEBUG: Label: Configuración
19:06:21.0239 T:3074115360 M:530780160   DEBUG: Label2:
19:06:21.0239 T:3074115360 M:530780160   DEBUG: path: plugin://video/info.mimediacenter.tvalacarta?channel=configuracion&action=mainlist&category=Configuración
19:06:21.0240 T:3074115360 M:530780160   DEBUG: Label preformatted: false
19:06:21.0240 T:3074115360 M:530780160   DEBUG: Thumb: special://masterprofile/profiles/jvr1976/Thumbnails/Pictures/1/13d8d867.tbn
19:06:21.0240 T:3074115360 M:530780160   DEBUG: Icon: DefaultFolder.png
19:06:21.0241 T:3074115360 M:530780160   DEBUG: Title:
19:06:21.0241 T:3074115360 M:530780160   DEBUG: m_contenttype:
19:06:21.0241 T:3074115360 M:530780160   DEBUG: m_extrainfo:
19:06:21.0241 T:3074115360 M:530780160   DEBUG: Selected: false
19:06:21.0242 T:3074115360 M:530780160   DEBUG: Size: 0
19:06:21.0242 T:3074115360 M:530780160   DEBUG: m_iprogramCount: 0
19:06:21.0242 T:3074115360 M:530780160   DEBUG: m_idepth: 1
19:06:21.0243 T:3074115360 M:530780160   DEBUG: m_lStartOffset: 0
19:06:21.0243 T:3074115360 M:530780160   DEBUG: m_lEndOffset: 0
19:06:21.0243 T:3074115360 M:530780160   DEBUG: DVD Label:
19:06:21.0243 T:3074115360 M:530780160   DEBUG: OverlayIcon: 0
19:06:21.0244 T:3074115360 M:530780160   DEBUG: m_iDriveType: 0
19:06:21.0244 T:3074115360 M:530780160   DEBUG: m_bCanQueue: true
19:06:21.0244 T:3074115360 M:530780160   DEBUG: m_bIsShareOrDrive: false
19:06:21.0244 T:3074115360 M:530780160   DEBUG: m_dateTime: 1969-12-31
19:06:21.0245 T:3074115360 M:530780160   DEBUG: m_iLockMode: 0
19:06:21.0245 T:3074115360 M:530784256   DEBUG: m_strLockCode:
19:06:21.0245 T:3074115360 M:530784256   DEBUG: m_iBadPwdCount: 0
19:06:21.0245 T:3074115360 M:530784256   DEBUG: ** No video info tag
19:06:21.0245 T:3074115360 M:530784256   DEBUG: ** No music info tag
19:06:21.0246 T:3074115360 M:530784256   DEBUG: Properties (12):
19:06:21.0246 T:3074115360 M:530784256   DEBUG: [controlId] -> [0]
19:06:21.0246 T:3074115360 M:530784256   DEBUG: [directoryPath] -> [plugin://video/info.mimediacenter.tvalacarta]
19:06:21.0246 T:3074115360 M:530784256   DEBUG: [DisplayPath] -> [plugin://video/info.mimediacenter.tvalacarta?channel=configuracion&action=mainlist&category=Configuración]
19:06:21.0247 T:3074115360 M:530784256   DEBUG: [HasThumb] -> [1]
19:06:21.0247 T:3074115360 M:530784256   DEBUG: [index] -> [4]
19:06:21.0247 T:3074115360 M:530784256   DEBUG: [IsFolder] -> [1]
19:06:21.0247 T:3074115360 M:530784256   DEBUG: [isloaded] -> [1]
19:06:21.0248 T:3074115360 M:530784256   DEBUG: [IsPlugin] -> [1]
19:06:21.0248 T:3074115360 M:530784256   DEBUG: [itemid] -> [134010-3]
19:06:21.0248 T:3074115360 M:530784256   DEBUG: [OriginalThumb] -> [http://www.mimediacenter.info/xbmc/tvalacarta/posters/configuracion.png]
19:06:21.0248 T:3074115360 M:530784256   DEBUG: [parentPath] -> [plugin://video/info.mimediacenter.tvalacarta]
19:06:21.0248 T:3074115360 M:530784256   DEBUG: [windowId] -> [10494]
19:06:21.0249 T:3074115360 M:530784256   DEBUG: ** No external file item
19:06:21.0249 T:3074115360 M:530784256   DEBUG: ** No additional links
19:06:21.0249 T:3074115360 M:530784256   DEBUG: ============================FileItem Dump End===================================
19:06:21.0250 T:3074115360 M:530784256   DEBUG: CBrowseWindowState::OnClick, drill down into folder, path = plugin://video/info.mimediacenter.tvalacarta?channel=configuracion&action=mainlist&category=Configuración (browse)
19:06:21.0250 T:3074115360 M:530784256   DEBUG: CBrowseWindowSource::ClearItems, clear source, path = plugin://video/info.mimediacenter.tvalacarta (browse)
19:06:21.0251 T:3074115360 M:530784256   DEBUG: CBrowseWindowSource::ClearItems, clear source, path = plugin://video/info.mimediacenter.tvalacarta?channel=configuracion&action=mainlist&category=Configuración (browse)
19:06:21.0251 T:3074115360 M:530784256   DEBUG: CBrowseWindowSource::RequestItems, source base path = plugin://video/info.mimediacenter.tvalacarta?channel=configuracion&action=mainlist&category=Configuración, requested path = plugin://video/info.mimediacenter.tvalacarta?channel=configuracion&action=mainlist&category=Configuración, for window id = 10494 (browse)
19:06:21.0252 T:3074115360 M:530784256   DEBUG: CItemLoader::AddControl, window = 10494, control = 0, path = plugin://video/info.mimediacenter.tvalacarta?channel=configuracion&action=mainlist&category=Configuración (browse)
19:06:21.0252 T:3074115360 M:530784256   DEBUG: CItemLoader::AddControl, 3 GUI_MSG_LOADING, window = 10494, control = 0 (basecontainer)
19:06:21.0253 T:3074115360 M:530784256   DEBUG: CGUIWindowBoxeeBrowse::OnMessage, 4 GUI_MSG_LOADING, window = 10494, control = 52 (basecontainer) (browse)
19:06:21.0253 T:3074115360 M:530784256   DEBUG: CGetDirectoryJob::DoWork, NEWUI, loading directory, path = plugin://video/info.mimediacenter.tvalacarta?channel=configuracion&action=mainlist&category=Configuración
19:06:21.0254 T:3074115360 M:530784256   DEBUG: GetDirectory - URL for plugin settings: info.mimediacenter.tvalacarta
19:06:21.0262 T:3074115360 M:530784256   DEBUG: GetDirectory - calling plugin special://home/apps/info.mimediacenter.tvalacarta/default.py('plugin://video/info.mimediacenter.tvalacarta','0','?channel=configuracion&action=mainlist&category=Configuración')
19:06:21.0263 T:3074115360 M:530784256   DEBUG: new python thread created. id=3
19:06:21.0264 T:3040865168 M:530776064   DEBUG: thread start, auto delete: 0
19:06:21.0264 T:3040865168 M:530776064   DEBUG: Python thread: start processing
19:06:21.0291 T:3074115360 M:530776064   DEBUG: WaitOnScriptResult - waiting on the info.mimediacenter.tvalacarta plugin...
19:06:21.0315 T:3074115360 M:530780160   DEBUG: Loading skin file: DialogProgress.xml
19:06:21.0321 T:3074115360 M:530780160   DEBUG: Load DialogProgress.xml: 5.49ms
19:06:21.0321 T:3074115360 M:530780160   DEBUG: ------ Window Init (DialogProgress.xml) ------
19:06:21.0322 T:3074115360 M:530780160   DEBUG: Alloc resources: 0.17ms (0.00 ms skin load)
19:06:21.0323 T:3074115360 M:530780160   ERROR: CGUIWindow::OnMessage - GUI_MSG_SETFOCUS - FAILED to get the control to focus for [id=10]. [WinId=10101]
19:06:21.0377 T:3040865168 M:530272256  NOTICE: -->Python Interpreter Initialized<--
19:06:21.0378 T:3040865168 M:530272256   DEBUG: Process - The source file to load is special://home/apps/info.mimediacenter.tvalacarta/default.py
19:06:21.0378 T:3040865168 M:530272256   DEBUG: Process - Setting the Python path to //.boxee/UserData/apps/info.mimediacenter.tvalacarta:/opt/local/lib/python2.4/python24.zip:/opt/local/lib/python2.4:/opt/local/lib/python2.4/plat-linux2:/opt/local/lib/python2.4/lib-dynload:/opt/local/lib/python2.4/site-packages:/opt/boxee/system/python/local:/opt/local/lib/python24.zip:/opt/local/lib/python2.4/:/opt/local/lib/python2.4/plat-linux2:/opt/local/lib/python2.4/lib-tk:/opt/local/lib/python2.4/lib-dynload
19:06:21.0378 T:3040865168 M:530272256   DEBUG: Process - Entering source directory //.boxee/UserData/apps/info.mimediacenter.tvalacarta
19:06:21.0408 T:3040865168 M:530272256  NOTICE: [config.py] boxee config 3.0.1
19:06:21.0441 T:3040865168 M:530272256  NOTICE: [config.py] runtime path = //.boxee/UserData/apps/info.mimediacenter.tvalacarta
19:06:21.0442 T:3040865168 M:530272256  NOTICE: [config.py] data path = //.boxee/UserData/apps/info.mimediacenter.tvalacarta
19:06:21.0443 T:3040865168 M:530272256  NOTICE: [config.py] language file path //.boxee/UserData/apps/info.mimediacenter.tvalacarta/resources/language/Spanish/strings.xml
19:06:21.0444 T:3040865168 M:530272256  NOTICE: [config.py] temp path = /tmp/boxee/test
19:06:21.0444 T:3040865168 M:530272256  NOTICE: [config.py] plugin path = //.boxee/UserData/plugins/video/info.mimediacenter.tvalacarta
19:06:21.0445 T:3040865168 M:530272256  NOTICE: [config.py] version = 3.0.1
19:06:21.0460 T:3040865168 M:530272256  NOTICE: [default.py] tvalacarta init...
19:06:22.0716 T:3040865168 M:530145280  NOTICE: [tvalacarta.py] run
19:06:22.0718 T:3040865168 M:530145280  NOTICE: [tvalacarta.py] sys.argv=['plugin://video/info.mimediacenter.tvalacarta', '0', '?channel=configuracion&action=mainlist&category=Configuraci\xc3\xb3n']
19:06:22.0719 T:3040865168 M:530145280  NOTICE: [tvalacarta.py] params={'action': 'mainlist', 'category': 'Configuraci\xc3\xb3n', 'channel': 'configuracion'}
19:06:22.0720 T:3040865168 M:530145280  NOTICE: [channelselector.py] canal normal
19:06:22.0752 T:3040865168 M:530026496  NOTICE: exceptions.ImportError
19:06:22.0754 T:3040865168 M:530026496  NOTICE: No module named configuracion
19:06:22.0754 T:3040865168 M:530026496  NOTICE: <traceback object at 0xb09b3e64>
19:06:22.0755 T:3040865168 M:530026496  NOTICE: [channelselector.py] canal core
19:06:22.0808 T:3040865168 M:530030592  NOTICE: [configuracion.py] init
19:06:22.0809 T:3040865168 M:530030592  NOTICE: generico=
19:06:22.0810 T:3040865168 M:530030592  NOTICE: False
19:06:22.0811 T:3040865168 M:530030592  NOTICE: [configuracion.py] mainlist
19:06:22.0812 T:3040865168 M:530030592  NOTICE: [downloadtools.py] downloadpath está vacio
19:06:22.0814 T:3040865168 M:530030592  NOTICE: [downloadtools.py] downloadpath en el skin es
19:06:22.0836 T:3040865168 M:530030592  NOTICE: [downloadtools.py] getDownloadPath: downloadpath=//.boxee/UserData/apps/info.mimediacenter.tvalacarta/downloads
19:06:22.0837 T:3040865168 M:530030592  NOTICE: [downliadtools.py] download path doesn't exist://.boxee/UserData/apps/info.mimediacenter.tvalacarta/downloads
19:06:22.0838 T:3040865168 M:530030592  NOTICE: [downloadtools.py] downloadpath=//.boxee/UserData/apps/info.mimediacenter.tvalacarta/downloads
19:06:22.0839 T:3040865168 M:530030592  NOTICE: [downloadtools.py] downloadpath está vacio
19:06:22.0840 T:3040865168 M:530034688  NOTICE: [downloadtools.py] downloadpath en el skin es
19:06:22.0841 T:3040865168 M:530034688  NOTICE: [downloadtools.py] getDownloadPath: downloadpath=//.boxee/UserData/apps/info.mimediacenter.tvalacarta/downloads/list
19:06:22.0843 T:3040865168 M:530034688  NOTICE: [downliadtools.py] download path doesn't exist://.boxee/UserData/apps/info.mimediacenter.tvalacarta/downloads/list
19:06:22.0844 T:3040865168 M:530034688  NOTICE: [downloadtools.py] downloadlistpath=//.boxee/UserData/apps/info.mimediacenter.tvalacarta/downloads/list
19:06:22.0845 T:3040865168 M:530034688    INFO: Scriptresult: Success
19:06:23.0275 T:3033766800 M:530034688   DEBUG: no gui sound for 2 seconds. pausing device
19:06:23.0348 T:3040865168 M:530034688    INFO: Python script stopped
19:06:23.0349 T:3040865168 M:530034688   DEBUG: Thread 3040865168 terminating
19:06:23.0375 T:3074115360 M:530042880   DEBUG: python thread 3 destructed
19:06:23.0419 T:3074115360 M:530042880   DEBUG:  WaitOnScriptResult - plugin exited prematurely - terminating
19:06:23.0420 T:3074115360 M:530042880   DEBUG: GetDirectory - Error getting plugin://video/info.mimediacenter.tvalacarta?channel=configuracion&action=mainlist&category=Configuración
19:06:23.0420 T:3074115360 M:530042880   DEBUG: CGetDirectoryJob::DoWork, NEWUI, could not load directory, path = plugin://video/info.mimediacenter.tvalacarta?channel=configuracion&action=mainlist&category=Configuración
19:06:23.0421 T:3074115360 M:530042880   DEBUG: CItemLoader::AddControl, added directory job, path = plugin://video/info.mimediacenter.tvalacarta?channel=configuracion&action=mainlist&category=Configuración (browse)
19:06:23.0441 T:3074115360 M:530042880   ERROR: CGUIWindowBoxeeBrowse::OnMessage, GUI_MSG_LOAD_FAILED (browse)
19:06:23.0442 T:3074115360 M:530042880   DEBUG: Loading skin file: DialogOK2.xml
19:06:23.0450 T:3074115360 M:530046976   DEBUG: Load DialogOK2.xml: 7.41ms
19:06:23.0451 T:3074115360 M:530046976   DEBUG: ------ Window Init (DialogOK2.xml) ------
19:06:23.0451 T:3074115360 M:530046976   DEBUG: Alloc resources: 0.12ms (0.00 ms skin load)
19:06:23.0917 T:3074115360 M:530173952   DEBUG: ------ Window Deinit (DialogProgress.xml) ------
19:06:28.0378 T:3074115360 M:530182144   DEBUG: (dbg) FreeMem 517756/644016 Kb, FPS 50.0, CPU0: 19.7%  Loader Q:[0] Textures:[70 (23.49 M)] SERVER: [67.225.149.139] ver: 1.0.4.17443
19:06:28.0378 T:3074115360 M:530182144   DEBUG: (dbg)
19:06:28.0775 T:3074115360 M:530182144   DEBUG: SDLKeyboard: scancode: 28, sym: 13, unicode: 0, modifier: 0
19:06:28.0775 T:3074115360 M:530182144   DEBUG: CApplication::OnKey - [key=61453][window=10475][action=7]
19:06:28.0775 T:3074115360 M:530182144   DEBUG: OnKey: 61453 pressed, action is 7
19:06:28.0895 T:3074115360 M:530182144   DEBUG: ExecuteXBMCAction : Translating -
19:06:28.0895 T:3074115360 M:530182144   DEBUG: ExecuteXBMCAction : To -
19:06:29.0106 T:3074115360 M:530309120   DEBUG: ------ Window Deinit (DialogOK2.xml) ------
19:06:29.0114 T:3074115360 M:530309120   DEBUG: CBrowseWindowStateHistory::IsEmpty, History for id = 10494 is not empty (history)
19:06:29.0115 T:3074115360 M:530309120   DEBUG: CBrowseWindowSource::ClearItems, clear source, path = plugin://video/info.mimediacenter.tvalacarta (browse)
19:06:29.0115 T:3074115360 M:530309120   DEBUG: CBrowseWindowSource::RequestItems, source base path = plugin://video/info.mimediacenter.tvalacarta, requested path = plugin://video/info.mimediacenter.tvalacarta, for window id = 10494 (browse)
19:06:29.0116 T:3074115360 M:530309120   DEBUG: CItemLoader::AddControl, window = 10494, control = 0, path = plugin://video/info.mimediacenter.tvalacarta (browse)
19:06:29.0116 T:3074115360 M:530309120   DEBUG: CItemLoader::AddControl, 3 GUI_MSG_LOADING, window = 10494, control = 0 (basecontainer)
19:06:29.0116 T:3074115360 M:530309120   DEBUG: CGUIWindowBoxeeBrowse::OnMessage, 4 GUI_MSG_LOADING, window = 10494, control = 52 (basecontainer) (browse)
19:06:29.0116 T:3074115360 M:530309120   DEBUG: CGetDirectoryJob::DoWork, NEWUI, loading directory, path = plugin://video/info.mimediacenter.tvalacarta
19:06:29.0117 T:3074115360 M:530313216   DEBUG: GetDirectory - URL for plugin settings: info.mimediacenter.tvalacarta
19:06:29.0126 T:3074115360 M:530313216   DEBUG: GetDirectory - calling plugin special://home/apps/info.mimediacenter.tvalacarta/default.py('plugin://video/info.mimediacenter.tvalacarta','0','')
19:06:29.0127 T:3074115360 M:530313216   DEBUG: new python thread created. id=4
19:06:29.0127 T:3040865168 M:530305024   DEBUG: thread start, auto delete: 0
19:06:29.0127 T:3040865168 M:530305024   DEBUG: Python thread: start processing
19:06:29.0156 T:3074115360 M:530305024   DEBUG: WaitOnScriptResult - waiting on the info.mimediacenter.tvalacarta plugin...
19:06:29.0180 T:3074115360 M:530305024   DEBUG: Loading skin file: DialogProgress.xml
19:06:29.0186 T:3074115360 M:530305024   DEBUG: Load DialogProgress.xml: 6.30ms
19:06:29.0187 T:3074115360 M:530305024   DEBUG: ------ Window Init (DialogProgress.xml) ------
19:06:29.0187 T:3074115360 M:530305024   DEBUG: Alloc resources: 0.21ms (0.00 ms skin load)
19:06:29.0187 T:3074115360 M:530305024   ERROR: CGUIWindow::OnMessage - GUI_MSG_SETFOCUS - FAILED to get the control to focus for [id=10]. [WinId=10101]
19:06:29.0239 T:3040865168 M:530305024  NOTICE: -->Python Interpreter Initialized<--
19:06:29.0240 T:3040865168 M:530305024   DEBUG: Process - The source file to load is special://home/apps/info.mimediacenter.tvalacarta/default.py
19:06:29.0241 T:3040865168 M:530305024   DEBUG: Process - Setting the Python path to //.boxee/UserData/apps/info.mimediacenter.tvalacarta:/opt/local/lib/python2.4/python24.zip:/opt/local/lib/python2.4:/opt/local/lib/python2.4/plat-linux2:/opt/local/lib/python2.4/lib-dynload:/opt/local/lib/python2.4/site-packages:/opt/boxee/system/python/local:/opt/local/lib/python24.zip:/opt/local/lib/python2.4/:/opt/local/lib/python2.4/plat-linux2:/opt/local/lib/python2.4/lib-tk:/opt/local/lib/python2.4/lib-dynload
19:06:29.0241 T:3040865168 M:530305024   DEBUG: Process - Entering source directory //.boxee/UserData/apps/info.mimediacenter.tvalacarta
19:06:29.0273 T:3040865168 M:530051072  NOTICE: [config.py] boxee config 3.0.1
19:06:29.0302 T:3040865168 M:530051072  NOTICE: [config.py] runtime path = //.boxee/UserData/apps/info.mimediacenter.tvalacarta
19:06:29.0303 T:3040865168 M:530051072  NOTICE: [config.py] data path = //.boxee/UserData/apps/info.mimediacenter.tvalacarta
19:06:29.0304 T:3040865168 M:530051072  NOTICE: [config.py] language file path //.boxee/UserData/apps/info.mimediacenter.tvalacarta/resources/language/Spanish/strings.xml
19:06:29.0304 T:3040865168 M:530051072  NOTICE: [config.py] temp path = /tmp/boxee/test
19:06:29.0305 T:3040865168 M:530051072  NOTICE: [config.py] plugin path = //.boxee/UserData/plugins/video/info.mimediacenter.tvalacarta
19:06:29.0306 T:3040865168 M:530051072  NOTICE: [config.py] version = 3.0.1
19:06:29.0320 T:3040865168 M:530051072  NOTICE: [default.py] tvalacarta init...
19:06:30.0579 T:3040865168 M:530051072  NOTICE: [tvalacarta.py] run
19:06:30.0581 T:3040865168 M:530051072  NOTICE: [tvalacarta.py] sys.argv=['plugin://video/info.mimediacenter.tvalacarta', '0', '']
19:06:30.0582 T:3040865168 M:530051072  NOTICE: [tvalacarta.py] params={}
19:06:30.0670 T:3040865168 M:530051072  NOTICE: [scrapertools.py] init
19:06:30.0671 T:3040865168 M:530051072  NOTICE: [scrapertools.py] CACHE_PATH=/tmp/boxee/cache
19:06:30.0673 T:3040865168 M:530051072  NOTICE: [channelselector.py] mainlist
19:06:30.0679 T:3040865168 M:530051072  NOTICE: [channelselector.py] Verificar actualizaciones desactivado
19:06:30.0708 T:3040865168 M:530051072  NOTICE: [descargados.py] init
19:06:30.0721 T:3074115360 M:530051072   DEBUG: WaitOnScriptResult- plugin returned successfully
19:06:30.0724 T:3074115360 M:530051072   DEBUG: CItemLoader::AddControl, added directory job, path = plugin://video/info.mimediacenter.tvalacarta (browse)
19:06:30.0725 T:3074115360 M:530051072   DEBUG: CGUIFixedListContainer::ScrollToOffset, ENTER, m_cursor = 2, offset = 1, m_offset = 1 (scroll)
19:06:30.0725 T:3074115360 M:530055168   DEBUG: CGUIFixedListContainer::ScrollToOffset, mo 1 mc 2, nCurrOffset = 3, nTargetOffset = 3, m_items.size() = 4, m_itemsPerPage = 3 (scroll)
19:06:30.0726 T:3074115360 M:530055168   DEBUG: CGUIFixedListContainer::ScrollToOffset, EXIT, m_cursor = 2, offset = 1, m_offset = 1 (scroll)
19:06:30.0747 T:3040865168 M:530055168    INFO: Scriptresult: Success
19:06:30.0748 T:3074115360 M:530055168   DEBUG: CGUIWindowBoxeeBrowseSimpleApp::OnBind, sender = 10494, control = 0 (browse)
19:06:30.0748 T:3074115360 M:530055168   DEBUG: CBrowseWindowSourceController::BindItems received 4 items for path plugin://video/info.mimediacenter.tvalacarta (browse)
19:06:30.0749 T:3074115360 M:530055168   DEBUG: CBrowseWindowSource::BindItems, source id simpleappsource received 4 items for path plugin://video/info.mimediacenter.tvalacarta (browse)
19:06:30.0749 T:3074115360 M:530055168   DEBUG: CBrowseWindowSourceController::MergeSources, processing single source (browse) (merge)
19:06:30.0751 T:3074115360 M:530055168   DEBUG: CGUIWindowBoxeeBrowseSimpleApp::OnBind, sender = 10494, control = 52 (browse)
19:06:30.0752 T:3074115360 M:530055168   DEBUG: CGUIBaseContainer::CGUIBaseContainer,  GUI_MSG_LABEL_BIND, 52 (basecontainer)
19:06:30.0753 T:3074115360 M:530055168   DEBUG: CGUIFixedListContainer::ScrollToOffset, ENTER, m_cursor = 0, offset = 3, m_offset = 0 (scroll)
19:06:30.0753 T:3074115360 M:530055168   DEBUG: CGUIFixedListContainer::ScrollToOffset, mo 0 mc 0, nCurrOffset = 0, nTargetOffset = 3, m_items.size() = 4, m_itemsPerPage = 3 (scroll)
19:06:30.0754 T:3074115360 M:530055168   DEBUG: CGUIFixedListContainer::ScrollToOffset, EXIT, m_cursor = 2, offset = 3, m_offset = 1 (scroll)
19:06:30.0754 T:3074115360 M:530055168   DEBUG: CGUIFixedListContainer::ScrollToOffset, ENTER, m_cursor = 2, offset = 1, m_offset = 1 (scroll)
19:06:30.0755 T:3074115360 M:530055168   DEBUG: CGUIFixedListContainer::ScrollToOffset, mo 1 mc 2, nCurrOffset = 3, nTargetOffset = 3, m_items.size() = 4, m_itemsPerPage = 3 (scroll)
19:06:30.0755 T:3074115360 M:530055168   DEBUG: CGUIFixedListContainer::ScrollToOffset, EXIT, m_cursor = 2, offset = 1, m_offset = 1 (scroll)
19:06:30.0820 T:3033766800 M:530309120   DEBUG: no gui sound for 2 seconds. pausing device
19:06:30.0924 T:3038759824 M:530300928   DEBUG: CDirectoryCache::UpdateItem, CACHE updating dirPath = plugin://video/info.mimediacenter.tvalacarta , cacheId =  , item = Configuración, path = plugin://video/info.mimediacenter.tvalacarta?channel=configuracion&action=mainlist&category=Configuración (dircache)
19:06:30.0925 T:3038759824 M:530300928   DEBUG: CDirectoryCache::UpdateItem, found the relevant dir - strDirPath = plugin://video/info.mimediacenter.tvalacarta (dircache)
19:06:30.0925 T:3038759824 M:530300928   DEBUG: CDirectoryCache::UpdateItem, found the item - strItemPath = plugin://video/info.mimediacenter.tvalacarta?channel=configuracion&action=mainlist&category=Configuración (dircache)
19:06:30.0930 T:3038759824 M:530292736   DEBUG: CDirectoryCache::UpdateItem, CACHE updating dirPath = plugin://video/info.mimediacenter.tvalacarta , cacheId =  , item = Descargas, path = plugin://video/info.mimediacenter.tvalacarta?channel=descargados&action=mainlist&category=Descargas (dircache)
19:06:30.0931 T:3038759824 M:530292736   DEBUG: CDirectoryCache::UpdateItem, found the relevant dir - strDirPath = plugin://video/info.mimediacenter.tvalacarta (dircache)
19:06:30.0931 T:3038759824 M:530292736   DEBUG: CDirectoryCache::UpdateItem, found the item - strItemPath = plugin://video/info.mimediacenter.tvalacarta?channel=descargados&action=mainlist&category=Descargas (dircache)
19:06:30.0937 T:3038759824 M:530284544   DEBUG: CDirectoryCache::UpdateItem, CACHE updating dirPath = plugin://video/info.mimediacenter.tvalacarta , cacheId =  , item = Favoritos, path = plugin://video/info.mimediacenter.tvalacarta?channel=favoritos&action=mainlist&category=Favoritos (dircache)
19:06:30.0938 T:3038759824 M:530284544   DEBUG: CDirectoryCache::UpdateItem, found the relevant dir - strDirPath = plugin://video/info.mimediacenter.tvalacarta (dircache)
19:06:30.0938 T:3038759824 M:530288640   DEBUG: CDirectoryCache::UpdateItem, found the item - strItemPath = plugin://video/info.mimediacenter.tvalacarta?channel=favoritos&action=mainlist&category=Favoritos (dircache)
19:06:30.0944 T:3038759824 M:530296832   DEBUG: CDirectoryCache::UpdateItem, CACHE updating dirPath = plugin://video/info.mimediacenter.tvalacarta , cacheId =  , item = Canales, path = plugin://video/info.mimediacenter.tvalacarta?channel=channelselector&action=channeltypes&category=Canales (dircache)
19:06:30.0944 T:3038759824 M:530296832   DEBUG: CDirectoryCache::UpdateItem, found the relevant dir - strDirPath = plugin://video/info.mimediacenter.tvalacarta (dircache)
19:06:30.0945 T:3038759824 M:530296832   DEBUG: CDirectoryCache::UpdateItem, found the item - strItemPath = plugin://video/info.mimediacenter.tvalacarta?channel=channelselector&action=channeltypes&category=Canales (dircache)
19:06:31.0227 T:3074115360 M:530186240   DEBUG: ------ Window Deinit (DialogProgress.xml) ------
19:06:31.0249 T:3040865168 M:530186240    INFO: Python script stopped
19:06:31.0249 T:3040865168 M:530186240   DEBUG: Thread 3040865168 terminating
19:06:31.0254 T:3074115360 M:530194432   DEBUG: python thread 4 destructed
19:06:39.0021 T:3074115360 M:530386944   DEBUG: (dbg) FreeMem 517956/644016 Kb, FPS 50.0, CPU0: 40.8%  Loader Q:[0] Textures:[69 (23.49 M)] SERVER: [67.225.149.139] ver: 1.0.4.17443
19:06:39.0021 T:3074115360 M:530386944   DEBUG: (dbg)
19:06:43.0334 T:3074115360 M:530403328   DEBUG: SDLKeyboard: scancode: 28, sym: 13, unicode: 0, modifier: 0
19:06:43.0335 T:3074115360 M:530403328   DEBUG: CApplication::OnKey - [key=61453][window=10494][action=7]
19:06:43.0335 T:3074115360 M:530403328   DEBUG: OnKey: 61453 pressed, action is 7
19:06:43.0337 T:3074115360 M:530403328   DEBUG: CGUIWindowBoxeeBrowse::OnMessage, GUI_MSG_CLICKED, action = 7 (browse)
19:06:43.0338 T:3074115360 M:530403328   DEBUG: CGUIWindowBoxeeBrowse::OnClick, item clicked, path = plugin://video/info.mimediacenter.tvalacarta?channel=configuracion&action=mainlist&category=Configuración (browse)
19:06:43.0338 T:3074115360 M:530403328   DEBUG: ============================FileItem Dump Start===================================
19:06:43.0338 T:3074115360 M:530403328   DEBUG: Is Folder: true
19:06:43.0339 T:3074115360 M:530403328   DEBUG: Is Playable Folder: false
19:06:43.0339 T:3074115360 M:530403328   DEBUG: Is Parent Folder: false
19:06:43.0339 T:3074115360 M:530403328   DEBUG: Label: Configuración
19:06:43.0339 T:3074115360 M:530403328   DEBUG: Label2:
19:06:43.0339 T:3074115360 M:530403328   DEBUG: path: plugin://video/info.mimediacenter.tvalacarta?channel=configuracion&action=mainlist&category=Configuración
19:06:43.0340 T:3074115360 M:530403328   DEBUG: Label preformatted: false
19:06:43.0340 T:3074115360 M:530403328   DEBUG: Thumb: special://masterprofile/profiles/jvr1976/Thumbnails/Pictures/1/13d8d867.tbn
19:06:43.0340 T:3074115360 M:530403328   DEBUG: Icon: DefaultFolder.png
19:06:43.0341 T:3074115360 M:530403328   DEBUG: Title:
19:06:43.0341 T:3074115360 M:530403328   DEBUG: m_contenttype:
19:06:43.0341 T:3074115360 M:530403328   DEBUG: m_extrainfo:
19:06:43.0341 T:3074115360 M:530403328   DEBUG: Selected: false
19:06:43.0341 T:3074115360 M:530403328   DEBUG: Size: 0
19:06:43.0342 T:3074115360 M:530403328   DEBUG: m_iprogramCount: 0
19:06:43.0342 T:3074115360 M:530403328   DEBUG: m_idepth: 1
19:06:43.0342 T:3074115360 M:530403328   DEBUG: m_lStartOffset: 0
19:06:43.0343 T:3074115360 M:530403328   DEBUG: m_lEndOffset: 0
19:06:43.0343 T:3074115360 M:530403328   DEBUG: DVD Label:
19:06:43.0343 T:3074115360 M:530403328   DEBUG: OverlayIcon: 0
19:06:43.0344 T:3074115360 M:530403328   DEBUG: m_iDriveType: 0
19:06:43.0344 T:3074115360 M:530403328   DEBUG: m_bCanQueue: true
19:06:43.0344 T:3074115360 M:530403328   DEBUG: m_bIsShareOrDrive: false
19:06:43.0344 T:3074115360 M:530403328   DEBUG: m_dateTime: 1969-12-31
19:06:43.0344 T:3074115360 M:530403328   DEBUG: m_iLockMode: 0
19:06:43.0345 T:3074115360 M:530407424   DEBUG: m_strLockCode:
19:06:43.0345 T:3074115360 M:530407424   DEBUG: m_iBadPwdCount: 0
19:06:43.0345 T:3074115360 M:530407424   DEBUG: ** No video info tag
19:06:43.0346 T:3074115360 M:530407424   DEBUG: ** No music info tag
19:06:43.0346 T:3074115360 M:530407424   DEBUG: Properties (11):
19:06:43.0346 T:3074115360 M:530407424   DEBUG: [controlId] -> [0]
19:06:43.0346 T:3074115360 M:530407424   DEBUG: [directoryPath] -> [plugin://video/info.mimediacenter.tvalacarta]
19:06:43.0347 T:3074115360 M:530407424   DEBUG: [DisplayPath] -> [plugin://video/info.mimediacenter.tvalacarta?channel=configuracion&action=mainlist&category=Configuración]
19:06:43.0347 T:3074115360 M:530407424   DEBUG: [HasThumb] -> [1]
19:06:43.0347 T:3074115360 M:530407424   DEBUG: [index] -> [4]
19:06:43.0347 T:3074115360 M:530407424   DEBUG: [IsFolder] -> [1]
19:06:43.0347 T:3074115360 M:530407424   DEBUG: [isloaded] -> [1]
19:06:43.0348 T:3074115360 M:530407424   DEBUG: [IsPlugin] -> [1]
19:06:43.0348 T:3074115360 M:530407424   DEBUG: [itemid] -> [147997-3]
19:06:43.0348 T:3074115360 M:530407424   DEBUG: [parentPath] -> [plugin://video/info.mimediacenter.tvalacarta]
19:06:43.0348 T:3074115360 M:530407424   DEBUG: [windowId] -> [10494]
19:06:43.0349 T:3074115360 M:530407424   DEBUG: ** No external file item
19:06:43.0349 T:3074115360 M:530407424   DEBUG: ** No additional links
19:06:43.0349 T:3074115360 M:530407424   DEBUG: ============================FileItem Dump End===================================
19:06:43.0350 T:3074115360 M:530407424   DEBUG: CBrowseWindowState::OnClick, drill down into folder, path = plugin://video/info.mimediacenter.tvalacarta?channel=configuracion&action=mainlist&category=Configuración (browse)
19:06:43.0350 T:3074115360 M:530407424   DEBUG: CBrowseWindowSource::ClearItems, clear source, path = plugin://video/info.mimediacenter.tvalacarta (browse)
19:06:43.0351 T:3074115360 M:530407424   DEBUG: CBrowseWindowSource::ClearItems, clear source, path = plugin://video/info.mimediacenter.tvalacarta?channel=configuracion&action=mainlist&category=Configuración (browse)
19:06:43.0351 T:3074115360 M:530407424   DEBUG: CBrowseWindowSource::RequestItems, source base path = plugin://video/info.mimediacenter.tvalacarta?channel=configuracion&action=mainlist&category=Configuración, requested path = plugin://video/info.mimediacenter.tvalacarta?channel=configuracion&action=mainlist&category=Configuración, for window id = 10494 (browse)
19:06:43.0352 T:3074115360 M:530407424   DEBUG: CItemLoader::AddControl, window = 10494, control = 0, path = plugin://video/info.mimediacenter.tvalacarta?channel=configuracion&action=mainlist&category=Configuración (browse)
19:06:43.0352 T:3074115360 M:530407424   DEBUG: CItemLoader::AddControl, 3 GUI_MSG_LOADING, window = 10494, control = 0 (basecontainer)
19:06:43.0352 T:3074115360 M:530407424   DEBUG: CGUIWindowBoxeeBrowse::OnMessage, 4 GUI_MSG_LOADING, window = 10494, control = 52 (basecontainer) (browse)
19:06:43.0353 T:3074115360 M:530407424   DEBUG: CGetDirectoryJob::DoWork, NEWUI, loading directory, path = plugin://video/info.mimediacenter.tvalacarta?channel=configuracion&action=mainlist&category=Configuración
19:06:43.0354 T:3074115360 M:530407424   DEBUG: GetDirectory - URL for plugin settings: info.mimediacenter.tvalacarta
19:06:43.0363 T:3074115360 M:530407424   DEBUG: GetDirectory - calling plugin special://home/apps/info.mimediacenter.tvalacarta/default.py('plugin://video/info.mimediacenter.tvalacarta','0','?channel=configuracion&action=mainlist&category=Configuración')
19:06:43.0364 T:3074115360 M:530407424   DEBUG: new python thread created. id=5
19:06:43.0364 T:3040865168 M:530399232   DEBUG: thread start, auto delete: 0
19:06:43.0365 T:3040865168 M:530399232   DEBUG: Python thread: start processing
19:06:43.0392 T:3074115360 M:530399232   DEBUG: WaitOnScriptResult - waiting on the info.mimediacenter.tvalacarta plugin...
19:06:43.0417 T:3074115360 M:530399232   DEBUG: Loading skin file: DialogProgress.xml
19:06:43.0424 T:3074115360 M:530399232   DEBUG: Load DialogProgress.xml: 6.82ms
19:06:43.0424 T:3074115360 M:530403328   DEBUG: ------ Window Init (DialogProgress.xml) ------
19:06:43.0425 T:3074115360 M:530403328   DEBUG: Alloc resources: 0.25ms (0.00 ms skin load)
19:06:43.0425 T:3074115360 M:530403328   ERROR: CGUIWindow::OnMessage - GUI_MSG_SETFOCUS - FAILED to get the control to focus for [id=10]. [WinId=10101]
19:06:43.0499 T:3040865168 M:529768448  NOTICE: -->Python Interpreter Initialized<--
19:06:43.0500 T:3040865168 M:529768448   DEBUG: Process - The source file to load is special://home/apps/info.mimediacenter.tvalacarta/default.py
19:06:43.0500 T:3040865168 M:529768448   DEBUG: Process - Setting the Python path to //.boxee/UserData/apps/info.mimediacenter.tvalacarta:/opt/local/lib/python2.4/python24.zip:/opt/local/lib/python2.4:/opt/local/lib/python2.4/plat-linux2:/opt/local/lib/python2.4/lib-dynload:/opt/local/lib/python2.4/site-packages:/opt/boxee/system/python/local:/opt/local/lib/python24.zip:/opt/local/lib/python2.4/:/opt/local/lib/python2.4/plat-linux2:/opt/local/lib/python2.4/lib-tk:/opt/local/lib/python2.4/lib-dynload
19:06:43.0500 T:3040865168 M:529768448   DEBUG: Process - Entering source directory //.boxee/UserData/apps/info.mimediacenter.tvalacarta
19:06:43.0530 T:3040865168 M:529895424  NOTICE: [config.py] boxee config 3.0.1
19:06:43.0559 T:3040865168 M:529895424  NOTICE: [config.py] runtime path = //.boxee/UserData/apps/info.mimediacenter.tvalacarta
19:06:43.0574 T:3040865168 M:529768448  NOTICE: [config.py] data path = //.boxee/UserData/apps/info.mimediacenter.tvalacarta
19:06:43.0574 T:3040865168 M:529768448  NOTICE: [config.py] language file path //.boxee/UserData/apps/info.mimediacenter.tvalacarta/resources/language/Spanish/strings.xml
19:06:43.0575 T:3040865168 M:529768448  NOTICE: [config.py] temp path = /tmp/boxee/test
19:06:43.0576 T:3040865168 M:529768448  NOTICE: [config.py] plugin path = //.boxee/UserData/plugins/video/info.mimediacenter.tvalacarta
19:06:43.0576 T:3040865168 M:529768448  NOTICE: [config.py] version = 3.0.1
19:06:43.0578 T:3040865168 M:529768448  NOTICE: [default.py] tvalacarta init...
19:06:44.0820 T:3040865168 M:530022400  NOTICE: [tvalacarta.py] run
19:06:44.0821 T:3040865168 M:530022400  NOTICE: [tvalacarta.py] sys.argv=['plugin://video/info.mimediacenter.tvalacarta', '0', '?channel=configuracion&action=mainlist&category=Configuraci\xc3\xb3n']
19:06:44.0823 T:3040865168 M:530022400  NOTICE: [tvalacarta.py] params={'action': 'mainlist', 'category': 'Configuraci\xc3\xb3n', 'channel': 'configuracion'}
19:06:44.0824 T:3040865168 M:530022400  NOTICE: [channelselector.py] canal normal
19:06:44.0828 T:3040865168 M:530022400  NOTICE: exceptions.ImportError
19:06:44.0829 T:3040865168 M:530022400  NOTICE: No module named configuracion
19:06:44.0830 T:3040865168 M:530022400  NOTICE: <traceback object at 0xa3a9a04>
19:06:44.0831 T:3040865168 M:530022400  NOTICE: [channelselector.py] canal core
19:06:44.0879 T:3040865168 M:530022400  NOTICE: [configuracion.py] init
19:06:44.0881 T:3040865168 M:530022400  NOTICE: generico=
19:06:44.0881 T:3040865168 M:530022400  NOTICE: False
19:06:44.0883 T:3040865168 M:530022400  NOTICE: [configuracion.py] mainlist
19:06:44.0884 T:3040865168 M:530022400  NOTICE: [downloadtools.py] downloadpath está vacio
19:06:44.0906 T:3040865168 M:530022400  NOTICE: [downloadtools.py] downloadpath en el skin es
19:06:44.0907 T:3040865168 M:530022400  NOTICE: [downloadtools.py] getDownloadPath: downloadpath=//.boxee/UserData/apps/info.mimediacenter.tvalacarta/downloads
19:06:44.0908 T:3040865168 M:530022400  NOTICE: [downloadtools.py] downloadpath=//.boxee/UserData/apps/info.mimediacenter.tvalacarta/downloads
19:06:44.0910 T:3040865168 M:530022400  NOTICE: [downloadtools.py] downloadpath está vacio
19:06:44.0911 T:3040865168 M:530022400  NOTICE: [downloadtools.py] downloadpath en el skin es
19:06:44.0912 T:3040865168 M:530022400  NOTICE: [downloadtools.py] getDownloadPath: downloadpath=//.boxee/UserData/apps/info.mimediacenter.tvalacarta/downloads/list
19:06:44.0914 T:3040865168 M:530022400  NOTICE: [downloadtools.py] downloadlistpath=//.boxee/UserData/apps/info.mimediacenter.tvalacarta/downloads/list
19:06:44.0915 T:3040865168 M:530026496    INFO: Scriptresult: Success
19:06:45.0381 T:3033766800 M:529899520   DEBUG: no gui sound for 2 seconds. pausing device
19:06:45.0418 T:3040865168 M:530026496    INFO: Python script stopped
19:06:45.0418 T:3040865168 M:530026496   DEBUG: Thread 3040865168 terminating
19:06:45.0457 T:3074115360 M:530034688   DEBUG: python thread 5 destructed
19:06:45.0501 T:3074115360 M:530034688   DEBUG:  WaitOnScriptResult - plugin exited prematurely - terminating
19:06:45.0501 T:3074115360 M:530034688   DEBUG: GetDirectory - Error getting plugin://video/info.mimediacenter.tvalacarta?channel=configuracion&action=mainlist&category=Configuración
19:06:45.0502 T:3074115360 M:530034688   DEBUG: CGetDirectoryJob::DoWork, NEWUI, could not load directory, path = plugin://video/info.mimediacenter.tvalacarta?channel=configuracion&action=mainlist&category=Configuración
19:06:45.0502 T:3074115360 M:530034688   DEBUG: CItemLoader::AddControl, added directory job, path = plugin://video/info.mimediacenter.tvalacarta?channel=configuracion&action=mainlist&category=Configuración (browse)
19:06:45.0524 T:3074115360 M:530034688   ERROR: CGUIWindowBoxeeBrowse::OnMessage, GUI_MSG_LOAD_FAILED (browse)
19:06:45.0524 T:3074115360 M:530034688   DEBUG: Loading skin file: DialogOK2.xml
19:06:45.0529 T:3074115360 M:530034688   DEBUG: Load DialogOK2.xml: 5.34ms
19:06:45.0530 T:3074115360 M:530034688   DEBUG: ------ Window Init (DialogOK2.xml) ------
19:06:45.0531 T:3074115360 M:530034688   DEBUG: Alloc resources: 0.30ms (0.00 ms skin load)
19:06:45.0997 T:3074115360 M:529907712   DEBUG: ------ Window Deinit (DialogProgress.xml) ------
19:06:48.0274 T:3074115360 M:530288640   DEBUG: SDLKeyboard: scancode: 28, sym: 13, unicode: 0, modifier: 0
19:06:48.0275 T:3074115360 M:530288640   DEBUG: CApplication::OnKey - [key=61453][window=10475][action=7]
19:06:48.0275 T:3074115360 M:530288640   DEBUG: OnKey: 61453 pressed, action is 7
19:06:48.0394 T:3074115360 M:530288640   DEBUG: ExecuteXBMCAction : Translating -
19:06:48.0395 T:3074115360 M:530288640   DEBUG: ExecuteXBMCAction : To -
19:06:48.0606 T:3074115360 M:530296832   DEBUG: ------ Window Deinit (DialogOK2.xml) ------
19:06:48.0614 T:3074115360 M:530296832   DEBUG: CBrowseWindowStateHistory::IsEmpty, History for id = 10494 is not empty (history)
19:06:48.0615 T:3074115360 M:530296832   DEBUG: CBrowseWindowSource::ClearItems, clear source, path = plugin://video/info.mimediacenter.tvalacarta (browse)
19:06:48.0615 T:3074115360 M:530296832   DEBUG: CBrowseWindowSource::RequestItems, source base path = plugin://video/info.mimediacenter.tvalacarta, requested path = plugin://video/info.mimediacenter.tvalacarta, for window id = 10494 (browse)
19:06:48.0615 T:3074115360 M:530296832   DEBUG: CItemLoader::AddControl, window = 10494, control = 0, path = plugin://video/info.mimediacenter.tvalacarta (browse)
19:06:48.0616 T:3074115360 M:530296832   DEBUG: CItemLoader::AddControl, 3 GUI_MSG_LOADING, window = 10494, control = 0 (basecontainer)
19:06:48.0616 T:3074115360 M:530296832   DEBUG: CGUIWindowBoxeeBrowse::OnMessage, 4 GUI_MSG_LOADING, window = 10494, control = 52 (basecontainer) (browse)
19:06:48.0616 T:3074115360 M:530296832   DEBUG: CGetDirectoryJob::DoWork, NEWUI, loading directory, path = plugin://video/info.mimediacenter.tvalacarta
19:06:48.0617 T:3074115360 M:530296832   DEBUG: GetDirectory - URL for plugin settings: info.mimediacenter.tvalacarta
19:06:48.0627 T:3074115360 M:530296832   DEBUG: GetDirectory - calling plugin special://home/apps/info.mimediacenter.tvalacarta/default.py('plugin://video/info.mimediacenter.tvalacarta','0','')
19:06:48.0627 T:3074115360 M:530296832   DEBUG: new python thread created. id=6
19:06:48.0628 T:3040865168 M:530288640   DEBUG: thread start, auto delete: 0
19:06:48.0628 T:3040865168 M:530288640   DEBUG: Python thread: start processing
19:06:48.0657 T:3074115360 M:530288640   DEBUG: WaitOnScriptResult - waiting on the info.mimediacenter.tvalacarta plugin...
19:06:48.0681 T:3074115360 M:530292736   DEBUG: Loading skin file: DialogProgress.xml
19:06:48.0687 T:3074115360 M:530292736   DEBUG: Load DialogProgress.xml: 6.53ms
19:06:48.0688 T:3074115360 M:530292736   DEBUG: ------ Window Init (DialogProgress.xml) ------
19:06:48.0688 T:3074115360 M:530292736   DEBUG: Alloc resources: 0.15ms (0.00 ms skin load)
19:06:48.0689 T:3074115360 M:530292736   ERROR: CGUIWindow::OnMessage - GUI_MSG_SETFOCUS - FAILED to get the control to focus for [id=10]. [WinId=10101]
19:06:48.0762 T:3040865168 M:529784832  NOTICE: -->Python Interpreter Initialized<--
19:06:48.0763 T:3040865168 M:529784832   DEBUG: Process - The source file to load is special://home/apps/info.mimediacenter.tvalacarta/default.py
19:06:48.0764 T:3040865168 M:529784832   DEBUG: Process - Setting the Python path to //.boxee/UserData/apps/info.mimediacenter.tvalacarta:/opt/local/lib/python2.4/python24.zip:/opt/local/lib/python2.4:/opt/local/lib/python2.4/plat-linux2:/opt/local/lib/python2.4/lib-dynload:/opt/local/lib/python2.4/site-packages:/opt/boxee/system/python/local:/opt/local/lib/python24.zip:/opt/local/lib/python2.4/:/opt/local/lib/python2.4/plat-linux2:/opt/local/lib/python2.4/lib-tk:/opt/local/lib/python2.4/lib-dynload
19:06:48.0764 T:3040865168 M:529784832   DEBUG: Process - Entering source directory //.boxee/UserData/apps/info.mimediacenter.tvalacarta
19:06:48.0792 T:3040865168 M:529911808  NOTICE: [config.py] boxee config 3.0.1
19:06:48.0826 T:3040865168 M:530038784  NOTICE: [config.py] runtime path = //.boxee/UserData/apps/info.mimediacenter.tvalacarta
19:06:48.0827 T:3040865168 M:530038784  NOTICE: [config.py] data path = //.boxee/UserData/apps/info.mimediacenter.tvalacarta
19:06:48.0827 T:3040865168 M:530038784  NOTICE: [config.py] language file path //.boxee/UserData/apps/info.mimediacenter.tvalacarta/resources/language/Spanish/strings.xml
19:06:48.0828 T:3040865168 M:530038784  NOTICE: [config.py] temp path = /tmp/boxee/test
19:06:48.0829 T:3040865168 M:530038784  NOTICE: [config.py] plugin path = //.boxee/UserData/plugins/video/info.mimediacenter.tvalacarta
19:06:48.0845 T:3040865168 M:529911808  NOTICE: [config.py] version = 3.0.1
19:06:48.0847 T:3040865168 M:529911808  NOTICE: [default.py] tvalacarta init...
19:06:50.0127 T:3040865168 M:529235968  NOTICE: [tvalacarta.py] run
19:06:50.0129 T:3040865168 M:529235968  NOTICE: [tvalacarta.py] sys.argv=['plugin://video/info.mimediacenter.tvalacarta', '0', '']
19:06:50.0130 T:3040865168 M:529235968  NOTICE: [tvalacarta.py] params={}
19:06:50.0241 T:3040865168 M:529117184  NOTICE: [scrapertools.py] init
19:06:50.0243 T:3040865168 M:529117184  NOTICE: [scrapertools.py] CACHE_PATH=/tmp/boxee/cache
19:06:50.0244 T:3040865168 M:529117184  NOTICE: [channelselector.py] mainlist
19:06:50.0251 T:3040865168 M:529117184  NOTICE: [channelselector.py] Verificar actualizaciones desactivado
19:06:50.0283 T:3040865168 M:529244160  NOTICE: [descargados.py] init
19:06:50.0297 T:3074115360 M:529244160   DEBUG: WaitOnScriptResult- plugin returned successfully
19:06:50.0300 T:3074115360 M:529244160   DEBUG: CItemLoader::AddControl, added directory job, path = plugin://video/info.mimediacenter.tvalacarta (browse)
19:06:50.0300 T:3074115360 M:529244160   DEBUG: CGUIFixedListContainer::ScrollToOffset, ENTER, m_cursor = 2, offset = 1, m_offset = 1 (scroll)
19:06:50.0301 T:3074115360 M:529244160   DEBUG: CGUIFixedListContainer::ScrollToOffset, mo 1 mc 2, nCurrOffset = 3, nTargetOffset = 3, m_items.size() = 4, m_itemsPerPage = 3 (scroll)
19:06:50.0301 T:3074115360 M:529244160   DEBUG: CGUIFixedListContainer::ScrollToOffset, EXIT, m_cursor = 2, offset = 1, m_offset = 1 (scroll)
19:06:50.0312 T:3040865168 M:529244160    INFO: Scriptresult: Success
19:06:50.0321 T:3033766800 M:529235968   DEBUG: no gui sound for 2 seconds. pausing device
19:06:50.0324 T:3074115360 M:529235968   DEBUG: CGUIWindowBoxeeBrowseSimpleApp::OnBind, sender = 10494, control = 0 (browse)
19:06:50.0325 T:3074115360 M:529235968   DEBUG: CBrowseWindowSourceController::BindItems received 4 items for path plugin://video/info.mimediacenter.tvalacarta (browse)
19:06:50.0325 T:3074115360 M:529240064   DEBUG: CBrowseWindowSource::BindItems, source id simpleappsource received 4 items for path plugin://video/info.mimediacenter.tvalacarta (browse)
19:06:50.0326 T:3074115360 M:529240064   DEBUG: CBrowseWindowSourceController::MergeSources, processing single source (browse) (merge)
19:06:50.0327 T:3074115360 M:529240064   DEBUG: CGUIWindowBoxeeBrowseSimpleApp::OnBind, sender = 10494, control = 52 (browse)
19:06:50.0327 T:3074115360 M:529240064   DEBUG: CGUIBaseContainer::CGUIBaseContainer,  GUI_MSG_LABEL_BIND, 52 (basecontainer)
19:06:50.0328 T:3074115360 M:529240064   DEBUG: CGUIFixedListContainer::ScrollToOffset, ENTER, m_cursor = 0, offset = 3, m_offset = 0 (scroll)
19:06:50.0328 T:3074115360 M:529240064   DEBUG: CGUIFixedListContainer::ScrollToOffset, mo 0 mc 0, nCurrOffset = 0, nTargetOffset = 3, m_items.size() = 4, m_itemsPerPage = 3 (scroll)
19:06:50.0328 T:3074115360 M:529240064   DEBUG: CGUIFixedListContainer::ScrollToOffset, EXIT, m_cursor = 2, offset = 3, m_offset = 1 (scroll)
19:06:50.0329 T:3074115360 M:529240064   DEBUG: CGUIFixedListContainer::ScrollToOffset, ENTER, m_cursor = 2, offset = 1, m_offset = 1 (scroll)
19:06:50.0331 T:3074115360 M:529248256   DEBUG: CGUIFixedListContainer::ScrollToOffset, mo 1 mc 2, nCurrOffset = 3, nTargetOffset = 3, m_items.size() = 4, m_itemsPerPage = 3 (scroll)
19:06:50.0331 T:3074115360 M:529248256   DEBUG: CGUIFixedListContainer::ScrollToOffset, EXIT, m_cursor = 2, offset = 1, m_offset = 1 (scroll)
19:06:50.0505 T:3038759824 M:529367040   DEBUG: CDirectoryCache::UpdateItem, CACHE updating dirPath = plugin://video/info.mimediacenter.tvalacarta , cacheId =  , item = Configuración, path = plugin://video/info.mimediacenter.tvalacarta?channel=configuracion&action=mainlist&category=Configuración (dircache)
19:06:50.0506 T:3038759824 M:529367040   DEBUG: CDirectoryCache::UpdateItem, found the relevant dir - strDirPath = plugin://video/info.mimediacenter.tvalacarta (dircache)
19:06:50.0506 T:3038759824 M:529367040   DEBUG: CDirectoryCache::UpdateItem, found the item - strItemPath = plugin://video/info.mimediacenter.tvalacarta?channel=configuracion&action=mainlist&category=Configuración (dircache)
19:06:50.0515 T:3038759824 M:529358848   DEBUG: CDirectoryCache::UpdateItem, CACHE updating dirPath = plugin://video/info.mimediacenter.tvalacarta , cacheId =  , item = Descargas, path = plugin://video/info.mimediacenter.tvalacarta?channel=descargados&action=mainlist&category=Descargas (dircache)
19:06:50.0516 T:3038759824 M:529358848   DEBUG: CDirectoryCache::UpdateItem, found the relevant dir - strDirPath = plugin://video/info.mimediacenter.tvalacarta (dircache)
19:06:50.0516 T:3038759824 M:529358848   DEBUG: CDirectoryCache::UpdateItem, found the item - strItemPath = plugin://video/info.mimediacenter.tvalacarta?channel=descargados&action=mainlist&category=Descargas (dircache)
19:06:50.0522 T:3038759824 M:529350656   DEBUG: CDirectoryCache::UpdateItem, CACHE updating dirPath = plugin://video/info.mimediacenter.tvalacarta , cacheId =  , item = Favoritos, path = plugin://video/info.mimediacenter.tvalacarta?channel=favoritos&action=mainlist&category=Favoritos (dircache)
19:06:50.0522 T:3038759824 M:529350656   DEBUG: CDirectoryCache::UpdateItem, found the relevant dir - strDirPath = plugin://video/info.mimediacenter.tvalacarta (dircache)
19:06:50.0523 T:3038759824 M:529350656   DEBUG: CDirectoryCache::UpdateItem, found the item - strItemPath = plugin://video/info.mimediacenter.tvalacarta?channel=favoritos&action=mainlist&category=Favoritos (dircache)
19:06:50.0532 T:3038759824 M:529350656   DEBUG: CDirectoryCache::UpdateItem, CACHE updating dirPath = plugin://video/info.mimediacenter.tvalacarta , cacheId =  , item = Canales, path = plugin://video/info.mimediacenter.tvalacarta?channel=channelselector&action=channeltypes&category=Canales (dircache)
19:06:50.0533 T:3038759824 M:529350656   DEBUG: CDirectoryCache::UpdateItem, found the relevant dir - strDirPath = plugin://video/info.mimediacenter.tvalacarta (dircache)
19:06:50.0533 T:3038759824 M:529235968   DEBUG: CDirectoryCache::UpdateItem, found the item - strItemPath = plugin://video/info.mimediacenter.tvalacarta?channel=channelselector&action=channeltypes&category=Canales (dircache)
19:06:50.0806 T:3074115360 M:529252352   DEBUG: ------ Window Deinit (DialogProgress.xml) ------
19:06:50.0818 T:3040865168 M:529252352    INFO: Python script stopped
19:06:50.0819 T:3040865168 M:529252352   DEBUG: Thread 3040865168 terminating
19:06:50.0834 T:3074115360 M:529260544   DEBUG: python thread 6 destructed
